<?xml version='1.0' encoding='UTF-8'?><gpx version="1.1" creator="JPX - https://github.com/jenetics/jpx" xmlns="http://www.topografix.com/GPX/1/1"><trk><trkseg><trkpt lat="45.46172990636155" lon="7.907289861815942"><ele>238.0</ele><time>2026-04-11T12:38:38.999Z</time></trkpt><trkpt lat="45.46162919377241" lon="7.907283969537114"><ele>238.0</ele><time>2026-04-11T12:38:51.999Z</time></trkpt><trkpt lat="45.46174335285666" lon="7.907266279511706"><ele>238.0</ele><time>2026-04-11T12:39:50.999Z</time></trkpt><trkpt lat="45.461685896692025" lon="7.907204198686361"><ele>238.0</ele><time>2026-04-11T12:42:59Z</time></trkpt><trkpt lat="45.4616571779228" lon="7.907059896858573"><ele>238.0</ele><time>2026-04-11T12:43:01Z</time></trkpt><trkpt lat="45.461564777959936" lon="7.9070328340674285"><ele>237.99999999999997</ele><time>2026-04-11T12:43:03Z</time></trkpt><trkpt lat="45.461498458674306" lon="7.90707682652116"><ele>238.0</ele><time>2026-04-11T12:43:04Z</time></trkpt><trkpt lat="45.46140542658362" lon="7.907114459629056"><ele>238.0</ele><time>2026-04-11T12:43:06Z</time></trkpt><trkpt lat="45.461341418095714" lon="7.907076836535873"><ele>238.0</ele><time>2026-04-11T12:43:08Z</time></trkpt><trkpt lat="45.46126974470986" lon="7.906984322087834"><ele>237.99999999999997</ele><time>2026-04-11T12:43:10Z</time></trkpt><trkpt lat="45.46126399252228" lon="7.906852284349495"><ele>238.0</ele><time>2026-04-11T12:43:12Z</time></trkpt><trkpt lat="45.46120740428349" lon="7.906742249208188"><ele>237.49999999999997</ele><time>2026-04-11T12:43:14Z</time></trkpt><trkpt lat="45.461170032399764" lon="7.906636313650884"><ele>237.0</ele><time>2026-04-11T12:43:16Z</time></trkpt><trkpt lat="45.46112082524517" lon="7.90656515462709"><ele>236.5</ele><time>2026-04-11T12:43:18Z</time></trkpt><trkpt lat="45.46102192476826" lon="7.9065699894866865"><ele>236.0</ele><time>2026-04-11T12:43:20Z</time></trkpt><trkpt lat="45.46096280597535" lon="7.90662321581187"><ele>235.49999999999997</ele><time>2026-04-11T12:43:21Z</time></trkpt><trkpt lat="45.46090472645562" lon="7.9066810823362985"><ele>235.0</ele><time>2026-04-11T12:43:22Z</time></trkpt><trkpt lat="45.46084522134471" lon="7.906722315765186"><ele>234.99999999999997</ele><time>2026-04-11T12:43:23Z</time></trkpt><trkpt lat="45.46077770122981" lon="7.906762606204773"><ele>235.0</ele><time>2026-04-11T12:43:24Z</time></trkpt><trkpt lat="45.46068775722725" lon="7.9067881505069035"><ele>235.0</ele><time>2026-04-11T12:43:25Z</time></trkpt><trkpt lat="45.46060866084179" lon="7.906810827636634"><ele>235.0</ele><time>2026-04-11T12:43:26Z</time></trkpt><trkpt lat="45.460533201418734" lon="7.906834356426264"><ele>234.99999999999997</ele><time>2026-04-11T12:43:27Z</time></trkpt><trkpt lat="45.46045084188156" lon="7.906858288139669"><ele>235.0</ele><time>2026-04-11T12:43:28Z</time></trkpt><trkpt lat="45.46036495521981" lon="7.906886505686637"><ele>234.66666666666666</ele><time>2026-04-11T12:43:29Z</time></trkpt><trkpt lat="45.46027788929797" lon="7.90692350179155"><ele>234.33333333333331</ele><time>2026-04-11T12:43:30Z</time></trkpt><trkpt lat="45.460192013496616" lon="7.906953775755131"><ele>234.0</ele><time>2026-04-11T12:43:31Z</time></trkpt><trkpt lat="45.46011375594291" lon="7.9069764787806225"><ele>233.66666666666669</ele><time>2026-04-11T12:43:32Z</time></trkpt><trkpt lat="45.46004201623462" lon="7.906983427599261"><ele>233.33333333333334</ele><time>2026-04-11T12:43:33Z</time></trkpt><trkpt lat="45.45998392807127" lon="7.906942783916408"><ele>233.0</ele><time>2026-04-11T12:43:34Z</time></trkpt><trkpt lat="45.45993605225339" lon="7.906871499892593"><ele>233.0</ele><time>2026-04-11T12:43:35Z</time></trkpt><trkpt lat="45.45989626307621" lon="7.906772383882571"><ele>233.0</ele><time>2026-04-11T12:43:36Z</time></trkpt><trkpt lat="45.459851624677114" lon="7.906679873108444"><ele>233.0</ele><time>2026-04-11T12:43:37Z</time></trkpt><trkpt lat="45.459800872193036" lon="7.9066054216954695"><ele>233.0</ele><time>2026-04-11T12:43:38Z</time></trkpt><trkpt lat="45.45974682489938" lon="7.906551887731136"><ele>233.0</ele><time>2026-04-11T12:43:39Z</time></trkpt><trkpt lat="45.45968382965168" lon="7.90653623839419"><ele>233.0</ele><time>2026-04-11T12:43:40Z</time></trkpt><trkpt lat="45.459612302342755" lon="7.906575150270983"><ele>233.0</ele><time>2026-04-11T12:43:41Z</time></trkpt><trkpt lat="45.45955206360535" lon="7.906665454861257"><ele>232.8</ele><time>2026-04-11T12:43:42Z</time></trkpt><trkpt lat="45.459492016662736" lon="7.906764994769955"><ele>232.60000000000002</ele><time>2026-04-11T12:43:43Z</time></trkpt><trkpt lat="45.45941695595581" lon="7.906867434142222"><ele>232.39999999999998</ele><time>2026-04-11T12:43:44Z</time></trkpt><trkpt lat="45.459343042205006" lon="7.906954383822371"><ele>232.2</ele><time>2026-04-11T12:43:45Z</time></trkpt><trkpt lat="45.45926357978513" lon="7.90706048112361"><ele>232.0</ele><time>2026-04-11T12:43:46Z</time></trkpt><trkpt lat="45.45919948737465" lon="7.907155167050141"><ele>232.0</ele><time>2026-04-11T12:43:47Z</time></trkpt><trkpt lat="45.45914510319298" lon="7.907263585357581"><ele>232.0</ele><time>2026-04-11T12:43:48Z</time></trkpt><trkpt lat="45.45907597624243" lon="7.907378866849498"><ele>232.0</ele><time>2026-04-11T12:43:49Z</time></trkpt><trkpt lat="45.45900039185951" lon="7.907500717157867"><ele>232.0</ele><time>2026-04-11T12:43:50Z</time></trkpt><trkpt lat="45.45892059198333" lon="7.907617353045241"><ele>232.0</ele><time>2026-04-11T12:43:51Z</time></trkpt><trkpt lat="45.45884638657897" lon="7.907733010931188"><ele>232.25</ele><time>2026-04-11T12:43:52Z</time></trkpt><trkpt lat="45.458770511817995" lon="7.907846838763853"><ele>232.5</ele><time>2026-04-11T12:43:53Z</time></trkpt><trkpt lat="45.45869875238736" lon="7.907961345858277"><ele>232.75</ele><time>2026-04-11T12:43:54Z</time></trkpt><trkpt lat="45.458595873808754" lon="7.908074537647089"><ele>233.0</ele><time>2026-04-11T12:43:55Z</time></trkpt><trkpt lat="45.458509490395514" lon="7.908197483944854"><ele>233.0</ele><time>2026-04-11T12:43:56Z</time></trkpt><trkpt lat="45.45843365911937" lon="7.908323011788029"><ele>233.0</ele><time>2026-04-11T12:43:57Z</time></trkpt><trkpt lat="45.45834782037861" lon="7.908425229428853"><ele>233.0</ele><time>2026-04-11T12:43:58Z</time></trkpt><trkpt lat="45.45826864215152" lon="7.908572343597563"><ele>233.0</ele><time>2026-04-11T12:43:59Z</time></trkpt><trkpt lat="45.45819125297675" lon="7.908714666085473"><ele>233.25</ele><time>2026-04-11T12:44:00Z</time></trkpt><trkpt lat="45.4580949428777" lon="7.908832935306881"><ele>233.5</ele><time>2026-04-11T12:44:01Z</time></trkpt><trkpt lat="45.45801040004279" lon="7.9089642149881"><ele>233.75</ele><time>2026-04-11T12:44:02.001Z</time></trkpt><trkpt lat="45.457939080849755" lon="7.9091002644134605"><ele>234.0</ele><time>2026-04-11T12:44:03.001Z</time></trkpt><trkpt lat="45.45786094661455" lon="7.909227306170986"><ele>233.5</ele><time>2026-04-11T12:44:04.001Z</time></trkpt><trkpt lat="45.457785513722925" lon="7.909347899552006"><ele>233.0</ele><time>2026-04-11T12:44:05.001Z</time></trkpt><trkpt lat="45.45770916912692" lon="7.90946557688654"><ele>232.5</ele><time>2026-04-11T12:44:06.001Z</time></trkpt><trkpt lat="45.45762455882258" lon="7.909599351133554"><ele>232.0</ele><time>2026-04-11T12:44:07.001Z</time></trkpt><trkpt lat="45.45754434678052" lon="7.9097278182845585"><ele>232.0</ele><time>2026-04-11T12:44:08.001Z</time></trkpt><trkpt lat="45.4574580067274" lon="7.909859990928364"><ele>232.0</ele><time>2026-04-11T12:44:09.001Z</time></trkpt><trkpt lat="45.457381996598244" lon="7.909983289150123"><ele>232.0</ele><time>2026-04-11T12:44:10.001Z</time></trkpt><trkpt lat="45.45733016369624" lon="7.91012030503275"><ele>232.0</ele><time>2026-04-11T12:44:11.001Z</time></trkpt><trkpt lat="45.45727986389891" lon="7.910264253238249"><ele>232.0</ele><time>2026-04-11T12:44:12.001Z</time></trkpt><trkpt lat="45.45727475220646" lon="7.910419208506083"><ele>232.0</ele><time>2026-04-11T12:44:13.001Z</time></trkpt><trkpt lat="45.45705948567186" lon="7.91049273608736"><ele>232.0</ele><time>2026-04-11T12:44:14.001Z</time></trkpt><trkpt lat="45.45697556935865" lon="7.910617254218676"><ele>232.0</ele><time>2026-04-11T12:44:15.001Z</time></trkpt><trkpt lat="45.45689419295429" lon="7.910752886052909"><ele>232.0</ele><time>2026-04-11T12:44:16.001Z</time></trkpt><trkpt lat="45.45681368883782" lon="7.910885908016575"><ele>232.0</ele><time>2026-04-11T12:44:17.001Z</time></trkpt><trkpt lat="45.45673768385807" lon="7.911021966677668"><ele>232.0</ele><time>2026-04-11T12:44:18.001Z</time></trkpt><trkpt lat="45.456659013694804" lon="7.911166359409165"><ele>232.0</ele><time>2026-04-11T12:44:19.001Z</time></trkpt><trkpt lat="45.45658317441798" lon="7.911306636888006"><ele>232.0</ele><time>2026-04-11T12:44:20.001Z</time></trkpt><trkpt lat="45.456502393648435" lon="7.911443517052752"><ele>232.0</ele><time>2026-04-11T12:44:21.001Z</time></trkpt><trkpt lat="45.456418184967205" lon="7.91157646777459"><ele>232.0</ele><time>2026-04-11T12:44:22.001Z</time></trkpt><trkpt lat="45.45633182651291" lon="7.911698785661873"><ele>231.5</ele><time>2026-04-11T12:44:23.001Z</time></trkpt><trkpt lat="45.45625347893448" lon="7.9118235074710554"><ele>231.0</ele><time>2026-04-11T12:44:24.001Z</time></trkpt><trkpt lat="45.4561747875774" lon="7.911947350082744"><ele>230.5</ele><time>2026-04-11T12:44:25.001Z</time></trkpt><trkpt lat="45.45609675859685" lon="7.912072517401568"><ele>230.0</ele><time>2026-04-11T12:44:26.001Z</time></trkpt><trkpt lat="45.45601729077084" lon="7.912199768077023"><ele>230.0</ele><time>2026-04-11T12:44:27.001Z</time></trkpt><trkpt lat="45.455936475578405" lon="7.912329647916048"><ele>230.0</ele><time>2026-04-11T12:44:28.001Z</time></trkpt><trkpt lat="45.45585396180975" lon="7.9124513246319435"><ele>230.0</ele><time>2026-04-11T12:44:29.001Z</time></trkpt><trkpt lat="45.455767394728724" lon="7.912575617706908"><ele>230.0</ele><time>2026-04-11T12:44:30.001Z</time></trkpt><trkpt lat="45.45568653434294" lon="7.912705548578462"><ele>230.0</ele><time>2026-04-11T12:44:31.001Z</time></trkpt><trkpt lat="45.45560597839017" lon="7.912832699019161"><ele>230.0</ele><time>2026-04-11T12:44:32.001Z</time></trkpt><trkpt lat="45.455529080099545" lon="7.912958005198165"><ele>230.0</ele><time>2026-04-11T12:44:33.001Z</time></trkpt><trkpt lat="45.45543942004659" lon="7.913086284656778"><ele>230.0</ele><time>2026-04-11T12:44:34.001Z</time></trkpt><trkpt lat="45.455350748747975" lon="7.9132241864172554"><ele>230.5</ele><time>2026-04-11T12:44:35.001Z</time></trkpt><trkpt lat="45.455266509233155" lon="7.913353836515148"><ele>231.0</ele><time>2026-04-11T12:44:36.001Z</time></trkpt><trkpt lat="45.455186416417185" lon="7.913469648597099"><ele>231.5</ele><time>2026-04-11T12:44:37.001Z</time></trkpt><trkpt lat="45.4551112212183" lon="7.913587970351217"><ele>232.0</ele><time>2026-04-11T12:44:38.001Z</time></trkpt><trkpt lat="45.455033457533666" lon="7.913723869800015"><ele>232.0</ele><time>2026-04-11T12:44:39.001Z</time></trkpt><trkpt lat="45.454952942765765" lon="7.913862816764587"><ele>232.0</ele><time>2026-04-11T12:44:40.001Z</time></trkpt><trkpt lat="45.45487779517258" lon="7.913990452824552"><ele>232.0</ele><time>2026-04-11T12:44:41.001Z</time></trkpt><trkpt lat="45.45467968307847" lon="7.913975093277231"><ele>232.0</ele><time>2026-04-11T12:44:42.001Z</time></trkpt><trkpt lat="45.45462032981974" lon="7.914077274989433"><ele>231.99999999999997</ele><time>2026-04-11T12:44:43.001Z</time></trkpt><trkpt lat="45.454563860428756" lon="7.914177008447465"><ele>232.0</ele><time>2026-04-11T12:44:44.001Z</time></trkpt><trkpt lat="45.45452111276375" lon="7.914266295168465"><ele>232.0</ele><time>2026-04-11T12:44:45.001Z</time></trkpt><trkpt lat="45.454466870434" lon="7.914328376040104"><ele>232.0</ele><time>2026-04-11T12:44:51.001Z</time></trkpt><trkpt lat="45.45443742077562" lon="7.91441735344279"><ele>231.99999999999997</ele><time>2026-04-11T12:44:52.001Z</time></trkpt><trkpt lat="45.454389889960304" lon="7.914513323691116"><ele>232.0</ele><time>2026-04-11T12:44:53.001Z</time></trkpt><trkpt lat="45.45434178956532" lon="7.9146119751975395"><ele>232.2</ele><time>2026-04-11T12:44:54.001Z</time></trkpt><trkpt lat="45.45425839147347" lon="7.914723101349825"><ele>232.39999999999998</ele><time>2026-04-11T12:44:55.001Z</time></trkpt><trkpt lat="45.45419145052944" lon="7.914836433498102"><ele>232.60000000000002</ele><time>2026-04-11T12:44:56.001Z</time></trkpt><trkpt lat="45.454126832752614" lon="7.91495244070924"><ele>232.8</ele><time>2026-04-11T12:44:57.001Z</time></trkpt><trkpt lat="45.4540563556124" lon="7.915075463605373"><ele>233.0</ele><time>2026-04-11T12:44:58.001Z</time></trkpt><trkpt lat="45.45398746651158" lon="7.91519995194455"><ele>233.0</ele><time>2026-04-11T12:44:59.001Z</time></trkpt><trkpt lat="45.453916057106156" lon="7.91532897940211"><ele>233.0</ele><time>2026-04-11T12:45:00.001Z</time></trkpt><trkpt lat="45.453832278177806" lon="7.915440553917764"><ele>233.0</ele><time>2026-04-11T12:45:01.001Z</time></trkpt><trkpt lat="45.45376091922269" lon="7.915559782559521"><ele>233.0</ele><time>2026-04-11T12:45:02.001Z</time></trkpt><trkpt lat="45.45368251028748" lon="7.915677952145248"><ele>233.0</ele><time>2026-04-11T12:45:03.001Z</time></trkpt><trkpt lat="45.45360948780326" lon="7.915802973103447"><ele>233.0</ele><time>2026-04-11T12:45:04.001Z</time></trkpt><trkpt lat="45.45353443554793" lon="7.915935366380724"><ele>233.0</ele><time>2026-04-11T12:45:05.001Z</time></trkpt><trkpt lat="45.45346068949039" lon="7.9160746580312855"><ele>233.0</ele><time>2026-04-11T12:45:06.001Z</time></trkpt><trkpt lat="45.45338425764982" lon="7.916207469935906"><ele>232.75</ele><time>2026-04-11T12:45:07.001Z</time></trkpt><trkpt lat="45.45330227948201" lon="7.916325243385997"><ele>232.5</ele><time>2026-04-11T12:45:08.001Z</time></trkpt><trkpt lat="45.453221766301716" lon="7.916450633330133"><ele>232.25</ele><time>2026-04-11T12:45:09.001Z</time></trkpt><trkpt lat="45.45315285295911" lon="7.916565777161578"><ele>232.0</ele><time>2026-04-11T12:45:10.001Z</time></trkpt><trkpt lat="45.4530828186821" lon="7.916685654645833"><ele>232.0</ele><time>2026-04-11T12:45:11.001Z</time></trkpt><trkpt lat="45.4530116855427" lon="7.916811263657839"><ele>232.0</ele><time>2026-04-11T12:45:12.001Z</time></trkpt><trkpt lat="45.45293314341964" lon="7.916940470239527"><ele>232.0</ele><time>2026-04-11T12:45:13.001Z</time></trkpt><trkpt lat="45.45285953212032" lon="7.9170608476632"><ele>232.0</ele><time>2026-04-11T12:45:14.001Z</time></trkpt><trkpt lat="45.45279296177599" lon="7.917188391512898"><ele>231.75</ele><time>2026-04-11T12:45:15.001Z</time></trkpt><trkpt lat="45.45272627577639" lon="7.9172999376360815"><ele>231.5</ele><time>2026-04-11T12:45:16.001Z</time></trkpt><trkpt lat="45.452650970827506" lon="7.91742692705928"><ele>231.25</ele><time>2026-04-11T12:45:17.001Z</time></trkpt><trkpt lat="45.45257165758826" lon="7.917554175511809"><ele>231.0</ele><time>2026-04-11T12:45:18.001Z</time></trkpt><trkpt lat="45.45249527850166" lon="7.917683912624015"><ele>230.75</ele><time>2026-04-11T12:45:19.001Z</time></trkpt><trkpt lat="45.45242390179988" lon="7.917822067087717"><ele>230.5</ele><time>2026-04-11T12:45:20.001Z</time></trkpt><trkpt lat="45.452351098784725" lon="7.917965023724455"><ele>230.25</ele><time>2026-04-11T12:45:21.001Z</time></trkpt><trkpt lat="45.45228683220193" lon="7.918099999676379"><ele>230.0</ele><time>2026-04-11T12:45:22.001Z</time></trkpt><trkpt lat="45.45221837856759" lon="7.918227716027511"><ele>230.0</ele><time>2026-04-11T12:45:23.001Z</time></trkpt><trkpt lat="45.4521506709276" lon="7.9183555819094265"><ele>230.0</ele><time>2026-04-11T12:45:24.001Z</time></trkpt><trkpt lat="45.45208441464742" lon="7.918473993645085"><ele>230.0</ele><time>2026-04-11T12:45:25.001Z</time></trkpt><trkpt lat="45.45199989182383" lon="7.918585733640057"><ele>230.0</ele><time>2026-04-11T12:45:26.001Z</time></trkpt><trkpt lat="45.451932854524415" lon="7.918705236827605"><ele>230.0</ele><time>2026-04-11T12:45:27.001Z</time></trkpt><trkpt lat="45.45186663701077" lon="7.918829489870088"><ele>230.2</ele><time>2026-04-11T12:45:28.001Z</time></trkpt><trkpt lat="45.45180299342319" lon="7.918952621220655"><ele>230.4</ele><time>2026-04-11T12:45:29.001Z</time></trkpt><trkpt lat="45.45173750798285" lon="7.919081219915455"><ele>230.60000000000002</ele><time>2026-04-11T12:45:30.001Z</time></trkpt><trkpt lat="45.45168748963022" lon="7.9192102119487275"><ele>230.8</ele><time>2026-04-11T12:45:31.001Z</time></trkpt><trkpt lat="45.4516124008355" lon="7.9192955787952535"><ele>231.0</ele><time>2026-04-11T12:45:32.001Z</time></trkpt><trkpt lat="45.45155237110059" lon="7.919386002273465"><ele>231.0</ele><time>2026-04-11T12:45:33.001Z</time></trkpt><trkpt lat="45.45146778549856" lon="7.919419609064199"><ele>231.00000000000003</ele><time>2026-04-11T12:45:34.001Z</time></trkpt><trkpt lat="45.45147258873512" lon="7.9196425285618"><ele>231.00000000000003</ele><time>2026-04-11T12:45:35.001Z</time></trkpt><trkpt lat="45.45141367158344" lon="7.919749869931853"><ele>231.0</ele><time>2026-04-11T12:45:36.001Z</time></trkpt><trkpt lat="45.45134782729939" lon="7.9198416357321415"><ele>231.0</ele><time>2026-04-11T12:45:37.001Z</time></trkpt><trkpt lat="45.45128725817082" lon="7.919938126411652"><ele>231.60000000000002</ele><time>2026-04-11T12:45:38.001Z</time></trkpt><trkpt lat="45.451216613242536" lon="7.9200347415458445"><ele>232.20000000000002</ele><time>2026-04-11T12:45:39.001Z</time></trkpt><trkpt lat="45.45115350888343" lon="7.920140576240156"><ele>232.79999999999998</ele><time>2026-04-11T12:45:40.001Z</time></trkpt><trkpt lat="45.45100087777287" lon="7.9201427515594425"><ele>233.39999999999998</ele><time>2026-04-11T12:45:41.001Z</time></trkpt><trkpt lat="45.45094600943372" lon="7.920234170069148"><ele>234.0</ele><time>2026-04-11T12:45:42.001Z</time></trkpt><trkpt lat="45.45087572979615" lon="7.9203381043776"><ele>234.0</ele><time>2026-04-11T12:45:43.001Z</time></trkpt><trkpt lat="45.45079546677155" lon="7.920398113033254"><ele>234.0</ele><time>2026-04-11T12:45:44.001Z</time></trkpt><trkpt lat="45.45071067597922" lon="7.920421575837642"><ele>234.0</ele><time>2026-04-11T12:45:45.001Z</time></trkpt><trkpt lat="45.450739167404286" lon="7.920831104021916"><ele>233.5</ele><time>2026-04-11T12:45:46.001Z</time></trkpt><trkpt lat="45.45065926945478" lon="7.920971787084139"><ele>233.0</ele><time>2026-04-11T12:45:47.001Z</time></trkpt><trkpt lat="45.450591048323375" lon="7.92109521978177"><ele>232.5</ele><time>2026-04-11T12:45:48.001Z</time></trkpt><trkpt lat="45.450516412794094" lon="7.9212176968029056"><ele>232.0</ele><time>2026-04-11T12:45:49.001Z</time></trkpt><trkpt lat="45.45043899118659" lon="7.921350354606724"><ele>232.0</ele><time>2026-04-11T12:45:50.001Z</time></trkpt><trkpt lat="45.450363423090224" lon="7.921482363039125"><ele>232.0</ele><time>2026-04-11T12:45:51.001Z</time></trkpt><trkpt lat="45.45028074850652" lon="7.921622740425166"><ele>232.0</ele><time>2026-04-11T12:45:52.001Z</time></trkpt><trkpt lat="45.450195167314234" lon="7.921765769059869"><ele>232.0</ele><time>2026-04-11T12:45:53.001Z</time></trkpt><trkpt lat="45.45011303933814" lon="7.921883741399696"><ele>231.75</ele><time>2026-04-11T12:45:54.001Z</time></trkpt><trkpt lat="45.45002446832057" lon="7.921971198695375"><ele>231.5</ele><time>2026-04-11T12:45:55.001Z</time></trkpt><trkpt lat="45.44992322336422" lon="7.922062635238192"><ele>231.25</ele><time>2026-04-11T12:45:56.001Z</time></trkpt><trkpt lat="45.449817937063656" lon="7.922159929857876"><ele>231.0</ele><time>2026-04-11T12:45:57.001Z</time></trkpt><trkpt lat="45.44971929985073" lon="7.922253044324108"><ele>231.0</ele><time>2026-04-11T12:45:58.001Z</time></trkpt><trkpt lat="45.449631681584414" lon="7.922338806674123"><ele>231.0</ele><time>2026-04-11T12:45:59.001Z</time></trkpt><trkpt lat="45.44955638905373" lon="7.922402741888748"><ele>231.0</ele><time>2026-04-11T12:46:00.001Z</time></trkpt><trkpt lat="45.44948398047684" lon="7.922445638981337"><ele>231.0</ele><time>2026-04-11T12:46:01.001Z</time></trkpt><trkpt lat="45.44941911329977" lon="7.922479508089093"><ele>231.0</ele><time>2026-04-11T12:46:02.001Z</time></trkpt><trkpt lat="45.449326245593376" lon="7.922532453414311"><ele>231.0</ele><time>2026-04-11T12:46:04.001Z</time></trkpt><trkpt lat="45.44922594295682" lon="7.922593744077197"><ele>231.0</ele><time>2026-04-11T12:46:06.001Z</time></trkpt><trkpt lat="45.44915265444311" lon="7.922629070794698"><ele>231.0</ele><time>2026-04-11T12:46:08.001Z</time></trkpt><trkpt lat="45.44907190728747" lon="7.922674711910705"><ele>231.0</ele><time>2026-04-11T12:46:11.001Z</time></trkpt><trkpt lat="45.448971185907446" lon="7.922711824987802"><ele>231.0</ele><time>2026-04-11T12:46:14.001Z</time></trkpt><trkpt lat="45.44889117392111" lon="7.9227525995396295"><ele>231.0</ele><time>2026-04-11T12:46:17.001Z</time></trkpt><trkpt lat="45.44880145475287" lon="7.922796337206382"><ele>231.0</ele><time>2026-04-11T12:46:20.001Z</time></trkpt><trkpt lat="45.44874412639319" lon="7.922834678055661"><ele>231.20000000000002</ele><time>2026-04-11T12:46:22.001Z</time></trkpt><trkpt lat="45.44864243342672" lon="7.922897050334514"><ele>231.40000000000003</ele><time>2026-04-11T12:46:25.001Z</time></trkpt><trkpt lat="45.44853462734876" lon="7.922931199882035"><ele>231.6</ele><time>2026-04-11T12:46:27.001Z</time></trkpt><trkpt lat="45.44845077612075" lon="7.922971217737882"><ele>231.8</ele><time>2026-04-11T12:46:28.001Z</time></trkpt><trkpt lat="45.44836408737314" lon="7.923015826800602"><ele>232.0</ele><time>2026-04-11T12:46:29.001Z</time></trkpt><trkpt lat="45.44826655364682" lon="7.923051141424447"><ele>232.0</ele><time>2026-04-11T12:46:30.001Z</time></trkpt><trkpt lat="45.44816327168949" lon="7.923081667837238"><ele>232.0</ele><time>2026-04-11T12:46:31.001Z</time></trkpt><trkpt lat="45.4480574781227" lon="7.923117095469917"><ele>232.0</ele><time>2026-04-11T12:46:32.001Z</time></trkpt><trkpt lat="45.44796102176146" lon="7.923150383458966"><ele>232.0</ele><time>2026-04-11T12:46:33.001Z</time></trkpt><trkpt lat="45.44785757041488" lon="7.923187096175176"><ele>232.0</ele><time>2026-04-11T12:46:34.001Z</time></trkpt><trkpt lat="45.44774468523492" lon="7.923250776037828"><ele>231.75</ele><time>2026-04-11T12:46:35.001Z</time></trkpt><trkpt lat="45.44761181459282" lon="7.923310185057904"><ele>231.5</ele><time>2026-04-11T12:46:36.001Z</time></trkpt><trkpt lat="45.44747096625114" lon="7.923368110062186"><ele>231.25</ele><time>2026-04-11T12:46:37.001Z</time></trkpt><trkpt lat="45.44732737136871" lon="7.923418569818537"><ele>231.0</ele><time>2026-04-11T12:46:38.001Z</time></trkpt><trkpt lat="45.44717999171799" lon="7.923484734163254"><ele>230.66666666666669</ele><time>2026-04-11T12:46:39.001Z</time></trkpt><trkpt lat="45.44702116244153" lon="7.9235427412468535"><ele>230.33333333333334</ele><time>2026-04-11T12:46:40.001Z</time></trkpt><trkpt lat="45.4468781491492" lon="7.923597617895303"><ele>230.0</ele><time>2026-04-11T12:46:41.001Z</time></trkpt><trkpt lat="45.44672858348528" lon="7.923652047864645"><ele>230.0</ele><time>2026-04-11T12:46:42.001Z</time></trkpt><trkpt lat="45.44658032085653" lon="7.923704208006452"><ele>230.0</ele><time>2026-04-11T12:46:43.001Z</time></trkpt><trkpt lat="45.44643257876167" lon="7.9237565173396485"><ele>230.0</ele><time>2026-04-11T12:46:44.001Z</time></trkpt><trkpt lat="45.44628338585239" lon="7.923812811046024"><ele>230.33333333333334</ele><time>2026-04-11T12:46:45.001Z</time></trkpt><trkpt lat="45.44613047130764" lon="7.923875353316977"><ele>230.66666666666669</ele><time>2026-04-11T12:46:46.001Z</time></trkpt><trkpt lat="45.44598376957622" lon="7.923929485163823"><ele>231.0</ele><time>2026-04-11T12:46:47.001Z</time></trkpt><trkpt lat="45.44584027962734" lon="7.923985424107924"><ele>231.0</ele><time>2026-04-11T12:46:48.001Z</time></trkpt><trkpt lat="45.445696635959436" lon="7.924040246997825"><ele>231.0</ele><time>2026-04-11T12:46:49.001Z</time></trkpt><trkpt lat="45.44555607577353" lon="7.924096262750241"><ele>231.0</ele><time>2026-04-11T12:46:50.001Z</time></trkpt><trkpt lat="45.44540560019771" lon="7.924144383195481"><ele>231.0</ele><time>2026-04-11T12:46:51.001Z</time></trkpt><trkpt lat="45.44525236419116" lon="7.924193823928631"><ele>231.25</ele><time>2026-04-11T12:46:52.001Z</time></trkpt><trkpt lat="45.44511141024194" lon="7.924240117938452"><ele>231.5</ele><time>2026-04-11T12:46:53.001Z</time></trkpt><trkpt lat="45.44496912479083" lon="7.924312659452177"><ele>231.75</ele><time>2026-04-11T12:46:54.001Z</time></trkpt><trkpt lat="45.44482592848593" lon="7.924375427059726"><ele>232.0</ele><time>2026-04-11T12:46:55.001Z</time></trkpt><trkpt lat="45.44468200586958" lon="7.924422732890255"><ele>231.66666666666666</ele><time>2026-04-11T12:46:56.001Z</time></trkpt><trkpt lat="45.44453851415103" lon="7.924476565893247"><ele>231.33333333333331</ele><time>2026-04-11T12:46:57.001Z</time></trkpt><trkpt lat="45.44438613048471" lon="7.924525112218873"><ele>231.0</ele><time>2026-04-11T12:46:58.001Z</time></trkpt><trkpt lat="45.44423912744002" lon="7.924580234292413"><ele>231.0</ele><time>2026-04-11T12:46:59.001Z</time></trkpt><trkpt lat="45.44409348171133" lon="7.9246372239611595"><ele>231.0</ele><time>2026-04-11T12:47:00.001Z</time></trkpt><trkpt lat="45.44396170775708" lon="7.924691297553851"><ele>231.0</ele><time>2026-04-11T12:47:01.001Z</time></trkpt><trkpt lat="45.443830782757885" lon="7.924741332111217"><ele>231.0</ele><time>2026-04-11T12:47:02.001Z</time></trkpt><trkpt lat="45.44369547220807" lon="7.924794679173989"><ele>231.0</ele><time>2026-04-11T12:47:03.001Z</time></trkpt><trkpt lat="45.44354739402338" lon="7.924854236995252"><ele>231.0</ele><time>2026-04-11T12:47:04.001Z</time></trkpt><trkpt lat="45.443403423129794" lon="7.9248983116342755"><ele>231.0</ele><time>2026-04-11T12:47:05.001Z</time></trkpt><trkpt lat="45.44326233511883" lon="7.924952124256736"><ele>231.0</ele><time>2026-04-11T12:47:06.001Z</time></trkpt><trkpt lat="45.44312274209877" lon="7.925010952688483"><ele>231.0</ele><time>2026-04-11T12:47:07.001Z</time></trkpt><trkpt lat="45.442996749300995" lon="7.925058798576481"><ele>231.0</ele><time>2026-04-11T12:47:08.001Z</time></trkpt><trkpt lat="45.44288439483694" lon="7.925104163402155"><ele>231.0</ele><time>2026-04-11T12:47:09.001Z</time></trkpt><trkpt lat="45.44278200983411" lon="7.92514786200883"><ele>231.0</ele><time>2026-04-11T12:47:10.001Z</time></trkpt><trkpt lat="45.44268852204385" lon="7.925181375404576"><ele>231.0</ele><time>2026-04-11T12:47:11.001Z</time></trkpt><trkpt lat="45.442602394172894" lon="7.925210160247941"><ele>231.0</ele><time>2026-04-11T12:47:12.001Z</time></trkpt><trkpt lat="45.442522992449454" lon="7.925240658263226"><ele>231.0</ele><time>2026-04-11T12:47:13.001Z</time></trkpt><trkpt lat="45.44245720839188" lon="7.925266789148667"><ele>231.0</ele><time>2026-04-11T12:47:14.001Z</time></trkpt><trkpt lat="45.44237936294186" lon="7.92527472825472"><ele>231.0</ele><time>2026-04-11T12:47:16.001Z</time></trkpt><trkpt lat="45.44240118620944" lon="7.925135498350303"><ele>231.0</ele><time>2026-04-11T12:47:19.001Z</time></trkpt><trkpt lat="45.44243613337184" lon="7.925001036659208"><ele>231.0</ele><time>2026-04-11T12:47:20.001Z</time></trkpt><trkpt lat="45.4424870179398" lon="7.924875190830578"><ele>231.0</ele><time>2026-04-11T12:47:21.001Z</time></trkpt><trkpt lat="45.44252114914752" lon="7.924742792536949"><ele>231.0</ele><time>2026-04-11T12:47:22.001Z</time></trkpt><trkpt lat="45.44253885700505" lon="7.924621318710705"><ele>231.0</ele><time>2026-04-11T12:47:23.001Z</time></trkpt><trkpt lat="45.44252836085321" lon="7.924516825897267"><ele>231.0</ele><time>2026-04-11T12:47:24.001Z</time></trkpt><trkpt lat="45.44248278493019" lon="7.92444097188653"><ele>231.0</ele><time>2026-04-11T12:47:25.001Z</time></trkpt><trkpt lat="45.442420615971564" lon="7.924402182623646"><ele>231.0</ele><time>2026-04-11T12:47:26.001Z</time></trkpt><trkpt lat="45.44234416890661" lon="7.9243626316727624"><ele>231.00000000000003</ele><time>2026-04-11T12:47:27.001Z</time></trkpt><trkpt lat="45.44225038849588" lon="7.9243426070923135"><ele>231.00000000000003</ele><time>2026-04-11T12:47:28.001Z</time></trkpt><trkpt lat="45.44213829602942" lon="7.924371747660349"><ele>231.0</ele><time>2026-04-11T12:47:29.001Z</time></trkpt><trkpt lat="45.44201437588358" lon="7.924411727282636"><ele>231.0</ele><time>2026-04-11T12:47:30.001Z</time></trkpt><trkpt lat="45.44188274922514" lon="7.924461548191496"><ele>231.0</ele><time>2026-04-11T12:47:31.001Z</time></trkpt><trkpt lat="45.441758914485185" lon="7.924509630587412"><ele>231.0</ele><time>2026-04-11T12:47:32.001Z</time></trkpt><trkpt lat="45.44162282652948" lon="7.924547514731452"><ele>231.0</ele><time>2026-04-11T12:47:33.001Z</time></trkpt><trkpt lat="45.44147189361886" lon="7.924570482055441"><ele>231.0</ele><time>2026-04-11T12:47:34.001Z</time></trkpt><trkpt lat="45.441330621369445" lon="7.924612402536445"><ele>231.25</ele><time>2026-04-11T12:47:35.001Z</time></trkpt><trkpt lat="45.44118957792572" lon="7.9246516339359205"><ele>231.5</ele><time>2026-04-11T12:47:36.001Z</time></trkpt><trkpt lat="45.441040505410925" lon="7.924687677775854"><ele>231.75</ele><time>2026-04-11T12:47:37.001Z</time></trkpt><trkpt lat="45.440888567196886" lon="7.924723088558326"><ele>232.0</ele><time>2026-04-11T12:47:38.001Z</time></trkpt><trkpt lat="45.44074418545715" lon="7.924756734856917"><ele>232.0</ele><time>2026-04-11T12:47:39.001Z</time></trkpt><trkpt lat="45.440606845047036" lon="7.924785580019037"><ele>232.0</ele><time>2026-04-11T12:47:40.001Z</time></trkpt><trkpt lat="45.44047308471208" lon="7.9248230971498055"><ele>232.0</ele><time>2026-04-11T12:47:41.001Z</time></trkpt><trkpt lat="45.440338572006354" lon="7.924847801424484"><ele>232.0</ele><time>2026-04-11T12:47:42.001Z</time></trkpt><trkpt lat="45.44021635603525" lon="7.924876438449331"><ele>231.75</ele><time>2026-04-11T12:47:43.001Z</time></trkpt><trkpt lat="45.44011336156866" lon="7.924900571395198"><ele>231.5</ele><time>2026-04-11T12:47:44.001Z</time></trkpt><trkpt lat="45.44003489242932" lon="7.924921317165838"><ele>231.25</ele><time>2026-04-11T12:47:45.001Z</time></trkpt><trkpt lat="45.44010014829259" lon="7.925237145665781"><ele>231.0</ele><time>2026-04-11T12:47:46.001Z</time></trkpt><trkpt lat="45.440085355271755" lon="7.925384573136008"><ele>230.75</ele><time>2026-04-11T12:47:47.001Z</time></trkpt><trkpt lat="45.440061348079944" lon="7.925557258393411"><ele>230.5</ele><time>2026-04-11T12:47:48.001Z</time></trkpt><trkpt lat="45.44002770870429" lon="7.925730365652026"><ele>230.25</ele><time>2026-04-11T12:47:49.001Z</time></trkpt><trkpt lat="45.439980122118314" lon="7.925885941294565"><ele>230.0</ele><time>2026-04-11T12:47:50.001Z</time></trkpt><trkpt lat="45.43994382888984" lon="7.926053608934802"><ele>230.0</ele><time>2026-04-11T12:47:51.001Z</time></trkpt><trkpt lat="45.439909328887495" lon="7.92622340563317"><ele>230.0</ele><time>2026-04-11T12:47:52.001Z</time></trkpt><trkpt lat="45.43987000945856" lon="7.926396894190979"><ele>230.0</ele><time>2026-04-11T12:47:53.001Z</time></trkpt><trkpt lat="45.439842304995246" lon="7.926569921145111"><ele>230.0</ele><time>2026-04-11T12:47:54.001Z</time></trkpt><trkpt lat="45.43980532936941" lon="7.926747259803009"><ele>230.0</ele><time>2026-04-11T12:47:55.001Z</time></trkpt><trkpt lat="45.43976845926037" lon="7.9269170890416785"><ele>230.0</ele><time>2026-04-11T12:47:56.001Z</time></trkpt><trkpt lat="45.43972692784406" lon="7.927079295208709"><ele>230.0</ele><time>2026-04-11T12:47:57.001Z</time></trkpt><trkpt lat="45.439699505680544" lon="7.9272098608893735"><ele>230.0</ele><time>2026-04-11T12:47:58.001Z</time></trkpt><trkpt lat="45.43969325857761" lon="7.927319590825572"><ele>230.0</ele><time>2026-04-11T12:47:59.001Z</time></trkpt><trkpt lat="45.439715279257506" lon="7.927439550274034"><ele>230.0</ele><time>2026-04-11T12:48:00.002Z</time></trkpt><trkpt lat="45.439820046094106" lon="7.927487398771517"><ele>230.0</ele><time>2026-04-11T12:48:01.002Z</time></trkpt><trkpt lat="45.439888372515306" lon="7.927566964310213"><ele>230.0</ele><time>2026-04-11T12:48:02.002Z</time></trkpt><trkpt lat="45.439963184670766" lon="7.927628131564583"><ele>230.0</ele><time>2026-04-11T12:48:03.002Z</time></trkpt><trkpt lat="45.44002793660185" lon="7.927681371942519"><ele>230.0</ele><time>2026-04-11T12:48:05.002Z</time></trkpt><trkpt lat="45.439794192843884" lon="7.9277230799180485"><ele>229.75</ele><time>2026-04-11T12:48:06.002Z</time></trkpt><trkpt lat="45.43975246139534" lon="7.927843972256205"><ele>229.5</ele><time>2026-04-11T12:48:07.002Z</time></trkpt><trkpt lat="45.43969944844799" lon="7.92799731820591"><ele>229.25</ele><time>2026-04-11T12:48:08.002Z</time></trkpt><trkpt lat="45.439631727031376" lon="7.928168832537679"><ele>229.0</ele><time>2026-04-11T12:48:09.002Z</time></trkpt><trkpt lat="45.439546881272065" lon="7.928358926137211"><ele>229.25</ele><time>2026-04-11T12:48:10.002Z</time></trkpt><trkpt lat="45.439445538097154" lon="7.928520544987854"><ele>229.5</ele><time>2026-04-11T12:48:11.002Z</time></trkpt><trkpt lat="45.43932831633331" lon="7.928628657886066"><ele>229.75</ele><time>2026-04-11T12:48:12.002Z</time></trkpt><trkpt lat="45.43920866905194" lon="7.928758769913736"><ele>230.0</ele><time>2026-04-11T12:48:13.002Z</time></trkpt><trkpt lat="45.43907254105684" lon="7.928935137703483"><ele>230.0</ele><time>2026-04-11T12:48:14.002Z</time></trkpt><trkpt lat="45.43895702131698" lon="7.928861872015453"><ele>230.0</ele><time>2026-04-11T12:48:15.002Z</time></trkpt><trkpt lat="45.439059568941005" lon="7.929701235117099"><ele>230.0</ele><time>2026-04-11T12:48:16.002Z</time></trkpt><trkpt lat="45.43896928871057" lon="7.929892513907775"><ele>230.0</ele><time>2026-04-11T12:48:17.002Z</time></trkpt><trkpt lat="45.43887973922397" lon="7.930088714883827"><ele>230.0</ele><time>2026-04-11T12:48:18.002Z</time></trkpt><trkpt lat="45.43878420651404" lon="7.930298315481544"><ele>230.33333333333334</ele><time>2026-04-11T12:48:19.002Z</time></trkpt><trkpt lat="45.438683602153205" lon="7.9305158870741765"><ele>230.66666666666669</ele><time>2026-04-11T12:48:20.002Z</time></trkpt><trkpt lat="45.43856963995832" lon="7.9307176485568265"><ele>231.0</ele><time>2026-04-11T12:48:21.002Z</time></trkpt><trkpt lat="45.43845518333533" lon="7.930925287634434"><ele>231.0</ele><time>2026-04-11T12:48:22.002Z</time></trkpt><trkpt lat="45.438352983417445" lon="7.931124900477546"><ele>231.0</ele><time>2026-04-11T12:48:23.002Z</time></trkpt><trkpt lat="45.43827075298805" lon="7.931323068330139"><ele>231.0</ele><time>2026-04-11T12:48:24.002Z</time></trkpt><trkpt lat="45.43817602294256" lon="7.931519148471506"><ele>231.0</ele><time>2026-04-11T12:48:25.002Z</time></trkpt><trkpt lat="45.43809137182996" lon="7.931718600330684"><ele>231.0</ele><time>2026-04-11T12:48:26.002Z</time></trkpt><trkpt lat="45.43800699402526" lon="7.93190377577894"><ele>231.0</ele><time>2026-04-11T12:48:27.002Z</time></trkpt><trkpt lat="45.43792348468899" lon="7.932092159995228"><ele>231.0</ele><time>2026-04-11T12:48:28.002Z</time></trkpt><trkpt lat="45.43783738403208" lon="7.932278793140736"><ele>231.0</ele><time>2026-04-11T12:48:29.002Z</time></trkpt><trkpt lat="45.43775461997337" lon="7.9324626521257215"><ele>231.0</ele><time>2026-04-11T12:48:30.002Z</time></trkpt><trkpt lat="45.43767679946673" lon="7.932647686780013"><ele>231.0</ele><time>2026-04-11T12:48:31.002Z</time></trkpt><trkpt lat="45.43760237714589" lon="7.932829459362482"><ele>231.0</ele><time>2026-04-11T12:48:32.002Z</time></trkpt><trkpt lat="45.43751129857521" lon="7.93301352630447"><ele>231.0</ele><time>2026-04-11T12:48:33.002Z</time></trkpt><trkpt lat="45.437430881099516" lon="7.9331885887131435"><ele>231.0</ele><time>2026-04-11T12:48:34.002Z</time></trkpt><trkpt lat="45.437330076039906" lon="7.933375360969284"><ele>231.0</ele><time>2026-04-11T12:48:35.002Z</time></trkpt><trkpt lat="45.43723166675073" lon="7.93356931793217"><ele>231.0</ele><time>2026-04-11T12:48:36.002Z</time></trkpt><trkpt lat="45.437143304527254" lon="7.933758469054297"><ele>231.0</ele><time>2026-04-11T12:48:37.002Z</time></trkpt><trkpt lat="45.437064593438805" lon="7.933948217583894"><ele>231.0</ele><time>2026-04-11T12:48:38.002Z</time></trkpt><trkpt lat="45.43698642435778" lon="7.934147229550197"><ele>231.0</ele><time>2026-04-11T12:48:39.002Z</time></trkpt><trkpt lat="45.43689894031009" lon="7.93434988215028"><ele>231.33333333333331</ele><time>2026-04-11T12:48:40.002Z</time></trkpt><trkpt lat="45.436817463249994" lon="7.934539438166154"><ele>231.66666666666666</ele><time>2026-04-11T12:48:41.002Z</time></trkpt><trkpt lat="45.43673317202083" lon="7.934738956469462"><ele>232.0</ele><time>2026-04-11T12:48:42.002Z</time></trkpt><trkpt lat="45.436646501788" lon="7.934926347168365"><ele>232.0</ele><time>2026-04-11T12:48:43.002Z</time></trkpt><trkpt lat="45.43656186586631" lon="7.935126624932894"><ele>232.0</ele><time>2026-04-11T12:48:44.002Z</time></trkpt><trkpt lat="45.43649004383567" lon="7.9353413516009015"><ele>232.0</ele><time>2026-04-11T12:48:45.002Z</time></trkpt><trkpt lat="45.43640622030119" lon="7.935546930103996"><ele>231.66666666666666</ele><time>2026-04-11T12:48:46.002Z</time></trkpt><trkpt lat="45.436299701155974" lon="7.935737536657013"><ele>231.33333333333331</ele><time>2026-04-11T12:48:47.002Z</time></trkpt><trkpt lat="45.43619627834149" lon="7.935945123743779"><ele>231.0</ele><time>2026-04-11T12:48:48.002Z</time></trkpt><trkpt lat="45.436101915663585" lon="7.936143174218597"><ele>231.66666666666669</ele><time>2026-04-11T12:48:49.002Z</time></trkpt><trkpt lat="45.436011818774425" lon="7.936336249559479"><ele>232.33333333333334</ele><time>2026-04-11T12:48:50.002Z</time></trkpt><trkpt lat="45.435914180982564" lon="7.936538910030601"><ele>233.0</ele><time>2026-04-11T12:48:51.002Z</time></trkpt><trkpt lat="45.43581797219915" lon="7.936731985420931"><ele>233.33333333333334</ele><time>2026-04-11T12:48:52.002Z</time></trkpt><trkpt lat="45.4357277342857" lon="7.936934568958065"><ele>233.66666666666669</ele><time>2026-04-11T12:48:53.002Z</time></trkpt><trkpt lat="45.435644113479526" lon="7.937128242045799"><ele>234.0</ele><time>2026-04-11T12:48:54.002Z</time></trkpt><trkpt lat="45.43555972962107" lon="7.937317895633665"><ele>234.0</ele><time>2026-04-11T12:48:55.002Z</time></trkpt><trkpt lat="45.435466178840706" lon="7.937519383099413"><ele>234.0</ele><time>2026-04-11T12:48:56.002Z</time></trkpt><trkpt lat="45.435377445340976" lon="7.93770690787998"><ele>234.0</ele><time>2026-04-11T12:48:57.002Z</time></trkpt><trkpt lat="45.43529728790705" lon="7.937882226825736"><ele>234.0</ele><time>2026-04-11T12:48:58.002Z</time></trkpt><trkpt lat="45.43522164470257" lon="7.93804245767884"><ele>234.0</ele><time>2026-04-11T12:48:59.002Z</time></trkpt><trkpt lat="45.435143054173885" lon="7.9382084417798096"><ele>234.0</ele><time>2026-04-11T12:49:00.002Z</time></trkpt><trkpt lat="45.43505965973088" lon="7.938372812407539"><ele>234.0</ele><time>2026-04-11T12:49:01.002Z</time></trkpt><trkpt lat="45.434972481520745" lon="7.938546457795439"><ele>233.5</ele><time>2026-04-11T12:49:02.002Z</time></trkpt><trkpt lat="45.4348903111226" lon="7.938706429233645"><ele>233.0</ele><time>2026-04-11T12:49:03.002Z</time></trkpt><trkpt lat="45.43481636111282" lon="7.938865454846854"><ele>232.5</ele><time>2026-04-11T12:49:04.002Z</time></trkpt><trkpt lat="45.43474164052331" lon="7.939055971501081"><ele>232.0</ele><time>2026-04-11T12:49:05.002Z</time></trkpt><trkpt lat="45.434669373239494" lon="7.939245214912391"><ele>231.33333333333331</ele><time>2026-04-11T12:49:06.002Z</time></trkpt><trkpt lat="45.4345751630542" lon="7.939442956123301"><ele>230.66666666666669</ele><time>2026-04-11T12:49:07.002Z</time></trkpt><trkpt lat="45.43447612027299" lon="7.939640323214662"><ele>230.0</ele><time>2026-04-11T12:49:08.002Z</time></trkpt><trkpt lat="45.434375892713035" lon="7.939847009936689"><ele>230.0</ele><time>2026-04-11T12:49:09.002Z</time></trkpt><trkpt lat="45.43428544313107" lon="7.940047759307523"><ele>230.0</ele><time>2026-04-11T12:49:10.002Z</time></trkpt><trkpt lat="45.43418695369921" lon="7.9402688713169205"><ele>230.0</ele><time>2026-04-11T12:49:11.002Z</time></trkpt><trkpt lat="45.43409097904172" lon="7.940495731648517"><ele>230.33333333333334</ele><time>2026-04-11T12:49:12.002Z</time></trkpt><trkpt lat="45.43399806696813" lon="7.9406988429332515"><ele>230.66666666666669</ele><time>2026-04-11T12:49:13.002Z</time></trkpt><trkpt lat="45.43390970880115" lon="7.9408937559377195"><ele>231.0</ele><time>2026-04-11T12:49:14.002Z</time></trkpt><trkpt lat="45.43381403235729" lon="7.941090089609329"><ele>230.66666666666669</ele><time>2026-04-11T12:49:15.002Z</time></trkpt><trkpt lat="45.43372325013368" lon="7.941281525543683"><ele>230.33333333333334</ele><time>2026-04-11T12:49:16.002Z</time></trkpt><trkpt lat="45.43362881189961" lon="7.9414798398377275"><ele>230.0</ele><time>2026-04-11T12:49:17.002Z</time></trkpt><trkpt lat="45.43353270200197" lon="7.941686782873794"><ele>230.0</ele><time>2026-04-11T12:49:18.002Z</time></trkpt><trkpt lat="45.43344142272436" lon="7.941874131323018"><ele>230.0</ele><time>2026-04-11T12:49:19.002Z</time></trkpt><trkpt lat="45.43335596019521" lon="7.9420512175613"><ele>230.0</ele><time>2026-04-11T12:49:20.002Z</time></trkpt><trkpt lat="45.43326051855639" lon="7.9422542579876865"><ele>230.0</ele><time>2026-04-11T12:49:21.002Z</time></trkpt><trkpt lat="45.43317256334463" lon="7.942457895426471"><ele>230.0</ele><time>2026-04-11T12:49:22.002Z</time></trkpt><trkpt lat="45.43308059990358" lon="7.942648909053624"><ele>230.0</ele><time>2026-04-11T12:49:23.002Z</time></trkpt><trkpt lat="45.43298894707494" lon="7.942846416401657"><ele>229.66666666666669</ele><time>2026-04-11T12:49:24.002Z</time></trkpt><trkpt lat="45.43289778173502" lon="7.943044690962962"><ele>229.33333333333331</ele><time>2026-04-11T12:49:25.002Z</time></trkpt><trkpt lat="45.432802343564134" lon="7.94325852084179"><ele>229.0</ele><time>2026-04-11T12:49:26.002Z</time></trkpt><trkpt lat="45.43271549695997" lon="7.943448389710169"><ele>228.66666666666666</ele><time>2026-04-11T12:49:27.002Z</time></trkpt><trkpt lat="45.43263263339658" lon="7.94362840219848"><ele>228.33333333333331</ele><time>2026-04-11T12:49:28.002Z</time></trkpt><trkpt lat="45.43255102687573" lon="7.943807932816963"><ele>228.0</ele><time>2026-04-11T12:49:29.002Z</time></trkpt><trkpt lat="45.432464091105544" lon="7.943995452477025"><ele>228.0</ele><time>2026-04-11T12:49:30.002Z</time></trkpt><trkpt lat="45.43237343782599" lon="7.944187628317408"><ele>228.0</ele><time>2026-04-11T12:49:31.002Z</time></trkpt><trkpt lat="45.43227680048743" lon="7.944385255183682"><ele>228.0</ele><time>2026-04-11T12:49:32.002Z</time></trkpt><trkpt lat="45.432177210935" lon="7.944587334699136"><ele>228.0</ele><time>2026-04-11T12:49:33.002Z</time></trkpt><trkpt lat="45.432081372972135" lon="7.944786379316353"><ele>228.0</ele><time>2026-04-11T12:49:34.002Z</time></trkpt><trkpt lat="45.431994960294766" lon="7.944965913969561"><ele>228.0</ele><time>2026-04-11T12:49:35.002Z</time></trkpt><trkpt lat="45.43190761110532" lon="7.945154263475231"><ele>228.25</ele><time>2026-04-11T12:49:36.002Z</time></trkpt><trkpt lat="45.431829130539654" lon="7.9453253162830055"><ele>228.5</ele><time>2026-04-11T12:49:37.002Z</time></trkpt><trkpt lat="45.43176094156398" lon="7.9454827732344215"><ele>228.75</ele><time>2026-04-11T12:49:38.002Z</time></trkpt><trkpt lat="45.43169859726156" lon="7.945628300679589"><ele>229.0</ele><time>2026-04-11T12:49:39.002Z</time></trkpt><trkpt lat="45.431637100975536" lon="7.945755827703758"><ele>229.39999999999998</ele><time>2026-04-11T12:49:40.002Z</time></trkpt><trkpt lat="45.43157661306267" lon="7.945880522301206"><ele>229.79999999999998</ele><time>2026-04-11T12:49:41.002Z</time></trkpt><trkpt lat="45.43151517825708" lon="7.945988236246721"><ele>230.20000000000002</ele><time>2026-04-11T12:49:42.002Z</time></trkpt><trkpt lat="45.4314360527868" lon="7.9460456113212965"><ele>230.60000000000002</ele><time>2026-04-11T12:49:43.002Z</time></trkpt><trkpt lat="45.431345978192745" lon="7.94603704095261"><ele>231.0</ele><time>2026-04-11T12:49:44.002Z</time></trkpt><trkpt lat="45.43127536730326" lon="7.946011929158349"><ele>231.0</ele><time>2026-04-11T12:49:45.002Z</time></trkpt><trkpt lat="45.43120397137506" lon="7.946038168821525"><ele>231.0</ele><time>2026-04-11T12:49:47.002Z</time></trkpt><trkpt lat="45.43119373473652" lon="7.946127595044307"><ele>231.0</ele><time>2026-04-11T12:49:48.002Z</time></trkpt><trkpt lat="45.43119416326768" lon="7.946254723784271"><ele>231.0</ele><time>2026-04-11T12:49:49.002Z</time></trkpt><trkpt lat="45.4312129498872" lon="7.94638284148601"><ele>231.0</ele><time>2026-04-11T12:49:50.002Z</time></trkpt><trkpt lat="45.43122021807541" lon="7.946527828020424"><ele>231.0</ele><time>2026-04-11T12:49:51.002Z</time></trkpt><trkpt lat="45.431212469509994" lon="7.946677392911083"><ele>231.33333333333334</ele><time>2026-04-11T12:49:52.002Z</time></trkpt><trkpt lat="45.431181187210534" lon="7.946783023964637"><ele>231.66666666666669</ele><time>2026-04-11T12:49:53.002Z</time></trkpt><trkpt lat="45.4311007858187" lon="7.946831757504001"><ele>232.0</ele><time>2026-04-11T12:49:54.002Z</time></trkpt><trkpt lat="45.43101610764551" lon="7.946864189221875"><ele>232.33333333333334</ele><time>2026-04-11T12:49:55.002Z</time></trkpt><trkpt lat="45.430932919164086" lon="7.94690030575375"><ele>232.66666666666669</ele><time>2026-04-11T12:49:56.002Z</time></trkpt><trkpt lat="45.430874857309256" lon="7.946956475612942"><ele>233.0</ele><time>2026-04-11T12:49:57.002Z</time></trkpt><trkpt lat="45.43085080196719" lon="7.947104600623103"><ele>233.0</ele><time>2026-04-11T12:49:59.002Z</time></trkpt><trkpt lat="45.43087048096137" lon="7.947209542762758"><ele>233.0</ele><time>2026-04-11T12:50:02.002Z</time></trkpt><trkpt lat="45.430978260007294" lon="7.947274996336298"><ele>233.0</ele><time>2026-04-11T12:50:05.002Z</time></trkpt><trkpt lat="45.43107848386356" lon="7.947246850452968"><ele>233.0</ele><time>2026-04-11T12:50:06.002Z</time></trkpt><trkpt lat="45.4311958077533" lon="7.947200280408498"><ele>233.0</ele><time>2026-04-11T12:50:07.002Z</time></trkpt><trkpt lat="45.43132595645314" lon="7.947157251348346"><ele>233.0</ele><time>2026-04-11T12:50:08.002Z</time></trkpt><trkpt lat="45.43146924012745" lon="7.947100943132761"><ele>233.0</ele><time>2026-04-11T12:50:09.002Z</time></trkpt><trkpt lat="45.43162054584522" lon="7.947071677601545"><ele>233.0</ele><time>2026-04-11T12:50:10.002Z</time></trkpt><trkpt lat="45.431756091556274" lon="7.947118057047146"><ele>233.0</ele><time>2026-04-11T12:50:11.002Z</time></trkpt><trkpt lat="45.43187565868127" lon="7.94720632003288"><ele>233.0</ele><time>2026-04-11T12:50:12.002Z</time></trkpt><trkpt lat="45.431986928046754" lon="7.947329727656466"><ele>233.0</ele><time>2026-04-11T12:50:13.002Z</time></trkpt><trkpt lat="45.432097489951815" lon="7.9474528758227745"><ele>233.0</ele><time>2026-04-11T12:50:14.002Z</time></trkpt><trkpt lat="45.432180692330256" lon="7.947572794622637"><ele>233.0</ele><time>2026-04-11T12:50:15.002Z</time></trkpt><trkpt lat="45.4322604448537" lon="7.947664387439573"><ele>233.2</ele><time>2026-04-11T12:50:16.002Z</time></trkpt><trkpt lat="45.432340437333515" lon="7.947730951643422"><ele>233.4</ele><time>2026-04-11T12:50:17.002Z</time></trkpt><trkpt lat="45.432418836889134" lon="7.947769857447791"><ele>233.59999999999997</ele><time>2026-04-11T12:50:18.002Z</time></trkpt><trkpt lat="45.432486943840736" lon="7.947789227500494"><ele>233.79999999999998</ele><time>2026-04-11T12:50:19.002Z</time></trkpt><trkpt lat="45.432549190925485" lon="7.94789639217514"><ele>234.0</ele><time>2026-04-11T12:50:21.002Z</time></trkpt><trkpt lat="45.432461200661436" lon="7.948037028841857"><ele>234.0</ele><time>2026-04-11T12:50:24.002Z</time></trkpt><trkpt lat="45.43237905763024" lon="7.948093673881834"><ele>233.99999999999997</ele><time>2026-04-11T12:50:25.002Z</time></trkpt><trkpt lat="45.43231422846891" lon="7.948191931245922"><ele>233.99999999999997</ele><time>2026-04-11T12:50:26.002Z</time></trkpt><trkpt lat="45.432228463176884" lon="7.948308627555751"><ele>234.0</ele><time>2026-04-11T12:50:27.002Z</time></trkpt><trkpt lat="45.43213458101463" lon="7.948407556326414"><ele>234.0</ele><time>2026-04-11T12:50:28.002Z</time></trkpt><trkpt lat="45.43203920891865" lon="7.948506319664776"><ele>233.5</ele><time>2026-04-11T12:50:29.002Z</time></trkpt><trkpt lat="45.43194623447086" lon="7.948608161795632"><ele>233.0</ele><time>2026-04-11T12:50:30.002Z</time></trkpt><trkpt lat="45.43185251486831" lon="7.948721865207182"><ele>232.5</ele><time>2026-04-11T12:50:31.002Z</time></trkpt><trkpt lat="45.4317555067898" lon="7.948831524857467"><ele>232.0</ele><time>2026-04-11T12:50:32.002Z</time></trkpt><trkpt lat="45.43167028646791" lon="7.948933731867484"><ele>232.0</ele><time>2026-04-11T12:50:33.002Z</time></trkpt><trkpt lat="45.431576342990724" lon="7.949026488895026"><ele>232.0</ele><time>2026-04-11T12:50:34.002Z</time></trkpt><trkpt lat="45.431483071864726" lon="7.949112651370458"><ele>232.0</ele><time>2026-04-11T12:50:35.002Z</time></trkpt><trkpt lat="45.43140233019238" lon="7.949200040280491"><ele>232.0</ele><time>2026-04-11T12:50:36.002Z</time></trkpt><trkpt lat="45.431342876794886" lon="7.949308075682793"><ele>232.0</ele><time>2026-04-11T12:50:37.002Z</time></trkpt><trkpt lat="45.43127614058475" lon="7.9493850220152575"><ele>231.66666666666666</ele><time>2026-04-11T12:50:38.002Z</time></trkpt><trkpt lat="45.4312160987419" lon="7.949444103946209"><ele>231.33333333333331</ele><time>2026-04-11T12:50:39.002Z</time></trkpt><trkpt lat="45.431160304034414" lon="7.949499387999918"><ele>231.0</ele><time>2026-04-11T12:50:40.002Z</time></trkpt><trkpt lat="45.431096522158164" lon="7.949600672310089"><ele>230.66666666666669</ele><time>2026-04-11T12:50:42.002Z</time></trkpt><trkpt lat="45.431120140194075" lon="7.949742854209711"><ele>230.33333333333334</ele><time>2026-04-11T12:50:43.002Z</time></trkpt><trkpt lat="45.431138414285506" lon="7.949860646466151"><ele>230.0</ele><time>2026-04-11T12:50:44.002Z</time></trkpt><trkpt lat="45.43116280435623" lon="7.949979265979699"><ele>229.83333333333334</ele><time>2026-04-11T12:50:45.002Z</time></trkpt><trkpt lat="45.43118265712503" lon="7.950082496981049"><ele>229.66666666666669</ele><time>2026-04-11T12:50:46.002Z</time></trkpt><trkpt lat="45.43117892203142" lon="7.950200395680146"><ele>229.5</ele><time>2026-04-11T12:50:47.002Z</time></trkpt><trkpt lat="45.43119992209229" lon="7.950316863379883"><ele>229.33333333333331</ele><time>2026-04-11T12:50:48.002Z</time></trkpt><trkpt lat="45.4311779629316" lon="7.9504301462016596"><ele>229.16666666666666</ele><time>2026-04-11T12:50:49.002Z</time></trkpt><trkpt lat="45.43118424272888" lon="7.950551304116633"><ele>229.0</ele><time>2026-04-11T12:50:50.002Z</time></trkpt><trkpt lat="45.431196638944776" lon="7.950667794236092"><ele>229.0</ele><time>2026-04-11T12:50:51.002Z</time></trkpt><trkpt lat="45.431199430117076" lon="7.950808645910765"><ele>229.0</ele><time>2026-04-11T12:50:53.002Z</time></trkpt><trkpt lat="45.43093563647961" lon="7.951008998624909"><ele>229.0</ele><time>2026-04-11T12:50:55.002Z</time></trkpt><trkpt lat="45.43076592999583" lon="7.951089162393631"><ele>230.0</ele><time>2026-04-11T12:50:56.002Z</time></trkpt><trkpt lat="45.43058482578278" lon="7.951145924130058"><ele>231.0</ele><time>2026-04-11T12:50:57.002Z</time></trkpt><trkpt lat="45.43043552236919" lon="7.951182564372956"><ele>232.0</ele><time>2026-04-11T12:50:58.002Z</time></trkpt><trkpt lat="45.43031889106769" lon="7.951213601242634"><ele>232.39999999999998</ele><time>2026-04-11T12:50:59.002Z</time></trkpt><trkpt lat="45.43020808856462" lon="7.9512449777455965"><ele>232.79999999999998</ele><time>2026-04-11T12:51:00.002Z</time></trkpt><trkpt lat="45.43011755142319" lon="7.951274253539963"><ele>233.2</ele><time>2026-04-11T12:51:01.002Z</time></trkpt><trkpt lat="45.43001612173083" lon="7.9513061956367235"><ele>233.6</ele><time>2026-04-11T12:51:02.002Z</time></trkpt><trkpt lat="45.42992064414253" lon="7.95133044061958"><ele>234.0</ele><time>2026-04-11T12:51:03.002Z</time></trkpt><trkpt lat="45.42984926418131" lon="7.951350169836725"><ele>234.0</ele><time>2026-04-11T12:51:04.002Z</time></trkpt><trkpt lat="45.429799376690454" lon="7.951491684582151"><ele>233.99999999999997</ele><time>2026-04-11T12:51:06.002Z</time></trkpt><trkpt lat="45.42984055738221" lon="7.951632393608186"><ele>233.99999999999997</ele><time>2026-04-11T12:51:07.002Z</time></trkpt><trkpt lat="45.429860538605226" lon="7.951783893711791"><ele>234.0</ele><time>2026-04-11T12:51:08.002Z</time></trkpt><trkpt lat="45.4299047731008" lon="7.951925313305048"><ele>234.0</ele><time>2026-04-11T12:51:09.002Z</time></trkpt><trkpt lat="45.429932289992045" lon="7.952050613061054"><ele>234.16666666666666</ele><time>2026-04-11T12:51:10.002Z</time></trkpt><trkpt lat="45.42993439490651" lon="7.952179444652349"><ele>234.33333333333331</ele><time>2026-04-11T12:51:11.002Z</time></trkpt><trkpt lat="45.42994730538086" lon="7.952284002502155"><ele>234.5</ele><time>2026-04-11T12:51:12.002Z</time></trkpt><trkpt lat="45.4299538901264" lon="7.952389591157613"><ele>234.66666666666666</ele><time>2026-04-11T12:51:13.002Z</time></trkpt><trkpt lat="45.429960859030366" lon="7.9524931453129275"><ele>234.83333333333331</ele><time>2026-04-11T12:51:14.002Z</time></trkpt><trkpt lat="45.42996976379813" lon="7.952595357571257"><ele>235.0</ele><time>2026-04-11T12:51:15.002Z</time></trkpt><trkpt lat="45.42998348835882" lon="7.9526962875767335"><ele>235.0</ele><time>2026-04-11T12:51:16.002Z</time></trkpt><trkpt lat="45.430002811711624" lon="7.952807381550874"><ele>234.99999999999997</ele><time>2026-04-11T12:51:17.002Z</time></trkpt><trkpt lat="45.43001625483542" lon="7.952907341388719"><ele>235.0</ele><time>2026-04-11T12:51:18.002Z</time></trkpt><trkpt lat="45.43002487609534" lon="7.953001439110056"><ele>235.0</ele><time>2026-04-11T12:51:19.002Z</time></trkpt><trkpt lat="45.430031939335656" lon="7.953103703653298"><ele>234.99999999999997</ele><time>2026-04-11T12:51:20.002Z</time></trkpt><trkpt lat="45.430039315328436" lon="7.953196486917945"><ele>235.0</ele><time>2026-04-11T12:51:21.002Z</time></trkpt><trkpt lat="45.43002497184977" lon="7.953295953524263"><ele>235.0</ele><time>2026-04-11T12:51:22.002Z</time></trkpt><trkpt lat="45.43002136358145" lon="7.953389841983623"><ele>235.0</ele><time>2026-04-11T12:51:23.002Z</time></trkpt><trkpt lat="45.43002148505498" lon="7.953524619150824"><ele>235.0</ele><time>2026-04-11T12:51:25.002Z</time></trkpt><trkpt lat="45.43004801460973" lon="7.953614051203168"><ele>235.0</ele><time>2026-04-11T12:51:28.002Z</time></trkpt><trkpt lat="45.43003380630675" lon="7.953461554576706"><ele>235.0</ele><time>2026-04-11T12:55:14.004Z</time></trkpt><trkpt lat="45.43003462267114" lon="7.9532556357493265"><ele>235.0</ele><time>2026-04-11T12:55:15.004Z</time></trkpt><trkpt lat="45.43002541524095" lon="7.953067288860166"><ele>235.0</ele><time>2026-04-11T12:55:16.004Z</time></trkpt><trkpt lat="45.43001576004179" lon="7.9528500504928115"><ele>235.0</ele><time>2026-04-11T12:55:17.004Z</time></trkpt><trkpt lat="45.429994098968486" lon="7.952667512189793"><ele>235.0</ele><time>2026-04-11T12:55:18.004Z</time></trkpt><trkpt lat="45.4299895408923" lon="7.952513404229312"><ele>235.0</ele><time>2026-04-11T12:55:19.004Z</time></trkpt><trkpt lat="45.42997352996601" lon="7.952375512366778"><ele>235.16666666666666</ele><time>2026-04-11T12:55:20.004Z</time></trkpt><trkpt lat="45.42996485117063" lon="7.952267594446711"><ele>235.33333333333331</ele><time>2026-04-11T12:55:21.004Z</time></trkpt><trkpt lat="45.42995667431458" lon="7.952164185771281"><ele>235.5</ele><time>2026-04-11T12:55:22.004Z</time></trkpt><trkpt lat="45.42994744365535" lon="7.952048539119451"><ele>235.66666666666669</ele><time>2026-04-11T12:55:23.004Z</time></trkpt><trkpt lat="45.42992960247382" lon="7.95194017955882"><ele>235.83333333333334</ele><time>2026-04-11T12:55:24.004Z</time></trkpt><trkpt lat="45.429911697535445" lon="7.951836273857719"><ele>236.0</ele><time>2026-04-11T12:55:25.004Z</time></trkpt><trkpt lat="45.429885567712766" lon="7.951726817246541"><ele>235.60000000000002</ele><time>2026-04-11T12:55:26.004Z</time></trkpt><trkpt lat="45.429862564890534" lon="7.951627095946574"><ele>235.20000000000002</ele><time>2026-04-11T12:55:27.004Z</time></trkpt><trkpt lat="45.42985406200466" lon="7.9514668698409245"><ele>234.79999999999998</ele><time>2026-04-11T12:55:29.004Z</time></trkpt><trkpt lat="45.42992814976882" lon="7.951344904649768"><ele>234.39999999999998</ele><time>2026-04-11T12:55:31.004Z</time></trkpt><trkpt lat="45.43000670762893" lon="7.951332030826238"><ele>234.0</ele><time>2026-04-11T12:55:32.004Z</time></trkpt><trkpt lat="45.43010155957077" lon="7.95132387035384"><ele>234.0</ele><time>2026-04-11T12:55:33.004Z</time></trkpt><trkpt lat="45.43019347276859" lon="7.951336167323815"><ele>233.99999999999997</ele><time>2026-04-11T12:55:34.004Z</time></trkpt><trkpt lat="45.43028761565178" lon="7.951324131061155"><ele>233.99999999999997</ele><time>2026-04-11T12:55:35.004Z</time></trkpt><trkpt lat="45.430367214123514" lon="7.951257646407626"><ele>234.0</ele><time>2026-04-11T12:55:36.004Z</time></trkpt><trkpt lat="45.43045749613307" lon="7.951219932963341"><ele>234.0</ele><time>2026-04-11T12:55:37.004Z</time></trkpt><trkpt lat="45.43055308191215" lon="7.9511816665960815"><ele>233.66666666666666</ele><time>2026-04-11T12:55:38.004Z</time></trkpt><trkpt lat="45.43064176774192" lon="7.951152322663044"><ele>233.33333333333331</ele><time>2026-04-11T12:55:39.004Z</time></trkpt><trkpt lat="45.430724165059516" lon="7.951122509681707"><ele>233.0</ele><time>2026-04-11T12:55:40.004Z</time></trkpt><trkpt lat="45.43080520631097" lon="7.951093849476876"><ele>232.66666666666666</ele><time>2026-04-11T12:55:41.004Z</time></trkpt><trkpt lat="45.430881808136824" lon="7.951051831571662"><ele>232.33333333333331</ele><time>2026-04-11T12:55:42.004Z</time></trkpt><trkpt lat="45.43095991494716" lon="7.951012531428092"><ele>232.0</ele><time>2026-04-11T12:55:43.004Z</time></trkpt><trkpt lat="45.43102542483556" lon="7.950977193460548"><ele>231.99999999999997</ele><time>2026-04-11T12:55:44.004Z</time></trkpt><trkpt lat="45.431087565044955" lon="7.95092839489361"><ele>232.0</ele><time>2026-04-11T12:55:45.004Z</time></trkpt><trkpt lat="45.43114637512723" lon="7.950893275649216"><ele>232.0</ele><time>2026-04-11T12:55:46.004Z</time></trkpt><trkpt lat="45.431208061818644" lon="7.950848958155791"><ele>232.0</ele><time>2026-04-11T12:55:48.004Z</time></trkpt><trkpt lat="45.43122708284629" lon="7.950729237174286"><ele>231.99999999999997</ele><time>2026-04-11T12:55:51.004Z</time></trkpt><trkpt lat="45.43120792088601" lon="7.9506403923309605"><ele>232.0</ele><time>2026-04-11T12:55:52.004Z</time></trkpt><trkpt lat="45.43119768194399" lon="7.950472752102262"><ele>231.66666666666666</ele><time>2026-04-11T12:55:54.004Z</time></trkpt><trkpt lat="45.431190615912406" lon="7.950373742989584"><ele>231.33333333333331</ele><time>2026-04-11T12:55:55.004Z</time></trkpt><trkpt lat="45.43119895115287" lon="7.950282539128737"><ele>231.0</ele><time>2026-04-11T12:55:56.004Z</time></trkpt><trkpt lat="45.43119187442234" lon="7.950163875847264"><ele>230.66666666666669</ele><time>2026-04-11T12:55:57.004Z</time></trkpt><trkpt lat="45.431183757633015" lon="7.950044638134915"><ele>230.33333333333334</ele><time>2026-04-11T12:55:58.004Z</time></trkpt><trkpt lat="45.43117249711227" lon="7.949921231003538"><ele>230.0</ele><time>2026-04-11T12:55:59.004Z</time></trkpt><trkpt lat="45.4311587967395" lon="7.949811168973796"><ele>230.0</ele><time>2026-04-11T12:56:00.004Z</time></trkpt><trkpt lat="45.431148130010406" lon="7.949715366209755"><ele>230.0</ele><time>2026-04-11T12:56:01.004Z</time></trkpt><trkpt lat="45.43116820880648" lon="7.949547449952458"><ele>230.0</ele><time>2026-04-11T12:56:03.004Z</time></trkpt><trkpt lat="45.43123107708278" lon="7.9494844610187565"><ele>230.0</ele><time>2026-04-11T12:56:04.004Z</time></trkpt><trkpt lat="45.431307107360205" lon="7.949422459998679"><ele>230.0</ele><time>2026-04-11T12:56:05.004Z</time></trkpt><trkpt lat="45.43139095930905" lon="7.9493373902082825"><ele>230.2</ele><time>2026-04-11T12:56:06.004Z</time></trkpt><trkpt lat="45.431477636611305" lon="7.949239543089408"><ele>230.4</ele><time>2026-04-11T12:56:07.004Z</time></trkpt><trkpt lat="45.431546131325675" lon="7.949162780143037"><ele>230.60000000000002</ele><time>2026-04-11T12:56:08.004Z</time></trkpt><trkpt lat="45.43161942693254" lon="7.949072942527116"><ele>230.8</ele><time>2026-04-11T12:56:09.004Z</time></trkpt><trkpt lat="45.43169910649374" lon="7.948982148826025"><ele>231.0</ele><time>2026-04-11T12:56:09.984Z</time></trkpt><trkpt lat="45.43178346446608" lon="7.948890742776254"><ele>231.20000000000002</ele><time>2026-04-11T12:56:10.984Z</time></trkpt><trkpt lat="45.43186382356973" lon="7.94880196756623"><ele>231.40000000000003</ele><time>2026-04-11T12:56:11.984Z</time></trkpt><trkpt lat="45.431943539770295" lon="7.948710753441564"><ele>231.6</ele><time>2026-04-11T12:56:12.984Z</time></trkpt><trkpt lat="45.43201732716982" lon="7.948620357813791"><ele>231.8</ele><time>2026-04-11T12:56:13.984Z</time></trkpt><trkpt lat="45.43210160287172" lon="7.948543099525896"><ele>232.0</ele><time>2026-04-11T12:56:14.984Z</time></trkpt><trkpt lat="45.43218312620451" lon="7.948447189141796"><ele>232.33333333333331</ele><time>2026-04-11T12:56:15.984Z</time></trkpt><trkpt lat="45.43225630704701" lon="7.948357824428489"><ele>232.66666666666666</ele><time>2026-04-11T12:56:16.984Z</time></trkpt><trkpt lat="45.4323267310702" lon="7.948277212481473"><ele>233.0</ele><time>2026-04-11T12:56:17.984Z</time></trkpt><trkpt lat="45.43239789526677" lon="7.948197290173377"><ele>233.33333333333331</ele><time>2026-04-11T12:56:18.984Z</time></trkpt><trkpt lat="45.43245639543477" lon="7.9481198701127065"><ele>233.66666666666666</ele><time>2026-04-11T12:56:19.984Z</time></trkpt><trkpt lat="45.432504953441324" lon="7.948051169231143"><ele>234.0</ele><time>2026-04-11T12:56:20.984Z</time></trkpt><trkpt lat="45.432575779665115" lon="7.947950040662856"><ele>234.0</ele><time>2026-04-11T12:56:22.984Z</time></trkpt><trkpt lat="45.432608415437485" lon="7.9478685604790575"><ele>234.0</ele><time>2026-04-11T12:56:29.984Z</time></trkpt><trkpt lat="45.432548529671195" lon="7.947776933688262"><ele>234.0</ele><time>2026-04-11T12:56:31.984Z</time></trkpt><trkpt lat="45.43248938294728" lon="7.947738874153472"><ele>234.0</ele><time>2026-04-11T12:56:32.984Z</time></trkpt><trkpt lat="45.43240122504619" lon="7.947699791553147"><ele>234.0</ele><time>2026-04-11T12:56:33.984Z</time></trkpt><trkpt lat="45.43231092257819" lon="7.947630377702654"><ele>234.0</ele><time>2026-04-11T12:56:34.984Z</time></trkpt><trkpt lat="45.43223476981116" lon="7.947534740158851"><ele>233.75</ele><time>2026-04-11T12:56:35.984Z</time></trkpt><trkpt lat="45.432151137045864" lon="7.9474271223249735"><ele>233.5</ele><time>2026-04-11T12:56:36.984Z</time></trkpt><trkpt lat="45.43205366525486" lon="7.9473139765787275"><ele>233.25</ele><time>2026-04-11T12:56:37.984Z</time></trkpt><trkpt lat="45.43195868329352" lon="7.947210976681156"><ele>233.0</ele><time>2026-04-11T12:56:38.984Z</time></trkpt><trkpt lat="45.43185730549041" lon="7.947129122782339"><ele>233.0</ele><time>2026-04-11T12:56:39.984Z</time></trkpt><trkpt lat="45.43175177405143" lon="7.947070772649187"><ele>233.0</ele><time>2026-04-11T12:56:40.984Z</time></trkpt><trkpt lat="45.43163070843275" lon="7.947041482962556"><ele>233.0</ele><time>2026-04-11T12:56:41.984Z</time></trkpt><trkpt lat="45.431501165139316" lon="7.94705709728269"><ele>233.0</ele><time>2026-04-11T12:56:42.984Z</time></trkpt><trkpt lat="45.4313721121994" lon="7.947104818113435"><ele>233.0</ele><time>2026-04-11T12:56:43.984Z</time></trkpt><trkpt lat="45.431247832981924" lon="7.947166263059186"><ele>233.0</ele><time>2026-04-11T12:56:44.984Z</time></trkpt><trkpt lat="45.43111586924223" lon="7.947179587204576"><ele>233.0</ele><time>2026-04-11T12:56:45.984Z</time></trkpt><trkpt lat="45.43098580030457" lon="7.947204895955556"><ele>233.0</ele><time>2026-04-11T12:56:46.984Z</time></trkpt><trkpt lat="45.430864008324036" lon="7.947215499558325"><ele>233.0</ele><time>2026-04-11T12:56:47.984Z</time></trkpt><trkpt lat="45.430734863709" lon="7.947130835902864"><ele>233.0</ele><time>2026-04-11T12:56:48.984Z</time></trkpt><trkpt lat="45.430613008324094" lon="7.947083884718295"><ele>233.0</ele><time>2026-04-11T12:56:49.984Z</time></trkpt><trkpt lat="45.4305004293273" lon="7.947047269754952"><ele>233.0</ele><time>2026-04-11T12:56:50.984Z</time></trkpt><trkpt lat="45.430384331847726" lon="7.947027190436139"><ele>232.50000000000003</ele><time>2026-04-11T12:56:51.984Z</time></trkpt><trkpt lat="45.4302868842244" lon="7.946988815931809"><ele>232.0</ele><time>2026-04-11T12:56:52.984Z</time></trkpt><trkpt lat="45.430202876813134" lon="7.946950661995635"><ele>231.5</ele><time>2026-04-11T12:56:53.984Z</time></trkpt><trkpt lat="45.4301213757383" lon="7.946913646869312"><ele>231.0</ele><time>2026-04-11T12:56:54.984Z</time></trkpt><trkpt lat="45.43003652324792" lon="7.946888393402673"><ele>230.50000000000003</ele><time>2026-04-11T12:56:55.982Z</time></trkpt><trkpt lat="45.429952301773696" lon="7.946867340080096"><ele>230.0</ele><time>2026-04-11T12:56:56.981Z</time></trkpt><trkpt lat="45.42987348841123" lon="7.946806623630176"><ele>230.00000000000003</ele><time>2026-04-11T12:56:57.981Z</time></trkpt><trkpt lat="45.42980920518708" lon="7.946736964304291"><ele>230.0</ele><time>2026-04-11T12:56:58.982Z</time></trkpt><trkpt lat="45.42975778203077" lon="7.946650734606515"><ele>230.0</ele><time>2026-04-11T12:56:59.981Z</time></trkpt><trkpt lat="45.42970352134095" lon="7.946580689204688"><ele>230.0</ele><time>2026-04-11T12:57:00.981Z</time></trkpt><trkpt lat="45.42965296677907" lon="7.94652407193174"><ele>230.00000000000003</ele><time>2026-04-11T12:57:01.981Z</time></trkpt><trkpt lat="45.42958110860139" lon="7.946473366853672"><ele>230.0</ele><time>2026-04-11T12:57:02.981Z</time></trkpt><trkpt lat="45.42951791617476" lon="7.946421074512728"><ele>230.00000000000003</ele><time>2026-04-11T12:57:03.981Z</time></trkpt><trkpt lat="45.42945357036421" lon="7.946367692439983"><ele>230.0</ele><time>2026-04-11T12:57:04.981Z</time></trkpt><trkpt lat="45.42938888252707" lon="7.946312129259645"><ele>230.0</ele><time>2026-04-11T12:57:05.981Z</time></trkpt><trkpt lat="45.429314404102804" lon="7.946222297278642"><ele>230.0</ele><time>2026-04-11T12:57:06.981Z</time></trkpt><trkpt lat="45.42924112100921" lon="7.946136642697552"><ele>230.00000000000003</ele><time>2026-04-11T12:57:07.981Z</time></trkpt><trkpt lat="45.429155200147434" lon="7.94605900474236"><ele>230.0</ele><time>2026-04-11T12:57:08.981Z</time></trkpt><trkpt lat="45.42906845033687" lon="7.945956614793522"><ele>229.8</ele><time>2026-04-11T12:57:09.981Z</time></trkpt><trkpt lat="45.42899713551484" lon="7.945828113060669"><ele>229.6</ele><time>2026-04-11T12:57:10.981Z</time></trkpt><trkpt lat="45.428923251621285" lon="7.9457161706364925"><ele>229.39999999999998</ele><time>2026-04-11T12:57:11.981Z</time></trkpt><trkpt lat="45.42885965092192" lon="7.945615936616492"><ele>229.2</ele><time>2026-04-11T12:57:12.981Z</time></trkpt><trkpt lat="45.42878965131314" lon="7.945505335211078"><ele>229.0</ele><time>2026-04-11T12:57:13.981Z</time></trkpt><trkpt lat="45.42871133748016" lon="7.945405442988417"><ele>229.0</ele><time>2026-04-11T12:57:14.981Z</time></trkpt><trkpt lat="45.42864364803207" lon="7.9453037719698525"><ele>228.99999999999997</ele><time>2026-04-11T12:57:15.981Z</time></trkpt><trkpt lat="45.42857636963198" lon="7.945189641065953"><ele>228.99999999999997</ele><time>2026-04-11T12:57:16.981Z</time></trkpt><trkpt lat="45.428501387214" lon="7.945074561876862"><ele>229.0</ele><time>2026-04-11T12:57:17.981Z</time></trkpt><trkpt lat="45.42843620951085" lon="7.944972662421483"><ele>229.0</ele><time>2026-04-11T12:57:18.981Z</time></trkpt><trkpt lat="45.42837057390088" lon="7.9448433691072236"><ele>228.75</ele><time>2026-04-11T12:57:19.981Z</time></trkpt><trkpt lat="45.428296253004795" lon="7.944726057312657"><ele>228.5</ele><time>2026-04-11T12:57:20.981Z</time></trkpt><trkpt lat="45.42821827099837" lon="7.944603448221258"><ele>228.25</ele><time>2026-04-11T12:57:21.981Z</time></trkpt><trkpt lat="45.42813228771555" lon="7.944495030033287"><ele>228.0</ele><time>2026-04-11T12:57:22.981Z</time></trkpt><trkpt lat="45.4280469050071" lon="7.944380924122225"><ele>227.8</ele><time>2026-04-11T12:57:23.981Z</time></trkpt><trkpt lat="45.42796670356839" lon="7.944268106603275"><ele>227.60000000000002</ele><time>2026-04-11T12:57:24.981Z</time></trkpt><trkpt lat="45.427888749346224" lon="7.944153748426279"><ele>227.39999999999998</ele><time>2026-04-11T12:57:25.981Z</time></trkpt><trkpt lat="45.42781158855777" lon="7.944045637152806"><ele>227.2</ele><time>2026-04-11T12:57:26.981Z</time></trkpt><trkpt lat="45.42772683500267" lon="7.943941945290628"><ele>227.0</ele><time>2026-04-11T12:57:27.981Z</time></trkpt><trkpt lat="45.427644413063845" lon="7.943845946499483"><ele>226.75</ele><time>2026-04-11T12:57:28.981Z</time></trkpt><trkpt lat="45.427557420678575" lon="7.943745821149972"><ele>226.5</ele><time>2026-04-11T12:57:29.981Z</time></trkpt><trkpt lat="45.42746024756627" lon="7.943646846542645"><ele>226.25</ele><time>2026-04-11T12:57:30.981Z</time></trkpt><trkpt lat="45.42736492749893" lon="7.943550684009152"><ele>226.0</ele><time>2026-04-11T12:57:31.981Z</time></trkpt><trkpt lat="45.42727979634136" lon="7.943433858379203"><ele>226.25</ele><time>2026-04-11T12:57:32.981Z</time></trkpt><trkpt lat="45.42718743785689" lon="7.943329950651094"><ele>226.5</ele><time>2026-04-11T12:57:33.981Z</time></trkpt><trkpt lat="45.42708256366768" lon="7.943233399860028"><ele>226.75</ele><time>2026-04-11T12:57:34.981Z</time></trkpt><trkpt lat="45.42698427570507" lon="7.94313376417307"><ele>227.0</ele><time>2026-04-11T12:57:35.981Z</time></trkpt><trkpt lat="45.42688400805009" lon="7.943043218825288"><ele>227.0</ele><time>2026-04-11T12:57:36.981Z</time></trkpt><trkpt lat="45.42678928159024" lon="7.942957761014899"><ele>227.0</ele><time>2026-04-11T12:57:37.981Z</time></trkpt><trkpt lat="45.42669055508923" lon="7.942890011492828"><ele>227.0</ele><time>2026-04-11T12:57:38.981Z</time></trkpt><trkpt lat="45.42658663530551" lon="7.9428365259291684"><ele>227.0</ele><time>2026-04-11T12:57:39.981Z</time></trkpt><trkpt lat="45.42647830844125" lon="7.942790645264158"><ele>227.0</ele><time>2026-04-11T12:57:40.981Z</time></trkpt><trkpt lat="45.426370917368835" lon="7.942747235257729"><ele>227.2</ele><time>2026-04-11T12:57:41.981Z</time></trkpt><trkpt lat="45.426262102537294" lon="7.942704028417459"><ele>227.39999999999998</ele><time>2026-04-11T12:57:42.981Z</time></trkpt><trkpt lat="45.42615657143548" lon="7.942671675397053"><ele>227.60000000000002</ele><time>2026-04-11T12:57:43.981Z</time></trkpt><trkpt lat="45.42605035583447" lon="7.942653304870569"><ele>227.8</ele><time>2026-04-11T12:57:44.981Z</time></trkpt><trkpt lat="45.42594224108927" lon="7.942662085236784"><ele>228.0</ele><time>2026-04-11T12:57:45.981Z</time></trkpt><trkpt lat="45.425835232841784" lon="7.942663173285357"><ele>228.0</ele><time>2026-04-11T12:57:46.981Z</time></trkpt><trkpt lat="45.42573007528801" lon="7.942661761537827"><ele>228.0</ele><time>2026-04-11T12:57:47.981Z</time></trkpt><trkpt lat="45.42561880765465" lon="7.942641486920391"><ele>228.0</ele><time>2026-04-11T12:57:48.981Z</time></trkpt><trkpt lat="45.425503751311616" lon="7.942664192441344"><ele>228.0</ele><time>2026-04-11T12:57:49.981Z</time></trkpt><trkpt lat="45.42538633104813" lon="7.942657688304388"><ele>227.75</ele><time>2026-04-11T12:57:50.981Z</time></trkpt><trkpt lat="45.42527475331652" lon="7.94266862363901"><ele>227.5</ele><time>2026-04-11T12:57:51.981Z</time></trkpt><trkpt lat="45.42515763033516" lon="7.942684800885904"><ele>227.25</ele><time>2026-04-11T12:57:52.981Z</time></trkpt><trkpt lat="45.42504665343174" lon="7.942708522129181"><ele>227.0</ele><time>2026-04-11T12:57:53.981Z</time></trkpt><trkpt lat="45.42493370756728" lon="7.942742920428138"><ele>227.0</ele><time>2026-04-11T12:57:54.981Z</time></trkpt><trkpt lat="45.42482265759323" lon="7.942786169831063"><ele>227.0</ele><time>2026-04-11T12:57:55.981Z</time></trkpt><trkpt lat="45.42471095559706" lon="7.942830107018297"><ele>227.0</ele><time>2026-04-11T12:57:56.981Z</time></trkpt><trkpt lat="45.424601831751474" lon="7.942877899613012"><ele>227.0</ele><time>2026-04-11T12:57:57.981Z</time></trkpt><trkpt lat="45.42449463166493" lon="7.942939403682128"><ele>227.25</ele><time>2026-04-11T12:57:58.981Z</time></trkpt><trkpt lat="45.42437571926439" lon="7.943001058741954"><ele>227.5</ele><time>2026-04-11T12:57:59.981Z</time></trkpt><trkpt lat="45.42426888277185" lon="7.943058877168124"><ele>227.75</ele><time>2026-04-11T12:58:00.981Z</time></trkpt><trkpt lat="45.42415420495197" lon="7.943109417023271"><ele>228.0</ele><time>2026-04-11T12:58:01.981Z</time></trkpt><trkpt lat="45.424044535610506" lon="7.943187445951617"><ele>228.0</ele><time>2026-04-11T12:58:02.981Z</time></trkpt><trkpt lat="45.42393617963005" lon="7.943243066645141"><ele>228.0</ele><time>2026-04-11T12:58:03.981Z</time></trkpt><trkpt lat="45.42381941795921" lon="7.943288349597971"><ele>228.0</ele><time>2026-04-11T12:58:04.981Z</time></trkpt><trkpt lat="45.42370541353136" lon="7.943339488335694"><ele>228.0</ele><time>2026-04-11T12:58:05.981Z</time></trkpt><trkpt lat="45.42359930005652" lon="7.943383285416592"><ele>228.0</ele><time>2026-04-11T12:58:06.981Z</time></trkpt><trkpt lat="45.42348050238149" lon="7.943425461224576"><ele>228.0</ele><time>2026-04-11T12:58:07.981Z</time></trkpt><trkpt lat="45.423364210132846" lon="7.943451978874105"><ele>228.0</ele><time>2026-04-11T12:58:08.981Z</time></trkpt><trkpt lat="45.42325038706162" lon="7.943451062195597"><ele>228.0</ele><time>2026-04-11T12:58:09.981Z</time></trkpt><trkpt lat="45.423134659142164" lon="7.9434451148678145"><ele>228.0</ele><time>2026-04-11T12:58:10.981Z</time></trkpt><trkpt lat="45.423018449003976" lon="7.943444986807769"><ele>228.0</ele><time>2026-04-11T12:58:11.981Z</time></trkpt><trkpt lat="45.4228978535799" lon="7.9434743404028945"><ele>228.0</ele><time>2026-04-11T12:58:12.981Z</time></trkpt><trkpt lat="45.4227931262591" lon="7.943514018541275"><ele>228.0</ele><time>2026-04-11T12:58:13.981Z</time></trkpt><trkpt lat="45.422677447917444" lon="7.943598915765237"><ele>227.75</ele><time>2026-04-11T12:58:14.981Z</time></trkpt><trkpt lat="45.42256590041538" lon="7.943694572981582"><ele>227.5</ele><time>2026-04-11T12:58:15.981Z</time></trkpt><trkpt lat="45.42245898717685" lon="7.943772506982611"><ele>227.25</ele><time>2026-04-11T12:58:16.981Z</time></trkpt><trkpt lat="45.422339325135994" lon="7.94379748954456"><ele>227.0</ele><time>2026-04-11T12:58:17.981Z</time></trkpt><trkpt lat="45.42222468014751" lon="7.943812420516597"><ele>227.5</ele><time>2026-04-11T12:58:18.981Z</time></trkpt><trkpt lat="45.42210213787513" lon="7.9438162207772525"><ele>228.0</ele><time>2026-04-11T12:58:19.981Z</time></trkpt><trkpt lat="45.421981740096804" lon="7.943816985900833"><ele>228.5</ele><time>2026-04-11T12:58:20.981Z</time></trkpt><trkpt lat="45.4218542837004" lon="7.943815965290572"><ele>229.0</ele><time>2026-04-11T12:58:21.981Z</time></trkpt><trkpt lat="45.42173183000242" lon="7.943834774607177"><ele>229.0</ele><time>2026-04-11T12:58:22.981Z</time></trkpt><trkpt lat="45.42160847148902" lon="7.943812174929118"><ele>229.0</ele><time>2026-04-11T12:58:23.981Z</time></trkpt><trkpt lat="45.42148212068276" lon="7.94380957878872"><ele>229.0</ele><time>2026-04-11T12:58:24.981Z</time></trkpt><trkpt lat="45.421351538432425" lon="7.9438067686483"><ele>229.0</ele><time>2026-04-11T12:58:25.981Z</time></trkpt><trkpt lat="45.42121871713961" lon="7.9438039103154665"><ele>228.5</ele><time>2026-04-11T12:58:26.981Z</time></trkpt><trkpt lat="45.42108325104578" lon="7.943799974189746"><ele>228.0</ele><time>2026-04-11T12:58:27.981Z</time></trkpt><trkpt lat="45.4209483876521" lon="7.943795058733289"><ele>227.5</ele><time>2026-04-11T12:58:28.981Z</time></trkpt><trkpt lat="45.420817021575864" lon="7.943790272675778"><ele>227.0</ele><time>2026-04-11T12:58:29.981Z</time></trkpt><trkpt lat="45.42068323020657" lon="7.943785396281677"><ele>227.0</ele><time>2026-04-11T12:58:30.981Z</time></trkpt><trkpt lat="45.42054309750941" lon="7.94378028877352"><ele>227.0</ele><time>2026-04-11T12:58:31.981Z</time></trkpt><trkpt lat="45.42040718257915" lon="7.943775295744923"><ele>227.0</ele><time>2026-04-11T12:58:32.981Z</time></trkpt><trkpt lat="45.420268457498004" lon="7.943769652414192"><ele>227.0</ele><time>2026-04-11T12:58:33.981Z</time></trkpt><trkpt lat="45.420135556480304" lon="7.94376402042829"><ele>227.0</ele><time>2026-04-11T12:58:34.981Z</time></trkpt><trkpt lat="45.42000236243502" lon="7.943785636935295"><ele>227.0</ele><time>2026-04-11T12:58:35.981Z</time></trkpt><trkpt lat="45.41987176895789" lon="7.94378289328063"><ele>227.0</ele><time>2026-04-11T12:58:36.981Z</time></trkpt><trkpt lat="45.41973322751839" lon="7.943789807011273"><ele>227.0</ele><time>2026-04-11T12:58:37.981Z</time></trkpt><trkpt lat="45.41959451843914" lon="7.943801710504647"><ele>227.25</ele><time>2026-04-11T12:58:38.981Z</time></trkpt><trkpt lat="45.41945932000644" lon="7.943802418203326"><ele>227.5</ele><time>2026-04-11T12:58:39.981Z</time></trkpt><trkpt lat="45.41932081656504" lon="7.943787058842876"><ele>227.75</ele><time>2026-04-11T12:58:40.981Z</time></trkpt><trkpt lat="45.41917831187505" lon="7.9437898110777345"><ele>228.0</ele><time>2026-04-11T12:58:41.981Z</time></trkpt><trkpt lat="45.41904302441874" lon="7.9438140987061665"><ele>228.0</ele><time>2026-04-11T12:58:42.981Z</time></trkpt><trkpt lat="45.418908328160825" lon="7.943815527771818"><ele>228.0</ele><time>2026-04-11T12:58:43.981Z</time></trkpt><trkpt lat="45.41877869402075" lon="7.943817026860162"><ele>228.0</ele><time>2026-04-11T12:58:44.981Z</time></trkpt><trkpt lat="45.41865217768415" lon="7.943819031812305"><ele>228.0</ele><time>2026-04-11T12:58:45.981Z</time></trkpt><trkpt lat="45.41852687384006" lon="7.943826203950608"><ele>227.60000000000002</ele><time>2026-04-11T12:58:46.981Z</time></trkpt><trkpt lat="45.41841176847951" lon="7.943829553019034"><ele>227.20000000000002</ele><time>2026-04-11T12:58:47.981Z</time></trkpt><trkpt lat="45.41830275043083" lon="7.943814564124321"><ele>226.8</ele><time>2026-04-11T12:58:48.981Z</time></trkpt><trkpt lat="45.41820244597374" lon="7.943831519125658"><ele>226.4</ele><time>2026-04-11T12:58:49.981Z</time></trkpt><trkpt lat="45.41809957234754" lon="7.943815830120548"><ele>226.0</ele><time>2026-04-11T12:58:50.981Z</time></trkpt><trkpt lat="45.418006567367286" lon="7.943779055972065"><ele>226.0</ele><time>2026-04-11T12:58:51.981Z</time></trkpt><trkpt lat="45.4179372516272" lon="7.943673277639696"><ele>226.00000000000003</ele><time>2026-04-11T12:58:52.981Z</time></trkpt><trkpt lat="45.417859341720884" lon="7.943599721933276"><ele>226.00000000000003</ele><time>2026-04-11T12:58:53.981Z</time></trkpt><trkpt lat="45.41779573759563" lon="7.94350383127503"><ele>226.0</ele><time>2026-04-11T12:58:54.981Z</time></trkpt><trkpt lat="45.41773005948419" lon="7.943418773813058"><ele>226.0</ele><time>2026-04-11T12:58:55.981Z</time></trkpt><trkpt lat="45.41780794305112" lon="7.943182961988069"><ele>226.20000000000002</ele><time>2026-04-11T12:58:56.981Z</time></trkpt><trkpt lat="45.417803245078474" lon="7.943028996713109"><ele>226.40000000000003</ele><time>2026-04-11T12:58:57.981Z</time></trkpt><trkpt lat="45.41779031923014" lon="7.942866477303774"><ele>226.6</ele><time>2026-04-11T12:58:58.981Z</time></trkpt><trkpt lat="45.417782280907424" lon="7.942715050880588"><ele>226.8</ele><time>2026-04-11T12:58:59.981Z</time></trkpt><trkpt lat="45.417783424610334" lon="7.942554514281082"><ele>227.0</ele><time>2026-04-11T12:59:00.981Z</time></trkpt><trkpt lat="45.4177970449861" lon="7.942393174294657"><ele>227.6</ele><time>2026-04-11T12:59:01.978Z</time></trkpt><trkpt lat="45.41782282166162" lon="7.9422545114032355"><ele>228.2</ele><time>2026-04-11T12:59:02.978Z</time></trkpt><trkpt lat="45.41786112084009" lon="7.9421370846838215"><ele>228.8</ele><time>2026-04-11T12:59:03.978Z</time></trkpt><trkpt lat="45.41791420783124" lon="7.942025117707451"><ele>229.4</ele><time>2026-04-11T12:59:04.978Z</time></trkpt><trkpt lat="45.41798725765891" lon="7.9419255415139745"><ele>230.0</ele><time>2026-04-11T12:59:05.978Z</time></trkpt><trkpt lat="45.418061891655896" lon="7.941813414994892"><ele>229.25</ele><time>2026-04-11T12:59:06.978Z</time></trkpt><trkpt lat="45.41813879346802" lon="7.941697880239059"><ele>228.5</ele><time>2026-04-11T12:59:07.977Z</time></trkpt><trkpt lat="45.41821166230986" lon="7.941549222011142"><ele>227.75</ele><time>2026-04-11T12:59:08.978Z</time></trkpt><trkpt lat="45.4182837489699" lon="7.941399101656617"><ele>227.0</ele><time>2026-04-11T12:59:09.978Z</time></trkpt><trkpt lat="45.418308996333195" lon="7.941214008694734"><ele>227.0</ele><time>2026-04-11T12:59:10.978Z</time></trkpt><trkpt lat="45.418314368122545" lon="7.941041636780785"><ele>227.0</ele><time>2026-04-11T12:59:11.977Z</time></trkpt><trkpt lat="45.41834965712611" lon="7.940866858538787"><ele>227.0</ele><time>2026-04-11T12:59:12.977Z</time></trkpt><trkpt lat="45.418420332549424" lon="7.940696154365837"><ele>227.0</ele><time>2026-04-11T12:59:13.978Z</time></trkpt><trkpt lat="45.41848035785824" lon="7.94053835773833"><ele>228.0</ele><time>2026-04-11T12:59:14.978Z</time></trkpt><trkpt lat="45.41852231234082" lon="7.940365411561937"><ele>229.0</ele><time>2026-04-11T12:59:15.978Z</time></trkpt><trkpt lat="45.41853289355656" lon="7.940195494161988"><ele>230.0</ele><time>2026-04-11T12:59:16.978Z</time></trkpt><trkpt lat="45.41851250079443" lon="7.940038365304051"><ele>231.0</ele><time>2026-04-11T12:59:17.978Z</time></trkpt><trkpt lat="45.41849674521589" lon="7.939899118971733"><ele>231.0</ele><time>2026-04-11T12:59:18.978Z</time></trkpt><trkpt lat="45.41850178610389" lon="7.939778178164653"><ele>231.00000000000003</ele><time>2026-04-11T12:59:19.978Z</time></trkpt><trkpt lat="45.41854336423308" lon="7.939680504760406"><ele>231.00000000000003</ele><time>2026-04-11T12:59:20.978Z</time></trkpt><trkpt lat="45.41862169430093" lon="7.939615348830186"><ele>231.0</ele><time>2026-04-11T12:59:21.978Z</time></trkpt><trkpt lat="45.41872206813888" lon="7.93958106659584"><ele>231.0</ele><time>2026-04-11T12:59:22.978Z</time></trkpt><trkpt lat="45.41884324719009" lon="7.939544862524988"><ele>229.75</ele><time>2026-04-11T12:59:23.978Z</time></trkpt><trkpt lat="45.4189718108705" lon="7.939518130858502"><ele>228.5</ele><time>2026-04-11T12:59:24.978Z</time></trkpt><trkpt lat="45.41910495839885" lon="7.939492753313055"><ele>227.25</ele><time>2026-04-11T12:59:25.978Z</time></trkpt><trkpt lat="45.419230694300374" lon="7.939469647204053"><ele>226.0</ele><time>2026-04-11T12:59:26.978Z</time></trkpt><trkpt lat="45.41935128540552" lon="7.9394492966565045"><ele>226.0</ele><time>2026-04-11T12:59:27.978Z</time></trkpt><trkpt lat="45.41945834836223" lon="7.939422882484026"><ele>226.00000000000003</ele><time>2026-04-11T12:59:28.978Z</time></trkpt><trkpt lat="45.41954968778003" lon="7.939390028020772"><ele>226.00000000000003</ele><time>2026-04-11T12:59:29.978Z</time></trkpt><trkpt lat="45.419623702675715" lon="7.939354438373073"><ele>226.0</ele><time>2026-04-11T12:59:30.978Z</time></trkpt><trkpt lat="45.41969051260526" lon="7.939182180061715"><ele>226.0</ele><time>2026-04-11T12:59:32.978Z</time></trkpt><trkpt lat="45.419690019247625" lon="7.939035938464007"><ele>225.5</ele><time>2026-04-11T12:59:33.978Z</time></trkpt><trkpt lat="45.41966258215555" lon="7.938855225930948"><ele>225.0</ele><time>2026-04-11T12:59:34.978Z</time></trkpt><trkpt lat="45.41966202169913" lon="7.938663740999002"><ele>224.5</ele><time>2026-04-11T12:59:35.978Z</time></trkpt><trkpt lat="45.41966210054075" lon="7.938459385065536"><ele>224.0</ele><time>2026-04-11T12:59:36.978Z</time></trkpt><trkpt lat="45.41966729007232" lon="7.938247257002297"><ele>223.66666666666669</ele><time>2026-04-11T12:59:37.978Z</time></trkpt><trkpt lat="45.41967088928281" lon="7.938017046619311"><ele>223.33333333333331</ele><time>2026-04-11T12:59:38.978Z</time></trkpt><trkpt lat="45.41966971960767" lon="7.937795907003583"><ele>223.0</ele><time>2026-04-11T12:59:39.978Z</time></trkpt><trkpt lat="45.41966164395402" lon="7.937587141929532"><ele>223.0</ele><time>2026-04-11T12:59:40.978Z</time></trkpt><trkpt lat="45.41966285100348" lon="7.93737579872992"><ele>223.0</ele><time>2026-04-11T12:59:41.978Z</time></trkpt><trkpt lat="45.41966393624022" lon="7.937153060980823"><ele>223.0</ele><time>2026-04-11T12:59:42.978Z</time></trkpt><trkpt lat="45.41966348167598" lon="7.936930548720258"><ele>222.66666666666666</ele><time>2026-04-11T12:59:43.978Z</time></trkpt><trkpt lat="45.41966058686011" lon="7.936708055158501"><ele>222.33333333333331</ele><time>2026-04-11T12:59:44.978Z</time></trkpt><trkpt lat="45.41966086914097" lon="7.93649860129211"><ele>222.0</ele><time>2026-04-11T12:59:45.978Z</time></trkpt><trkpt lat="45.41965526469337" lon="7.936272191940469"><ele>222.0</ele><time>2026-04-11T12:59:46.978Z</time></trkpt><trkpt lat="45.41966371187767" lon="7.936048646199477"><ele>222.0</ele><time>2026-04-11T12:59:47.978Z</time></trkpt><trkpt lat="45.41965914895685" lon="7.935828854812545"><ele>222.0</ele><time>2026-04-11T12:59:48.978Z</time></trkpt><trkpt lat="45.419649976135695" lon="7.935596837903784"><ele>222.0</ele><time>2026-04-11T12:59:49.978Z</time></trkpt><trkpt lat="45.4196480176766" lon="7.93535735850603"><ele>222.0</ele><time>2026-04-11T12:59:50.978Z</time></trkpt><trkpt lat="45.41966525856728" lon="7.9351270823553115"><ele>222.0</ele><time>2026-04-11T12:59:51.978Z</time></trkpt><trkpt lat="45.41967481148353" lon="7.934900796215649"><ele>222.0</ele><time>2026-04-11T12:59:52.978Z</time></trkpt><trkpt lat="45.41967584869186" lon="7.93468389469288"><ele>222.0</ele><time>2026-04-11T12:59:53.978Z</time></trkpt><trkpt lat="45.41968206443272" lon="7.934447840917338"><ele>222.0</ele><time>2026-04-11T12:59:54.978Z</time></trkpt><trkpt lat="45.41967741226151" lon="7.934230165731563"><ele>222.0</ele><time>2026-04-11T12:59:55.978Z</time></trkpt><trkpt lat="45.419674028697656" lon="7.934022918950539"><ele>222.0</ele><time>2026-04-11T12:59:56.978Z</time></trkpt><trkpt lat="45.41968025286289" lon="7.933807277417668"><ele>222.0</ele><time>2026-04-11T12:59:57.978Z</time></trkpt><trkpt lat="45.41968685634249" lon="7.933600251307958"><ele>222.0</ele><time>2026-04-11T12:59:58.978Z</time></trkpt><trkpt lat="45.419688168588586" lon="7.933389219625009"><ele>222.0</ele><time>2026-04-11T12:59:59.978Z</time></trkpt><trkpt lat="45.419682611951345" lon="7.933197719993433"><ele>222.0</ele><time>2026-04-11T13:00:00.978Z</time></trkpt><trkpt lat="45.41967133424635" lon="7.932990448007226"><ele>222.0</ele><time>2026-04-11T13:00:01.978Z</time></trkpt><trkpt lat="45.419673418202805" lon="7.932769106093207"><ele>222.0</ele><time>2026-04-11T13:00:02.978Z</time></trkpt><trkpt lat="45.419675393426054" lon="7.932538984060812"><ele>222.0</ele><time>2026-04-11T13:00:03.978Z</time></trkpt><trkpt lat="45.41966933731343" lon="7.932304024995756"><ele>222.0</ele><time>2026-04-11T13:00:04.978Z</time></trkpt><trkpt lat="45.419671109325364" lon="7.932080563622863"><ele>222.0</ele><time>2026-04-11T13:00:05.978Z</time></trkpt><trkpt lat="45.41966841801999" lon="7.931847128201347"><ele>222.33333333333331</ele><time>2026-04-11T13:00:06.978Z</time></trkpt><trkpt lat="45.4196596170913" lon="7.931613700015074"><ele>222.66666666666666</ele><time>2026-04-11T13:00:07.978Z</time></trkpt><trkpt lat="45.41965252226813" lon="7.9313816147580765"><ele>223.0</ele><time>2026-04-11T13:00:08.978Z</time></trkpt><trkpt lat="45.41964595566186" lon="7.931166704838687"><ele>223.25</ele><time>2026-04-11T13:00:09.978Z</time></trkpt><trkpt lat="45.41964139792773" lon="7.930947024128593"><ele>223.5</ele><time>2026-04-11T13:00:10.978Z</time></trkpt><trkpt lat="45.419644268253535" lon="7.930751825010115"><ele>223.75</ele><time>2026-04-11T13:00:11.978Z</time></trkpt><trkpt lat="45.419642962759845" lon="7.930578034869356"><ele>224.0</ele><time>2026-04-11T13:00:12.978Z</time></trkpt><trkpt lat="45.419640568495694" lon="7.93043483823784"><ele>224.2</ele><time>2026-04-11T13:00:13.978Z</time></trkpt><trkpt lat="45.419638626314885" lon="7.930317379653225"><ele>224.39999999999998</ele><time>2026-04-11T13:00:14.978Z</time></trkpt><trkpt lat="45.41957351428212" lon="7.930186876669531"><ele>224.6</ele><time>2026-04-11T13:00:16.978Z</time></trkpt><trkpt lat="45.41949133114879" lon="7.9301888815639625"><ele>224.8</ele><time>2026-04-11T13:00:17.978Z</time></trkpt><trkpt lat="45.4193988914755" lon="7.930234713563398"><ele>225.0</ele><time>2026-04-11T13:00:18.978Z</time></trkpt><trkpt lat="45.41931020293929" lon="7.930267615241886"><ele>225.0</ele><time>2026-04-11T13:00:19.978Z</time></trkpt><trkpt lat="45.4192129221362" lon="7.930302082444477"><ele>225.0</ele><time>2026-04-11T13:00:20.978Z</time></trkpt><trkpt lat="45.41910697690746" lon="7.930341179411571"><ele>225.0</ele><time>2026-04-11T13:00:21.978Z</time></trkpt><trkpt lat="45.41899579011405" lon="7.930373466365292"><ele>225.0</ele><time>2026-04-11T13:00:22.978Z</time></trkpt><trkpt lat="45.418888807176025" lon="7.930400808192318"><ele>225.0</ele><time>2026-04-11T13:00:23.978Z</time></trkpt><trkpt lat="45.418778524793325" lon="7.9304149282368535"><ele>224.66666666666669</ele><time>2026-04-11T13:00:24.978Z</time></trkpt><trkpt lat="45.418609816344556" lon="7.930097256327022"><ele>224.33333333333334</ele><time>2026-04-11T13:00:25.978Z</time></trkpt><trkpt lat="45.41849190636362" lon="7.930125618038354"><ele>224.0</ele><time>2026-04-11T13:00:26.978Z</time></trkpt><trkpt lat="45.4184144423693" lon="7.930469412352138"><ele>224.0</ele><time>2026-04-11T13:00:27.978Z</time></trkpt><trkpt lat="45.41831185927895" lon="7.930483863643505"><ele>224.0</ele><time>2026-04-11T13:00:28.978Z</time></trkpt><trkpt lat="45.41816785394598" lon="7.930204893236595"><ele>224.0</ele><time>2026-04-11T13:00:29.978Z</time></trkpt><trkpt lat="45.418067152459855" lon="7.930230385209045"><ele>224.0</ele><time>2026-04-11T13:00:30.978Z</time></trkpt><trkpt lat="45.417969157850536" lon="7.930255155933145"><ele>224.39999999999998</ele><time>2026-04-11T13:00:31.978Z</time></trkpt><trkpt lat="45.4178660922491" lon="7.930279320708287"><ele>224.79999999999998</ele><time>2026-04-11T13:00:32.978Z</time></trkpt><trkpt lat="45.417772211395985" lon="7.930301331969198"><ele>225.20000000000002</ele><time>2026-04-11T13:00:33.978Z</time></trkpt><trkpt lat="45.41768759054872" lon="7.930321172153977"><ele>225.60000000000002</ele><time>2026-04-11T13:00:34.978Z</time></trkpt><trkpt lat="45.41758375174612" lon="7.930346432892305"><ele>226.0</ele><time>2026-04-11T13:00:36.978Z</time></trkpt><trkpt lat="45.41751354773502" lon="7.93036404083544"><ele>226.0</ele><time>2026-04-11T13:00:41.978Z</time></trkpt><trkpt lat="45.41743546491646" lon="7.930383624789631"><ele>226.00000000000003</ele><time>2026-04-11T13:00:44.978Z</time></trkpt><trkpt lat="45.41735569643043" lon="7.930403631542222"><ele>226.00000000000003</ele><time>2026-04-11T13:00:46.978Z</time></trkpt><trkpt lat="45.4172449199931" lon="7.930436275607432"><ele>226.0</ele><time>2026-04-11T13:00:48.978Z</time></trkpt><trkpt lat="45.417180227900516" lon="7.930440357092603"><ele>226.0</ele><time>2026-04-11T13:00:49.978Z</time></trkpt><trkpt lat="45.417064176937465" lon="7.930453817292159"><ele>225.8</ele><time>2026-04-11T13:00:51.978Z</time></trkpt><trkpt lat="45.41697893890553" lon="7.930469577806068"><ele>225.60000000000002</ele><time>2026-04-11T13:00:52.978Z</time></trkpt><trkpt lat="45.416879875919435" lon="7.930499596101817"><ele>225.4</ele><time>2026-04-11T13:00:53.978Z</time></trkpt><trkpt lat="45.4167850424111" lon="7.930526081673149"><ele>225.2</ele><time>2026-04-11T13:00:54.978Z</time></trkpt><trkpt lat="45.416693225776335" lon="7.930534649843523"><ele>225.0</ele><time>2026-04-11T13:00:55.978Z</time></trkpt><trkpt lat="45.416611769265195" lon="7.930565306603645"><ele>225.0</ele><time>2026-04-11T13:00:56.978Z</time></trkpt><trkpt lat="45.41654151819136" lon="7.930583576076918"><ele>225.0</ele><time>2026-04-11T13:00:57.978Z</time></trkpt><trkpt lat="45.41645975351271" lon="7.930347559237166"><ele>225.0</ele><time>2026-04-11T13:00:58.978Z</time></trkpt><trkpt lat="45.416446921933144" lon="7.930205178189736"><ele>225.0</ele><time>2026-04-11T13:00:59.978Z</time></trkpt><trkpt lat="45.41641347649851" lon="7.9300643657125205"><ele>224.75</ele><time>2026-04-11T13:01:00.978Z</time></trkpt><trkpt lat="45.41636149073426" lon="7.929923197993187"><ele>224.5</ele><time>2026-04-11T13:01:01.978Z</time></trkpt><trkpt lat="45.41630112102478" lon="7.929780916240961"><ele>224.25</ele><time>2026-04-11T13:01:02.978Z</time></trkpt><trkpt lat="45.416241956542756" lon="7.929646812712439"><ele>224.0</ele><time>2026-04-11T13:01:03.978Z</time></trkpt><trkpt lat="45.41617928842121" lon="7.9295162131080295"><ele>223.75</ele><time>2026-04-11T13:01:04.978Z</time></trkpt><trkpt lat="45.41611894264755" lon="7.929394088168788"><ele>223.5</ele><time>2026-04-11T13:01:05.978Z</time></trkpt><trkpt lat="45.41605041464998" lon="7.929268414495948"><ele>223.25</ele><time>2026-04-11T13:01:06.978Z</time></trkpt><trkpt lat="45.415979627972355" lon="7.929129898956112"><ele>223.0</ele><time>2026-04-11T13:01:07.974Z</time></trkpt><trkpt lat="45.41590648281749" lon="7.928985313259687"><ele>223.5</ele><time>2026-04-11T13:01:08.974Z</time></trkpt><trkpt lat="45.415828923652995" lon="7.928852851639998"><ele>224.0</ele><time>2026-04-11T13:01:09.974Z</time></trkpt><trkpt lat="45.41575348124096" lon="7.928721766933943"><ele>224.5</ele><time>2026-04-11T13:01:10.974Z</time></trkpt><trkpt lat="45.415678796948676" lon="7.92859136908659"><ele>225.0</ele><time>2026-04-11T13:01:11.974Z</time></trkpt><trkpt lat="45.41560804961019" lon="7.928462069614729"><ele>225.0</ele><time>2026-04-11T13:01:12.974Z</time></trkpt><trkpt lat="45.415530299202736" lon="7.928342042160248"><ele>225.0</ele><time>2026-04-11T13:01:13.974Z</time></trkpt><trkpt lat="45.41544410362556" lon="7.928230422006027"><ele>225.0</ele><time>2026-04-11T13:01:14.974Z</time></trkpt><trkpt lat="45.41535686804096" lon="7.928117259718415"><ele>225.0</ele><time>2026-04-11T13:01:15.974Z</time></trkpt><trkpt lat="45.41527108156493" lon="7.9280035794956865"><ele>224.75</ele><time>2026-04-11T13:01:16.974Z</time></trkpt><trkpt lat="45.415185112025036" lon="7.927893666924681"><ele>224.5</ele><time>2026-04-11T13:01:17.974Z</time></trkpt><trkpt lat="45.415095720346564" lon="7.927781377085488"><ele>224.25</ele><time>2026-04-11T13:01:18.974Z</time></trkpt><trkpt lat="45.41500922666704" lon="7.9276663119862345"><ele>224.0</ele><time>2026-04-11T13:01:19.974Z</time></trkpt><trkpt lat="45.414925447433056" lon="7.92755556379467"><ele>224.0</ele><time>2026-04-11T13:01:20.974Z</time></trkpt><trkpt lat="45.41483993338945" lon="7.9274483289910815"><ele>224.0</ele><time>2026-04-11T13:01:21.974Z</time></trkpt><trkpt lat="45.41474579629984" lon="7.927350611168634"><ele>224.0</ele><time>2026-04-11T13:01:22.974Z</time></trkpt><trkpt lat="45.414626133051975" lon="7.92741294108481"><ele>224.0</ele><time>2026-04-11T13:01:23.974Z</time></trkpt><trkpt lat="45.41452679601217" lon="7.927439860338191"><ele>223.5</ele><time>2026-04-11T13:01:24.974Z</time></trkpt><trkpt lat="45.41450359592026" lon="7.927552286297253"><ele>223.0</ele><time>2026-04-11T13:01:25.974Z</time></trkpt><trkpt lat="45.41440095501044" lon="7.927575476127232"><ele>222.5</ele><time>2026-04-11T13:01:26.974Z</time></trkpt><trkpt lat="45.41436593342095" lon="7.927658531821101"><ele>222.0</ele><time>2026-04-11T13:01:27.974Z</time></trkpt><trkpt lat="45.414066502124285" lon="7.927018879249486"><ele>222.0</ele><time>2026-04-11T13:01:28.974Z</time></trkpt><trkpt lat="45.41395041604515" lon="7.927000844238206"><ele>222.0</ele><time>2026-04-11T13:01:29.974Z</time></trkpt><trkpt lat="45.41383473899514" lon="7.927002609249038"><ele>222.0</ele><time>2026-04-11T13:01:30.974Z</time></trkpt><trkpt lat="45.41372664730817" lon="7.927033504785615"><ele>222.0</ele><time>2026-04-11T13:01:31.974Z</time></trkpt><trkpt lat="45.4136173208912" lon="7.927084112764061"><ele>221.5</ele><time>2026-04-11T13:01:32.974Z</time></trkpt><trkpt lat="45.41349886131" lon="7.927147730315915"><ele>221.0</ele><time>2026-04-11T13:01:33.974Z</time></trkpt><trkpt lat="45.413379269578314" lon="7.927192157714146"><ele>220.5</ele><time>2026-04-11T13:01:34.974Z</time></trkpt><trkpt lat="45.41324848777368" lon="7.927227498860637"><ele>220.0</ele><time>2026-04-11T13:01:35.974Z</time></trkpt><trkpt lat="45.41312413803039" lon="7.927261077613531"><ele>220.0</ele><time>2026-04-11T13:01:36.974Z</time></trkpt><trkpt lat="45.412997049910345" lon="7.927302134059339"><ele>220.0</ele><time>2026-04-11T13:01:37.974Z</time></trkpt><trkpt lat="45.41287987457596" lon="7.9273399180923"><ele>220.0</ele><time>2026-04-11T13:01:38.974Z</time></trkpt><trkpt lat="45.41275119687393" lon="7.927380392437948"><ele>220.0</ele><time>2026-04-11T13:01:39.974Z</time></trkpt><trkpt lat="45.41262261717064" lon="7.927424616436663"><ele>220.25</ele><time>2026-04-11T13:01:40.974Z</time></trkpt><trkpt lat="45.41248547406452" lon="7.927463900120145"><ele>220.5</ele><time>2026-04-11T13:01:41.974Z</time></trkpt><trkpt lat="45.41234861817599" lon="7.927502592662486"><ele>220.75</ele><time>2026-04-11T13:01:42.974Z</time></trkpt><trkpt lat="45.41221805338274" lon="7.927545735382451"><ele>221.0</ele><time>2026-04-11T13:01:43.974Z</time></trkpt><trkpt lat="45.412087642034486" lon="7.92758120046204"><ele>221.25</ele><time>2026-04-11T13:01:44.974Z</time></trkpt><trkpt lat="45.41196142756349" lon="7.927612326425262"><ele>221.5</ele><time>2026-04-11T13:01:45.974Z</time></trkpt><trkpt lat="45.41183933412273" lon="7.927639165349747"><ele>221.75</ele><time>2026-04-11T13:01:46.974Z</time></trkpt><trkpt lat="45.41172410741782" lon="7.92767535161262"><ele>222.0</ele><time>2026-04-11T13:01:47.974Z</time></trkpt><trkpt lat="45.411589295611115" lon="7.927732518390886"><ele>222.0</ele><time>2026-04-11T13:01:48.974Z</time></trkpt><trkpt lat="45.41144761800431" lon="7.927776493545984"><ele>222.0</ele><time>2026-04-11T13:01:49.974Z</time></trkpt><trkpt lat="45.411309190843376" lon="7.927813797045297"><ele>222.0</ele><time>2026-04-11T13:01:50.974Z</time></trkpt><trkpt lat="45.411176454913246" lon="7.927847739637667"><ele>222.0</ele><time>2026-04-11T13:01:51.974Z</time></trkpt><trkpt lat="45.411038619496836" lon="7.927889419258969"><ele>222.0</ele><time>2026-04-11T13:01:52.974Z</time></trkpt><trkpt lat="45.41090457466199" lon="7.9279272773363605"><ele>222.0</ele><time>2026-04-11T13:01:53.974Z</time></trkpt><trkpt lat="45.410777820684274" lon="7.927972074615085"><ele>222.0</ele><time>2026-04-11T13:01:54.974Z</time></trkpt><trkpt lat="45.410650124375216" lon="7.928017725769126"><ele>222.0</ele><time>2026-04-11T13:01:55.974Z</time></trkpt><trkpt lat="45.41051411224816" lon="7.928061389220864"><ele>221.75</ele><time>2026-04-11T13:01:56.974Z</time></trkpt><trkpt lat="45.4103859895505" lon="7.9281012305522705"><ele>221.5</ele><time>2026-04-11T13:01:57.974Z</time></trkpt><trkpt lat="45.410250532936395" lon="7.928142758694676"><ele>221.25</ele><time>2026-04-11T13:01:58.974Z</time></trkpt><trkpt lat="45.41011951129891" lon="7.928178295883816"><ele>221.0</ele><time>2026-04-11T13:01:59.974Z</time></trkpt><trkpt lat="45.409998236151566" lon="7.928210206842773"><ele>221.00000000000003</ele><time>2026-04-11T13:02:00.974Z</time></trkpt><trkpt lat="45.40989656134381" lon="7.928226639630987"><ele>221.0</ele><time>2026-04-11T13:02:01.974Z</time></trkpt><trkpt lat="45.409804427564225" lon="7.928221420441842"><ele>221.0</ele><time>2026-04-11T13:02:02.974Z</time></trkpt><trkpt lat="45.40973376520501" lon="7.928172549914223"><ele>221.0</ele><time>2026-04-11T13:02:03.974Z</time></trkpt><trkpt lat="45.40967727364336" lon="7.9281175050971395"><ele>221.00000000000003</ele><time>2026-04-11T13:02:04.974Z</time></trkpt><trkpt lat="45.409595288805676" lon="7.928101619732287"><ele>221.0</ele><time>2026-04-11T13:02:05.974Z</time></trkpt><trkpt lat="45.40947796127592" lon="7.928124277093367"><ele>221.25</ele><time>2026-04-11T13:02:06.974Z</time></trkpt><trkpt lat="45.40934400502657" lon="7.9281786807343115"><ele>221.5</ele><time>2026-04-11T13:02:07.974Z</time></trkpt><trkpt lat="45.40921195689395" lon="7.9282249302365155"><ele>221.75</ele><time>2026-04-11T13:02:08.974Z</time></trkpt><trkpt lat="45.409078612128155" lon="7.928270849283489"><ele>222.0</ele><time>2026-04-11T13:02:09.974Z</time></trkpt><trkpt lat="45.40894380741706" lon="7.9283136057275225"><ele>222.0</ele><time>2026-04-11T13:02:10.974Z</time></trkpt><trkpt lat="45.40880412351349" lon="7.928353728537375"><ele>222.0</ele><time>2026-04-11T13:02:11.974Z</time></trkpt><trkpt lat="45.40866970637156" lon="7.928382663184956"><ele>222.0</ele><time>2026-04-11T13:02:12.974Z</time></trkpt><trkpt lat="45.40853247096119" lon="7.92842411142534"><ele>222.0</ele><time>2026-04-11T13:02:13.974Z</time></trkpt><trkpt lat="45.40840701005825" lon="7.928465957528284"><ele>221.75</ele><time>2026-04-11T13:02:14.974Z</time></trkpt><trkpt lat="45.40827665062021" lon="7.928504038157296"><ele>221.5</ele><time>2026-04-11T13:02:15.974Z</time></trkpt><trkpt lat="45.40814087312108" lon="7.928543499237482"><ele>221.25</ele><time>2026-04-11T13:02:16.974Z</time></trkpt><trkpt lat="45.408026142550334" lon="7.928576927730559"><ele>221.0</ele><time>2026-04-11T13:02:17.974Z</time></trkpt><trkpt lat="45.40792181809366" lon="7.928610374030671"><ele>221.4</ele><time>2026-04-11T13:02:18.974Z</time></trkpt><trkpt lat="45.40782350671578" lon="7.928641709415266"><ele>221.8</ele><time>2026-04-11T13:02:19.974Z</time></trkpt><trkpt lat="45.40772384026451" lon="7.928672015709071"><ele>222.20000000000002</ele><time>2026-04-11T13:02:20.974Z</time></trkpt><trkpt lat="45.407625314163056" lon="7.92867094403119"><ele>222.60000000000002</ele><time>2026-04-11T13:02:21.974Z</time></trkpt><trkpt lat="45.40754169876171" lon="7.928664779666291"><ele>223.0</ele><time>2026-04-11T13:02:22.974Z</time></trkpt><trkpt lat="45.407488468595446" lon="7.928496105200239"><ele>223.0</ele><time>2026-04-11T13:02:24.974Z</time></trkpt><trkpt lat="45.4074839588197" lon="7.928342380701199"><ele>223.0</ele><time>2026-04-11T13:02:25.974Z</time></trkpt><trkpt lat="45.4074642206891" lon="7.92817761159331"><ele>223.0</ele><time>2026-04-11T13:02:26.974Z</time></trkpt><trkpt lat="45.407441539995254" lon="7.927995927591797"><ele>223.0</ele><time>2026-04-11T13:02:27.974Z</time></trkpt><trkpt lat="45.40742211135743" lon="7.927812458808501"><ele>223.0</ele><time>2026-04-11T13:02:28.974Z</time></trkpt><trkpt lat="45.40740910364286" lon="7.927626938472683"><ele>223.0</ele><time>2026-04-11T13:02:29.974Z</time></trkpt><trkpt lat="45.40740155927366" lon="7.927434342714323"><ele>223.0</ele><time>2026-04-11T13:02:30.974Z</time></trkpt><trkpt lat="45.40740854270722" lon="7.927231473212383"><ele>223.0</ele><time>2026-04-11T13:02:31.974Z</time></trkpt><trkpt lat="45.407431420161444" lon="7.927034406367231"><ele>222.75</ele><time>2026-04-11T13:02:32.974Z</time></trkpt><trkpt lat="45.4074418141556" lon="7.926846165520927"><ele>222.5</ele><time>2026-04-11T13:02:33.974Z</time></trkpt><trkpt lat="45.40746165290645" lon="7.926661414747878"><ele>222.25</ele><time>2026-04-11T13:02:34.974Z</time></trkpt><trkpt lat="45.407488783043426" lon="7.926490410851683"><ele>222.0</ele><time>2026-04-11T13:02:35.974Z</time></trkpt><trkpt lat="45.40749774008077" lon="7.926342812960501"><ele>222.0</ele><time>2026-04-11T13:02:36.974Z</time></trkpt><trkpt lat="45.407491993473265" lon="7.926205424058962"><ele>222.0</ele><time>2026-04-11T13:02:37.974Z</time></trkpt><trkpt lat="45.407454592461704" lon="7.926060168538577"><ele>222.0</ele><time>2026-04-11T13:02:38.974Z</time></trkpt><trkpt lat="45.40742313216458" lon="7.925904261457512"><ele>222.0</ele><time>2026-04-11T13:02:39.974Z</time></trkpt><trkpt lat="45.40739626484038" lon="7.925776353166447"><ele>222.0</ele><time>2026-04-11T13:02:40.974Z</time></trkpt><trkpt lat="45.407351474926266" lon="7.925670543265968"><ele>221.75</ele><time>2026-04-11T13:02:41.974Z</time></trkpt><trkpt lat="45.40728439625943" lon="7.925603962092365"><ele>221.5</ele><time>2026-04-11T13:02:42.974Z</time></trkpt><trkpt lat="45.40718944862205" lon="7.925564518191134"><ele>221.25</ele><time>2026-04-11T13:02:43.974Z</time></trkpt><trkpt lat="45.40705750474943" lon="7.925524624863679"><ele>221.0</ele><time>2026-04-11T13:02:44.974Z</time></trkpt><trkpt lat="45.406915277112496" lon="7.925500835413131"><ele>221.5</ele><time>2026-04-11T13:02:45.974Z</time></trkpt><trkpt lat="45.40678531220756" lon="7.925469734033843"><ele>222.0</ele><time>2026-04-11T13:02:46.974Z</time></trkpt><trkpt lat="45.40664644956429" lon="7.925442628802464"><ele>222.5</ele><time>2026-04-11T13:02:47.974Z</time></trkpt><trkpt lat="45.40651007133117" lon="7.925415685235244"><ele>223.0</ele><time>2026-04-11T13:02:48.974Z</time></trkpt><trkpt lat="45.40637073022324" lon="7.925381887694711"><ele>222.25</ele><time>2026-04-11T13:02:49.974Z</time></trkpt><trkpt lat="45.406249366287405" lon="7.925343105360436"><ele>221.5</ele><time>2026-04-11T13:02:50.974Z</time></trkpt><trkpt lat="45.40612589150688" lon="7.925271652075512"><ele>220.75</ele><time>2026-04-11T13:02:51.974Z</time></trkpt><trkpt lat="45.406024002565744" lon="7.925152105359964"><ele>220.0</ele><time>2026-04-11T13:02:52.974Z</time></trkpt><trkpt lat="45.40595282634063" lon="7.924985237568649"><ele>220.0</ele><time>2026-04-11T13:02:53.974Z</time></trkpt><trkpt lat="45.405899324524896" lon="7.924811641397992"><ele>220.0</ele><time>2026-04-11T13:02:54.974Z</time></trkpt><trkpt lat="45.4058187242343" lon="7.924666626668427"><ele>220.0</ele><time>2026-04-11T13:02:55.974Z</time></trkpt><trkpt lat="45.40573232028189" lon="7.924540118171888"><ele>220.0</ele><time>2026-04-11T13:02:56.974Z</time></trkpt><trkpt lat="45.405641406380596" lon="7.92438832068401"><ele>220.0</ele><time>2026-04-11T13:02:57.974Z</time></trkpt><trkpt lat="45.40553268512273" lon="7.924246485070751"><ele>220.0</ele><time>2026-04-11T13:02:58.974Z</time></trkpt><trkpt lat="45.4054315037014" lon="7.924102103570412"><ele>220.0</ele><time>2026-04-11T13:02:59.974Z</time></trkpt><trkpt lat="45.40533589093015" lon="7.923955969063608"><ele>220.0</ele><time>2026-04-11T13:03:00.974Z</time></trkpt><trkpt lat="45.40525669556401" lon="7.923823427281377"><ele>220.2</ele><time>2026-04-11T13:03:01.974Z</time></trkpt><trkpt lat="45.40519523493641" lon="7.923700452353527"><ele>220.4</ele><time>2026-04-11T13:03:02.974Z</time></trkpt><trkpt lat="45.40516876910247" lon="7.923561513922364"><ele>220.60000000000002</ele><time>2026-04-11T13:03:03.974Z</time></trkpt><trkpt lat="45.40518665954397" lon="7.923413823908275"><ele>220.8</ele><time>2026-04-11T13:03:04.974Z</time></trkpt><trkpt lat="45.40522817874765" lon="7.923240817590632"><ele>221.0</ele><time>2026-04-11T13:03:05.974Z</time></trkpt><trkpt lat="45.405268068440684" lon="7.9230661355337055"><ele>221.0</ele><time>2026-04-11T13:03:06.974Z</time></trkpt><trkpt lat="45.40529881614165" lon="7.9228983486445825"><ele>221.00000000000003</ele><time>2026-04-11T13:03:07.974Z</time></trkpt><trkpt lat="45.40530001333812" lon="7.922757931601317"><ele>221.00000000000003</ele><time>2026-04-11T13:03:08.974Z</time></trkpt><trkpt lat="45.405267978477" lon="7.922630392346095"><ele>221.0</ele><time>2026-04-11T13:03:09.974Z</time></trkpt><trkpt lat="45.405205359327624" lon="7.922510644437239"><ele>221.0</ele><time>2026-04-11T13:03:10.974Z</time></trkpt><trkpt lat="45.4050991130975" lon="7.922413679438763"><ele>221.0</ele><time>2026-04-11T13:03:11.974Z</time></trkpt><trkpt lat="45.40498605385225" lon="7.922333565239019"><ele>221.0</ele><time>2026-04-11T13:03:12.974Z</time></trkpt><trkpt lat="45.40486057596822" lon="7.922303531173889"><ele>221.0</ele><time>2026-04-11T13:03:13.971Z</time></trkpt><trkpt lat="45.40472416579674" lon="7.922324316316267"><ele>221.0</ele><time>2026-04-11T13:03:14.97Z</time></trkpt><trkpt lat="45.404578712137635" lon="7.922364016623866"><ele>220.75</ele><time>2026-04-11T13:03:15.97Z</time></trkpt><trkpt lat="45.40445335289141" lon="7.922358933887977"><ele>220.5</ele><time>2026-04-11T13:03:16.971Z</time></trkpt><trkpt lat="45.40433400768133" lon="7.922320306917669"><ele>220.25</ele><time>2026-04-11T13:03:17.971Z</time></trkpt><trkpt lat="45.40421989586491" lon="7.9222354760338245"><ele>220.0</ele><time>2026-04-11T13:03:18.971Z</time></trkpt><trkpt lat="45.40411121929241" lon="7.922131424156727"><ele>220.0</ele><time>2026-04-11T13:03:19.97Z</time></trkpt><trkpt lat="45.40398598284536" lon="7.922041525576147"><ele>220.0</ele><time>2026-04-11T13:03:20.97Z</time></trkpt><trkpt lat="45.40385653434624" lon="7.921980408900618"><ele>220.0</ele><time>2026-04-11T13:03:21.97Z</time></trkpt><trkpt lat="45.40372647936195" lon="7.921925820828307"><ele>220.0</ele><time>2026-04-11T13:03:22.97Z</time></trkpt><trkpt lat="45.403605743154166" lon="7.921880900988639"><ele>219.75</ele><time>2026-04-11T13:03:23.97Z</time></trkpt><trkpt lat="45.40347196755361" lon="7.921854316292086"><ele>219.5</ele><time>2026-04-11T13:03:24.97Z</time></trkpt><trkpt lat="45.40333747365554" lon="7.921844225824575"><ele>219.25</ele><time>2026-04-11T13:03:25.971Z</time></trkpt><trkpt lat="45.40322105702641" lon="7.921838437547863"><ele>219.0</ele><time>2026-04-11T13:03:26.97Z</time></trkpt><trkpt lat="45.40311924511107" lon="7.921834292377125"><ele>219.0</ele><time>2026-04-11T13:03:27.97Z</time></trkpt><trkpt lat="45.40303693902056" lon="7.92184100592102"><ele>218.99999999999997</ele><time>2026-04-11T13:03:28.97Z</time></trkpt><trkpt lat="45.402969095423956" lon="7.921868970014002"><ele>218.99999999999997</ele><time>2026-04-11T13:03:29.97Z</time></trkpt><trkpt lat="45.40293596753601" lon="7.9219711161085895"><ele>219.0</ele><time>2026-04-11T13:03:30.97Z</time></trkpt><trkpt lat="45.40293207718084" lon="7.922120553508285"><ele>219.0</ele><time>2026-04-11T13:03:31.97Z</time></trkpt><trkpt lat="45.40292859517811" lon="7.922289708978895"><ele>219.25</ele><time>2026-04-11T13:03:32.97Z</time></trkpt><trkpt lat="45.40291073320204" lon="7.922452758580508"><ele>219.5</ele><time>2026-04-11T13:03:33.97Z</time></trkpt><trkpt lat="45.40288506603793" lon="7.922621799742609"><ele>219.75</ele><time>2026-04-11T13:03:34.97Z</time></trkpt><trkpt lat="45.40285763442515" lon="7.92280276053938"><ele>220.0</ele><time>2026-04-11T13:03:35.97Z</time></trkpt><trkpt lat="45.402832277294195" lon="7.923005075063167"><ele>220.0</ele><time>2026-04-11T13:03:36.97Z</time></trkpt><trkpt lat="45.402805308108505" lon="7.923205587454124"><ele>220.0</ele><time>2026-04-11T13:03:37.97Z</time></trkpt><trkpt lat="45.402777996803636" lon="7.923411755845341"><ele>220.0</ele><time>2026-04-11T13:03:38.97Z</time></trkpt><trkpt lat="45.402749796477366" lon="7.923616503296004"><ele>220.0</ele><time>2026-04-11T13:03:39.97Z</time></trkpt><trkpt lat="45.40272452669463" lon="7.923825116854878"><ele>219.75</ele><time>2026-04-11T13:03:40.97Z</time></trkpt><trkpt lat="45.40269519785959" lon="7.924030503009876"><ele>219.5</ele><time>2026-04-11T13:03:41.97Z</time></trkpt><trkpt lat="45.40266624132296" lon="7.92423594003808"><ele>219.25</ele><time>2026-04-11T13:03:42.97Z</time></trkpt><trkpt lat="45.40264290331974" lon="7.924436681921865"><ele>219.0</ele><time>2026-04-11T13:03:43.97Z</time></trkpt><trkpt lat="45.40260424626605" lon="7.924623876685699"><ele>219.0</ele><time>2026-04-11T13:03:44.97Z</time></trkpt><trkpt lat="45.40256345329668" lon="7.924811698551848"><ele>219.0</ele><time>2026-04-11T13:03:45.97Z</time></trkpt><trkpt lat="45.40251935850296" lon="7.925001766489466"><ele>219.0</ele><time>2026-04-11T13:03:46.97Z</time></trkpt><trkpt lat="45.40248123655738" lon="7.92517379289617"><ele>219.0</ele><time>2026-04-11T13:03:47.97Z</time></trkpt><trkpt lat="45.402443448547764" lon="7.925317659461968"><ele>219.0</ele><time>2026-04-11T13:03:48.97Z</time></trkpt><trkpt lat="45.40240772590923" lon="7.925446907791568"><ele>219.0</ele><time>2026-04-11T13:03:49.97Z</time></trkpt><trkpt lat="45.40238519276582" lon="7.9255631898050805"><ele>219.0</ele><time>2026-04-11T13:03:50.97Z</time></trkpt><trkpt lat="45.40236774156701" lon="7.9256500823747"><ele>219.0</ele><time>2026-04-11T13:03:51.97Z</time></trkpt><trkpt lat="45.40231573987299" lon="7.925734196219433"><ele>219.0</ele><time>2026-04-11T13:03:54.97Z</time></trkpt><trkpt lat="45.402234640762245" lon="7.925714113692442"><ele>219.0</ele><time>2026-04-11T13:03:56.97Z</time></trkpt><trkpt lat="45.40215129547722" lon="7.925576417834539"><ele>219.0</ele><time>2026-04-11T13:03:58.97Z</time></trkpt><trkpt lat="45.40207417537993" lon="7.925511216478298"><ele>218.99999999999997</ele><time>2026-04-11T13:03:59.97Z</time></trkpt><trkpt lat="45.40199681119644" lon="7.925457796541369"><ele>218.99999999999997</ele><time>2026-04-11T13:04:00.97Z</time></trkpt><trkpt lat="45.401899200506506" lon="7.925408595998742"><ele>219.0</ele><time>2026-04-11T13:04:01.97Z</time></trkpt><trkpt lat="45.40179988255652" lon="7.925354089911859"><ele>219.0</ele><time>2026-04-11T13:04:02.97Z</time></trkpt><trkpt lat="45.40170200409489" lon="7.925287995168779"><ele>219.0</ele><time>2026-04-11T13:04:03.97Z</time></trkpt><trkpt lat="45.401602367944854" lon="7.925211787527948"><ele>219.0</ele><time>2026-04-11T13:04:04.97Z</time></trkpt><trkpt lat="45.40149520496526" lon="7.925127314879386"><ele>219.0</ele><time>2026-04-11T13:04:05.97Z</time></trkpt><trkpt lat="45.40138976151709" lon="7.92503728460615"><ele>219.0</ele><time>2026-04-11T13:04:06.97Z</time></trkpt><trkpt lat="45.401293873395296" lon="7.924941513163407"><ele>219.2</ele><time>2026-04-11T13:04:07.97Z</time></trkpt><trkpt lat="45.401187510117985" lon="7.924849057880777"><ele>219.39999999999998</ele><time>2026-04-11T13:04:08.97Z</time></trkpt><trkpt lat="45.401089073405736" lon="7.924753545934749"><ele>219.6</ele><time>2026-04-11T13:04:09.97Z</time></trkpt><trkpt lat="45.400999640321785" lon="7.924668515958628"><ele>219.8</ele><time>2026-04-11T13:04:10.97Z</time></trkpt><trkpt lat="45.40091330968356" lon="7.924612863474886"><ele>220.0</ele><time>2026-04-11T13:04:11.97Z</time></trkpt><trkpt lat="45.40080282768615" lon="7.924601042388222"><ele>220.0</ele><time>2026-04-11T13:04:12.97Z</time></trkpt><trkpt lat="45.400694682720776" lon="7.924613344787443"><ele>220.0</ele><time>2026-04-11T13:04:13.97Z</time></trkpt><trkpt lat="45.400591867565524" lon="7.924613705270154"><ele>220.0</ele><time>2026-04-11T13:04:14.97Z</time></trkpt><trkpt lat="45.400494807088094" lon="7.924574020634877"><ele>220.0</ele><time>2026-04-11T13:04:15.97Z</time></trkpt><trkpt lat="45.40039389915527" lon="7.9245116252334"><ele>220.0</ele><time>2026-04-11T13:04:16.97Z</time></trkpt><trkpt lat="45.40029320678661" lon="7.92442487415866"><ele>220.0</ele><time>2026-04-11T13:04:17.97Z</time></trkpt><trkpt lat="45.40020259198263" lon="7.924328856860685"><ele>220.0</ele><time>2026-04-11T13:04:18.97Z</time></trkpt><trkpt lat="45.40011937717135" lon="7.9242211812794565"><ele>220.0</ele><time>2026-04-11T13:04:19.97Z</time></trkpt><trkpt lat="45.40003997084906" lon="7.924093355519243"><ele>220.0</ele><time>2026-04-11T13:04:20.97Z</time></trkpt><trkpt lat="45.399937270902875" lon="7.923986909069165"><ele>220.0</ele><time>2026-04-11T13:04:21.97Z</time></trkpt><trkpt lat="45.3998180882511" lon="7.923889934262805"><ele>220.0</ele><time>2026-04-11T13:04:22.97Z</time></trkpt><trkpt lat="45.39970233078888" lon="7.923804601812918"><ele>220.0</ele><time>2026-04-11T13:04:23.97Z</time></trkpt><trkpt lat="45.3995784552665" lon="7.923711232669295"><ele>220.0</ele><time>2026-04-11T13:04:24.97Z</time></trkpt><trkpt lat="45.39946547084725" lon="7.923603055871633"><ele>220.0</ele><time>2026-04-11T13:04:25.97Z</time></trkpt><trkpt lat="45.39935427372534" lon="7.923486027247552"><ele>220.0</ele><time>2026-04-11T13:04:26.97Z</time></trkpt><trkpt lat="45.39924102873973" lon="7.923391679796451"><ele>220.0</ele><time>2026-04-11T13:04:27.97Z</time></trkpt><trkpt lat="45.3991150718157" lon="7.923308566822662"><ele>220.0</ele><time>2026-04-11T13:04:28.97Z</time></trkpt><trkpt lat="45.399011651441285" lon="7.923190284554062"><ele>220.0</ele><time>2026-04-11T13:04:29.97Z</time></trkpt><trkpt lat="45.39892136679587" lon="7.9230797635665935"><ele>220.0</ele><time>2026-04-11T13:04:30.97Z</time></trkpt><trkpt lat="45.39884441651986" lon="7.922985119715296"><ele>220.0</ele><time>2026-04-11T13:04:31.97Z</time></trkpt><trkpt lat="45.39875928027371" lon="7.922946237687522"><ele>220.0</ele><time>2026-04-11T13:04:32.97Z</time></trkpt><trkpt lat="45.39866806682935" lon="7.922965966512547"><ele>220.0</ele><time>2026-04-11T13:04:33.97Z</time></trkpt><trkpt lat="45.39857721003307" lon="7.923037710258039"><ele>220.0</ele><time>2026-04-11T13:04:34.97Z</time></trkpt><trkpt lat="45.39846669344455" lon="7.923109828756111"><ele>220.0</ele><time>2026-04-11T13:04:35.97Z</time></trkpt><trkpt lat="45.3983551611476" lon="7.923163983771853"><ele>220.0</ele><time>2026-04-11T13:04:36.97Z</time></trkpt><trkpt lat="45.398229058501535" lon="7.9231929758720545"><ele>220.0</ele><time>2026-04-11T13:04:37.97Z</time></trkpt><trkpt lat="45.398105425027616" lon="7.923169803506222"><ele>220.0</ele><time>2026-04-11T13:04:38.97Z</time></trkpt><trkpt lat="45.39798505402879" lon="7.923122239999416"><ele>220.0</ele><time>2026-04-11T13:04:39.97Z</time></trkpt><trkpt lat="45.397863573584615" lon="7.923069323285739"><ele>220.0</ele><time>2026-04-11T13:04:40.97Z</time></trkpt><trkpt lat="45.39774948756522" lon="7.922992480120975"><ele>220.0</ele><time>2026-04-11T13:04:41.97Z</time></trkpt><trkpt lat="45.39764341106114" lon="7.922900847771847"><ele>220.0</ele><time>2026-04-11T13:04:42.971Z</time></trkpt><trkpt lat="45.397552471706874" lon="7.922823669508158"><ele>220.0</ele><time>2026-04-11T13:04:43.971Z</time></trkpt><trkpt lat="45.39746786275852" lon="7.922805285333222"><ele>220.0</ele><time>2026-04-11T13:04:44.971Z</time></trkpt><trkpt lat="45.39738738284458" lon="7.9228358590098145"><ele>220.0</ele><time>2026-04-11T13:04:45.971Z</time></trkpt><trkpt lat="45.39730919696089" lon="7.922893944070181"><ele>220.0</ele><time>2026-04-11T13:04:46.971Z</time></trkpt><trkpt lat="45.3972178199413" lon="7.9229174006604906"><ele>220.0</ele><time>2026-04-11T13:04:47.971Z</time></trkpt><trkpt lat="45.39713006082864" lon="7.922891363979893"><ele>220.0</ele><time>2026-04-11T13:04:48.971Z</time></trkpt><trkpt lat="45.397040449227305" lon="7.922865702141004"><ele>220.0</ele><time>2026-04-11T13:04:49.971Z</time></trkpt><trkpt lat="45.39694093222622" lon="7.9228544245826535"><ele>220.0</ele><time>2026-04-11T13:04:50.971Z</time></trkpt><trkpt lat="45.39684587475675" lon="7.9228482914657965"><ele>220.0</ele><time>2026-04-11T13:04:51.971Z</time></trkpt><trkpt lat="45.39674565257358" lon="7.92284861789596"><ele>220.0</ele><time>2026-04-11T13:04:52.971Z</time></trkpt><trkpt lat="45.39665328246147" lon="7.9228628461921"><ele>220.0</ele><time>2026-04-11T13:04:53.971Z</time></trkpt><trkpt lat="45.396532521385105" lon="7.92287965531234"><ele>220.0</ele><time>2026-04-11T13:04:54.971Z</time></trkpt><trkpt lat="45.39641538334865" lon="7.922888831286767"><ele>220.0</ele><time>2026-04-11T13:04:55.971Z</time></trkpt><trkpt lat="45.396291953200254" lon="7.922897815820297"><ele>219.5</ele><time>2026-04-11T13:04:56.971Z</time></trkpt><trkpt lat="45.396171759172624" lon="7.922920810081944"><ele>219.0</ele><time>2026-04-11T13:04:57.971Z</time></trkpt><trkpt lat="45.39604948336944" lon="7.9229490581341375"><ele>218.5</ele><time>2026-04-11T13:04:58.971Z</time></trkpt><trkpt lat="45.39593468400572" lon="7.922980898603785"><ele>218.0</ele><time>2026-04-11T13:04:59.971Z</time></trkpt><trkpt lat="45.39581966482489" lon="7.923023183223141"><ele>218.0</ele><time>2026-04-11T13:05:00.971Z</time></trkpt><trkpt lat="45.395710430269595" lon="7.923069547655987"><ele>218.0</ele><time>2026-04-11T13:05:01.971Z</time></trkpt><trkpt lat="45.395595863486484" lon="7.92312543533848"><ele>218.0</ele><time>2026-04-11T13:05:02.971Z</time></trkpt><trkpt lat="45.39548134226127" lon="7.92318749168576"><ele>218.0</ele><time>2026-04-11T13:05:03.971Z</time></trkpt><trkpt lat="45.395358720343516" lon="7.923216008832247"><ele>218.75</ele><time>2026-04-11T13:05:04.971Z</time></trkpt><trkpt lat="45.39523776384921" lon="7.923243163259124"><ele>219.5</ele><time>2026-04-11T13:05:05.971Z</time></trkpt><trkpt lat="45.39511433807045" lon="7.9232699492860785"><ele>220.25</ele><time>2026-04-11T13:05:06.971Z</time></trkpt><trkpt lat="45.39498193652894" lon="7.9232932611419065"><ele>221.0</ele><time>2026-04-11T13:05:07.971Z</time></trkpt><trkpt lat="45.39485284089301" lon="7.923319949207364"><ele>221.0</ele><time>2026-04-11T13:05:08.971Z</time></trkpt><trkpt lat="45.394723600069774" lon="7.923346929292082"><ele>221.0</ele><time>2026-04-11T13:05:09.971Z</time></trkpt><trkpt lat="45.394592479443034" lon="7.92337179484462"><ele>221.0</ele><time>2026-04-11T13:05:10.971Z</time></trkpt><trkpt lat="45.394464752698994" lon="7.923391579169063"><ele>221.0</ele><time>2026-04-11T13:05:11.971Z</time></trkpt><trkpt lat="45.39433928511119" lon="7.92340442311549"><ele>220.75</ele><time>2026-04-11T13:05:12.971Z</time></trkpt><trkpt lat="45.39420858898324" lon="7.923426993577156"><ele>220.5</ele><time>2026-04-11T13:05:13.971Z</time></trkpt><trkpt lat="45.394078279396844" lon="7.92346234369519"><ele>220.25</ele><time>2026-04-11T13:05:14.971Z</time></trkpt><trkpt lat="45.393954005702795" lon="7.923512669862851"><ele>220.0</ele><time>2026-04-11T13:05:15.971Z</time></trkpt><trkpt lat="45.39383731546531" lon="7.923583715860437"><ele>219.75</ele><time>2026-04-11T13:05:16.971Z</time></trkpt><trkpt lat="45.393726121100215" lon="7.923642360978654"><ele>219.5</ele><time>2026-04-11T13:05:17.971Z</time></trkpt><trkpt lat="45.39360979362001" lon="7.923679347183921"><ele>219.25</ele><time>2026-04-11T13:05:18.971Z</time></trkpt><trkpt lat="45.39349679909617" lon="7.923721087413486"><ele>219.0</ele><time>2026-04-11T13:05:19.967Z</time></trkpt><trkpt lat="45.39340034602004" lon="7.92378053142396"><ele>219.0</ele><time>2026-04-11T13:05:20.968Z</time></trkpt><trkpt lat="45.39331640706269" lon="7.923850344474812"><ele>218.99999999999997</ele><time>2026-04-11T13:05:21.968Z</time></trkpt><trkpt lat="45.393260238228656" lon="7.923954104727507"><ele>218.99999999999997</ele><time>2026-04-11T13:05:22.967Z</time></trkpt><trkpt lat="45.3932442903837" lon="7.924066718391471"><ele>219.0</ele><time>2026-04-11T13:05:23.967Z</time></trkpt><trkpt lat="45.393253524723725" lon="7.924185666100432"><ele>219.0</ele><time>2026-04-11T13:05:24.967Z</time></trkpt><trkpt lat="45.393144926747055" lon="7.924349349394575"><ele>219.0</ele><time>2026-04-11T13:05:25.968Z</time></trkpt><trkpt lat="45.39316035502937" lon="7.924474888045209"><ele>218.99999999999997</ele><time>2026-04-11T13:05:26.968Z</time></trkpt><trkpt lat="45.393178826301195" lon="7.92459465800989"><ele>218.99999999999997</ele><time>2026-04-11T13:05:27.968Z</time></trkpt><trkpt lat="45.393152840007616" lon="7.924424961136197"><ele>219.0</ele><time>2026-04-11T13:05:34.966Z</time></trkpt><trkpt lat="45.39312997848239" lon="7.924255358108226"><ele>219.0</ele><time>2026-04-11T13:05:35.966Z</time></trkpt><trkpt lat="45.393114681564704" lon="7.924081873764809"><ele>219.0</ele><time>2026-04-11T13:05:36.966Z</time></trkpt><trkpt lat="45.39312528201483" lon="7.923892751691509"><ele>219.0</ele><time>2026-04-11T13:05:37.966Z</time></trkpt><trkpt lat="45.39306404880608" lon="7.9237279708041415"><ele>219.0</ele><time>2026-04-11T13:05:38.966Z</time></trkpt><trkpt lat="45.393045094144895" lon="7.923528529984653"><ele>219.0</ele><time>2026-04-11T13:05:39.966Z</time></trkpt><trkpt lat="45.393095247418536" lon="7.92330962041405"><ele>219.33333333333331</ele><time>2026-04-11T13:05:40.966Z</time></trkpt><trkpt lat="45.39308027822481" lon="7.9230962456474225"><ele>219.66666666666666</ele><time>2026-04-11T13:05:41.966Z</time></trkpt><trkpt lat="45.39306357034135" lon="7.922876910252931"><ele>220.0</ele><time>2026-04-11T13:05:42.966Z</time></trkpt><trkpt lat="45.39304656150553" lon="7.922656496559125"><ele>219.66666666666666</ele><time>2026-04-11T13:05:43.966Z</time></trkpt><trkpt lat="45.393029390501205" lon="7.92243422594031"><ele>219.33333333333331</ele><time>2026-04-11T13:05:44.966Z</time></trkpt><trkpt lat="45.393012787657405" lon="7.92221930990071"><ele>219.0</ele><time>2026-04-11T13:05:45.966Z</time></trkpt><trkpt lat="45.39299735043367" lon="7.922019867248257"><ele>219.5</ele><time>2026-04-11T13:05:46.966Z</time></trkpt><trkpt lat="45.39298211875859" lon="7.921825969159557"><ele>220.0</ele><time>2026-04-11T13:05:47.966Z</time></trkpt><trkpt lat="45.39296615403339" lon="7.921623847000631"><ele>220.5</ele><time>2026-04-11T13:05:48.966Z</time></trkpt><trkpt lat="45.392945582338164" lon="7.921422971133186"><ele>221.0</ele><time>2026-04-11T13:05:49.966Z</time></trkpt><trkpt lat="45.392945063136054" lon="7.921218345486259"><ele>221.0</ele><time>2026-04-11T13:05:50.966Z</time></trkpt><trkpt lat="45.39295415040607" lon="7.92102545103673"><ele>221.0</ele><time>2026-04-11T13:05:51.966Z</time></trkpt><trkpt lat="45.39294651100932" lon="7.920826733546409"><ele>221.0</ele><time>2026-04-11T13:05:52.966Z</time></trkpt><trkpt lat="45.39293142014266" lon="7.920620015579553"><ele>221.0</ele><time>2026-04-11T13:05:53.966Z</time></trkpt><trkpt lat="45.392916832263936" lon="7.92042018774126"><ele>220.66666666666669</ele><time>2026-04-11T13:05:54.966Z</time></trkpt><trkpt lat="45.3929000459967" lon="7.920197198846936"><ele>220.33333333333331</ele><time>2026-04-11T13:05:55.966Z</time></trkpt><trkpt lat="45.39288400650569" lon="7.919992199424678"><ele>220.0</ele><time>2026-04-11T13:05:56.966Z</time></trkpt><trkpt lat="45.392866654582" lon="7.919770426282298"><ele>220.0</ele><time>2026-04-11T13:05:57.966Z</time></trkpt><trkpt lat="45.39285018140118" lon="7.91955988399418"><ele>220.0</ele><time>2026-04-11T13:05:58.966Z</time></trkpt><trkpt lat="45.39283392822215" lon="7.919352153385174"><ele>220.0</ele><time>2026-04-11T13:05:59.966Z</time></trkpt><trkpt lat="45.39281826166317" lon="7.919146647264703"><ele>220.0</ele><time>2026-04-11T13:06:00.966Z</time></trkpt><trkpt lat="45.39280354403361" lon="7.918953351401506"><ele>220.0</ele><time>2026-04-11T13:06:01.966Z</time></trkpt><trkpt lat="45.392800168731355" lon="7.918767959820374"><ele>220.0</ele><time>2026-04-11T13:06:02.966Z</time></trkpt><trkpt lat="45.39277671255011" lon="7.918600956485431"><ele>220.0</ele><time>2026-04-11T13:06:03.966Z</time></trkpt><trkpt lat="45.39276339584675" lon="7.918426059800308"><ele>220.0</ele><time>2026-04-11T13:06:04.966Z</time></trkpt><trkpt lat="45.39275019746754" lon="7.918252717183069"><ele>220.0</ele><time>2026-04-11T13:06:05.966Z</time></trkpt><trkpt lat="45.39273704099942" lon="7.918079924977834"><ele>220.0</ele><time>2026-04-11T13:06:06.966Z</time></trkpt><trkpt lat="45.39272122882073" lon="7.917872253730381"><ele>220.0</ele><time>2026-04-11T13:06:07.966Z</time></trkpt><trkpt lat="45.392706995142774" lon="7.917685313974997"><ele>220.0</ele><time>2026-04-11T13:06:08.966Z</time></trkpt><trkpt lat="45.39270423948816" lon="7.917531662560355"><ele>219.75</ele><time>2026-04-11T13:06:09.966Z</time></trkpt><trkpt lat="45.392673375031094" lon="7.917407709283612"><ele>219.5</ele><time>2026-04-11T13:06:10.966Z</time></trkpt><trkpt lat="45.392674532821054" lon="7.917287891565646"><ele>219.25</ele><time>2026-04-11T13:06:12.966Z</time></trkpt><trkpt lat="45.3929111490033" lon="7.917320506300023"><ele>219.0</ele><time>2026-04-11T13:06:15.966Z</time></trkpt><trkpt lat="45.39302689408272" lon="7.917316782359295"><ele>219.75</ele><time>2026-04-11T13:06:16.966Z</time></trkpt><trkpt lat="45.393135646380635" lon="7.9173187763419435"><ele>220.5</ele><time>2026-04-11T13:06:17.966Z</time></trkpt><trkpt lat="45.393262165758095" lon="7.917329664773469"><ele>221.25</ele><time>2026-04-11T13:06:18.966Z</time></trkpt><trkpt lat="45.39339684990376" lon="7.917325672261138"><ele>222.0</ele><time>2026-04-11T13:06:19.966Z</time></trkpt><trkpt lat="45.39353201481217" lon="7.917306236123859"><ele>222.0</ele><time>2026-04-11T13:06:20.966Z</time></trkpt><trkpt lat="45.393648403401755" lon="7.9172765831762755"><ele>222.0</ele><time>2026-04-11T13:06:21.966Z</time></trkpt><trkpt lat="45.39377537421327" lon="7.917258838204054"><ele>222.0</ele><time>2026-04-11T13:06:22.966Z</time></trkpt><trkpt lat="45.393923168392334" lon="7.917239805631526"><ele>222.0</ele><time>2026-04-11T13:06:23.966Z</time></trkpt><trkpt lat="45.39405832954486" lon="7.917247171178622"><ele>221.75</ele><time>2026-04-11T13:06:24.966Z</time></trkpt><trkpt lat="45.394190508296575" lon="7.917254061283377"><ele>221.5</ele><time>2026-04-11T13:06:25.966Z</time></trkpt><trkpt lat="45.39431715829936" lon="7.917272436381252"><ele>221.25</ele><time>2026-04-11T13:06:26.966Z</time></trkpt><trkpt lat="45.39444359489049" lon="7.9172791833439105"><ele>221.0</ele><time>2026-04-11T13:06:27.966Z</time></trkpt><trkpt lat="45.39456587039151" lon="7.917274333977745"><ele>220.75</ele><time>2026-04-11T13:06:28.966Z</time></trkpt><trkpt lat="45.394700095536315" lon="7.917274022198488"><ele>220.5</ele><time>2026-04-11T13:06:29.966Z</time></trkpt><trkpt lat="45.39483750942793" lon="7.917271222237668"><ele>220.25</ele><time>2026-04-11T13:06:30.966Z</time></trkpt><trkpt lat="45.39497539206945" lon="7.9172720475011635"><ele>220.0</ele><time>2026-04-11T13:06:31.966Z</time></trkpt><trkpt lat="45.39511293607868" lon="7.91726646232219"><ele>220.0</ele><time>2026-04-11T13:06:32.966Z</time></trkpt><trkpt lat="45.39525036486661" lon="7.917256455771955"><ele>220.0</ele><time>2026-04-11T13:06:33.966Z</time></trkpt><trkpt lat="45.395393335623" lon="7.917252670488694"><ele>220.0</ele><time>2026-04-11T13:06:34.966Z</time></trkpt><trkpt lat="45.39553539497283" lon="7.917251934902195"><ele>220.0</ele><time>2026-04-11T13:06:35.966Z</time></trkpt><trkpt lat="45.39568144365947" lon="7.917249563071416"><ele>220.0</ele><time>2026-04-11T13:06:36.966Z</time></trkpt><trkpt lat="45.39582608078427" lon="7.917240869127031"><ele>220.0</ele><time>2026-04-11T13:06:37.966Z</time></trkpt><trkpt lat="45.39596634889359" lon="7.917235916588987"><ele>220.0</ele><time>2026-04-11T13:06:38.966Z</time></trkpt><trkpt lat="45.39611056381637" lon="7.917230821772248"><ele>220.0</ele><time>2026-04-11T13:06:39.966Z</time></trkpt><trkpt lat="45.39625749925535" lon="7.917228062696188"><ele>219.75</ele><time>2026-04-11T13:06:40.966Z</time></trkpt><trkpt lat="45.39640094228522" lon="7.917222575332694"><ele>219.5</ele><time>2026-04-11T13:06:41.966Z</time></trkpt><trkpt lat="45.39654929532177" lon="7.91721302181038"><ele>219.25</ele><time>2026-04-11T13:06:42.966Z</time></trkpt><trkpt lat="45.39668424205577" lon="7.917204467937313"><ele>219.0</ele><time>2026-04-11T13:06:43.966Z</time></trkpt><trkpt lat="45.39681087182913" lon="7.917199812473167"><ele>219.0</ele><time>2026-04-11T13:06:44.966Z</time></trkpt><trkpt lat="45.39694923866637" lon="7.917192046739776"><ele>219.0</ele><time>2026-04-11T13:06:45.966Z</time></trkpt><trkpt lat="45.39708212551034" lon="7.917189068946212"><ele>219.0</ele><time>2026-04-11T13:06:46.966Z</time></trkpt><trkpt lat="45.3972126672138" lon="7.917186197442389"><ele>219.0</ele><time>2026-04-11T13:06:47.966Z</time></trkpt><trkpt lat="45.39734923860706" lon="7.917183252601943"><ele>219.0</ele><time>2026-04-11T13:06:48.966Z</time></trkpt><trkpt lat="45.39748312536108" lon="7.917191000337888"><ele>219.0</ele><time>2026-04-11T13:06:49.966Z</time></trkpt><trkpt lat="45.39761047357015" lon="7.917190897437598"><ele>219.0</ele><time>2026-04-11T13:06:50.966Z</time></trkpt><trkpt lat="45.397728583863575" lon="7.917196301531018"><ele>219.0</ele><time>2026-04-11T13:06:51.966Z</time></trkpt><trkpt lat="45.397849581922614" lon="7.917195227018242"><ele>219.0</ele><time>2026-04-11T13:06:52.966Z</time></trkpt><trkpt lat="45.3979451185742" lon="7.917193716229996"><ele>219.0</ele><time>2026-04-11T13:06:53.966Z</time></trkpt><trkpt lat="45.39802398705789" lon="7.917191932922482"><ele>219.0</ele><time>2026-04-11T13:06:54.966Z</time></trkpt><trkpt lat="45.398071588877315" lon="7.9171037510082565"><ele>219.0</ele><time>2026-04-11T13:06:56.966Z</time></trkpt><trkpt lat="45.398039316565466" lon="7.917001442840739"><ele>219.0</ele><time>2026-04-11T13:06:57.966Z</time></trkpt><trkpt lat="45.398028660121184" lon="7.916898426308755"><ele>219.0</ele><time>2026-04-11T13:06:58.967Z</time></trkpt><trkpt lat="45.398025439633884" lon="7.916801480702128"><ele>219.0</ele><time>2026-04-11T13:06:59.967Z</time></trkpt><trkpt lat="45.39801445611602" lon="7.916698073506619"><ele>219.0</ele><time>2026-04-11T13:07:00.967Z</time></trkpt><trkpt lat="45.39800934683148" lon="7.916588102200279"><ele>219.0</ele><time>2026-04-11T13:07:01.967Z</time></trkpt><trkpt lat="45.3980052719285" lon="7.9164640285244685"><ele>219.0</ele><time>2026-04-11T13:07:02.967Z</time></trkpt><trkpt lat="45.397985184939536" lon="7.916321606118008"><ele>219.0</ele><time>2026-04-11T13:07:03.967Z</time></trkpt><trkpt lat="45.39797195953059" lon="7.916174541972794"><ele>219.0</ele><time>2026-04-11T13:07:04.967Z</time></trkpt><trkpt lat="45.397957758205116" lon="7.916027328405861"><ele>219.2</ele><time>2026-04-11T13:07:05.967Z</time></trkpt><trkpt lat="45.39793308851083" lon="7.9158923465683"><ele>219.39999999999998</ele><time>2026-04-11T13:07:06.967Z</time></trkpt><trkpt lat="45.39791327356832" lon="7.915744738545922"><ele>219.6</ele><time>2026-04-11T13:07:07.967Z</time></trkpt><trkpt lat="45.39789932959741" lon="7.91560950531228"><ele>219.8</ele><time>2026-04-11T13:07:08.967Z</time></trkpt><trkpt lat="45.39788037417937" lon="7.915477277749691"><ele>220.0</ele><time>2026-04-11T13:07:09.967Z</time></trkpt><trkpt lat="45.397860623074436" lon="7.915342579614794"><ele>219.99999999999997</ele><time>2026-04-11T13:07:10.967Z</time></trkpt><trkpt lat="45.39784853228579" lon="7.91521892341067"><ele>220.0</ele><time>2026-04-11T13:07:11.967Z</time></trkpt><trkpt lat="45.39784224986367" lon="7.91510891113453"><ele>220.0</ele><time>2026-04-11T13:07:12.967Z</time></trkpt><trkpt lat="45.39782782619518" lon="7.9149929460648405"><ele>220.0</ele><time>2026-04-11T13:07:13.967Z</time></trkpt><trkpt lat="45.397812699461575" lon="7.914862561236772"><ele>219.99999999999997</ele><time>2026-04-11T13:07:14.967Z</time></trkpt><trkpt lat="45.397799995299245" lon="7.914720926733461"><ele>220.0</ele><time>2026-04-11T13:07:15.967Z</time></trkpt><trkpt lat="45.39778449904323" lon="7.914580226799216"><ele>220.0</ele><time>2026-04-11T13:07:16.967Z</time></trkpt><trkpt lat="45.39776572851261" lon="7.914438860341255"><ele>220.0</ele><time>2026-04-11T13:07:17.967Z</time></trkpt><trkpt lat="45.39775196248529" lon="7.914293789197745"><ele>220.0</ele><time>2026-04-11T13:07:18.967Z</time></trkpt><trkpt lat="45.39774276946433" lon="7.914144293979313"><ele>220.0</ele><time>2026-04-11T13:07:19.967Z</time></trkpt><trkpt lat="45.397726856638045" lon="7.913984661721372"><ele>220.0</ele><time>2026-04-11T13:07:20.967Z</time></trkpt><trkpt lat="45.39771131420001" lon="7.91382945177641"><ele>220.25</ele><time>2026-04-11T13:07:21.967Z</time></trkpt><trkpt lat="45.397688412152355" lon="7.913664048242072"><ele>220.5</ele><time>2026-04-11T13:07:22.967Z</time></trkpt><trkpt lat="45.39767897957607" lon="7.913503277486629"><ele>220.75</ele><time>2026-04-11T13:07:23.967Z</time></trkpt><trkpt lat="45.397657966474654" lon="7.913341333423084"><ele>221.0</ele><time>2026-04-11T13:07:24.967Z</time></trkpt><trkpt lat="45.39763712269607" lon="7.913184781883848"><ele>221.0</ele><time>2026-04-11T13:07:25.964Z</time></trkpt><trkpt lat="45.397626435034475" lon="7.913031737475559"><ele>221.00000000000003</ele><time>2026-04-11T13:07:26.964Z</time></trkpt><trkpt lat="45.39761604879739" lon="7.912879491317655"><ele>221.00000000000003</ele><time>2026-04-11T13:07:27.964Z</time></trkpt><trkpt lat="45.39760060260197" lon="7.912750938156887"><ele>221.0</ele><time>2026-04-11T13:07:28.964Z</time></trkpt><trkpt lat="45.39758893855071" lon="7.912636847870597"><ele>221.0</ele><time>2026-04-11T13:07:29.964Z</time></trkpt><trkpt lat="45.39764003447367" lon="7.912498568845889"><ele>221.0</ele><time>2026-04-11T13:07:31.964Z</time></trkpt><trkpt lat="45.39770608354862" lon="7.912475952054512"><ele>221.00000000000003</ele><time>2026-04-11T13:07:32.964Z</time></trkpt><trkpt lat="45.39780011332118" lon="7.91247299804337"><ele>221.00000000000003</ele><time>2026-04-11T13:07:33.964Z</time></trkpt><trkpt lat="45.39790986519909" lon="7.912464188062494"><ele>221.0</ele><time>2026-04-11T13:07:34.964Z</time></trkpt><trkpt lat="45.39802158778731" lon="7.912432926903589"><ele>221.0</ele><time>2026-04-11T13:07:35.964Z</time></trkpt><trkpt lat="45.39814523245334" lon="7.912401000531782"><ele>221.0</ele><time>2026-04-11T13:07:36.964Z</time></trkpt><trkpt lat="45.39826125705833" lon="7.912360658713495"><ele>221.0</ele><time>2026-04-11T13:07:37.964Z</time></trkpt><trkpt lat="45.39838432184115" lon="7.912318019959356"><ele>221.0</ele><time>2026-04-11T13:07:38.964Z</time></trkpt><trkpt lat="45.39850266995928" lon="7.9122764985691045"><ele>221.0</ele><time>2026-04-11T13:07:39.964Z</time></trkpt><trkpt lat="45.39862280392908" lon="7.9122273948769"><ele>221.0</ele><time>2026-04-11T13:07:40.964Z</time></trkpt><trkpt lat="45.398737528408766" lon="7.91218067142434"><ele>221.0</ele><time>2026-04-11T13:07:41.964Z</time></trkpt><trkpt lat="45.39884792610552" lon="7.912121669514321"><ele>221.0</ele><time>2026-04-11T13:07:42.964Z</time></trkpt><trkpt lat="45.398947439445756" lon="7.9120707218691555"><ele>221.0</ele><time>2026-04-11T13:07:43.964Z</time></trkpt><trkpt lat="45.399052993344824" lon="7.912024063577188"><ele>221.4</ele><time>2026-04-11T13:07:44.964Z</time></trkpt><trkpt lat="45.39917050707851" lon="7.9119868363901"><ele>221.8</ele><time>2026-04-11T13:07:45.964Z</time></trkpt><trkpt lat="45.39928657705382" lon="7.911950955651719"><ele>222.20000000000002</ele><time>2026-04-11T13:07:46.964Z</time></trkpt><trkpt lat="45.39939678893668" lon="7.911912599725582"><ele>222.60000000000002</ele><time>2026-04-11T13:07:47.964Z</time></trkpt><trkpt lat="45.39948705248178" lon="7.911891977697265"><ele>223.0</ele><time>2026-04-11T13:07:48.964Z</time></trkpt><trkpt lat="45.39957095423308" lon="7.911866737957204"><ele>222.99999999999997</ele><time>2026-04-11T13:07:49.964Z</time></trkpt><trkpt lat="45.399638807155306" lon="7.911887977148981"><ele>223.0</ele><time>2026-04-11T13:07:50.964Z</time></trkpt><trkpt lat="45.3996839765217" lon="7.9119584124659"><ele>223.0</ele><time>2026-04-11T13:07:51.964Z</time></trkpt><trkpt lat="45.399740618924255" lon="7.912065467265359"><ele>223.0</ele><time>2026-04-11T13:07:52.964Z</time></trkpt><trkpt lat="45.399786451340326" lon="7.912153601626584"><ele>222.99999999999997</ele><time>2026-04-11T13:07:53.964Z</time></trkpt><trkpt lat="45.39982350609839" lon="7.912253217485731"><ele>223.0</ele><time>2026-04-11T13:07:54.964Z</time></trkpt><trkpt lat="45.39989335770953" lon="7.912397217551687"><ele>222.83333333333331</ele><time>2026-04-11T13:07:55.964Z</time></trkpt><trkpt lat="45.39997207784678" lon="7.912502442367911"><ele>222.66666666666666</ele><time>2026-04-11T13:07:56.964Z</time></trkpt><trkpt lat="45.400028884549435" lon="7.912605453841456"><ele>222.5</ele><time>2026-04-11T13:07:57.964Z</time></trkpt><trkpt lat="45.40007736345522" lon="7.91267812375945"><ele>222.33333333333331</ele><time>2026-04-11T13:07:58.964Z</time></trkpt><trkpt lat="45.40011527472774" lon="7.9127642750490095"><ele>222.16666666666666</ele><time>2026-04-11T13:07:59.964Z</time></trkpt><trkpt lat="45.400146174778726" lon="7.912863727469661"><ele>222.0</ele><time>2026-04-11T13:08:00.964Z</time></trkpt><trkpt lat="45.40017131867113" lon="7.912965383808816"><ele>222.0</ele><time>2026-04-11T13:08:01.964Z</time></trkpt><trkpt lat="45.40025198306795" lon="7.91300735669424"><ele>222.0</ele><time>2026-04-11T13:08:03.964Z</time></trkpt><trkpt lat="45.40033035666616" lon="7.912965670794665"><ele>222.0</ele><time>2026-04-11T13:08:05.964Z</time></trkpt><trkpt lat="45.40042206381131" lon="7.9129533445020455"><ele>222.0</ele><time>2026-04-11T13:08:07.964Z</time></trkpt><trkpt lat="45.4005174136346" lon="7.913023589985646"><ele>222.0</ele><time>2026-04-11T13:08:09.964Z</time></trkpt><trkpt lat="45.40058265541199" lon="7.913083981429225"><ele>222.0</ele><time>2026-04-11T13:08:10.964Z</time></trkpt><trkpt lat="45.400670683795454" lon="7.913132496064164"><ele>221.8</ele><time>2026-04-11T13:08:11.964Z</time></trkpt><trkpt lat="45.40076638276339" lon="7.913166778079803"><ele>221.6</ele><time>2026-04-11T13:08:12.964Z</time></trkpt><trkpt lat="45.400866204674884" lon="7.913181865643144"><ele>221.40000000000003</ele><time>2026-04-11T13:08:13.964Z</time></trkpt><trkpt lat="45.400969364343084" lon="7.913188060824735"><ele>221.20000000000002</ele><time>2026-04-11T13:08:14.964Z</time></trkpt><trkpt lat="45.40107548574966" lon="7.913193530812592"><ele>221.0</ele><time>2026-04-11T13:08:15.964Z</time></trkpt><trkpt lat="45.40117766430166" lon="7.913189787227736"><ele>221.0</ele><time>2026-04-11T13:08:16.964Z</time></trkpt><trkpt lat="45.40127635703902" lon="7.91319257997741"><ele>221.00000000000003</ele><time>2026-04-11T13:08:17.964Z</time></trkpt><trkpt lat="45.401366288289346" lon="7.913190516861956"><ele>221.00000000000003</ele><time>2026-04-11T13:08:18.964Z</time></trkpt><trkpt lat="45.401461001866124" lon="7.913175474999018"><ele>221.0</ele><time>2026-04-11T13:08:19.964Z</time></trkpt><trkpt lat="45.40155709212641" lon="7.913145596819266"><ele>221.0</ele><time>2026-04-11T13:08:20.964Z</time></trkpt><trkpt lat="45.401639454602694" lon="7.913107420448687"><ele>221.0</ele><time>2026-04-11T13:08:21.964Z</time></trkpt><trkpt lat="45.40172329063049" lon="7.91304431965881"><ele>221.00000000000003</ele><time>2026-04-11T13:08:22.964Z</time></trkpt><trkpt lat="45.4017849869467" lon="7.912959222707381"><ele>221.00000000000003</ele><time>2026-04-11T13:08:23.964Z</time></trkpt><trkpt lat="45.40181819883222" lon="7.9128422741737685"><ele>221.0</ele><time>2026-04-11T13:08:24.964Z</time></trkpt><trkpt lat="45.40185974863173" lon="7.912734155336434"><ele>221.0</ele><time>2026-04-11T13:08:25.964Z</time></trkpt><trkpt lat="45.4019399897019" lon="7.912595542616519"><ele>221.33333333333334</ele><time>2026-04-11T13:08:27.964Z</time></trkpt><trkpt lat="45.40199744375858" lon="7.9124308972035164"><ele>221.66666666666669</ele><time>2026-04-11T13:08:29.964Z</time></trkpt><trkpt lat="45.40200577145922" lon="7.912327634697088"><ele>222.0</ele><time>2026-04-11T13:08:30.964Z</time></trkpt><trkpt lat="45.40199918755058" lon="7.91222915139726"><ele>222.33333333333331</ele><time>2026-04-11T13:08:31.964Z</time></trkpt><trkpt lat="45.401996101146246" lon="7.912121728842052"><ele>222.66666666666666</ele><time>2026-04-11T13:08:32.964Z</time></trkpt><trkpt lat="45.40201685339586" lon="7.912012533913293"><ele>223.0</ele><time>2026-04-11T13:08:33.964Z</time></trkpt><trkpt lat="45.40201384633395" lon="7.91192088912311"><ele>222.99999999999997</ele><time>2026-04-11T13:08:34.964Z</time></trkpt><trkpt lat="45.40201398574391" lon="7.9118262160452595"><ele>223.0</ele><time>2026-04-11T13:08:35.964Z</time></trkpt><trkpt lat="45.40200634389024" lon="7.911725917901678"><ele>223.0</ele><time>2026-04-11T13:08:36.964Z</time></trkpt><trkpt lat="45.40199140521345" lon="7.911626540863034"><ele>223.0</ele><time>2026-04-11T13:08:37.964Z</time></trkpt><trkpt lat="45.40198020325208" lon="7.911535772198402"><ele>222.99999999999997</ele><time>2026-04-11T13:08:38.964Z</time></trkpt><trkpt lat="45.401965694141886" lon="7.911441752642773"><ele>223.0</ele><time>2026-04-11T13:08:39.964Z</time></trkpt><trkpt lat="45.40195121125267" lon="7.911263040085731"><ele>222.83333333333331</ele><time>2026-04-11T13:08:41.964Z</time></trkpt><trkpt lat="45.40194757860187" lon="7.91116624372776"><ele>222.66666666666666</ele><time>2026-04-11T13:08:42.964Z</time></trkpt><trkpt lat="45.40192708278299" lon="7.911079097513886"><ele>222.5</ele><time>2026-04-11T13:08:43.964Z</time></trkpt><trkpt lat="45.401903449048575" lon="7.910975831464377"><ele>222.33333333333331</ele><time>2026-04-11T13:08:45.964Z</time></trkpt><trkpt lat="45.40190646886142" lon="7.9108777117744955"><ele>222.16666666666666</ele><time>2026-04-11T13:08:53.964Z</time></trkpt><trkpt lat="45.401940809699084" lon="7.910736306136859"><ele>222.0</ele><time>2026-04-11T13:09:24.964Z</time></trkpt><trkpt lat="45.401921952648564" lon="7.910630394014725"><ele>222.0</ele><time>2026-04-11T13:09:26.964Z</time></trkpt><trkpt lat="45.40191797085524" lon="7.910471457413333"><ele>222.0</ele><time>2026-04-11T13:09:28.964Z</time></trkpt><trkpt lat="45.4019132607166" lon="7.910355074234406"><ele>222.0</ele><time>2026-04-11T13:09:29.964Z</time></trkpt><trkpt lat="45.40190470328121" lon="7.910253929292644"><ele>222.0</ele><time>2026-04-11T13:09:30.964Z</time></trkpt><trkpt lat="45.40188402472381" lon="7.910140443514263"><ele>222.0</ele><time>2026-04-11T13:09:31.961Z</time></trkpt><trkpt lat="45.401865612760446" lon="7.910034790955554"><ele>222.0</ele><time>2026-04-11T13:09:32.961Z</time></trkpt><trkpt lat="45.40185472870999" lon="7.909914077768736"><ele>222.0</ele><time>2026-04-11T13:09:33.961Z</time></trkpt><trkpt lat="45.401847662088194" lon="7.909797124413533"><ele>222.0</ele><time>2026-04-11T13:09:34.961Z</time></trkpt><trkpt lat="45.40183648149411" lon="7.90968296575417"><ele>222.0</ele><time>2026-04-11T13:09:35.96Z</time></trkpt><trkpt lat="45.40182678612965" lon="7.909571610730174"><ele>222.0</ele><time>2026-04-11T13:09:36.96Z</time></trkpt><trkpt lat="45.40182208466997" lon="7.9094719577875505"><ele>222.0</ele><time>2026-04-11T13:09:37.961Z</time></trkpt><trkpt lat="45.40179148253672" lon="7.909312929900219"><ele>222.0</ele><time>2026-04-11T13:09:39.961Z</time></trkpt><trkpt lat="45.4017787682958" lon="7.909205409800639"><ele>221.8</ele><time>2026-04-11T13:09:40.96Z</time></trkpt><trkpt lat="45.40176342163035" lon="7.9090760644159985"><ele>221.6</ele><time>2026-04-11T13:09:41.961Z</time></trkpt><trkpt lat="45.40173612685582" lon="7.908935486699585"><ele>221.40000000000003</ele><time>2026-04-11T13:09:42.961Z</time></trkpt><trkpt lat="45.40171517040736" lon="7.908818254302264"><ele>221.20000000000002</ele><time>2026-04-11T13:09:43.961Z</time></trkpt><trkpt lat="45.401717734003135" lon="7.908685195125011"><ele>221.0</ele><time>2026-04-11T13:09:44.96Z</time></trkpt><trkpt lat="45.40173857799776" lon="7.9085355902698025"><ele>221.25</ele><time>2026-04-11T13:09:45.96Z</time></trkpt><trkpt lat="45.40176762950534" lon="7.908370375435178"><ele>221.5</ele><time>2026-04-11T13:09:46.96Z</time></trkpt><trkpt lat="45.401799321430445" lon="7.908208901239901"><ele>221.75</ele><time>2026-04-11T13:09:47.96Z</time></trkpt><trkpt lat="45.40184611937168" lon="7.9080593575383915"><ele>222.0</ele><time>2026-04-11T13:09:48.96Z</time></trkpt><trkpt lat="45.40190312784688" lon="7.907921003579524"><ele>222.0</ele><time>2026-04-11T13:09:49.96Z</time></trkpt><trkpt lat="45.40195036511063" lon="7.907783863454967"><ele>222.0</ele><time>2026-04-11T13:09:50.96Z</time></trkpt><trkpt lat="45.401999439852375" lon="7.907641236896659"><ele>222.0</ele><time>2026-04-11T13:09:51.96Z</time></trkpt><trkpt lat="45.40204285701694" lon="7.907489382009995"><ele>222.0</ele><time>2026-04-11T13:09:52.96Z</time></trkpt><trkpt lat="45.402080255835685" lon="7.907338107247704"><ele>222.0</ele><time>2026-04-11T13:09:53.96Z</time></trkpt><trkpt lat="45.40211096772308" lon="7.907172060568738"><ele>222.0</ele><time>2026-04-11T13:09:54.96Z</time></trkpt><trkpt lat="45.40211415765875" lon="7.906999098336334"><ele>222.0</ele><time>2026-04-11T13:09:55.96Z</time></trkpt><trkpt lat="45.402108406651244" lon="7.9068416247932465"><ele>222.0</ele><time>2026-04-11T13:09:56.96Z</time></trkpt><trkpt lat="45.40208808776034" lon="7.906718645491698"><ele>222.0</ele><time>2026-04-11T13:09:57.96Z</time></trkpt><trkpt lat="45.40207461298321" lon="7.906622251920049"><ele>222.0</ele><time>2026-04-11T13:09:58.96Z</time></trkpt><trkpt lat="45.402071816568636" lon="7.906516820271169"><ele>222.2</ele><time>2026-04-11T13:09:59.96Z</time></trkpt><trkpt lat="45.402081585170066" lon="7.906342934270563"><ele>222.39999999999998</ele><time>2026-04-11T13:10:01.96Z</time></trkpt><trkpt lat="45.402185393071605" lon="7.906246803330689"><ele>222.60000000000002</ele><time>2026-04-11T13:10:03.96Z</time></trkpt><trkpt lat="45.40227907217596" lon="7.906218766590766"><ele>222.8</ele><time>2026-04-11T13:10:04.96Z</time></trkpt><trkpt lat="45.40237900108458" lon="7.906216022298968"><ele>223.0</ele><time>2026-04-11T13:10:05.96Z</time></trkpt><trkpt lat="45.40244647425234" lon="7.906207674909973"><ele>222.60000000000002</ele><time>2026-04-11T13:10:06.96Z</time></trkpt><trkpt lat="45.40252492191971" lon="7.906089115879409"><ele>222.20000000000002</ele><time>2026-04-11T13:10:08.96Z</time></trkpt><trkpt lat="45.40251665243964" lon="7.90596138261043"><ele>221.8</ele><time>2026-04-11T13:10:09.96Z</time></trkpt><trkpt lat="45.40250014188498" lon="7.905828335788238"><ele>221.4</ele><time>2026-04-11T13:10:10.96Z</time></trkpt><trkpt lat="45.4024855277705" lon="7.905704811379233"><ele>221.0</ele><time>2026-04-11T13:10:11.96Z</time></trkpt><trkpt lat="45.402466681896705" lon="7.905597958739197"><ele>221.0</ele><time>2026-04-11T13:10:12.96Z</time></trkpt><trkpt lat="45.402457971527994" lon="7.9054692785937375"><ele>221.00000000000003</ele><time>2026-04-11T13:10:13.96Z</time></trkpt><trkpt lat="45.402445320844585" lon="7.905335797768574"><ele>221.00000000000003</ele><time>2026-04-11T13:10:14.96Z</time></trkpt><trkpt lat="45.40244102655478" lon="7.90519044277038"><ele>221.0</ele><time>2026-04-11T13:10:15.96Z</time></trkpt><trkpt lat="45.402438820996025" lon="7.90505887320049"><ele>221.0</ele><time>2026-04-11T13:10:16.96Z</time></trkpt><trkpt lat="45.40243715605483" lon="7.904921368269335"><ele>221.00000000000003</ele><time>2026-04-11T13:10:17.96Z</time></trkpt><trkpt lat="45.40245437733133" lon="7.904800651270118"><ele>221.0</ele><time>2026-04-11T13:10:18.96Z</time></trkpt><trkpt lat="45.40247843912887" lon="7.9046897291398635"><ele>221.0</ele><time>2026-04-11T13:10:19.96Z</time></trkpt><trkpt lat="45.402528819356796" lon="7.904603023724057"><ele>221.0</ele><time>2026-04-11T13:10:20.96Z</time></trkpt><trkpt lat="45.40260773973832" lon="7.904517449641691"><ele>221.00000000000003</ele><time>2026-04-11T13:10:21.96Z</time></trkpt><trkpt lat="45.40269382957555" lon="7.904456897152359"><ele>221.0</ele><time>2026-04-11T13:10:22.96Z</time></trkpt><trkpt lat="45.40279119340077" lon="7.904405391465651"><ele>221.0</ele><time>2026-04-11T13:10:23.96Z</time></trkpt><trkpt lat="45.40290231231359" lon="7.90433297340027"><ele>221.0</ele><time>2026-04-11T13:10:24.96Z</time></trkpt><trkpt lat="45.40299932021637" lon="7.904270696483419"><ele>221.0</ele><time>2026-04-11T13:10:25.96Z</time></trkpt><trkpt lat="45.40311133856095" lon="7.904196138224959"><ele>221.0</ele><time>2026-04-11T13:10:26.96Z</time></trkpt><trkpt lat="45.403226405219414" lon="7.904126859985763"><ele>221.5</ele><time>2026-04-11T13:10:27.96Z</time></trkpt><trkpt lat="45.40333647823307" lon="7.904050384935753"><ele>222.0</ele><time>2026-04-11T13:10:28.96Z</time></trkpt><trkpt lat="45.40344149107694" lon="7.903970682776174"><ele>222.5</ele><time>2026-04-11T13:10:29.96Z</time></trkpt><trkpt lat="45.40354126067624" lon="7.903905004910069"><ele>223.0</ele><time>2026-04-11T13:10:30.96Z</time></trkpt><trkpt lat="45.4036469644092" lon="7.903842444150466"><ele>223.0</ele><time>2026-04-11T13:10:31.96Z</time></trkpt><trkpt lat="45.40375334454739" lon="7.903782960766557"><ele>223.0</ele><time>2026-04-11T13:10:32.96Z</time></trkpt><trkpt lat="45.40385711599401" lon="7.9037165945791745"><ele>223.0</ele><time>2026-04-11T13:10:33.96Z</time></trkpt><trkpt lat="45.40396679504363" lon="7.903640317749167"><ele>223.0</ele><time>2026-04-11T13:10:34.96Z</time></trkpt><trkpt lat="45.40407443625483" lon="7.9035576283031865"><ele>223.25</ele><time>2026-04-11T13:10:35.96Z</time></trkpt><trkpt lat="45.40418500790038" lon="7.903479099213585"><ele>223.5</ele><time>2026-04-11T13:10:36.96Z</time></trkpt><trkpt lat="45.404296337336554" lon="7.903400916881025"><ele>223.75</ele><time>2026-04-11T13:10:37.96Z</time></trkpt><trkpt lat="45.40439180452146" lon="7.903325999844578"><ele>224.0</ele><time>2026-04-11T13:10:38.96Z</time></trkpt><trkpt lat="45.40447990187215" lon="7.903246461375327"><ele>224.00000000000003</ele><time>2026-04-11T13:10:39.96Z</time></trkpt><trkpt lat="45.404553943307704" lon="7.903163268467659"><ele>224.0</ele><time>2026-04-11T13:10:40.96Z</time></trkpt><trkpt lat="45.404618516671306" lon="7.903095629580577"><ele>224.0</ele><time>2026-04-11T13:10:41.96Z</time></trkpt><trkpt lat="45.40470861876825" lon="7.90306771051139"><ele>224.0</ele><time>2026-04-11T13:10:43.96Z</time></trkpt><trkpt lat="45.404764355420674" lon="7.903136210740801"><ele>224.00000000000003</ele><time>2026-04-11T13:10:44.96Z</time></trkpt><trkpt lat="45.40482989730844" lon="7.903229935541333"><ele>224.0</ele><time>2026-04-11T13:10:45.96Z</time></trkpt><trkpt lat="45.40487767970879" lon="7.903352967790352"><ele>223.75</ele><time>2026-04-11T13:10:46.96Z</time></trkpt><trkpt lat="45.4049300030674" lon="7.903476571741062"><ele>223.5</ele><time>2026-04-11T13:10:47.96Z</time></trkpt><trkpt lat="45.40499365429156" lon="7.903624811006361"><ele>223.25</ele><time>2026-04-11T13:10:48.96Z</time></trkpt><trkpt lat="45.405039523243346" lon="7.903783293840845"><ele>223.0</ele><time>2026-04-11T13:10:49.96Z</time></trkpt><trkpt lat="45.40510469121717" lon="7.903930880478756"><ele>223.0</ele><time>2026-04-11T13:10:50.96Z</time></trkpt><trkpt lat="45.40515574657977" lon="7.904056556187578"><ele>223.0</ele><time>2026-04-11T13:10:51.96Z</time></trkpt><trkpt lat="45.40519785871767" lon="7.904178996759702"><ele>223.0</ele><time>2026-04-11T13:10:52.96Z</time></trkpt><trkpt lat="45.405232705617124" lon="7.904288404068063"><ele>223.0</ele><time>2026-04-11T13:10:53.96Z</time></trkpt><trkpt lat="45.40526636550304" lon="7.9043746508883155"><ele>223.0</ele><time>2026-04-11T13:10:54.96Z</time></trkpt><trkpt lat="45.4053471613264" lon="7.904509283373766"><ele>223.0</ele><time>2026-04-11T13:10:56.96Z</time></trkpt><trkpt lat="45.40540830523015" lon="7.904536439549319"><ele>223.0</ele><time>2026-04-11T13:10:57.96Z</time></trkpt><trkpt lat="45.40548892501016" lon="7.904484578156632"><ele>223.0</ele><time>2026-04-11T13:10:58.96Z</time></trkpt><trkpt lat="45.405574541845105" lon="7.904401443124002"><ele>223.0</ele><time>2026-04-11T13:10:59.96Z</time></trkpt><trkpt lat="45.40565340669658" lon="7.90429723946632"><ele>223.0</ele><time>2026-04-11T13:11:00.96Z</time></trkpt><trkpt lat="45.405726761615725" lon="7.904188730975666"><ele>223.0</ele><time>2026-04-11T13:11:01.96Z</time></trkpt><trkpt lat="45.40580436928051" lon="7.904067762622409"><ele>223.0</ele><time>2026-04-11T13:11:02.96Z</time></trkpt><trkpt lat="45.40589650091093" lon="7.903942423420946"><ele>223.0</ele><time>2026-04-11T13:11:03.96Z</time></trkpt><trkpt lat="45.40598284355775" lon="7.903807543530149"><ele>223.0</ele><time>2026-04-11T13:11:04.96Z</time></trkpt><trkpt lat="45.406067933098136" lon="7.903661262541273"><ele>223.0</ele><time>2026-04-11T13:11:05.96Z</time></trkpt><trkpt lat="45.40614787988701" lon="7.903517016263163"><ele>223.0</ele><time>2026-04-11T13:11:06.96Z</time></trkpt><trkpt lat="45.4062168750159" lon="7.903361905693807"><ele>223.0</ele><time>2026-04-11T13:11:07.96Z</time></trkpt><trkpt lat="45.40628138596662" lon="7.9032013955525535"><ele>223.0</ele><time>2026-04-11T13:11:08.96Z</time></trkpt><trkpt lat="45.406322508629366" lon="7.903026326671477"><ele>222.75</ele><time>2026-04-11T13:11:09.96Z</time></trkpt><trkpt lat="45.406359587393226" lon="7.902845732894921"><ele>222.5</ele><time>2026-04-11T13:11:10.96Z</time></trkpt><trkpt lat="45.40639270277482" lon="7.9026630458483496"><ele>222.25</ele><time>2026-04-11T13:11:11.96Z</time></trkpt><trkpt lat="45.40641391530769" lon="7.902469936328771"><ele>222.0</ele><time>2026-04-11T13:11:12.96Z</time></trkpt><trkpt lat="45.40642409600029" lon="7.902264447479379"><ele>222.0</ele><time>2026-04-11T13:11:13.96Z</time></trkpt><trkpt lat="45.4064340512149" lon="7.902064507354176"><ele>222.0</ele><time>2026-04-11T13:11:14.96Z</time></trkpt><trkpt lat="45.40645442194642" lon="7.901874044997625"><ele>222.0</ele><time>2026-04-11T13:11:15.96Z</time></trkpt><trkpt lat="45.40648410161232" lon="7.901670484204749"><ele>222.0</ele><time>2026-04-11T13:11:16.96Z</time></trkpt><trkpt lat="45.40650879182134" lon="7.901489186924497"><ele>221.75</ele><time>2026-04-11T13:11:17.96Z</time></trkpt><trkpt lat="45.4065299495032" lon="7.901293098309205"><ele>221.5</ele><time>2026-04-11T13:11:18.96Z</time></trkpt><trkpt lat="45.406545517289125" lon="7.90107926646876"><ele>221.25</ele><time>2026-04-11T13:11:19.96Z</time></trkpt><trkpt lat="45.40655736131812" lon="7.900874519339166"><ele>221.0</ele><time>2026-04-11T13:11:20.96Z</time></trkpt><trkpt lat="45.40657240550535" lon="7.900679310933078"><ele>221.0</ele><time>2026-04-11T13:11:21.96Z</time></trkpt><trkpt lat="45.4065892871236" lon="7.900495829753952"><ele>221.0</ele><time>2026-04-11T13:11:22.96Z</time></trkpt><trkpt lat="45.40660803070646" lon="7.900289504791302"><ele>221.0</ele><time>2026-04-11T13:11:23.96Z</time></trkpt><trkpt lat="45.40662639165429" lon="7.900089934346053"><ele>221.0</ele><time>2026-04-11T13:11:24.96Z</time></trkpt><trkpt lat="45.40664226487446" lon="7.899897620287192"><ele>221.0</ele><time>2026-04-11T13:11:25.96Z</time></trkpt><trkpt lat="45.40666177133868" lon="7.899714808054411"><ele>221.0</ele><time>2026-04-11T13:11:26.96Z</time></trkpt><trkpt lat="45.40667041302321" lon="7.899533271102472"><ele>221.0</ele><time>2026-04-11T13:11:27.96Z</time></trkpt><trkpt lat="45.406686446145805" lon="7.899363805242737"><ele>221.0</ele><time>2026-04-11T13:11:28.96Z</time></trkpt><trkpt lat="45.406710906230295" lon="7.899210613129959"><ele>221.4</ele><time>2026-04-11T13:11:29.96Z</time></trkpt><trkpt lat="45.40674231712917" lon="7.899081484323969"><ele>221.8</ele><time>2026-04-11T13:11:30.96Z</time></trkpt><trkpt lat="45.40680316394558" lon="7.8989857063434075"><ele>222.20000000000002</ele><time>2026-04-11T13:11:31.96Z</time></trkpt><trkpt lat="45.40690718853804" lon="7.898938982409479"><ele>222.60000000000002</ele><time>2026-04-11T13:11:32.96Z</time></trkpt><trkpt lat="45.407028111723285" lon="7.89890174444374"><ele>223.0</ele><time>2026-04-11T13:11:33.96Z</time></trkpt><trkpt lat="45.407158344510925" lon="7.898888726612961"><ele>222.5</ele><time>2026-04-11T13:11:34.96Z</time></trkpt><trkpt lat="45.40729373156851" lon="7.898877312220972"><ele>222.0</ele><time>2026-04-11T13:11:35.96Z</time></trkpt><trkpt lat="45.40741787286217" lon="7.898843608058861"><ele>221.5</ele><time>2026-04-11T13:11:36.96Z</time></trkpt><trkpt lat="45.407546416948996" lon="7.898784934996681"><ele>221.0</ele><time>2026-04-11T13:11:37.958Z</time></trkpt><trkpt lat="45.407682782427194" lon="7.898731975190495"><ele>221.0</ele><time>2026-04-11T13:11:38.957Z</time></trkpt><trkpt lat="45.4078146782425" lon="7.898680092139187"><ele>221.0</ele><time>2026-04-11T13:11:39.957Z</time></trkpt><trkpt lat="45.40795491452889" lon="7.898634397990187"><ele>221.0</ele><time>2026-04-11T13:11:40.957Z</time></trkpt><trkpt lat="45.40809385596787" lon="7.89857708180299"><ele>221.0</ele><time>2026-04-11T13:11:41.957Z</time></trkpt><trkpt lat="45.40822091860677" lon="7.898527696484985"><ele>221.25</ele><time>2026-04-11T13:11:42.957Z</time></trkpt><trkpt lat="45.408346465765206" lon="7.8984777212072625"><ele>221.5</ele><time>2026-04-11T13:11:43.957Z</time></trkpt><trkpt lat="45.408458798866306" lon="7.89843606393726"><ele>221.75</ele><time>2026-04-11T13:11:44.958Z</time></trkpt><trkpt lat="45.40856675260812" lon="7.8983888774389595"><ele>222.0</ele><time>2026-04-11T13:11:45.958Z</time></trkpt><trkpt lat="45.40865443805985" lon="7.898343742333826"><ele>222.0</ele><time>2026-04-11T13:11:46.957Z</time></trkpt><trkpt lat="45.40872806654743" lon="7.898301162832685"><ele>222.0</ele><time>2026-04-11T13:11:47.957Z</time></trkpt><trkpt lat="45.40880108721523" lon="7.898270516720533"><ele>222.0</ele><time>2026-04-11T13:11:48.957Z</time></trkpt><trkpt lat="45.40887220264871" lon="7.898236649319094"><ele>222.0</ele><time>2026-04-11T13:11:49.957Z</time></trkpt><trkpt lat="45.40895998148396" lon="7.898205788661062"><ele>222.0</ele><time>2026-04-11T13:11:50.958Z</time></trkpt><trkpt lat="45.40905204640868" lon="7.898181644298659"><ele>222.0</ele><time>2026-04-11T13:11:51.958Z</time></trkpt><trkpt lat="45.4091527494269" lon="7.89814500265001"><ele>222.25</ele><time>2026-04-11T13:11:52.958Z</time></trkpt><trkpt lat="45.40925540741323" lon="7.898106501544113"><ele>222.5</ele><time>2026-04-11T13:11:53.958Z</time></trkpt><trkpt lat="45.4093652764502" lon="7.898076663647595"><ele>222.75</ele><time>2026-04-11T13:11:54.958Z</time></trkpt><trkpt lat="45.40949172660072" lon="7.898059030811897"><ele>223.0</ele><time>2026-04-11T13:11:55.958Z</time></trkpt><trkpt lat="45.40963264212594" lon="7.898059616294715"><ele>223.25</ele><time>2026-04-11T13:11:56.958Z</time></trkpt><trkpt lat="45.409764992356166" lon="7.8980644975139"><ele>223.5</ele><time>2026-04-11T13:11:57.958Z</time></trkpt><trkpt lat="45.40989952580098" lon="7.898053063613734"><ele>223.75</ele><time>2026-04-11T13:11:58.958Z</time></trkpt><trkpt lat="45.41003573164306" lon="7.898018329282442"><ele>224.0</ele><time>2026-04-11T13:11:59.958Z</time></trkpt><trkpt lat="45.41016559096255" lon="7.897963422126447"><ele>224.0</ele><time>2026-04-11T13:12:00.958Z</time></trkpt><trkpt lat="45.41029410640464" lon="7.897913531907159"><ele>224.0</ele><time>2026-04-11T13:12:01.958Z</time></trkpt><trkpt lat="45.41041792854266" lon="7.897850635360989"><ele>224.0</ele><time>2026-04-11T13:12:02.958Z</time></trkpt><trkpt lat="45.41053795422494" lon="7.897771858180747"><ele>224.0</ele><time>2026-04-11T13:12:03.958Z</time></trkpt><trkpt lat="45.41065932638222" lon="7.897689207528092"><ele>224.0</ele><time>2026-04-11T13:12:04.958Z</time></trkpt><trkpt lat="45.41077328962673" lon="7.897590412132226"><ele>224.0</ele><time>2026-04-11T13:12:05.958Z</time></trkpt><trkpt lat="45.41089263946554" lon="7.8974976240707235"><ele>224.0</ele><time>2026-04-11T13:12:06.958Z</time></trkpt><trkpt lat="45.4110071784982" lon="7.897402332199413"><ele>224.0</ele><time>2026-04-11T13:12:07.958Z</time></trkpt><trkpt lat="45.41112518809076" lon="7.897308476719425"><ele>224.0</ele><time>2026-04-11T13:12:08.958Z</time></trkpt><trkpt lat="45.41124731776917" lon="7.897212383185935"><ele>224.0</ele><time>2026-04-11T13:12:09.958Z</time></trkpt><trkpt lat="45.411374650661564" lon="7.897112696231666"><ele>224.0</ele><time>2026-04-11T13:12:10.958Z</time></trkpt><trkpt lat="45.41149559820308" lon="7.8970266636190996"><ele>224.0</ele><time>2026-04-11T13:12:11.958Z</time></trkpt><trkpt lat="45.411608449587106" lon="7.896939462001169"><ele>224.0</ele><time>2026-04-11T13:12:12.958Z</time></trkpt><trkpt lat="45.4117242296019" lon="7.896850206311213"><ele>224.0</ele><time>2026-04-11T13:12:13.958Z</time></trkpt><trkpt lat="45.41183924712969" lon="7.896758235052738"><ele>224.0</ele><time>2026-04-11T13:12:14.958Z</time></trkpt><trkpt lat="45.41194901642754" lon="7.89667379459283"><ele>224.0</ele><time>2026-04-11T13:12:15.958Z</time></trkpt><trkpt lat="45.41204973299505" lon="7.896589609460361"><ele>224.0</ele><time>2026-04-11T13:12:16.958Z</time></trkpt><trkpt lat="45.41214850850336" lon="7.896493566917767"><ele>224.0</ele><time>2026-04-11T13:12:17.958Z</time></trkpt><trkpt lat="45.412242412020206" lon="7.89640270192084"><ele>224.0</ele><time>2026-04-11T13:12:18.958Z</time></trkpt><trkpt lat="45.412342928449974" lon="7.8963190614433145"><ele>224.0</ele><time>2026-04-11T13:12:19.958Z</time></trkpt><trkpt lat="45.41244694450552" lon="7.896241235159542"><ele>223.75</ele><time>2026-04-11T13:12:20.958Z</time></trkpt><trkpt lat="45.412542650018196" lon="7.896163156729176"><ele>223.5</ele><time>2026-04-11T13:12:21.958Z</time></trkpt><trkpt lat="45.41263693256603" lon="7.896057508551315"><ele>223.25</ele><time>2026-04-11T13:12:22.958Z</time></trkpt><trkpt lat="45.412721288138044" lon="7.895944499460834"><ele>223.0</ele><time>2026-04-11T13:12:23.958Z</time></trkpt><trkpt lat="45.412810987223935" lon="7.895853766618363"><ele>223.0</ele><time>2026-04-11T13:12:24.958Z</time></trkpt><trkpt lat="45.41290108564066" lon="7.895756088190361"><ele>223.0</ele><time>2026-04-11T13:12:25.958Z</time></trkpt><trkpt lat="45.412993721797505" lon="7.89565237808811"><ele>223.0</ele><time>2026-04-11T13:12:26.958Z</time></trkpt><trkpt lat="45.41309415154668" lon="7.895553638953093"><ele>223.0</ele><time>2026-04-11T13:12:27.958Z</time></trkpt><trkpt lat="45.413199380161416" lon="7.895466385890129"><ele>222.8</ele><time>2026-04-11T13:12:28.958Z</time></trkpt><trkpt lat="45.41330061008303" lon="7.895389773470924"><ele>222.60000000000002</ele><time>2026-04-11T13:12:29.958Z</time></trkpt><trkpt lat="45.41339862038272" lon="7.895340956629056"><ele>222.39999999999998</ele><time>2026-04-11T13:12:30.958Z</time></trkpt><trkpt lat="45.41348448085032" lon="7.895309483317451"><ele>222.2</ele><time>2026-04-11T13:12:31.958Z</time></trkpt><trkpt lat="45.4135638580953" lon="7.895274330448411"><ele>222.0</ele><time>2026-04-11T13:12:32.958Z</time></trkpt><trkpt lat="45.41362758011632" lon="7.895217145819154"><ele>222.0</ele><time>2026-04-11T13:12:33.958Z</time></trkpt><trkpt lat="45.413663483353304" lon="7.895111923919905"><ele>222.0</ele><time>2026-04-11T13:12:34.958Z</time></trkpt><trkpt lat="45.413671400078485" lon="7.8949975225027345"><ele>222.0</ele><time>2026-04-11T13:12:35.958Z</time></trkpt><trkpt lat="45.41365521432593" lon="7.894877571446898"><ele>222.0</ele><time>2026-04-11T13:12:36.958Z</time></trkpt><trkpt lat="45.41365973512558" lon="7.89474532682213"><ele>222.0</ele><time>2026-04-11T13:12:37.958Z</time></trkpt><trkpt lat="45.41364525611245" lon="7.894604716018016"><ele>222.0</ele><time>2026-04-11T13:12:38.958Z</time></trkpt><trkpt lat="45.41362449077666" lon="7.894467207627543"><ele>222.39999999999998</ele><time>2026-04-11T13:12:39.958Z</time></trkpt><trkpt lat="45.41359071104865" lon="7.894343630074084"><ele>222.79999999999998</ele><time>2026-04-11T13:12:40.958Z</time></trkpt><trkpt lat="45.41358377738582" lon="7.894217787863067"><ele>223.2</ele><time>2026-04-11T13:12:41.958Z</time></trkpt><trkpt lat="45.4135542724086" lon="7.894080912449463"><ele>223.6</ele><time>2026-04-11T13:12:42.958Z</time></trkpt><trkpt lat="45.41353904616842" lon="7.893952441925236"><ele>224.0</ele><time>2026-04-11T13:12:43.958Z</time></trkpt><trkpt lat="45.413542643729606" lon="7.89381469675956"><ele>224.0</ele><time>2026-04-11T13:12:44.958Z</time></trkpt><trkpt lat="45.41358037329292" lon="7.893673857882789"><ele>223.99999999999997</ele><time>2026-04-11T13:12:45.958Z</time></trkpt><trkpt lat="45.4136103295592" lon="7.893538605536276"><ele>223.99999999999997</ele><time>2026-04-11T13:12:46.958Z</time></trkpt><trkpt lat="45.4136603013956" lon="7.893408583148187"><ele>224.0</ele><time>2026-04-11T13:12:47.958Z</time></trkpt><trkpt lat="45.41369782574841" lon="7.893278084773978"><ele>224.0</ele><time>2026-04-11T13:12:48.958Z</time></trkpt><trkpt lat="45.41372182379226" lon="7.893145753522391"><ele>224.0</ele><time>2026-04-11T13:12:49.958Z</time></trkpt><trkpt lat="45.413738305299546" lon="7.893007066399893"><ele>223.99999999999997</ele><time>2026-04-11T13:12:50.958Z</time></trkpt><trkpt lat="45.41374360238896" lon="7.892888908990273"><ele>223.99999999999997</ele><time>2026-04-11T13:12:51.958Z</time></trkpt><trkpt lat="45.413733890357925" lon="7.8927949507587805"><ele>224.0</ele><time>2026-04-11T13:12:52.958Z</time></trkpt><trkpt lat="45.41370111363904" lon="7.892659369944293"><ele>224.0</ele><time>2026-04-11T13:12:53.958Z</time></trkpt><trkpt lat="45.413699596599926" lon="7.892515927581799"><ele>224.0</ele><time>2026-04-11T13:12:54.958Z</time></trkpt><trkpt lat="45.41371683660624" lon="7.892371128873061"><ele>223.99999999999997</ele><time>2026-04-11T13:12:55.958Z</time></trkpt><trkpt lat="45.41376605633336" lon="7.892229673633921"><ele>223.99999999999997</ele><time>2026-04-11T13:12:56.958Z</time></trkpt><trkpt lat="45.41382051279182" lon="7.8920792347900885"><ele>224.0</ele><time>2026-04-11T13:12:57.958Z</time></trkpt><trkpt lat="45.41385154381442" lon="7.891926428360468"><ele>224.0</ele><time>2026-04-11T13:12:58.958Z</time></trkpt><trkpt lat="45.41388793837831" lon="7.891768271500788"><ele>224.0</ele><time>2026-04-11T13:12:59.958Z</time></trkpt><trkpt lat="45.41392359853832" lon="7.891607318017877"><ele>224.0</ele><time>2026-04-11T13:13:00.958Z</time></trkpt><trkpt lat="45.413971098257534" lon="7.891443729788189"><ele>224.0</ele><time>2026-04-11T13:13:01.958Z</time></trkpt><trkpt lat="45.414013709105575" lon="7.891267026928061"><ele>224.0</ele><time>2026-04-11T13:13:02.958Z</time></trkpt><trkpt lat="45.41404664823647" lon="7.8910967693359835"><ele>224.0</ele><time>2026-04-11T13:13:03.958Z</time></trkpt><trkpt lat="45.414108869473246" lon="7.8909328644527506"><ele>224.0</ele><time>2026-04-11T13:13:04.958Z</time></trkpt><trkpt lat="45.41414606645019" lon="7.8907699691948325"><ele>224.0</ele><time>2026-04-11T13:13:05.958Z</time></trkpt><trkpt lat="45.414184719006116" lon="7.890598616869349"><ele>224.0</ele><time>2026-04-11T13:13:06.958Z</time></trkpt><trkpt lat="45.41421905430326" lon="7.89043359254672"><ele>223.75</ele><time>2026-04-11T13:13:07.958Z</time></trkpt><trkpt lat="45.41424926994682" lon="7.8902523199089"><ele>223.5</ele><time>2026-04-11T13:13:08.958Z</time></trkpt><trkpt lat="45.41427924147858" lon="7.890079113498822"><ele>223.25</ele><time>2026-04-11T13:13:09.958Z</time></trkpt><trkpt lat="45.41430090750774" lon="7.889918895950606"><ele>223.0</ele><time>2026-04-11T13:13:10.958Z</time></trkpt><trkpt lat="45.4143323956881" lon="7.8897739027450795"><ele>222.83333333333331</ele><time>2026-04-11T13:13:11.958Z</time></trkpt><trkpt lat="45.414357059562064" lon="7.889657492697235"><ele>222.66666666666666</ele><time>2026-04-11T13:13:12.958Z</time></trkpt><trkpt lat="45.41437739694705" lon="7.889568289171028"><ele>222.5</ele><time>2026-04-11T13:13:13.958Z</time></trkpt><trkpt lat="45.414453845044655" lon="7.889533032628519"><ele>222.33333333333331</ele><time>2026-04-11T13:13:14.958Z</time></trkpt><trkpt lat="45.414541198140796" lon="7.889520022523014"><ele>222.16666666666666</ele><time>2026-04-11T13:13:15.958Z</time></trkpt><trkpt lat="45.414652838318716" lon="7.889568960081222"><ele>222.0</ele><time>2026-04-11T13:13:16.958Z</time></trkpt><trkpt lat="45.41477075701808" lon="7.889590332154702"><ele>222.75</ele><time>2026-04-11T13:13:17.958Z</time></trkpt><trkpt lat="45.41489553733775" lon="7.889579074253754"><ele>223.5</ele><time>2026-04-11T13:13:18.958Z</time></trkpt><trkpt lat="45.41502431451101" lon="7.889558146159047"><ele>224.25</ele><time>2026-04-11T13:13:19.958Z</time></trkpt><trkpt lat="45.4151605336012" lon="7.889486845572965"><ele>225.0</ele><time>2026-04-11T13:13:20.958Z</time></trkpt><trkpt lat="45.41528931151853" lon="7.889412936052863"><ele>225.0</ele><time>2026-04-11T13:13:21.958Z</time></trkpt><trkpt lat="45.41541899447836" lon="7.889342924535911"><ele>225.0</ele><time>2026-04-11T13:13:22.958Z</time></trkpt><trkpt lat="45.41554881687999" lon="7.889281882679703"><ele>225.0</ele><time>2026-04-11T13:13:23.958Z</time></trkpt><trkpt lat="45.41567845804564" lon="7.889224745227053"><ele>225.0</ele><time>2026-04-11T13:13:24.958Z</time></trkpt><trkpt lat="45.41580063175958" lon="7.889163191903629"><ele>225.0</ele><time>2026-04-11T13:13:25.958Z</time></trkpt><trkpt lat="45.41589060955736" lon="7.889107238962916"><ele>225.0</ele><time>2026-04-11T13:13:26.958Z</time></trkpt><trkpt lat="45.41595837144078" lon="7.889019976419047"><ele>225.0</ele><time>2026-04-11T13:13:27.958Z</time></trkpt><trkpt lat="45.415974444778236" lon="7.888907349916218"><ele>225.0</ele><time>2026-04-11T13:13:28.958Z</time></trkpt><trkpt lat="45.41597027520283" lon="7.888761713236201"><ele>225.0</ele><time>2026-04-11T13:13:29.958Z</time></trkpt><trkpt lat="45.41594857420818" lon="7.888597946593154"><ele>225.0</ele><time>2026-04-11T13:13:30.958Z</time></trkpt><trkpt lat="45.415894494618485" lon="7.888411030874227"><ele>225.0</ele><time>2026-04-11T13:13:31.958Z</time></trkpt><trkpt lat="45.41583287229384" lon="7.888221016445031"><ele>225.0</ele><time>2026-04-11T13:13:32.958Z</time></trkpt><trkpt lat="45.41577864004967" lon="7.8880575740611265"><ele>225.0</ele><time>2026-04-11T13:13:33.958Z</time></trkpt><trkpt lat="45.41571953353069" lon="7.887896749474623"><ele>225.0</ele><time>2026-04-11T13:13:34.958Z</time></trkpt><trkpt lat="45.41567081470139" lon="7.887731367074023"><ele>225.0</ele><time>2026-04-11T13:13:35.958Z</time></trkpt><trkpt lat="45.4156081198201" lon="7.887561058204692"><ele>225.0</ele><time>2026-04-11T13:13:36.958Z</time></trkpt><trkpt lat="45.415544795486156" lon="7.8873915186635335"><ele>225.0</ele><time>2026-04-11T13:13:37.958Z</time></trkpt><trkpt lat="45.41546599975309" lon="7.887235174017554"><ele>225.0</ele><time>2026-04-11T13:13:38.958Z</time></trkpt><trkpt lat="45.41539083803251" lon="7.887082896084462"><ele>225.0</ele><time>2026-04-11T13:13:39.958Z</time></trkpt><trkpt lat="45.41531044712879" lon="7.886932196851263"><ele>225.0</ele><time>2026-04-11T13:13:40.958Z</time></trkpt><trkpt lat="45.41525385851834" lon="7.886773970491886"><ele>225.0</ele><time>2026-04-11T13:13:41.958Z</time></trkpt><trkpt lat="45.41522934501696" lon="7.886600352643914"><ele>225.0</ele><time>2026-04-11T13:13:42.958Z</time></trkpt><trkpt lat="45.415274205737475" lon="7.886457573126824"><ele>225.0</ele><time>2026-04-11T13:13:43.954Z</time></trkpt><trkpt lat="45.41530996356822" lon="7.886309375332377"><ele>225.0</ele><time>2026-04-11T13:13:44.955Z</time></trkpt><trkpt lat="45.41535049692639" lon="7.886194508814135"><ele>225.0</ele><time>2026-04-11T13:13:45.955Z</time></trkpt><trkpt lat="45.41539811437417" lon="7.886068206434895"><ele>225.0</ele><time>2026-04-11T13:13:46.954Z</time></trkpt><trkpt lat="45.41544820394626" lon="7.885941867935931"><ele>225.0</ele><time>2026-04-11T13:13:47.954Z</time></trkpt><trkpt lat="45.415510540337735" lon="7.885791276092448"><ele>225.0</ele><time>2026-04-11T13:13:48.954Z</time></trkpt><trkpt lat="45.41557551906695" lon="7.885645192141892"><ele>225.0</ele><time>2026-04-11T13:13:49.954Z</time></trkpt><trkpt lat="45.41564435892884" lon="7.885497360916295"><ele>225.0</ele><time>2026-04-11T13:13:50.954Z</time></trkpt><trkpt lat="45.41571686362805" lon="7.88535389861685"><ele>225.0</ele><time>2026-04-11T13:13:51.954Z</time></trkpt><trkpt lat="45.415789369089396" lon="7.885223887657932"><ele>225.0</ele><time>2026-04-11T13:13:52.954Z</time></trkpt><trkpt lat="45.41585526836151" lon="7.885110720351195"><ele>225.0</ele><time>2026-04-11T13:13:53.954Z</time></trkpt><trkpt lat="45.415925865076005" lon="7.884995422767829"><ele>225.0</ele><time>2026-04-11T13:13:54.954Z</time></trkpt><trkpt lat="45.415974289247295" lon="7.884899725327004"><ele>225.0</ele><time>2026-04-11T13:13:55.954Z</time></trkpt><trkpt lat="45.41602612920124" lon="7.884791608355311"><ele>225.66666666666669</ele><time>2026-04-11T13:13:56.953Z</time></trkpt><trkpt lat="45.41607863675992" lon="7.884673929926987"><ele>226.33333333333334</ele><time>2026-04-11T13:13:57.953Z</time></trkpt><trkpt lat="45.41612114686466" lon="7.884565040359802"><ele>227.0</ele><time>2026-04-11T13:13:58.953Z</time></trkpt><trkpt lat="45.41571169523813" lon="7.88386692014456"><ele>227.16666666666669</ele><time>2026-04-11T13:13:59.953Z</time></trkpt><trkpt lat="45.415708580759436" lon="7.883727759392347"><ele>227.33333333333334</ele><time>2026-04-11T13:14:00.953Z</time></trkpt><trkpt lat="45.41571426921018" lon="7.883592886823401"><ele>227.5</ele><time>2026-04-11T13:14:01.953Z</time></trkpt><trkpt lat="45.415723838192925" lon="7.883471356842072"><ele>227.66666666666669</ele><time>2026-04-11T13:14:02.953Z</time></trkpt><trkpt lat="45.41571217649975" lon="7.883371151301738"><ele>227.83333333333334</ele><time>2026-04-11T13:14:03.953Z</time></trkpt><trkpt lat="45.415652240697845" lon="7.8832996579723185"><ele>228.0</ele><time>2026-04-11T13:14:04.953Z</time></trkpt><trkpt lat="45.415545880323975" lon="7.883289430879611"><ele>227.75</ele><time>2026-04-11T13:14:05.953Z</time></trkpt><trkpt lat="45.41542661703457" lon="7.883329459918677"><ele>227.5</ele><time>2026-04-11T13:14:06.953Z</time></trkpt><trkpt lat="45.41531132340796" lon="7.883357047352832"><ele>227.25</ele><time>2026-04-11T13:14:07.953Z</time></trkpt><trkpt lat="45.4151855381098" lon="7.883367306527411"><ele>227.0</ele><time>2026-04-11T13:14:08.953Z</time></trkpt><trkpt lat="45.41506789377926" lon="7.883379533408722"><ele>227.0</ele><time>2026-04-11T13:14:09.953Z</time></trkpt><trkpt lat="45.414945987302964" lon="7.883393417787145"><ele>227.0</ele><time>2026-04-11T13:14:10.953Z</time></trkpt><trkpt lat="45.414822617339745" lon="7.883399207302157"><ele>227.0</ele><time>2026-04-11T13:14:11.953Z</time></trkpt><trkpt lat="45.41469151573178" lon="7.883399670655909"><ele>227.0</ele><time>2026-04-11T13:14:12.953Z</time></trkpt><trkpt lat="45.41456805034628" lon="7.883375894356271"><ele>227.5</ele><time>2026-04-11T13:14:13.953Z</time></trkpt><trkpt lat="45.4144367507533" lon="7.8833179744829405"><ele>228.0</ele><time>2026-04-11T13:14:14.953Z</time></trkpt><trkpt lat="45.414308180897386" lon="7.8832405016279745"><ele>228.5</ele><time>2026-04-11T13:14:15.953Z</time></trkpt><trkpt lat="45.414184988495144" lon="7.883131855658401"><ele>229.0</ele><time>2026-04-11T13:14:16.953Z</time></trkpt><trkpt lat="45.41407757646425" lon="7.883039255669868"><ele>229.0</ele><time>2026-04-11T13:14:17.953Z</time></trkpt><trkpt lat="45.41396432631692" lon="7.882940823572159"><ele>229.0</ele><time>2026-04-11T13:14:18.953Z</time></trkpt><trkpt lat="45.41384697162033" lon="7.882868145923291"><ele>229.0</ele><time>2026-04-11T13:14:19.953Z</time></trkpt><trkpt lat="45.41374696070417" lon="7.882804887701727"><ele>229.0</ele><time>2026-04-11T13:14:20.953Z</time></trkpt><trkpt lat="45.41367089783215" lon="7.882730842948836"><ele>228.6</ele><time>2026-04-11T13:14:21.953Z</time></trkpt><trkpt lat="45.41360682697304" lon="7.882627597082549"><ele>228.2</ele><time>2026-04-11T13:14:22.953Z</time></trkpt><trkpt lat="45.41354605111536" lon="7.882504676250649"><ele>227.79999999999998</ele><time>2026-04-11T13:14:23.953Z</time></trkpt><trkpt lat="45.41348845046235" lon="7.882368286801213"><ele>227.39999999999998</ele><time>2026-04-11T13:14:24.953Z</time></trkpt><trkpt lat="45.41342751466057" lon="7.882251529701077"><ele>227.0</ele><time>2026-04-11T13:14:25.953Z</time></trkpt><trkpt lat="45.41335800338949" lon="7.882152890804138"><ele>226.8</ele><time>2026-04-11T13:14:26.953Z</time></trkpt><trkpt lat="45.4133186277981" lon="7.882041826634621"><ele>226.6</ele><time>2026-04-11T13:14:27.953Z</time></trkpt><trkpt lat="45.41330796961169" lon="7.881919856701166"><ele>226.40000000000003</ele><time>2026-04-11T13:14:28.953Z</time></trkpt><trkpt lat="45.41332456740434" lon="7.881789475252142"><ele>226.20000000000002</ele><time>2026-04-11T13:14:29.953Z</time></trkpt><trkpt lat="45.41334297740267" lon="7.881627944494929"><ele>226.0</ele><time>2026-04-11T13:14:30.953Z</time></trkpt><trkpt lat="45.41337631196283" lon="7.881466846777736"><ele>225.75</ele><time>2026-04-11T13:14:31.953Z</time></trkpt><trkpt lat="45.413405673155275" lon="7.881286031866798"><ele>225.5</ele><time>2026-04-11T13:14:32.953Z</time></trkpt><trkpt lat="45.4134317530999" lon="7.881120795769819"><ele>225.25</ele><time>2026-04-11T13:14:33.954Z</time></trkpt><trkpt lat="45.413466501837064" lon="7.880920767051127"><ele>225.0</ele><time>2026-04-11T13:14:34.954Z</time></trkpt><trkpt lat="45.41349789190291" lon="7.880720049305662"><ele>225.0</ele><time>2026-04-11T13:14:35.954Z</time></trkpt><trkpt lat="45.41351408754434" lon="7.8805265024294044"><ele>225.0</ele><time>2026-04-11T13:14:36.954Z</time></trkpt><trkpt lat="45.41350507518844" lon="7.880332698546181"><ele>225.0</ele><time>2026-04-11T13:14:37.954Z</time></trkpt><trkpt lat="45.41347226017693" lon="7.880125167653719"><ele>225.0</ele><time>2026-04-11T13:14:38.954Z</time></trkpt><trkpt lat="45.41343734416873" lon="7.879917477880732"><ele>225.0</ele><time>2026-04-11T13:14:39.954Z</time></trkpt><trkpt lat="45.413421212198074" lon="7.87971843778493"><ele>225.0</ele><time>2026-04-11T13:14:40.954Z</time></trkpt><trkpt lat="45.41341066818887" lon="7.879514469495751"><ele>225.0</ele><time>2026-04-11T13:14:41.954Z</time></trkpt><trkpt lat="45.41339336839349" lon="7.879317317709875"><ele>225.0</ele><time>2026-04-11T13:14:42.954Z</time></trkpt><trkpt lat="45.413381498221845" lon="7.879118453173888"><ele>225.0</ele><time>2026-04-11T13:14:43.954Z</time></trkpt><trkpt lat="45.413369927585265" lon="7.878914573705226"><ele>225.0</ele><time>2026-04-11T13:14:44.954Z</time></trkpt><trkpt lat="45.413358727912" lon="7.878713694320853"><ele>225.0</ele><time>2026-04-11T13:14:45.954Z</time></trkpt><trkpt lat="45.41334217895033" lon="7.878517865791298"><ele>225.0</ele><time>2026-04-11T13:14:46.954Z</time></trkpt><trkpt lat="45.41332955319982" lon="7.878312990892404"><ele>224.75</ele><time>2026-04-11T13:14:47.954Z</time></trkpt><trkpt lat="45.41332402918243" lon="7.878106621088942"><ele>224.5</ele><time>2026-04-11T13:14:48.954Z</time></trkpt><trkpt lat="45.41331516703386" lon="7.8779165667810105"><ele>224.25</ele><time>2026-04-11T13:14:49.954Z</time></trkpt><trkpt lat="45.41330038493353" lon="7.8777080547262885"><ele>224.0</ele><time>2026-04-11T13:14:50.954Z</time></trkpt><trkpt lat="45.41329999375761" lon="7.877496176327787"><ele>224.0</ele><time>2026-04-11T13:14:51.954Z</time></trkpt><trkpt lat="45.41330318516754" lon="7.877281695504216"><ele>224.0</ele><time>2026-04-11T13:14:52.954Z</time></trkpt><trkpt lat="45.41330960799464" lon="7.877083328831544"><ele>224.0</ele><time>2026-04-11T13:14:53.954Z</time></trkpt><trkpt lat="45.41331277383272" lon="7.876885994493428"><ele>224.0</ele><time>2026-04-11T13:14:54.954Z</time></trkpt><trkpt lat="45.4133364274822" lon="7.876700569569857"><ele>224.0</ele><time>2026-04-11T13:14:55.954Z</time></trkpt><trkpt lat="45.41339098629848" lon="7.876524531435162"><ele>224.0</ele><time>2026-04-11T13:14:56.954Z</time></trkpt><trkpt lat="45.41345218012628" lon="7.8763431167201325"><ele>224.0</ele><time>2026-04-11T13:14:57.954Z</time></trkpt><trkpt lat="45.41351377844402" lon="7.876174460856454"><ele>224.0</ele><time>2026-04-11T13:14:58.954Z</time></trkpt><trkpt lat="45.4135586297336" lon="7.8759880980840355"><ele>223.79999999999998</ele><time>2026-04-11T13:14:59.954Z</time></trkpt><trkpt lat="45.41360069897092" lon="7.875827435485784"><ele>223.59999999999997</ele><time>2026-04-11T13:15:00.954Z</time></trkpt><trkpt lat="45.413642135893454" lon="7.875696021450198"><ele>223.4</ele><time>2026-04-11T13:15:01.954Z</time></trkpt><trkpt lat="45.41369563999748" lon="7.875577424786349"><ele>223.2</ele><time>2026-04-11T13:15:02.954Z</time></trkpt><trkpt lat="45.413729437354135" lon="7.875444597127208"><ele>223.0</ele><time>2026-04-11T13:15:03.954Z</time></trkpt><trkpt lat="45.41371951441913" lon="7.875316821361384"><ele>223.0</ele><time>2026-04-11T13:15:04.954Z</time></trkpt><trkpt lat="45.4136787327954" lon="7.875218843850502"><ele>223.0</ele><time>2026-04-11T13:15:05.954Z</time></trkpt><trkpt lat="45.41364046461691" lon="7.875124755024935"><ele>223.0</ele><time>2026-04-11T13:15:06.954Z</time></trkpt><trkpt lat="45.41359726423701" lon="7.874958714449001"><ele>223.0</ele><time>2026-04-11T13:15:08.954Z</time></trkpt><trkpt lat="45.41359358544932" lon="7.874794770229059"><ele>223.0</ele><time>2026-04-11T13:15:10.954Z</time></trkpt><trkpt lat="45.41360956032338" lon="7.874632452280385"><ele>223.2</ele><time>2026-04-11T13:15:12.954Z</time></trkpt><trkpt lat="45.41363688871752" lon="7.874462255511451"><ele>223.4</ele><time>2026-04-11T13:15:14.954Z</time></trkpt><trkpt lat="45.41365486711546" lon="7.874364909844379"><ele>223.59999999999997</ele><time>2026-04-11T13:15:15.954Z</time></trkpt><trkpt lat="45.41367824447511" lon="7.874204529540488"><ele>223.79999999999998</ele><time>2026-04-11T13:15:17.954Z</time></trkpt><trkpt lat="45.41369036714618" lon="7.874090921916463"><ele>224.0</ele><time>2026-04-11T13:15:19.954Z</time></trkpt><trkpt lat="45.41370595720847" lon="7.873939962495056"><ele>224.00000000000003</ele><time>2026-04-11T13:16:43.95Z</time></trkpt><trkpt lat="45.41369767542344" lon="7.873800916689445"><ele>224.0</ele><time>2026-04-11T13:16:45.95Z</time></trkpt><trkpt lat="45.41369658492085" lon="7.873704479854657"><ele>224.0</ele><time>2026-04-11T13:16:46.95Z</time></trkpt><trkpt lat="45.413702911424565" lon="7.873602033551188"><ele>224.0</ele><time>2026-04-11T13:16:47.95Z</time></trkpt><trkpt lat="45.41372165456182" lon="7.873485627985575"><ele>224.00000000000003</ele><time>2026-04-11T13:16:48.95Z</time></trkpt><trkpt lat="45.41374162008033" lon="7.873361321301719"><ele>224.0</ele><time>2026-04-11T13:16:49.95Z</time></trkpt><trkpt lat="45.413770072454724" lon="7.873231032110281"><ele>224.0</ele><time>2026-04-11T13:16:50.95Z</time></trkpt><trkpt lat="45.41379524944849" lon="7.873083855454696"><ele>223.99999999999997</ele><time>2026-04-11T13:16:51.95Z</time></trkpt><trkpt lat="45.41382723241816" lon="7.872943875031444"><ele>223.99999999999997</ele><time>2026-04-11T13:16:52.95Z</time></trkpt><trkpt lat="45.413865499029576" lon="7.872802252383113"><ele>224.0</ele><time>2026-04-11T13:16:53.95Z</time></trkpt><trkpt lat="45.41390552877111" lon="7.872658890509073"><ele>224.0</ele><time>2026-04-11T13:16:54.95Z</time></trkpt><trkpt lat="45.41394480533893" lon="7.872515969382499"><ele>224.0</ele><time>2026-04-11T13:16:55.95Z</time></trkpt><trkpt lat="45.41398054988665" lon="7.87238095497075"><ele>223.99999999999997</ele><time>2026-04-11T13:16:56.95Z</time></trkpt><trkpt lat="45.41401403643301" lon="7.872232032365143"><ele>223.99999999999997</ele><time>2026-04-11T13:16:57.95Z</time></trkpt><trkpt lat="45.41403489891893" lon="7.872085084224347"><ele>224.0</ele><time>2026-04-11T13:16:58.95Z</time></trkpt><trkpt lat="45.41405740116441" lon="7.871937533106461"><ele>224.0</ele><time>2026-04-11T13:16:59.95Z</time></trkpt><trkpt lat="45.414090230480845" lon="7.8717944695006405"><ele>224.25</ele><time>2026-04-11T13:17:00.95Z</time></trkpt><trkpt lat="45.41412692065387" lon="7.871638920847484"><ele>224.5</ele><time>2026-04-11T13:17:01.95Z</time></trkpt><trkpt lat="45.414165104695606" lon="7.871481696989403"><ele>224.75</ele><time>2026-04-11T13:17:02.95Z</time></trkpt><trkpt lat="45.414205681856224" lon="7.871321579374778"><ele>225.0</ele><time>2026-04-11T13:17:03.95Z</time></trkpt><trkpt lat="45.41424653802255" lon="7.871156261823887"><ele>225.0</ele><time>2026-04-11T13:17:04.95Z</time></trkpt><trkpt lat="45.41428751049495" lon="7.870995603694009"><ele>225.0</ele><time>2026-04-11T13:17:05.95Z</time></trkpt><trkpt lat="45.41433282933907" lon="7.870839521918792"><ele>225.0</ele><time>2026-04-11T13:17:06.95Z</time></trkpt><trkpt lat="45.41438852770744" lon="7.87069075931562"><ele>225.0</ele><time>2026-04-11T13:17:07.95Z</time></trkpt><trkpt lat="45.41444791476843" lon="7.870542073629685"><ele>225.0</ele><time>2026-04-11T13:17:08.95Z</time></trkpt><trkpt lat="45.41450994207544" lon="7.870397920243635"><ele>225.0</ele><time>2026-04-11T13:17:09.95Z</time></trkpt><trkpt lat="45.414577573187934" lon="7.870255086424761"><ele>225.0</ele><time>2026-04-11T13:17:10.95Z</time></trkpt><trkpt lat="45.41464536260372" lon="7.870116927273276"><ele>225.0</ele><time>2026-04-11T13:17:11.95Z</time></trkpt><trkpt lat="45.41470706989261" lon="7.869991611477144"><ele>225.0</ele><time>2026-04-11T13:17:12.95Z</time></trkpt><trkpt lat="45.41478074830966" lon="7.869883701861459"><ele>225.0</ele><time>2026-04-11T13:17:13.95Z</time></trkpt><trkpt lat="45.414873294609244" lon="7.869782086007317"><ele>225.0</ele><time>2026-04-11T13:17:14.95Z</time></trkpt><trkpt lat="45.41497031526832" lon="7.869695036136255"><ele>225.0</ele><time>2026-04-11T13:17:15.95Z</time></trkpt><trkpt lat="45.41507168799621" lon="7.869621707387241"><ele>225.0</ele><time>2026-04-11T13:17:16.95Z</time></trkpt><trkpt lat="45.41517795431534" lon="7.869556483999481"><ele>225.0</ele><time>2026-04-11T13:17:17.95Z</time></trkpt><trkpt lat="45.415289105571574" lon="7.869505369468685"><ele>225.0</ele><time>2026-04-11T13:17:18.95Z</time></trkpt><trkpt lat="45.41540735306744" lon="7.869454633904219"><ele>225.0</ele><time>2026-04-11T13:17:19.95Z</time></trkpt><trkpt lat="45.41551844286408" lon="7.869397099708219"><ele>225.25</ele><time>2026-04-11T13:17:20.95Z</time></trkpt><trkpt lat="45.415625860096746" lon="7.869317643208392"><ele>225.5</ele><time>2026-04-11T13:17:21.95Z</time></trkpt><trkpt lat="45.415709130600526" lon="7.869221213075907"><ele>225.75</ele><time>2026-04-11T13:17:22.95Z</time></trkpt><trkpt lat="45.415790011762795" lon="7.869105295038612"><ele>226.0</ele><time>2026-04-11T13:17:23.95Z</time></trkpt><trkpt lat="45.41586043236143" lon="7.86897234253251"><ele>226.0</ele><time>2026-04-11T13:17:24.95Z</time></trkpt><trkpt lat="45.415912663790245" lon="7.868834080181227"><ele>226.00000000000003</ele><time>2026-04-11T13:17:25.95Z</time></trkpt><trkpt lat="45.41596060636331" lon="7.868686274516247"><ele>226.00000000000003</ele><time>2026-04-11T13:17:26.95Z</time></trkpt><trkpt lat="45.416001602432345" lon="7.8685279353578395"><ele>226.0</ele><time>2026-04-11T13:17:27.95Z</time></trkpt><trkpt lat="45.41604223247676" lon="7.8683892344526605"><ele>226.0</ele><time>2026-04-11T13:17:28.95Z</time></trkpt><trkpt lat="45.41609063474817" lon="7.868269506533805"><ele>225.66666666666666</ele><time>2026-04-11T13:17:29.95Z</time></trkpt><trkpt lat="45.41613100268583" lon="7.868145622690646"><ele>225.33333333333331</ele><time>2026-04-11T13:17:30.95Z</time></trkpt><trkpt lat="45.41617503977924" lon="7.868019110396447"><ele>225.0</ele><time>2026-04-11T13:17:31.95Z</time></trkpt><trkpt lat="45.41621384637732" lon="7.867908555005565"><ele>224.66666666666669</ele><time>2026-04-11T13:17:32.95Z</time></trkpt><trkpt lat="45.41624435392027" lon="7.867812377229588"><ele>224.33333333333334</ele><time>2026-04-11T13:17:33.95Z</time></trkpt><trkpt lat="45.41631170537657" lon="7.867722874495351"><ele>224.0</ele><time>2026-04-11T13:17:35.95Z</time></trkpt><trkpt lat="45.41641583500475" lon="7.8678320859634905"><ele>224.79999999999998</ele><time>2026-04-11T13:17:37.95Z</time></trkpt><trkpt lat="45.41648724317669" lon="7.867935120064029"><ele>225.59999999999997</ele><time>2026-04-11T13:17:38.95Z</time></trkpt><trkpt lat="45.41656297463738" lon="7.868044864387241"><ele>226.4</ele><time>2026-04-11T13:17:39.95Z</time></trkpt><trkpt lat="45.41665456646741" lon="7.868107746708535"><ele>227.2</ele><time>2026-04-11T13:17:40.95Z</time></trkpt><trkpt lat="45.4167335705115" lon="7.868100163584984"><ele>228.0</ele><time>2026-04-11T13:17:41.95Z</time></trkpt><trkpt lat="45.41679767184106" lon="7.868021922842661"><ele>228.0</ele><time>2026-04-11T13:17:42.95Z</time></trkpt><trkpt lat="45.41684918746073" lon="7.867925239831866"><ele>228.0</ele><time>2026-04-11T13:17:43.95Z</time></trkpt><trkpt lat="45.41687641843721" lon="7.867792721879487"><ele>228.0</ele><time>2026-04-11T13:17:44.95Z</time></trkpt><trkpt lat="45.41692127856463" lon="7.867677027677855"><ele>228.0</ele><time>2026-04-11T13:17:45.95Z</time></trkpt><trkpt lat="45.416974789573636" lon="7.867541572805378"><ele>228.0</ele><time>2026-04-11T13:17:46.95Z</time></trkpt><trkpt lat="45.41703873334264" lon="7.867407263084223"><ele>228.5</ele><time>2026-04-11T13:17:47.95Z</time></trkpt><trkpt lat="45.417113686859125" lon="7.867276515080991"><ele>229.0</ele><time>2026-04-11T13:17:48.95Z</time></trkpt><trkpt lat="45.417174997101604" lon="7.8671606350780765"><ele>229.5</ele><time>2026-04-11T13:17:49.95Z</time></trkpt><trkpt lat="45.41725099231959" lon="7.867031703508592"><ele>230.0</ele><time>2026-04-11T13:17:50.95Z</time></trkpt><trkpt lat="45.41733996568495" lon="7.86689767062826"><ele>229.6</ele><time>2026-04-11T13:17:51.95Z</time></trkpt><trkpt lat="45.41741450670517" lon="7.8667694417113845"><ele>229.2</ele><time>2026-04-11T13:17:52.95Z</time></trkpt><trkpt lat="45.41748016041979" lon="7.8666504679615015"><ele>228.8</ele><time>2026-04-11T13:17:53.95Z</time></trkpt><trkpt lat="45.41756579984953" lon="7.866556930190248"><ele>228.4</ele><time>2026-04-11T13:17:54.95Z</time></trkpt><trkpt lat="45.41765962309258" lon="7.866509850981452"><ele>228.0</ele><time>2026-04-11T13:17:55.948Z</time></trkpt><trkpt lat="45.417751985704506" lon="7.866504099266032"><ele>228.0</ele><time>2026-04-11T13:17:56.948Z</time></trkpt><trkpt lat="45.417864539535685" lon="7.866487644364389"><ele>228.0</ele><time>2026-04-11T13:17:57.948Z</time></trkpt><trkpt lat="45.41798305904052" lon="7.866468216030466"><ele>228.0</ele><time>2026-04-11T13:17:58.947Z</time></trkpt><trkpt lat="45.41809366029915" lon="7.8664170826985655"><ele>228.0</ele><time>2026-04-11T13:17:59.948Z</time></trkpt><trkpt lat="45.41821316211795" lon="7.866397234369538"><ele>227.25</ele><time>2026-04-11T13:18:00.948Z</time></trkpt><trkpt lat="45.418329130009376" lon="7.8663689469003915"><ele>226.5</ele><time>2026-04-11T13:18:01.948Z</time></trkpt><trkpt lat="45.418452677932635" lon="7.86634756563884"><ele>225.75</ele><time>2026-04-11T13:18:02.947Z</time></trkpt><trkpt lat="45.41856981906621" lon="7.866331981168586"><ele>225.0</ele><time>2026-04-11T13:18:03.947Z</time></trkpt><trkpt lat="45.418691583830935" lon="7.866317724955959"><ele>225.0</ele><time>2026-04-11T13:18:04.948Z</time></trkpt><trkpt lat="45.41880123833346" lon="7.866261858544533"><ele>225.0</ele><time>2026-04-11T13:18:05.948Z</time></trkpt><trkpt lat="45.418917486438765" lon="7.866207207153104"><ele>225.0</ele><time>2026-04-11T13:18:06.948Z</time></trkpt><trkpt lat="45.41902713139292" lon="7.866148769957027"><ele>225.0</ele><time>2026-04-11T13:18:07.948Z</time></trkpt><trkpt lat="45.41914416119673" lon="7.8661032242290965"><ele>225.0</ele><time>2026-04-11T13:18:08.947Z</time></trkpt><trkpt lat="45.41926148222164" lon="7.866059414013294"><ele>225.0</ele><time>2026-04-11T13:18:09.947Z</time></trkpt><trkpt lat="45.41937715241187" lon="7.866007065725883"><ele>225.0</ele><time>2026-04-11T13:18:10.947Z</time></trkpt><trkpt lat="45.41949580968624" lon="7.865957528553877"><ele>225.0</ele><time>2026-04-11T13:18:11.947Z</time></trkpt><trkpt lat="45.41962081371243" lon="7.865894420474482"><ele>226.0</ele><time>2026-04-11T13:18:12.947Z</time></trkpt><trkpt lat="45.41973081113655" lon="7.8658481302924415"><ele>227.0</ele><time>2026-04-11T13:18:13.947Z</time></trkpt><trkpt lat="45.41985053298958" lon="7.865821038439988"><ele>228.0</ele><time>2026-04-11T13:18:14.947Z</time></trkpt><trkpt lat="45.41996576900853" lon="7.86578931997617"><ele>229.0</ele><time>2026-04-11T13:18:15.947Z</time></trkpt><trkpt lat="45.42008603098014" lon="7.865746842864387"><ele>229.0</ele><time>2026-04-11T13:18:16.947Z</time></trkpt><trkpt lat="45.42020294161478" lon="7.865713718052556"><ele>229.0</ele><time>2026-04-11T13:18:17.947Z</time></trkpt><trkpt lat="45.42031796335837" lon="7.865668147361584"><ele>229.0</ele><time>2026-04-11T13:18:18.947Z</time></trkpt><trkpt lat="45.42042813363629" lon="7.865619403887392"><ele>229.0</ele><time>2026-04-11T13:18:19.947Z</time></trkpt><trkpt lat="45.420555215900926" lon="7.865590098417513"><ele>229.0</ele><time>2026-04-11T13:18:20.947Z</time></trkpt><trkpt lat="45.420677708679825" lon="7.865558646161392"><ele>229.0</ele><time>2026-04-11T13:18:21.947Z</time></trkpt><trkpt lat="45.42080885411268" lon="7.865519994940822"><ele>229.0</ele><time>2026-04-11T13:18:22.947Z</time></trkpt><trkpt lat="45.42091862163766" lon="7.865517645836608"><ele>229.0</ele><time>2026-04-11T13:18:23.947Z</time></trkpt><trkpt lat="45.42102867559139" lon="7.8655393728448715"><ele>229.0</ele><time>2026-04-11T13:18:24.947Z</time></trkpt><trkpt lat="45.421148493806406" lon="7.86558060254512"><ele>229.0</ele><time>2026-04-11T13:18:25.947Z</time></trkpt><trkpt lat="45.421274481792146" lon="7.8656062878251385"><ele>229.0</ele><time>2026-04-11T13:18:26.947Z</time></trkpt><trkpt lat="45.42140034418834" lon="7.865606703938606"><ele>229.0</ele><time>2026-04-11T13:18:27.947Z</time></trkpt><trkpt lat="45.4215280142208" lon="7.865596396797407"><ele>228.75</ele><time>2026-04-11T13:18:28.947Z</time></trkpt><trkpt lat="45.42165609987222" lon="7.865580998546337"><ele>228.5</ele><time>2026-04-11T13:18:29.947Z</time></trkpt><trkpt lat="45.42178053022709" lon="7.86554465733199"><ele>228.25</ele><time>2026-04-11T13:18:30.947Z</time></trkpt><trkpt lat="45.421897718680235" lon="7.865470468590734"><ele>228.0</ele><time>2026-04-11T13:18:31.947Z</time></trkpt><trkpt lat="45.42201540583251" lon="7.865391192713647"><ele>228.0</ele><time>2026-04-11T13:18:32.947Z</time></trkpt><trkpt lat="45.422124000749676" lon="7.865297704683278"><ele>228.0</ele><time>2026-04-11T13:18:33.947Z</time></trkpt><trkpt lat="45.42222282057803" lon="7.865187576712913"><ele>228.0</ele><time>2026-04-11T13:18:34.947Z</time></trkpt><trkpt lat="45.42232507790669" lon="7.865049401390605"><ele>228.0</ele><time>2026-04-11T13:18:35.947Z</time></trkpt><trkpt lat="45.42242711976372" lon="7.864937556709275"><ele>228.5</ele><time>2026-04-11T13:18:36.947Z</time></trkpt><trkpt lat="45.422529915748626" lon="7.86480782908303"><ele>229.0</ele><time>2026-04-11T13:18:37.947Z</time></trkpt><trkpt lat="45.422631104965205" lon="7.864690750209795"><ele>229.5</ele><time>2026-04-11T13:18:38.947Z</time></trkpt><trkpt lat="45.42271869639433" lon="7.864582963817047"><ele>230.0</ele><time>2026-04-11T13:18:39.947Z</time></trkpt><trkpt lat="45.42279992284356" lon="7.8644690562585104"><ele>230.0</ele><time>2026-04-11T13:18:40.947Z</time></trkpt><trkpt lat="45.42286922365012" lon="7.864359892648858"><ele>230.0</ele><time>2026-04-11T13:18:41.947Z</time></trkpt><trkpt lat="45.42293112967757" lon="7.86424904019457"><ele>230.0</ele><time>2026-04-11T13:18:42.947Z</time></trkpt><trkpt lat="45.422969369294606" lon="7.864128297126922"><ele>230.0</ele><time>2026-04-11T13:18:43.947Z</time></trkpt><trkpt lat="45.42299365223576" lon="7.8639903589307645"><ele>230.0</ele><time>2026-04-11T13:18:44.947Z</time></trkpt><trkpt lat="45.422997628965156" lon="7.863838357635664"><ele>230.0</ele><time>2026-04-11T13:18:45.947Z</time></trkpt><trkpt lat="45.42297893661295" lon="7.863684657382774"><ele>230.0</ele><time>2026-04-11T13:18:46.948Z</time></trkpt><trkpt lat="45.422958456121" lon="7.863546043533213"><ele>230.0</ele><time>2026-04-11T13:18:47.948Z</time></trkpt><trkpt lat="45.42296358048727" lon="7.863393730966018"><ele>230.0</ele><time>2026-04-11T13:18:48.948Z</time></trkpt><trkpt lat="45.4230038677597" lon="7.863245621368248"><ele>230.0</ele><time>2026-04-11T13:18:49.948Z</time></trkpt><trkpt lat="45.42307332447636" lon="7.863126013586396"><ele>229.4</ele><time>2026-04-11T13:18:50.948Z</time></trkpt><trkpt lat="45.42315997023004" lon="7.863026020441306"><ele>228.8</ele><time>2026-04-11T13:18:51.948Z</time></trkpt><trkpt lat="45.42324956245108" lon="7.862949036173027"><ele>228.2</ele><time>2026-04-11T13:18:52.948Z</time></trkpt><trkpt lat="45.42335852577146" lon="7.862905250907659"><ele>227.6</ele><time>2026-04-11T13:18:53.948Z</time></trkpt><trkpt lat="45.42346065229938" lon="7.8628692815975425"><ele>227.0</ele><time>2026-04-11T13:18:54.948Z</time></trkpt><trkpt lat="45.423530346940325" lon="7.862793745884141"><ele>227.0</ele><time>2026-04-11T13:18:55.948Z</time></trkpt><trkpt lat="45.423562304589524" lon="7.862663677094504"><ele>227.0</ele><time>2026-04-11T13:18:56.948Z</time></trkpt><trkpt lat="45.42356321624105" lon="7.86250715098693"><ele>227.0</ele><time>2026-04-11T13:18:57.948Z</time></trkpt><trkpt lat="45.42356012593149" lon="7.862362158498097"><ele>227.0</ele><time>2026-04-11T13:18:58.948Z</time></trkpt><trkpt lat="45.42356624793399" lon="7.8622075098677096"><ele>227.0</ele><time>2026-04-11T13:18:59.948Z</time></trkpt><trkpt lat="45.42357870780562" lon="7.862040975617853"><ele>226.75</ele><time>2026-04-11T13:19:00.948Z</time></trkpt><trkpt lat="45.42359550935167" lon="7.861867872159947"><ele>226.5</ele><time>2026-04-11T13:19:01.948Z</time></trkpt><trkpt lat="45.4236189540767" lon="7.861689706205312"><ele>226.25</ele><time>2026-04-11T13:19:02.948Z</time></trkpt><trkpt lat="45.42363897484411" lon="7.861511113755738"><ele>226.0</ele><time>2026-04-11T13:19:03.948Z</time></trkpt><trkpt lat="45.42365855344455" lon="7.861330170348792"><ele>226.0</ele><time>2026-04-11T13:19:04.948Z</time></trkpt><trkpt lat="45.42368001433325" lon="7.86115469508206"><ele>226.0</ele><time>2026-04-11T13:19:05.948Z</time></trkpt><trkpt lat="45.42370425510115" lon="7.860976804763395"><ele>226.0</ele><time>2026-04-11T13:19:06.948Z</time></trkpt><trkpt lat="45.42371249279513" lon="7.860811322106363"><ele>226.0</ele><time>2026-04-11T13:19:07.948Z</time></trkpt><trkpt lat="45.42370724212473" lon="7.860658366548566"><ele>226.4</ele><time>2026-04-11T13:19:08.948Z</time></trkpt><trkpt lat="45.42369246797318" lon="7.860518075729102"><ele>226.8</ele><time>2026-04-11T13:19:09.948Z</time></trkpt><trkpt lat="45.42368196151163" lon="7.8603925386073525"><ele>227.20000000000002</ele><time>2026-04-11T13:19:10.948Z</time></trkpt><trkpt lat="45.42368083042767" lon="7.860288311873931"><ele>227.60000000000002</ele><time>2026-04-11T13:19:11.948Z</time></trkpt><trkpt lat="45.42368177021812" lon="7.860152717234446"><ele>228.0</ele><time>2026-04-11T13:19:49.948Z</time></trkpt><trkpt lat="45.42368354859873" lon="7.85997460482448"><ele>228.2</ele><time>2026-04-11T13:19:51.948Z</time></trkpt><trkpt lat="45.42367416483783" lon="7.8598619988681975"><ele>228.4</ele><time>2026-04-11T13:19:52.948Z</time></trkpt><trkpt lat="45.423655798681004" lon="7.859733374236515"><ele>228.59999999999997</ele><time>2026-04-11T13:19:53.948Z</time></trkpt><trkpt lat="45.42363473509711" lon="7.8596103614447905"><ele>228.79999999999998</ele><time>2026-04-11T13:19:54.948Z</time></trkpt><trkpt lat="45.423615374817274" lon="7.85950184009495"><ele>229.0</ele><time>2026-04-11T13:19:55.948Z</time></trkpt><trkpt lat="45.4236223684883" lon="7.859326417795854"><ele>228.99999999999997</ele><time>2026-04-11T13:19:57.948Z</time></trkpt><trkpt lat="45.423659351483344" lon="7.859246151722345"><ele>229.0</ele><time>2026-04-11T13:19:58.948Z</time></trkpt><trkpt lat="45.42371888211898" lon="7.859183926923607"><ele>229.0</ele><time>2026-04-11T13:19:59.948Z</time></trkpt><trkpt lat="45.42376394678989" lon="7.859118758143116"><ele>229.0</ele><time>2026-04-11T13:20:00.948Z</time></trkpt><trkpt lat="45.4238280219172" lon="7.8590243740853545"><ele>228.99999999999997</ele><time>2026-04-11T13:20:02.944Z</time></trkpt><trkpt lat="45.42391024400929" lon="7.858970311165779"><ele>229.0</ele><time>2026-04-11T13:20:04.944Z</time></trkpt><trkpt lat="45.42396666451838" lon="7.858903252723664"><ele>229.0</ele><time>2026-04-11T13:20:05.944Z</time></trkpt><trkpt lat="45.42399546267065" lon="7.858798211424846"><ele>228.99999999999997</ele><time>2026-04-11T13:20:06.944Z</time></trkpt><trkpt lat="45.424000326105826" lon="7.8586718115395495"><ele>228.99999999999997</ele><time>2026-04-11T13:20:07.944Z</time></trkpt><trkpt lat="45.423999786692306" lon="7.85853474946283"><ele>229.0</ele><time>2026-04-11T13:20:08.944Z</time></trkpt><trkpt lat="45.42399755461706" lon="7.858367820368058"><ele>229.0</ele><time>2026-04-11T13:20:09.944Z</time></trkpt><trkpt lat="45.42401181662882" lon="7.858208159106783"><ele>229.0</ele><time>2026-04-11T13:20:10.944Z</time></trkpt><trkpt lat="45.4240260990258" lon="7.8580521621086294"><ele>229.0</ele><time>2026-04-11T13:20:11.944Z</time></trkpt><trkpt lat="45.4240502679503" lon="7.857890382765771"><ele>229.0</ele><time>2026-04-11T13:20:12.944Z</time></trkpt><trkpt lat="45.4240653182505" lon="7.857723684060618"><ele>229.0</ele><time>2026-04-11T13:20:13.944Z</time></trkpt><trkpt lat="45.42407957272315" lon="7.857553495679621"><ele>229.2</ele><time>2026-04-11T13:20:14.944Z</time></trkpt><trkpt lat="45.424086530491735" lon="7.85739586113292"><ele>229.39999999999998</ele><time>2026-04-11T13:20:15.944Z</time></trkpt><trkpt lat="45.42409265102077" lon="7.857233375095734"><ele>229.6</ele><time>2026-04-11T13:20:16.944Z</time></trkpt><trkpt lat="45.4241006679189" lon="7.857088163843282"><ele>229.8</ele><time>2026-04-11T13:20:17.944Z</time></trkpt><trkpt lat="45.42412103965009" lon="7.856951890235283"><ele>230.0</ele><time>2026-04-11T13:20:18.944Z</time></trkpt><trkpt lat="45.42414753139382" lon="7.856830758079351"><ele>230.00000000000003</ele><time>2026-04-11T13:20:19.944Z</time></trkpt><trkpt lat="45.4241650383367" lon="7.856704630720208"><ele>230.0</ele><time>2026-04-11T13:20:20.944Z</time></trkpt><trkpt lat="45.42418406668573" lon="7.856577340360057"><ele>230.0</ele><time>2026-04-11T13:20:21.944Z</time></trkpt><trkpt lat="45.424206678284335" lon="7.85645394397881"><ele>230.0</ele><time>2026-04-11T13:20:22.944Z</time></trkpt><trkpt lat="45.424214771759914" lon="7.856337076060998"><ele>230.00000000000003</ele><time>2026-04-11T13:20:23.944Z</time></trkpt><trkpt lat="45.424236884910535" lon="7.856215456985687"><ele>230.0</ele><time>2026-04-11T13:20:24.944Z</time></trkpt><trkpt lat="45.424254294836395" lon="7.856089484643941"><ele>230.0</ele><time>2026-04-11T13:20:25.944Z</time></trkpt><trkpt lat="45.424267561644264" lon="7.8559703503484535"><ele>230.0</ele><time>2026-04-11T13:20:26.944Z</time></trkpt><trkpt lat="45.424277085018204" lon="7.85585740986693"><ele>230.0</ele><time>2026-04-11T13:20:27.944Z</time></trkpt><trkpt lat="45.42428981365807" lon="7.855753018557773"><ele>230.0</ele><time>2026-04-11T13:20:28.944Z</time></trkpt><trkpt lat="45.42431332571875" lon="7.855575840700373"><ele>230.0</ele><time>2026-04-11T13:20:30.944Z</time></trkpt><trkpt lat="45.42433282295219" lon="7.855397421869854"><ele>230.00000000000003</ele><time>2026-04-11T13:20:32.944Z</time></trkpt><trkpt lat="45.42434477836388" lon="7.855298301952648"><ele>230.0</ele><time>2026-04-11T13:20:33.944Z</time></trkpt><trkpt lat="45.42436134982569" lon="7.855181327064688"><ele>230.0</ele><time>2026-04-11T13:20:34.944Z</time></trkpt><trkpt lat="45.42437679184622" lon="7.8550748550868965"><ele>230.0</ele><time>2026-04-11T13:20:35.944Z</time></trkpt><trkpt lat="45.42439190839349" lon="7.854960843253155"><ele>230.00000000000003</ele><time>2026-04-11T13:20:36.944Z</time></trkpt><trkpt lat="45.42440391733725" lon="7.854850459319446"><ele>230.0</ele><time>2026-04-11T13:20:37.944Z</time></trkpt><trkpt lat="45.42442523580927" lon="7.8547360408385725"><ele>230.00000000000003</ele><time>2026-04-11T13:20:38.944Z</time></trkpt><trkpt lat="45.424441448625466" lon="7.854619908981046"><ele>230.0</ele><time>2026-04-11T13:20:39.944Z</time></trkpt><trkpt lat="45.424450950225825" lon="7.854498481103402"><ele>230.0</ele><time>2026-04-11T13:20:40.944Z</time></trkpt><trkpt lat="45.42446662924415" lon="7.854371930122122"><ele>230.0</ele><time>2026-04-11T13:20:41.944Z</time></trkpt><trkpt lat="45.424482203021185" lon="7.8542470974991225"><ele>230.00000000000003</ele><time>2026-04-11T13:20:42.944Z</time></trkpt><trkpt lat="45.42450119017484" lon="7.854114840958094"><ele>230.0</ele><time>2026-04-11T13:20:43.944Z</time></trkpt><trkpt lat="45.424518405057874" lon="7.853974975785342"><ele>230.0</ele><time>2026-04-11T13:20:44.944Z</time></trkpt><trkpt lat="45.42454227031733" lon="7.853833851273897"><ele>230.0</ele><time>2026-04-11T13:20:45.944Z</time></trkpt><trkpt lat="45.424558570245665" lon="7.853699984347089"><ele>230.0</ele><time>2026-04-11T13:20:46.944Z</time></trkpt><trkpt lat="45.42458378615458" lon="7.8535588150093565"><ele>230.0</ele><time>2026-04-11T13:20:47.944Z</time></trkpt><trkpt lat="45.424622229972044" lon="7.853415940680452"><ele>230.0</ele><time>2026-04-11T13:20:48.944Z</time></trkpt><trkpt lat="45.424643985335386" lon="7.8532913030600255"><ele>230.0</ele><time>2026-04-11T13:20:49.944Z</time></trkpt><trkpt lat="45.42466391596888" lon="7.853175967647262"><ele>230.0</ele><time>2026-04-11T13:20:50.944Z</time></trkpt><trkpt lat="45.4246942089898" lon="7.853026621871333"><ele>230.0</ele><time>2026-04-11T13:20:51.944Z</time></trkpt><trkpt lat="45.424707097560464" lon="7.85289397476169"><ele>230.0</ele><time>2026-04-11T13:20:52.944Z</time></trkpt><trkpt lat="45.42471051323981" lon="7.85275489439119"><ele>230.0</ele><time>2026-04-11T13:20:53.944Z</time></trkpt><trkpt lat="45.42470780390294" lon="7.852612596258539"><ele>230.00000000000003</ele><time>2026-04-11T13:20:54.944Z</time></trkpt><trkpt lat="45.424709140324296" lon="7.852482365165575"><ele>230.0</ele><time>2026-04-11T13:20:55.944Z</time></trkpt><trkpt lat="45.42471139370669" lon="7.852350733309065"><ele>230.0</ele><time>2026-04-11T13:20:56.944Z</time></trkpt><trkpt lat="45.424713169486935" lon="7.8522365370844005"><ele>230.0</ele><time>2026-04-11T13:20:57.944Z</time></trkpt><trkpt lat="45.424770946314126" lon="7.852111809609208"><ele>230.00000000000003</ele><time>2026-04-11T13:20:59.944Z</time></trkpt><trkpt lat="45.42484740813899" lon="7.852098008177889"><ele>230.0</ele><time>2026-04-11T13:21:01.944Z</time></trkpt><trkpt lat="45.424953197199734" lon="7.8520032021230355"><ele>230.00000000000003</ele><time>2026-04-11T13:21:03.944Z</time></trkpt><trkpt lat="45.42498812135805" lon="7.85190748517798"><ele>230.0</ele><time>2026-04-11T13:21:04.944Z</time></trkpt><trkpt lat="45.42505220646234" lon="7.851800965199288"><ele>230.0</ele><time>2026-04-11T13:21:05.944Z</time></trkpt><trkpt lat="45.42509964957502" lon="7.8517004969520015"><ele>230.0</ele><time>2026-04-11T13:21:06.944Z</time></trkpt><trkpt lat="45.42514262232976" lon="7.8515915673990655"><ele>230.00000000000003</ele><time>2026-04-11T13:21:07.944Z</time></trkpt><trkpt lat="45.42522035159416" lon="7.851512668616409"><ele>230.0</ele><time>2026-04-11T13:21:08.944Z</time></trkpt><trkpt lat="45.42533986443876" lon="7.851452341657377"><ele>230.2</ele><time>2026-04-11T13:21:09.944Z</time></trkpt><trkpt lat="45.42545815974345" lon="7.8514583664238184"><ele>230.4</ele><time>2026-04-11T13:21:10.944Z</time></trkpt><trkpt lat="45.42553005967761" lon="7.851400372761301"><ele>230.60000000000002</ele><time>2026-04-11T13:21:11.944Z</time></trkpt><trkpt lat="45.42558806303094" lon="7.851252364515023"><ele>230.8</ele><time>2026-04-11T13:21:12.944Z</time></trkpt><trkpt lat="45.42563449778079" lon="7.851097073047584"><ele>231.0</ele><time>2026-04-11T13:21:13.944Z</time></trkpt><trkpt lat="45.42563591097943" lon="7.850930742171629"><ele>231.75</ele><time>2026-04-11T13:21:14.944Z</time></trkpt><trkpt lat="45.42565827087698" lon="7.850730314157111"><ele>232.5</ele><time>2026-04-11T13:21:15.944Z</time></trkpt><trkpt lat="45.42568067793716" lon="7.850529995026626"><ele>233.25</ele><time>2026-04-11T13:21:16.944Z</time></trkpt><trkpt lat="45.425704853281275" lon="7.850325040469336"><ele>234.0</ele><time>2026-04-11T13:21:17.944Z</time></trkpt><trkpt lat="45.42573084858894" lon="7.850131741762031"><ele>234.0</ele><time>2026-04-11T13:21:18.944Z</time></trkpt><trkpt lat="45.4257542332637" lon="7.849935751994883"><ele>234.0</ele><time>2026-04-11T13:21:19.944Z</time></trkpt><trkpt lat="45.42577606237038" lon="7.849743967467257"><ele>234.0</ele><time>2026-04-11T13:21:20.944Z</time></trkpt><trkpt lat="45.42580001946465" lon="7.849547480244212"><ele>234.0</ele><time>2026-04-11T13:21:21.944Z</time></trkpt><trkpt lat="45.42584051346581" lon="7.849347410626952"><ele>233.5</ele><time>2026-04-11T13:21:22.944Z</time></trkpt><trkpt lat="45.42587249976661" lon="7.849148578728411"><ele>233.0</ele><time>2026-04-11T13:21:23.944Z</time></trkpt><trkpt lat="45.4259005800043" lon="7.848955612347084"><ele>232.5</ele><time>2026-04-11T13:21:24.944Z</time></trkpt><trkpt lat="45.42595262397346" lon="7.848752017034319"><ele>232.0</ele><time>2026-04-11T13:21:25.945Z</time></trkpt><trkpt lat="45.426011969559454" lon="7.848558896375083"><ele>231.66666666666666</ele><time>2026-04-11T13:21:26.945Z</time></trkpt><trkpt lat="45.42608840204617" lon="7.8483670967744645"><ele>231.33333333333331</ele><time>2026-04-11T13:21:27.945Z</time></trkpt><trkpt lat="45.42617967707624" lon="7.848194791663052"><ele>231.0</ele><time>2026-04-11T13:21:28.945Z</time></trkpt><trkpt lat="45.426267130661564" lon="7.848030902917452"><ele>230.75</ele><time>2026-04-11T13:21:29.945Z</time></trkpt><trkpt lat="45.42636346144518" lon="7.847886801576857"><ele>230.5</ele><time>2026-04-11T13:21:30.945Z</time></trkpt><trkpt lat="45.42646173626355" lon="7.84775317460004"><ele>230.25</ele><time>2026-04-11T13:21:31.945Z</time></trkpt><trkpt lat="45.426569651870174" lon="7.8476229220905935"><ele>230.0</ele><time>2026-04-11T13:21:32.945Z</time></trkpt><trkpt lat="45.42668416209006" lon="7.847503354260157"><ele>230.0</ele><time>2026-04-11T13:21:33.945Z</time></trkpt><trkpt lat="45.4268121814427" lon="7.847398154387684"><ele>230.0</ele><time>2026-04-11T13:21:34.945Z</time></trkpt><trkpt lat="45.42694223186746" lon="7.847310583402914"><ele>230.0</ele><time>2026-04-11T13:21:35.945Z</time></trkpt><trkpt lat="45.42707372496665" lon="7.84723046588684"><ele>230.0</ele><time>2026-04-11T13:21:36.945Z</time></trkpt><trkpt lat="45.427178962664904" lon="7.84697858589906"><ele>230.0</ele><time>2026-04-11T13:21:37.945Z</time></trkpt><trkpt lat="45.42732684132538" lon="7.846929100868462"><ele>230.0</ele><time>2026-04-11T13:21:38.945Z</time></trkpt><trkpt lat="45.42748840846869" lon="7.846896877133433"><ele>230.0</ele><time>2026-04-11T13:21:39.945Z</time></trkpt><trkpt lat="45.427632305100296" lon="7.846883654613739"><ele>230.0</ele><time>2026-04-11T13:21:40.945Z</time></trkpt><trkpt lat="45.42776071990581" lon="7.8468772633669035"><ele>230.0</ele><time>2026-04-11T13:21:41.945Z</time></trkpt><trkpt lat="45.4278932353167" lon="7.8468704066098125"><ele>230.0</ele><time>2026-04-11T13:21:42.945Z</time></trkpt><trkpt lat="45.42804738341595" lon="7.8468627922144"><ele>230.0</ele><time>2026-04-11T13:21:43.945Z</time></trkpt><trkpt lat="45.42818377200666" lon="7.846881141906989"><ele>230.25</ele><time>2026-04-11T13:21:44.945Z</time></trkpt><trkpt lat="45.428318827127526" lon="7.846871669190178"><ele>230.5</ele><time>2026-04-11T13:21:45.945Z</time></trkpt><trkpt lat="45.42845817883651" lon="7.84686189516745"><ele>230.75</ele><time>2026-04-11T13:21:46.945Z</time></trkpt><trkpt lat="45.428600052044196" lon="7.846851944264022"><ele>231.0</ele><time>2026-04-11T13:21:47.945Z</time></trkpt><trkpt lat="45.42873936516717" lon="7.846842172930476"><ele>230.75</ele><time>2026-04-11T13:21:48.945Z</time></trkpt><trkpt lat="45.42887521705932" lon="7.846832486067543"><ele>230.5</ele><time>2026-04-11T13:21:49.945Z</time></trkpt><trkpt lat="45.42901693465375" lon="7.846819689452444"><ele>230.25</ele><time>2026-04-11T13:21:50.945Z</time></trkpt><trkpt lat="45.42915493397336" lon="7.84680722856919"><ele>230.0</ele><time>2026-04-11T13:21:51.945Z</time></trkpt><trkpt lat="45.42929147630763" lon="7.846794899289214"><ele>230.25</ele><time>2026-04-11T13:21:52.945Z</time></trkpt><trkpt lat="45.4294236952438" lon="7.846783116507746"><ele>230.5</ele><time>2026-04-11T13:21:53.945Z</time></trkpt><trkpt lat="45.42956484951265" lon="7.8467705531787555"><ele>230.75</ele><time>2026-04-11T13:21:54.945Z</time></trkpt><trkpt lat="45.42970617349974" lon="7.846757974763502"><ele>231.0</ele><time>2026-04-11T13:21:55.945Z</time></trkpt><trkpt lat="45.42984906067008" lon="7.846748215648026"><ele>231.0</ele><time>2026-04-11T13:21:56.945Z</time></trkpt><trkpt lat="45.42998193751698" lon="7.8467424132933985"><ele>231.0</ele><time>2026-04-11T13:21:57.945Z</time></trkpt><trkpt lat="45.43011565456275" lon="7.846736574241023"><ele>231.0</ele><time>2026-04-11T13:21:58.945Z</time></trkpt><trkpt lat="45.430257558364225" lon="7.846730383426409"><ele>231.0</ele><time>2026-04-11T13:21:59.945Z</time></trkpt><trkpt lat="45.43038823994297" lon="7.846724728406123"><ele>231.60000000000002</ele><time>2026-04-11T13:22:00.945Z</time></trkpt><trkpt lat="45.43051154486755" lon="7.846719392586495"><ele>232.20000000000002</ele><time>2026-04-11T13:22:01.945Z</time></trkpt><trkpt lat="45.43062046117335" lon="7.84671467940113"><ele>232.79999999999998</ele><time>2026-04-11T13:22:02.945Z</time></trkpt><trkpt lat="45.430701618714124" lon="7.846711167454469"><ele>233.39999999999998</ele><time>2026-04-11T13:22:03.945Z</time></trkpt><trkpt lat="45.43076983607326" lon="7.846708217869888"><ele>234.0</ele><time>2026-04-11T13:22:04.945Z</time></trkpt><trkpt lat="45.4308942724533" lon="7.846702646103032"><ele>234.0</ele><time>2026-04-11T13:22:06.945Z</time></trkpt><trkpt lat="45.43101223592707" lon="7.8466973641648226"><ele>234.0</ele><time>2026-04-11T13:22:08.941Z</time></trkpt><trkpt lat="45.431163502211845" lon="7.846704178843475"><ele>234.0</ele><time>2026-04-11T13:22:10.941Z</time></trkpt><trkpt lat="45.43130428003292" lon="7.847510583078142"><ele>234.5</ele><time>2026-04-11T13:22:12.941Z</time></trkpt><trkpt lat="45.431378756595606" lon="7.847666731875303"><ele>235.0</ele><time>2026-04-11T13:22:13.94Z</time></trkpt><trkpt lat="45.431466876520744" lon="7.847808477166504"><ele>235.5</ele><time>2026-04-11T13:22:14.94Z</time></trkpt><trkpt lat="45.431567132097385" lon="7.847894669198879"><ele>236.0</ele><time>2026-04-11T13:22:15.94Z</time></trkpt><trkpt lat="45.43169061560872" lon="7.847977495281172"><ele>236.0</ele><time>2026-04-11T13:22:16.94Z</time></trkpt><trkpt lat="45.43178766999534" lon="7.848050034652082"><ele>236.00000000000003</ele><time>2026-04-11T13:22:17.941Z</time></trkpt><trkpt lat="45.43190007511014" lon="7.848085921613732"><ele>236.00000000000003</ele><time>2026-04-11T13:22:18.941Z</time></trkpt><trkpt lat="45.431981781683426" lon="7.848091344935998"><ele>236.0</ele><time>2026-04-11T13:22:19.94Z</time></trkpt><trkpt lat="45.43206812643266" lon="7.848109835708039"><ele>236.0</ele><time>2026-04-11T13:22:21.94Z</time></trkpt><trkpt lat="45.43196664938218" lon="7.84803146306495"><ele>236.0</ele><time>2026-04-11T13:22:26.94Z</time></trkpt><trkpt lat="45.43188895729821" lon="7.848020338773943"><ele>236.00000000000003</ele><time>2026-04-11T13:22:27.94Z</time></trkpt><trkpt lat="45.431813951927424" lon="7.847994517149733"><ele>236.00000000000003</ele><time>2026-04-11T13:22:28.94Z</time></trkpt><trkpt lat="45.4317137627537" lon="7.847956085931719"><ele>236.0</ele><time>2026-04-11T13:22:29.94Z</time></trkpt><trkpt lat="45.43159729148586" lon="7.847907917291209"><ele>236.0</ele><time>2026-04-11T13:22:30.94Z</time></trkpt><trkpt lat="45.431470966163864" lon="7.847909851415524"><ele>236.0</ele><time>2026-04-11T13:22:31.94Z</time></trkpt><trkpt lat="45.43138424157502" lon="7.847805595207866"><ele>236.00000000000003</ele><time>2026-04-11T13:22:32.94Z</time></trkpt><trkpt lat="45.43132397055101" lon="7.847674283208388"><ele>236.00000000000003</ele><time>2026-04-11T13:22:33.94Z</time></trkpt><trkpt lat="45.431287659740846" lon="7.847540827708967"><ele>236.0</ele><time>2026-04-11T13:22:34.94Z</time></trkpt><trkpt lat="45.43127039148427" lon="7.847393160261274"><ele>236.0</ele><time>2026-04-11T13:22:35.94Z</time></trkpt><trkpt lat="45.43126345640526" lon="7.847228517409534"><ele>235.5</ele><time>2026-04-11T13:22:36.94Z</time></trkpt><trkpt lat="45.43126329993377" lon="7.847060777699821"><ele>235.0</ele><time>2026-04-11T13:22:37.94Z</time></trkpt><trkpt lat="45.43127180303912" lon="7.846892521526708"><ele>234.5</ele><time>2026-04-11T13:22:38.94Z</time></trkpt><trkpt lat="45.43126892935462" lon="7.8467107915786976"><ele>234.0</ele><time>2026-04-11T13:22:39.94Z</time></trkpt><trkpt lat="45.43126891710256" lon="7.846526170032106"><ele>234.0</ele><time>2026-04-11T13:22:40.94Z</time></trkpt><trkpt lat="45.43125986230222" lon="7.846356505508711"><ele>233.99999999999997</ele><time>2026-04-11T13:22:41.94Z</time></trkpt><trkpt lat="45.43125470163484" lon="7.84620294945825"><ele>233.99999999999997</ele><time>2026-04-11T13:22:42.94Z</time></trkpt><trkpt lat="45.431244681058594" lon="7.846058313155129"><ele>234.0</ele><time>2026-04-11T13:22:43.94Z</time></trkpt><trkpt lat="45.43122202416975" lon="7.845917522160613"><ele>234.0</ele><time>2026-04-11T13:22:44.94Z</time></trkpt><trkpt lat="45.43118325439854" lon="7.845780397404394"><ele>233.6</ele><time>2026-04-11T13:22:45.94Z</time></trkpt><trkpt lat="45.43111818806705" lon="7.845666606486174"><ele>233.2</ele><time>2026-04-11T13:22:46.94Z</time></trkpt><trkpt lat="45.431039073217974" lon="7.8455818560936965"><ele>232.79999999999998</ele><time>2026-04-11T13:22:47.94Z</time></trkpt><trkpt lat="45.430947420956876" lon="7.845530433805296"><ele>232.39999999999998</ele><time>2026-04-11T13:22:48.94Z</time></trkpt><trkpt lat="45.43085034883468" lon="7.845504507275599"><ele>232.0</ele><time>2026-04-11T13:22:49.94Z</time></trkpt><trkpt lat="45.430758220570844" lon="7.845481539115613"><ele>231.99999999999997</ele><time>2026-04-11T13:22:50.94Z</time></trkpt><trkpt lat="45.43067565453968" lon="7.84545279506932"><ele>232.0</ele><time>2026-04-11T13:22:51.94Z</time></trkpt><trkpt lat="45.43061176090933" lon="7.845413727585791"><ele>232.0</ele><time>2026-04-11T13:22:52.94Z</time></trkpt><trkpt lat="45.43067827192121" lon="7.845442488653523"><ele>232.0</ele><time>2026-04-11T13:23:27.941Z</time></trkpt><trkpt lat="45.43074178852351" lon="7.845446828077699"><ele>231.99999999999997</ele><time>2026-04-11T13:23:28.941Z</time></trkpt><trkpt lat="45.43079170498879" lon="7.845592757755591"><ele>232.0</ele><time>2026-04-11T13:23:30.941Z</time></trkpt><trkpt lat="45.43097488103585" lon="7.845472767511354"><ele>232.0</ele><time>2026-04-11T13:23:31.941Z</time></trkpt><trkpt lat="45.431060993736644" lon="7.845525061408883"><ele>232.0</ele><time>2026-04-11T13:23:32.941Z</time></trkpt><trkpt lat="45.431139430124254" lon="7.8455998663769355"><ele>232.0</ele><time>2026-04-11T13:23:33.941Z</time></trkpt><trkpt lat="45.43121448532753" lon="7.845688210890309"><ele>232.0</ele><time>2026-04-11T13:23:34.941Z</time></trkpt><trkpt lat="45.43127235440065" lon="7.845811492267885"><ele>232.0</ele><time>2026-04-11T13:23:35.941Z</time></trkpt><trkpt lat="45.431203254356724" lon="7.846006468004055"><ele>232.5</ele><time>2026-04-11T13:23:36.941Z</time></trkpt><trkpt lat="45.431218259496084" lon="7.846118320198497"><ele>233.0</ele><time>2026-04-11T13:23:37.941Z</time></trkpt><trkpt lat="45.4312266074051" lon="7.846216505001412"><ele>233.5</ele><time>2026-04-11T13:23:38.941Z</time></trkpt><trkpt lat="45.43124600467543" lon="7.846339264656243"><ele>234.0</ele><time>2026-04-11T13:23:40.941Z</time></trkpt><trkpt lat="45.43164555103934" lon="7.8462894670434205"><ele>234.2</ele><time>2026-04-11T13:23:41.941Z</time></trkpt><trkpt lat="45.43175660392141" lon="7.846280945420267"><ele>234.39999999999998</ele><time>2026-04-11T13:23:42.941Z</time></trkpt><trkpt lat="45.431866741779416" lon="7.846268060771592"><ele>234.6</ele><time>2026-04-11T13:23:43.941Z</time></trkpt><trkpt lat="45.43197810947551" lon="7.846258538374056"><ele>234.8</ele><time>2026-04-11T13:23:44.941Z</time></trkpt><trkpt lat="45.4320913043789" lon="7.846251224751689"><ele>235.0</ele><time>2026-04-11T13:23:45.941Z</time></trkpt><trkpt lat="45.43220301828527" lon="7.84624749535594"><ele>234.5</ele><time>2026-04-11T13:23:46.941Z</time></trkpt><trkpt lat="45.43231794142869" lon="7.846248188587612"><ele>234.0</ele><time>2026-04-11T13:23:47.941Z</time></trkpt><trkpt lat="45.432437216841464" lon="7.846240227453065"><ele>233.5</ele><time>2026-04-11T13:23:48.941Z</time></trkpt><trkpt lat="45.43255946599724" lon="7.846234520177335"><ele>233.0</ele><time>2026-04-11T13:23:49.941Z</time></trkpt><trkpt lat="45.43267658247047" lon="7.846232679414437"><ele>233.0</ele><time>2026-04-11T13:23:50.941Z</time></trkpt><trkpt lat="45.43279967270597" lon="7.846225758152229"><ele>233.0</ele><time>2026-04-11T13:23:51.941Z</time></trkpt><trkpt lat="45.432925300156235" lon="7.846215833080051"><ele>233.0</ele><time>2026-04-11T13:23:52.941Z</time></trkpt><trkpt lat="45.43305531710273" lon="7.846207818194392"><ele>233.0</ele><time>2026-04-11T13:23:53.941Z</time></trkpt><trkpt lat="45.43318136857005" lon="7.846210913515641"><ele>233.0</ele><time>2026-04-11T13:23:54.941Z</time></trkpt><trkpt lat="45.43330283508101" lon="7.846235446084245"><ele>233.0</ele><time>2026-04-11T13:23:55.941Z</time></trkpt><trkpt lat="45.433412561232615" lon="7.846452854987031"><ele>233.0</ele><time>2026-04-11T13:23:56.941Z</time></trkpt><trkpt lat="45.43352824259246" lon="7.8464595715384435"><ele>233.0</ele><time>2026-04-11T13:23:57.941Z</time></trkpt><trkpt lat="45.43363953651809" lon="7.846466033328079"><ele>233.0</ele><time>2026-04-11T13:23:58.941Z</time></trkpt><trkpt lat="45.4337409513246" lon="7.846473175586321"><ele>233.0</ele><time>2026-04-11T13:23:59.941Z</time></trkpt><trkpt lat="45.43385252660585" lon="7.846484583230517"><ele>233.0</ele><time>2026-04-11T13:24:00.941Z</time></trkpt><trkpt lat="45.43395581762705" lon="7.846498560365706"><ele>233.0</ele><time>2026-04-11T13:24:01.941Z</time></trkpt><trkpt lat="45.43405340373509" lon="7.846511766098511"><ele>233.0</ele><time>2026-04-11T13:24:02.941Z</time></trkpt><trkpt lat="45.43413619591098" lon="7.8465233573808835"><ele>233.33333333333334</ele><time>2026-04-11T13:24:03.941Z</time></trkpt><trkpt lat="45.43424436595485" lon="7.846539684322746"><ele>233.66666666666669</ele><time>2026-04-11T13:24:05.941Z</time></trkpt><trkpt lat="45.43425835668526" lon="7.846100792960619"><ele>234.0</ele><time>2026-04-11T13:24:07.941Z</time></trkpt><trkpt lat="45.434239080893484" lon="7.845968676881045"><ele>234.0</ele><time>2026-04-11T13:24:08.941Z</time></trkpt><trkpt lat="45.43420059840006" lon="7.845819635306877"><ele>233.99999999999997</ele><time>2026-04-11T13:24:09.941Z</time></trkpt><trkpt lat="45.43418849035945" lon="7.845661639337157"><ele>233.99999999999997</ele><time>2026-04-11T13:24:10.941Z</time></trkpt><trkpt lat="45.43419473674638" lon="7.845502833436905"><ele>234.0</ele><time>2026-04-11T13:24:11.941Z</time></trkpt><trkpt lat="45.43420688288595" lon="7.845348705697044"><ele>234.0</ele><time>2026-04-11T13:24:12.941Z</time></trkpt><trkpt lat="45.43421879211345" lon="7.845192601808883"><ele>233.79999999999998</ele><time>2026-04-11T13:24:13.937Z</time></trkpt><trkpt lat="45.43426379974969" lon="7.84505259616622"><ele>233.59999999999997</ele><time>2026-04-11T13:24:14.937Z</time></trkpt><trkpt lat="45.43430225317549" lon="7.84488587443179"><ele>233.4</ele><time>2026-04-11T13:24:15.937Z</time></trkpt><trkpt lat="45.434315467280385" lon="7.844737134188659"><ele>233.2</ele><time>2026-04-11T13:24:16.937Z</time></trkpt><trkpt lat="45.43433049498698" lon="7.844602580398832"><ele>233.0</ele><time>2026-04-11T13:24:17.937Z</time></trkpt><trkpt lat="45.434343637648226" lon="7.844487785178346"><ele>233.00000000000003</ele><time>2026-04-11T13:24:18.937Z</time></trkpt><trkpt lat="45.434387079327415" lon="7.84437985170321"><ele>233.0</ele><time>2026-04-11T13:24:20.937Z</time></trkpt><trkpt lat="45.434441386641865" lon="7.844443010475878"><ele>233.0</ele><time>2026-04-11T13:24:22.937Z</time></trkpt><trkpt lat="45.43444816797622" lon="7.844571766488358"><ele>233.0</ele><time>2026-04-11T13:24:24.936Z</time></trkpt><trkpt lat="45.43443739460131" lon="7.8446780761803065"><ele>233.00000000000003</ele><time>2026-04-11T13:24:25.936Z</time></trkpt><trkpt lat="45.4344482656574" lon="7.8447945008156745"><ele>233.0</ele><time>2026-04-11T13:24:26.937Z</time></trkpt><trkpt lat="45.434467542249784" lon="7.844901624160125"><ele>233.00000000000003</ele><time>2026-04-11T13:24:27.937Z</time></trkpt><trkpt lat="45.434466627092334" lon="7.844992224817949"><ele>233.0</ele><time>2026-04-11T13:24:28.937Z</time></trkpt><trkpt lat="45.43446047183307" lon="7.845117152408564"><ele>233.0</ele><time>2026-04-11T13:24:29.937Z</time></trkpt><trkpt lat="45.43442111876416" lon="7.845246631972636"><ele>233.0</ele><time>2026-04-11T13:24:30.937Z</time></trkpt><trkpt lat="45.434406565317666" lon="7.8453775337272615"><ele>233.00000000000003</ele><time>2026-04-11T13:24:31.937Z</time></trkpt><trkpt lat="45.43441341060934" lon="7.845521402386762"><ele>233.0</ele><time>2026-04-11T13:24:32.937Z</time></trkpt><trkpt lat="45.434417949435925" lon="7.845649919596598"><ele>233.16666666666669</ele><time>2026-04-11T13:24:33.937Z</time></trkpt><trkpt lat="45.43443372463602" lon="7.84577742541002"><ele>233.33333333333334</ele><time>2026-04-11T13:24:34.937Z</time></trkpt><trkpt lat="45.43443840853162" lon="7.845896076652098"><ele>233.5</ele><time>2026-04-11T13:24:35.937Z</time></trkpt><trkpt lat="45.434443498542066" lon="7.846034078183961"><ele>233.66666666666669</ele><time>2026-04-11T13:24:36.937Z</time></trkpt><trkpt lat="45.434450715299874" lon="7.846147346026112"><ele>233.83333333333334</ele><time>2026-04-11T13:24:37.937Z</time></trkpt><trkpt lat="45.43448870592048" lon="7.846224894363436"><ele>234.0</ele><time>2026-04-11T13:24:39.937Z</time></trkpt><trkpt lat="45.43447911815647" lon="7.846130012452509"><ele>234.0</ele><time>2026-04-11T13:24:56.937Z</time></trkpt><trkpt lat="45.43445034150884" lon="7.84594481820415"><ele>234.0</ele><time>2026-04-11T13:24:58.937Z</time></trkpt><trkpt lat="45.43445325528123" lon="7.845838690856529"><ele>234.0</ele><time>2026-04-11T13:24:59.937Z</time></trkpt><trkpt lat="45.434445665610106" lon="7.845735714853218"><ele>234.0</ele><time>2026-04-11T13:25:00.937Z</time></trkpt><trkpt lat="45.43443469959178" lon="7.8456320539367725"><ele>234.0</ele><time>2026-04-11T13:25:01.937Z</time></trkpt><trkpt lat="45.43442982834739" lon="7.84552527710726"><ele>234.0</ele><time>2026-04-11T13:25:02.937Z</time></trkpt><trkpt lat="45.43442794024513" lon="7.845412898273658"><ele>234.0</ele><time>2026-04-11T13:25:03.937Z</time></trkpt><trkpt lat="45.43442334997602" lon="7.84529758448287"><ele>234.0</ele><time>2026-04-11T13:25:04.937Z</time></trkpt><trkpt lat="45.43442211923339" lon="7.845179886740447"><ele>234.0</ele><time>2026-04-11T13:25:05.937Z</time></trkpt><trkpt lat="45.43443525071297" lon="7.845049896065625"><ele>234.0</ele><time>2026-04-11T13:25:06.937Z</time></trkpt><trkpt lat="45.434457467423535" lon="7.844935129100679"><ele>234.0</ele><time>2026-04-11T13:25:07.937Z</time></trkpt><trkpt lat="45.43447924715065" lon="7.844839576789789"><ele>234.0</ele><time>2026-04-11T13:25:08.937Z</time></trkpt><trkpt lat="45.43446140156321" lon="7.844663376855506"><ele>233.83333333333334</ele><time>2026-04-11T13:25:10.937Z</time></trkpt><trkpt lat="45.43444089810363" lon="7.844570771113012"><ele>233.66666666666669</ele><time>2026-04-11T13:25:11.937Z</time></trkpt><trkpt lat="45.434514261865" lon="7.844500544870525"><ele>233.5</ele><time>2026-04-11T13:25:13.937Z</time></trkpt><trkpt lat="45.434583793006965" lon="7.844503897008042"><ele>233.33333333333334</ele><time>2026-04-11T13:25:14.937Z</time></trkpt><trkpt lat="45.4346625641331" lon="7.844516430659487"><ele>233.16666666666669</ele><time>2026-04-11T13:25:15.937Z</time></trkpt><trkpt lat="45.43473775668352" lon="7.844523761996749"><ele>233.0</ele><time>2026-04-11T13:25:16.937Z</time></trkpt><trkpt lat="45.43481690940986" lon="7.844498491652768"><ele>233.4</ele><time>2026-04-11T13:25:17.937Z</time></trkpt><trkpt lat="45.43489837871169" lon="7.844473654244059"><ele>233.8</ele><time>2026-04-11T13:25:18.937Z</time></trkpt><trkpt lat="45.43498950210136" lon="7.844452425229741"><ele>234.2</ele><time>2026-04-11T13:25:19.937Z</time></trkpt><trkpt lat="45.43508424711523" lon="7.844430410784328"><ele>234.6</ele><time>2026-04-11T13:25:20.937Z</time></trkpt><trkpt lat="45.43518491384331" lon="7.844412037876375"><ele>235.0</ele><time>2026-04-11T13:25:21.937Z</time></trkpt><trkpt lat="45.43528543325648" lon="7.84437727397886"><ele>235.0</ele><time>2026-04-11T13:25:22.937Z</time></trkpt><trkpt lat="45.43539351314446" lon="7.844342395630415"><ele>235.0</ele><time>2026-04-11T13:25:23.937Z</time></trkpt><trkpt lat="45.4355122931417" lon="7.844316007216409"><ele>235.0</ele><time>2026-04-11T13:25:24.937Z</time></trkpt><trkpt lat="45.43562465537719" lon="7.844290025029878"><ele>235.0</ele><time>2026-04-11T13:25:25.937Z</time></trkpt><trkpt lat="45.435735956395185" lon="7.844251832682354"><ele>235.5</ele><time>2026-04-11T13:25:26.937Z</time></trkpt><trkpt lat="45.43584863432665" lon="7.844222148857457"><ele>236.0</ele><time>2026-04-11T13:25:27.937Z</time></trkpt><trkpt lat="45.43596614160831" lon="7.844203113921885"><ele>236.5</ele><time>2026-04-11T13:25:28.937Z</time></trkpt><trkpt lat="45.43608651877351" lon="7.84421262179762"><ele>237.0</ele><time>2026-04-11T13:25:29.937Z</time></trkpt><trkpt lat="45.43620193596962" lon="7.844197110349838"><ele>237.2</ele><time>2026-04-11T13:25:30.937Z</time></trkpt><trkpt lat="45.43631594563653" lon="7.844156201419299"><ele>237.39999999999998</ele><time>2026-04-11T13:25:31.937Z</time></trkpt><trkpt lat="45.436425395453085" lon="7.844138089549827"><ele>237.60000000000002</ele><time>2026-04-11T13:25:32.937Z</time></trkpt><trkpt lat="45.43651402369553" lon="7.844128214289921"><ele>237.8</ele><time>2026-04-11T13:25:33.937Z</time></trkpt><trkpt lat="45.43659441340942" lon="7.8441488526068515"><ele>238.0</ele><time>2026-04-11T13:25:35.937Z</time></trkpt><trkpt lat="45.4366624239675" lon="7.844147965601991"><ele>238.0</ele><time>2026-04-11T13:25:37.937Z</time></trkpt><trkpt lat="45.4367125016034" lon="7.844087949678408"><ele>238.0</ele><time>2026-04-11T13:25:39.937Z</time></trkpt><trkpt lat="45.4368291646756" lon="7.844072170360129"><ele>238.0</ele><time>2026-04-11T13:25:41.937Z</time></trkpt><trkpt lat="45.43691201801046" lon="7.843974076466074"><ele>238.0</ele><time>2026-04-11T13:25:42.937Z</time></trkpt><trkpt lat="45.436995198112875" lon="7.843932261960327"><ele>238.0</ele><time>2026-04-11T13:25:43.937Z</time></trkpt><trkpt lat="45.43708144490826" lon="7.843888663287361"><ele>238.0</ele><time>2026-04-11T13:25:44.937Z</time></trkpt><trkpt lat="45.43716536622139" lon="7.843850307853731"><ele>238.0</ele><time>2026-04-11T13:25:45.937Z</time></trkpt><trkpt lat="45.43726200240292" lon="7.843809663080413"><ele>238.0</ele><time>2026-04-11T13:25:46.937Z</time></trkpt><trkpt lat="45.4373266556658" lon="7.8437723762804525"><ele>238.0</ele><time>2026-04-11T13:25:47.937Z</time></trkpt><trkpt lat="45.43744248004264" lon="7.8437611968624985"><ele>238.0</ele><time>2026-04-11T13:25:49.937Z</time></trkpt><trkpt lat="45.4375442907783" lon="7.843706828582789"><ele>237.99999999999997</ele><time>2026-04-11T13:25:51.937Z</time></trkpt><trkpt lat="45.43760482767495" lon="7.843666036486195"><ele>238.0</ele><time>2026-04-11T13:25:52.937Z</time></trkpt><trkpt lat="45.437726457015366" lon="7.843701504203803"><ele>238.0</ele><time>2026-04-11T13:25:54.937Z</time></trkpt><trkpt lat="45.43780450771264" lon="7.843735975288686"><ele>238.0</ele><time>2026-04-11T13:25:55.937Z</time></trkpt><trkpt lat="45.43788303907805" lon="7.843723470809558"><ele>237.99999999999997</ele><time>2026-04-11T13:25:56.937Z</time></trkpt><trkpt lat="45.43795399323742" lon="7.843683034305786"><ele>238.0</ele><time>2026-04-11T13:25:57.937Z</time></trkpt><trkpt lat="45.43800484309206" lon="7.8436188447214725"><ele>238.0</ele><time>2026-04-11T13:25:58.937Z</time></trkpt><trkpt lat="45.43808462550586" lon="7.843592091078079"><ele>238.0</ele><time>2026-04-11T13:26:00.937Z</time></trkpt><trkpt lat="45.43815018714951" lon="7.843680191410161"><ele>238.0</ele><time>2026-04-11T13:26:02.937Z</time></trkpt><trkpt lat="45.43824209105591" lon="7.843786250124016"><ele>238.0</ele><time>2026-04-11T13:26:04.937Z</time></trkpt><trkpt lat="45.438377024081305" lon="7.843817084681646"><ele>238.0</ele><time>2026-04-11T13:26:06.937Z</time></trkpt><trkpt lat="45.438463323587975" lon="7.843795417655193"><ele>238.0</ele><time>2026-04-11T13:26:07.937Z</time></trkpt><trkpt lat="45.43855448453716" lon="7.843748947580483"><ele>238.0</ele><time>2026-04-11T13:26:08.937Z</time></trkpt><trkpt lat="45.438643919004065" lon="7.843692111114565"><ele>238.0</ele><time>2026-04-11T13:26:09.937Z</time></trkpt><trkpt lat="45.43873241662407" lon="7.843631729871208"><ele>238.0</ele><time>2026-04-11T13:26:10.937Z</time></trkpt><trkpt lat="45.43883377421354" lon="7.843571897074143"><ele>238.0</ele><time>2026-04-11T13:26:11.937Z</time></trkpt><trkpt lat="45.43894964265955" lon="7.843505238805751"><ele>238.25</ele><time>2026-04-11T13:26:12.937Z</time></trkpt><trkpt lat="45.43905421401379" lon="7.8434228231752545"><ele>238.5</ele><time>2026-04-11T13:26:13.937Z</time></trkpt><trkpt lat="45.43916096539887" lon="7.84335214456939"><ele>238.75</ele><time>2026-04-11T13:26:14.937Z</time></trkpt><trkpt lat="45.4392705055229" lon="7.843285356514236"><ele>239.0</ele><time>2026-04-11T13:26:15.937Z</time></trkpt><trkpt lat="45.439368330647824" lon="7.84320795885448"><ele>239.0</ele><time>2026-04-11T13:26:16.937Z</time></trkpt><trkpt lat="45.439468910056554" lon="7.843134040802377"><ele>238.99999999999997</ele><time>2026-04-11T13:26:17.937Z</time></trkpt><trkpt lat="45.439568239882874" lon="7.843071905315832"><ele>238.99999999999997</ele><time>2026-04-11T13:26:18.937Z</time></trkpt><trkpt lat="45.43967775953101" lon="7.843008651256972"><ele>239.0</ele><time>2026-04-11T13:26:19.933Z</time></trkpt><trkpt lat="45.439768916862654" lon="7.842955596549579"><ele>239.0</ele><time>2026-04-11T13:26:20.934Z</time></trkpt><trkpt lat="45.439854336212264" lon="7.842903775282525"><ele>238.79999999999998</ele><time>2026-04-11T13:26:21.934Z</time></trkpt><trkpt lat="45.43993274532996" lon="7.8428547522764145"><ele>238.59999999999997</ele><time>2026-04-11T13:26:22.933Z</time></trkpt><trkpt lat="45.44002955531413" lon="7.842802441722702"><ele>238.4</ele><time>2026-04-11T13:26:23.933Z</time></trkpt><trkpt lat="45.44012558667169" lon="7.84276466674102"><ele>238.2</ele><time>2026-04-11T13:26:24.933Z</time></trkpt><trkpt lat="45.44020498500611" lon="7.842740707150074"><ele>238.0</ele><time>2026-04-11T13:26:25.932Z</time></trkpt><trkpt lat="45.44032463483466" lon="7.842661992816175"><ele>237.99999999999997</ele><time>2026-04-11T13:26:27.933Z</time></trkpt><trkpt lat="45.44039598341263" lon="7.842617062670611"><ele>238.0</ele><time>2026-04-11T13:26:28.933Z</time></trkpt><trkpt lat="45.440481646519466" lon="7.84256682030697"><ele>238.0</ele><time>2026-04-11T13:26:29.933Z</time></trkpt><trkpt lat="45.44056662628802" lon="7.842538422904517"><ele>238.0</ele><time>2026-04-11T13:26:30.933Z</time></trkpt><trkpt lat="45.44065313740356" lon="7.842511835308708"><ele>237.99999999999997</ele><time>2026-04-11T13:26:31.933Z</time></trkpt><trkpt lat="45.440739452408266" lon="7.842488212237443"><ele>238.0</ele><time>2026-04-11T13:26:32.933Z</time></trkpt><trkpt lat="45.44083087416684" lon="7.842471481486707"><ele>238.33333333333331</ele><time>2026-04-11T13:26:33.933Z</time></trkpt><trkpt lat="45.440911867848925" lon="7.842458661238034"><ele>238.66666666666666</ele><time>2026-04-11T13:26:34.933Z</time></trkpt><trkpt lat="45.441000930084044" lon="7.84247822853913"><ele>239.0</ele><time>2026-04-11T13:26:36.933Z</time></trkpt><trkpt lat="45.44107539793024" lon="7.842438338697187"><ele>239.33333333333331</ele><time>2026-04-11T13:26:58.933Z</time></trkpt><trkpt lat="45.441186511904704" lon="7.842342027163759"><ele>239.66666666666666</ele><time>2026-04-11T13:27:00.933Z</time></trkpt><trkpt lat="45.44124460924613" lon="7.842306263381526"><ele>240.0</ele><time>2026-04-11T13:27:01.933Z</time></trkpt><trkpt lat="45.44133625737556" lon="7.84235527155461"><ele>240.0</ele><time>2026-04-11T13:27:03.933Z</time></trkpt><trkpt lat="45.44138809240424" lon="7.842464657858508"><ele>240.0</ele><time>2026-04-11T13:27:05.933Z</time></trkpt><trkpt lat="45.44149388713391" lon="7.842425446858565"><ele>240.0</ele><time>2026-04-11T13:27:06.933Z</time></trkpt><trkpt lat="45.44146002278951" lon="7.842553934847065"><ele>240.0</ele><time>2026-04-11T13:27:07.933Z</time></trkpt><trkpt lat="45.441592666123825" lon="7.842642851358366"><ele>240.0</ele><time>2026-04-11T13:27:09.933Z</time></trkpt><trkpt lat="45.4416987404243" lon="7.842674188497394"><ele>240.0</ele><time>2026-04-11T13:27:10.933Z</time></trkpt><trkpt lat="45.44180800984559" lon="7.842667777043155"><ele>240.0</ele><time>2026-04-11T13:27:11.933Z</time></trkpt><trkpt lat="45.441899942030695" lon="7.84261480784268"><ele>240.0</ele><time>2026-04-11T13:27:12.933Z</time></trkpt><trkpt lat="45.44196343624214" lon="7.842511500475391"><ele>240.0</ele><time>2026-04-11T13:27:13.933Z</time></trkpt><trkpt lat="45.44201376828456" lon="7.842375215379982"><ele>240.0</ele><time>2026-04-11T13:27:14.933Z</time></trkpt><trkpt lat="45.44208032327828" lon="7.842205224760394"><ele>240.25</ele><time>2026-04-11T13:27:15.933Z</time></trkpt><trkpt lat="45.44215982976155" lon="7.84204484752168"><ele>240.5</ele><time>2026-04-11T13:27:16.933Z</time></trkpt><trkpt lat="45.4422683694939" lon="7.841911950956073"><ele>240.75</ele><time>2026-04-11T13:27:17.933Z</time></trkpt><trkpt lat="45.44239672516218" lon="7.841788504615185"><ele>241.0</ele><time>2026-04-11T13:27:18.933Z</time></trkpt><trkpt lat="45.44252833775229" lon="7.841676467497722"><ele>241.33333333333331</ele><time>2026-04-11T13:27:19.933Z</time></trkpt><trkpt lat="45.44267376289308" lon="7.841554376692022"><ele>241.66666666666669</ele><time>2026-04-11T13:27:20.933Z</time></trkpt><trkpt lat="45.442823346842296" lon="7.84143117101871"><ele>242.0</ele><time>2026-04-11T13:27:21.933Z</time></trkpt><trkpt lat="45.44298093582904" lon="7.841298914532157"><ele>242.0</ele><time>2026-04-11T13:27:22.933Z</time></trkpt><trkpt lat="45.44315451925795" lon="7.84114517044693"><ele>242.0</ele><time>2026-04-11T13:27:23.933Z</time></trkpt><trkpt lat="45.44331792608408" lon="7.841004331118133"><ele>242.0</ele><time>2026-04-11T13:27:24.933Z</time></trkpt><trkpt lat="45.44347611274241" lon="7.8408701684266955"><ele>242.33333333333334</ele><time>2026-04-11T13:27:25.933Z</time></trkpt><trkpt lat="45.44362373067662" lon="7.840736753626189"><ele>242.66666666666669</ele><time>2026-04-11T13:27:26.933Z</time></trkpt><trkpt lat="45.44376516681295" lon="7.84061543280438"><ele>243.0</ele><time>2026-04-11T13:27:27.933Z</time></trkpt><trkpt lat="45.44389646132816" lon="7.840509110142062"><ele>242.5</ele><time>2026-04-11T13:27:28.933Z</time></trkpt><trkpt lat="45.44401478603624" lon="7.840395038136886"><ele>242.0</ele><time>2026-04-11T13:27:29.933Z</time></trkpt><trkpt lat="45.44411966102018" lon="7.840301780729091"><ele>241.5</ele><time>2026-04-11T13:27:30.933Z</time></trkpt><trkpt lat="45.44428425226493" lon="7.840409524305719"><ele>241.0</ele><time>2026-04-11T13:27:31.933Z</time></trkpt><trkpt lat="45.44439132935577" lon="7.840406579925698"><ele>240.99999999999997</ele><time>2026-04-11T13:27:32.933Z</time></trkpt><trkpt lat="45.44447847536488" lon="7.840374469803991"><ele>241.0</ele><time>2026-04-11T13:27:33.933Z</time></trkpt><trkpt lat="45.44454651684373" lon="7.840322982862369"><ele>241.0</ele><time>2026-04-11T13:27:34.933Z</time></trkpt><trkpt lat="45.44459987538695" lon="7.840264278136684"><ele>241.0</ele><time>2026-04-11T13:27:35.933Z</time></trkpt><trkpt lat="45.44467224683508" lon="7.840341083653033"><ele>240.99999999999997</ele><time>2026-04-11T13:27:38.933Z</time></trkpt><trkpt lat="45.44465401183698" lon="7.840432213991185"><ele>241.0</ele><time>2026-04-11T13:27:39.933Z</time></trkpt><trkpt lat="45.44458109324599" lon="7.840467834083632"><ele>241.0</ele><time>2026-04-11T13:27:40.933Z</time></trkpt><trkpt lat="45.44449390606367" lon="7.840541915241638"><ele>241.0</ele><time>2026-04-11T13:27:41.933Z</time></trkpt><trkpt lat="45.444367182140134" lon="7.840625933581414"><ele>241.0</ele><time>2026-04-11T13:27:42.933Z</time></trkpt><trkpt lat="45.444233082828426" lon="7.840701507938461"><ele>241.0</ele><time>2026-04-11T13:27:43.933Z</time></trkpt><trkpt lat="45.44411485923544" lon="7.840788134797791"><ele>241.0</ele><time>2026-04-11T13:27:44.933Z</time></trkpt><trkpt lat="45.44401217976324" lon="7.840863569017906"><ele>241.00000000000003</ele><time>2026-04-11T13:27:45.933Z</time></trkpt><trkpt lat="45.443943237131165" lon="7.84094291374992"><ele>241.00000000000003</ele><time>2026-04-11T13:27:46.933Z</time></trkpt><trkpt lat="45.44389249825246" lon="7.841022096216479"><ele>241.0</ele><time>2026-04-11T13:27:47.933Z</time></trkpt><trkpt lat="45.443912551670756" lon="7.841146157270644"><ele>241.0</ele><time>2026-04-11T13:27:48.933Z</time></trkpt><trkpt lat="45.44396797278321" lon="7.84124418362083"><ele>240.75</ele><time>2026-04-11T13:27:49.933Z</time></trkpt><trkpt lat="45.44404501152154" lon="7.841326474910782"><ele>240.5</ele><time>2026-04-11T13:27:50.933Z</time></trkpt><trkpt lat="45.44415349889295" lon="7.841388706941866"><ele>240.25</ele><time>2026-04-11T13:27:51.933Z</time></trkpt><trkpt lat="45.44428291716985" lon="7.841437967317825"><ele>240.0</ele><time>2026-04-11T13:27:52.933Z</time></trkpt><trkpt lat="45.444424406554454" lon="7.8414782886695145"><ele>240.0</ele><time>2026-04-11T13:27:53.933Z</time></trkpt><trkpt lat="45.44456441297393" lon="7.84152139125058"><ele>240.0</ele><time>2026-04-11T13:27:54.933Z</time></trkpt><trkpt lat="45.44470601735993" lon="7.841567496057289"><ele>240.0</ele><time>2026-04-11T13:27:55.933Z</time></trkpt><trkpt lat="45.44484138787728" lon="7.8416248502713675"><ele>240.0</ele><time>2026-04-11T13:27:56.933Z</time></trkpt><trkpt lat="45.44496258997319" lon="7.841719700596123"><ele>240.25</ele><time>2026-04-11T13:27:57.933Z</time></trkpt><trkpt lat="45.44510781630778" lon="7.8417606899465655"><ele>240.5</ele><time>2026-04-11T13:27:58.933Z</time></trkpt><trkpt lat="45.44525240845294" lon="7.841796102484756"><ele>240.75</ele><time>2026-04-11T13:27:59.933Z</time></trkpt><trkpt lat="45.4453889100567" lon="7.84183234925414"><ele>241.0</ele><time>2026-04-11T13:28:00.933Z</time></trkpt><trkpt lat="45.445509646622355" lon="7.84191072689833"><ele>241.0</ele><time>2026-04-11T13:28:01.933Z</time></trkpt><trkpt lat="45.44562585986232" lon="7.8420123009630665"><ele>241.0</ele><time>2026-04-11T13:28:02.933Z</time></trkpt><trkpt lat="45.44575208289771" lon="7.842090512977483"><ele>241.0</ele><time>2026-04-11T13:28:03.933Z</time></trkpt><trkpt lat="45.44586897815385" lon="7.842187469575538"><ele>241.0</ele><time>2026-04-11T13:28:04.933Z</time></trkpt><trkpt lat="45.44598877981213" lon="7.842278012516656"><ele>241.0</ele><time>2026-04-11T13:28:05.933Z</time></trkpt><trkpt lat="45.44610320443279" lon="7.842365118332306"><ele>241.0</ele><time>2026-04-11T13:28:06.933Z</time></trkpt><trkpt lat="45.44621396572156" lon="7.8424645334212"><ele>241.0</ele><time>2026-04-11T13:28:07.933Z</time></trkpt><trkpt lat="45.44632101599443" lon="7.842552351467605"><ele>241.0</ele><time>2026-04-11T13:28:08.933Z</time></trkpt><trkpt lat="45.446423640174274" lon="7.842619353768224"><ele>242.5</ele><time>2026-04-11T13:28:09.933Z</time></trkpt><trkpt lat="45.44653243869278" lon="7.842651803615893"><ele>244.0</ele><time>2026-04-11T13:28:10.933Z</time></trkpt><trkpt lat="45.44664365229705" lon="7.842661310783655"><ele>245.5</ele><time>2026-04-11T13:28:11.933Z</time></trkpt><trkpt lat="45.44675838181375" lon="7.8426520586919874"><ele>247.0</ele><time>2026-04-11T13:28:12.933Z</time></trkpt><trkpt lat="45.44687207477952" lon="7.84265092762306"><ele>247.0</ele><time>2026-04-11T13:28:13.933Z</time></trkpt><trkpt lat="45.44698221084377" lon="7.842671925319964"><ele>247.0</ele><time>2026-04-11T13:28:14.933Z</time></trkpt><trkpt lat="45.44710255194156" lon="7.842736924950063"><ele>247.0</ele><time>2026-04-11T13:28:15.933Z</time></trkpt><trkpt lat="45.447216361450494" lon="7.84282303369709"><ele>247.0</ele><time>2026-04-11T13:28:16.933Z</time></trkpt><trkpt lat="45.447324802125216" lon="7.842926723498108"><ele>247.5</ele><time>2026-04-11T13:28:17.933Z</time></trkpt><trkpt lat="45.44743797972172" lon="7.843014862090689"><ele>248.0</ele><time>2026-04-11T13:28:18.933Z</time></trkpt><trkpt lat="45.44754584841277" lon="7.843090798614632"><ele>248.5</ele><time>2026-04-11T13:28:19.933Z</time></trkpt><trkpt lat="45.4476596390032" lon="7.843173113192284"><ele>249.0</ele><time>2026-04-11T13:28:20.933Z</time></trkpt><trkpt lat="45.447776620205154" lon="7.843240354617471"><ele>249.0</ele><time>2026-04-11T13:28:21.933Z</time></trkpt><trkpt lat="45.447874679477195" lon="7.843327533291746"><ele>248.99999999999997</ele><time>2026-04-11T13:28:22.933Z</time></trkpt><trkpt lat="45.447969029235544" lon="7.843376990876451"><ele>248.99999999999997</ele><time>2026-04-11T13:28:23.933Z</time></trkpt><trkpt lat="45.44805521449924" lon="7.843463263973258"><ele>249.0</ele><time>2026-04-11T13:28:24.933Z</time></trkpt><trkpt lat="45.44812942292723" lon="7.8435383563429255"><ele>249.0</ele><time>2026-04-11T13:28:25.929Z</time></trkpt><trkpt lat="45.448237659094616" lon="7.843581133443355"><ele>251.0</ele><time>2026-04-11T13:28:27.929Z</time></trkpt><trkpt lat="45.44834334364553" lon="7.843567316783792"><ele>253.0</ele><time>2026-04-11T13:28:29.929Z</time></trkpt><trkpt lat="45.448414274590256" lon="7.843554796444991"><ele>255.0</ele><time>2026-04-11T13:28:30.929Z</time></trkpt><trkpt lat="45.448506094990044" lon="7.843547944104797"><ele>257.0</ele><time>2026-04-11T13:28:31.929Z</time></trkpt><trkpt lat="45.448608067219396" lon="7.843539604120697"><ele>259.0</ele><time>2026-04-11T13:28:32.929Z</time></trkpt><trkpt lat="45.44868157764588" lon="7.843534446215718"><ele>261.0</ele><time>2026-04-11T13:28:33.929Z</time></trkpt><trkpt lat="45.44874997964102" lon="7.84352134198047"><ele>258.40000000000003</ele><time>2026-04-11T13:28:36.929Z</time></trkpt><trkpt lat="45.44870157041468" lon="7.843354590293964"><ele>255.8</ele><time>2026-04-11T13:28:40.929Z</time></trkpt><trkpt lat="45.44864921253696" lon="7.843257375174486"><ele>253.20000000000002</ele><time>2026-04-11T13:28:41.929Z</time></trkpt><trkpt lat="45.44860017592499" lon="7.843135465736997"><ele>250.60000000000002</ele><time>2026-04-11T13:28:42.929Z</time></trkpt><trkpt lat="45.448543658258856" lon="7.843005982731042"><ele>248.0</ele><time>2026-04-11T13:28:43.929Z</time></trkpt><trkpt lat="45.44846974754925" lon="7.842864068371103"><ele>248.0</ele><time>2026-04-11T13:28:44.929Z</time></trkpt><trkpt lat="45.44840709052847" lon="7.842715029605692"><ele>248.0</ele><time>2026-04-11T13:28:45.929Z</time></trkpt><trkpt lat="45.4483454161624" lon="7.842585071454582"><ele>248.0</ele><time>2026-04-11T13:28:46.929Z</time></trkpt><trkpt lat="45.44829871957777" lon="7.842436910897113"><ele>248.0</ele><time>2026-04-11T13:28:47.929Z</time></trkpt><trkpt lat="45.44825877836178" lon="7.842301821271606"><ele>248.0</ele><time>2026-04-11T13:28:48.929Z</time></trkpt><trkpt lat="45.44821486956741" lon="7.84218115112484"><ele>247.8</ele><time>2026-04-11T13:28:49.929Z</time></trkpt><trkpt lat="45.448173281720585" lon="7.842062050658806"><ele>247.60000000000002</ele><time>2026-04-11T13:28:50.929Z</time></trkpt><trkpt lat="45.44813470934178" lon="7.841938435682774"><ele>247.39999999999998</ele><time>2026-04-11T13:28:51.929Z</time></trkpt><trkpt lat="45.44810948344242" lon="7.841803315536802"><ele>247.2</ele><time>2026-04-11T13:28:52.929Z</time></trkpt><trkpt lat="45.448097930024495" lon="7.841669373925376"><ele>247.0</ele><time>2026-04-11T13:28:53.929Z</time></trkpt><trkpt lat="45.448095863653435" lon="7.841537688770566"><ele>247.0</ele><time>2026-04-11T13:28:54.929Z</time></trkpt><trkpt lat="45.448110432880036" lon="7.841396463713925"><ele>247.0</ele><time>2026-04-11T13:28:55.929Z</time></trkpt><trkpt lat="45.44809460636196" lon="7.841262952916575"><ele>247.0</ele><time>2026-04-11T13:28:56.929Z</time></trkpt><trkpt lat="45.448090570924535" lon="7.8411284951150035"><ele>247.0</ele><time>2026-04-11T13:28:57.929Z</time></trkpt><trkpt lat="45.44810239710832" lon="7.840991690002235"><ele>247.0</ele><time>2026-04-11T13:28:58.929Z</time></trkpt><trkpt lat="45.448084118244495" lon="7.840849724748869"><ele>246.8</ele><time>2026-04-11T13:28:59.929Z</time></trkpt><trkpt lat="45.448063484828424" lon="7.840722580020732"><ele>246.6</ele><time>2026-04-11T13:29:00.929Z</time></trkpt><trkpt lat="45.44805107182015" lon="7.840617439638591"><ele>246.40000000000003</ele><time>2026-04-11T13:29:01.929Z</time></trkpt><trkpt lat="45.44804483285448" lon="7.840498381164768"><ele>246.20000000000002</ele><time>2026-04-11T13:29:02.929Z</time></trkpt><trkpt lat="45.44804819015188" lon="7.840405722700113"><ele>246.0</ele><time>2026-04-11T13:29:04.929Z</time></trkpt><trkpt lat="45.44815366054124" lon="7.84061229775087"><ele>246.0</ele><time>2026-04-11T13:29:10.929Z</time></trkpt><trkpt lat="45.448188733212675" lon="7.840727137198484"><ele>246.00000000000003</ele><time>2026-04-11T13:29:11.929Z</time></trkpt><trkpt lat="45.44821833419092" lon="7.84082255007476"><ele>246.00000000000003</ele><time>2026-04-11T13:29:12.929Z</time></trkpt><trkpt lat="45.44825270869636" lon="7.840936747524047"><ele>246.0</ele><time>2026-04-11T13:29:14.929Z</time></trkpt><trkpt lat="45.44827602553648" lon="7.841036291608013"><ele>246.0</ele><time>2026-04-11T13:29:17.929Z</time></trkpt><trkpt lat="45.44840158463303" lon="7.840988578590334"><ele>246.0</ele><time>2026-04-11T13:29:18.929Z</time></trkpt><trkpt lat="45.44848542298618" lon="7.840993226231625"><ele>246.0</ele><time>2026-04-11T13:29:19.929Z</time></trkpt><trkpt lat="45.4485993920826" lon="7.840983575083921"><ele>246.0</ele><time>2026-04-11T13:29:20.929Z</time></trkpt><trkpt lat="45.44872036242035" lon="7.840975059031525"><ele>246.0</ele><time>2026-04-11T13:29:21.929Z</time></trkpt><trkpt lat="45.44886256521152" lon="7.840990646697393"><ele>246.0</ele><time>2026-04-11T13:29:22.929Z</time></trkpt><trkpt lat="45.448987602861905" lon="7.840996709472783"><ele>246.00000000000003</ele><time>2026-04-11T13:29:23.929Z</time></trkpt><trkpt lat="45.449100328387736" lon="7.840993962471404"><ele>246.00000000000003</ele><time>2026-04-11T13:29:24.929Z</time></trkpt><trkpt lat="45.449203500072166" lon="7.840984548462532"><ele>246.0</ele><time>2026-04-11T13:29:25.93Z</time></trkpt><trkpt lat="45.44928354199771" lon="7.840976668948576"><ele>246.0</ele><time>2026-04-11T13:29:26.93Z</time></trkpt><trkpt lat="45.44935767351196" lon="7.840984182409356"><ele>246.0</ele><time>2026-04-11T13:29:28.93Z</time></trkpt><trkpt lat="45.44944881119533" lon="7.840960504909051"><ele>246.00000000000003</ele><time>2026-04-11T13:29:30.93Z</time></trkpt><trkpt lat="45.449561914731575" lon="7.841120895742301"><ele>246.00000000000003</ele><time>2026-04-11T13:29:32.93Z</time></trkpt><trkpt lat="45.44957881503806" lon="7.841210710785687"><ele>246.0</ele><time>2026-04-11T13:29:33.93Z</time></trkpt><trkpt lat="45.44958362608226" lon="7.841305694105377"><ele>246.0</ele><time>2026-04-11T13:29:34.93Z</time></trkpt><trkpt lat="45.44961946724717" lon="7.841449503983803"><ele>245.8</ele><time>2026-04-11T13:29:36.93Z</time></trkpt><trkpt lat="45.44969226094348" lon="7.8414808794014395"><ele>245.60000000000002</ele><time>2026-04-11T13:29:38.93Z</time></trkpt><trkpt lat="45.44978663018669" lon="7.841515450962904"><ele>245.4</ele><time>2026-04-11T13:29:40.93Z</time></trkpt><trkpt lat="45.44987525687413" lon="7.841557701580955"><ele>245.2</ele><time>2026-04-11T13:29:42.93Z</time></trkpt><trkpt lat="45.44997000558061" lon="7.841571680647834"><ele>245.0</ele><time>2026-04-11T13:29:44.93Z</time></trkpt><trkpt lat="45.45007557188497" lon="7.841579335492664"><ele>245.0</ele><time>2026-04-11T13:29:46.93Z</time></trkpt><trkpt lat="45.45018341102211" lon="7.841590733091609"><ele>245.0</ele><time>2026-04-11T13:29:48.93Z</time></trkpt><trkpt lat="45.45028963833604" lon="7.84159064270721"><ele>245.0</ele><time>2026-04-11T13:29:50.93Z</time></trkpt><trkpt lat="45.450390607062744" lon="7.8415906491399525"><ele>245.0</ele><time>2026-04-11T13:29:52.93Z</time></trkpt><trkpt lat="45.450500120248556" lon="7.841599365427713"><ele>245.0</ele><time>2026-04-11T13:29:54.93Z</time></trkpt><trkpt lat="45.45062314002519" lon="7.841655182290629"><ele>245.6</ele><time>2026-04-11T13:29:56.93Z</time></trkpt><trkpt lat="45.45070193882105" lon="7.8417061213046955"><ele>246.2</ele><time>2026-04-11T13:29:57.93Z</time></trkpt><trkpt lat="45.45078530171118" lon="7.841751000838132"><ele>246.8</ele><time>2026-04-11T13:29:58.93Z</time></trkpt><trkpt lat="45.45086050307007" lon="7.841790793042737"><ele>247.4</ele><time>2026-04-11T13:29:59.93Z</time></trkpt><trkpt lat="45.4509235645303" lon="7.841813217445383"><ele>248.0</ele><time>2026-04-11T13:30:00.93Z</time></trkpt><trkpt lat="45.451011409645815" lon="7.84162200028146"><ele>248.0</ele><time>2026-04-11T13:30:02.93Z</time></trkpt><trkpt lat="45.451031000961265" lon="7.8415046720402755"><ele>248.0</ele><time>2026-04-11T13:30:03.93Z</time></trkpt><trkpt lat="45.451076106873" lon="7.8414068246822195"><ele>248.0</ele><time>2026-04-11T13:30:04.93Z</time></trkpt><trkpt lat="45.451220243016365" lon="7.8413460173818885"><ele>248.0</ele><time>2026-04-11T13:30:06.93Z</time></trkpt><trkpt lat="45.451316638472264" lon="7.841296549716492"><ele>248.0</ele><time>2026-04-11T13:30:07.93Z</time></trkpt><trkpt lat="45.451409356503035" lon="7.841249118253627"><ele>250.60000000000002</ele><time>2026-04-11T13:30:08.93Z</time></trkpt><trkpt lat="45.451486520869146" lon="7.841195708683698"><ele>253.20000000000002</ele><time>2026-04-11T13:30:09.93Z</time></trkpt><trkpt lat="45.45153150429902" lon="7.841126569607813"><ele>255.8</ele><time>2026-04-11T13:30:10.93Z</time></trkpt><trkpt lat="45.45157610259335" lon="7.840944351329906"><ele>258.40000000000003</ele><time>2026-04-11T13:30:12.93Z</time></trkpt><trkpt lat="45.45154941769329" lon="7.8408132823597"><ele>261.0</ele><time>2026-04-11T13:30:13.93Z</time></trkpt><trkpt lat="45.451564423808755" lon="7.840691126846873"><ele>261.0</ele><time>2026-04-11T13:30:14.93Z</time></trkpt><trkpt lat="45.45160446789668" lon="7.840574319537472"><ele>261.0</ele><time>2026-04-11T13:30:15.93Z</time></trkpt><trkpt lat="45.4516525451155" lon="7.840441423581222"><ele>261.0</ele><time>2026-04-11T13:30:16.93Z</time></trkpt><trkpt lat="45.45170931373439" lon="7.840306786786664"><ele>261.0</ele><time>2026-04-11T13:30:17.93Z</time></trkpt><trkpt lat="45.451762037678265" lon="7.8401927670849405"><ele>261.0</ele><time>2026-04-11T13:30:18.93Z</time></trkpt><trkpt lat="45.451816679719435" lon="7.8401205670887695"><ele>261.40000000000003</ele><time>2026-04-11T13:30:19.93Z</time></trkpt><trkpt lat="45.45188553283491" lon="7.8400550732245"><ele>261.8</ele><time>2026-04-11T13:30:20.93Z</time></trkpt><trkpt lat="45.45196298297865" lon="7.840005904041123"><ele>262.20000000000005</ele><time>2026-04-11T13:30:21.93Z</time></trkpt><trkpt lat="45.452040012240346" lon="7.839965822005895"><ele>262.6</ele><time>2026-04-11T13:30:22.93Z</time></trkpt><trkpt lat="45.45217291221102" lon="7.839913452460926"><ele>263.0</ele><time>2026-04-11T13:30:24.93Z</time></trkpt><trkpt lat="45.45224810032185" lon="7.839906558112829"><ele>265.1666666666667</ele><time>2026-04-11T13:30:25.93Z</time></trkpt><trkpt lat="45.45233140633528" lon="7.8398962269336545"><ele>267.33333333333337</ele><time>2026-04-11T13:30:26.93Z</time></trkpt><trkpt lat="45.45244092455671" lon="7.839844834596545"><ele>269.5</ele><time>2026-04-11T13:30:28.93Z</time></trkpt><trkpt lat="45.45248610734372" lon="7.8399145318698205"><ele>271.6666666666667</ele><time>2026-04-11T13:30:35.924Z</time></trkpt><trkpt lat="45.45257642162508" lon="7.839931008415706"><ele>273.8333333333333</ele><time>2026-04-11T13:30:45.925Z</time></trkpt><trkpt lat="45.45264299340608" lon="7.839954503201076"><ele>276.0</ele><time>2026-04-11T13:33:16.921Z</time></trkpt><trkpt lat="45.452723054898776" lon="7.8399535435491785"><ele>276.0</ele><time>2026-04-11T13:33:19.921Z</time></trkpt><trkpt lat="45.452785504069" lon="7.839979577271581"><ele>276.0</ele><time>2026-04-11T13:33:21.921Z</time></trkpt><trkpt lat="45.45286228468049" lon="7.840019137723834"><ele>276.0</ele><time>2026-04-11T13:33:23.921Z</time></trkpt><trkpt lat="45.45298545611652" lon="7.84007382567276"><ele>276.0</ele><time>2026-04-11T13:33:25.921Z</time></trkpt><trkpt lat="45.45306789474099" lon="7.840093128169911"><ele>276.0</ele><time>2026-04-11T13:33:26.921Z</time></trkpt><trkpt lat="45.45315363867834" lon="7.840100753105348"><ele>276.0</ele><time>2026-04-11T13:33:27.921Z</time></trkpt><trkpt lat="45.45324322554755" lon="7.840095287975451"><ele>276.1666666666667</ele><time>2026-04-11T13:33:28.921Z</time></trkpt><trkpt lat="45.45332343373613" lon="7.840068174268882"><ele>276.3333333333333</ele><time>2026-04-11T13:33:29.921Z</time></trkpt><trkpt lat="45.453394964429314" lon="7.840027826845451"><ele>276.5</ele><time>2026-04-11T13:33:30.921Z</time></trkpt><trkpt lat="45.45346389554449" lon="7.839969813313432"><ele>276.66666666666663</ele><time>2026-04-11T13:33:31.921Z</time></trkpt><trkpt lat="45.45354331283884" lon="7.839866739798805"><ele>276.8333333333333</ele><time>2026-04-11T13:33:32.921Z</time></trkpt><trkpt lat="45.45360635193542" lon="7.839777854844356"><ele>277.0</ele><time>2026-04-11T13:33:33.921Z</time></trkpt><trkpt lat="45.45365664457424" lon="7.839719565341048"><ele>277.0</ele><time>2026-04-11T13:33:34.921Z</time></trkpt><trkpt lat="45.453717921179184" lon="7.8396753428928445"><ele>277.0</ele><time>2026-04-11T13:33:35.921Z</time></trkpt><trkpt lat="45.45382056261469" lon="7.839710626549746"><ele>277.0</ele><time>2026-04-11T13:33:37.921Z</time></trkpt><trkpt lat="45.4539015321998" lon="7.839804342520923"><ele>277.0</ele><time>2026-04-11T13:33:39.921Z</time></trkpt><trkpt lat="45.45393650292668" lon="7.839977739322183"><ele>277.0</ele><time>2026-04-11T13:33:41.921Z</time></trkpt><trkpt lat="45.45396501993364" lon="7.840086147451026"><ele>278.0</ele><time>2026-04-11T13:33:42.921Z</time></trkpt><trkpt lat="45.453989140527625" lon="7.840206057875265"><ele>279.0</ele><time>2026-04-11T13:33:43.921Z</time></trkpt><trkpt lat="45.454014051743236" lon="7.840296231159527"><ele>280.0</ele><time>2026-04-11T13:33:44.921Z</time></trkpt><trkpt lat="45.45407517628191" lon="7.840355063341424"><ele>281.0</ele><time>2026-04-11T13:33:46.921Z</time></trkpt><trkpt lat="45.45419754732928" lon="7.84024296140903"><ele>282.0</ele><time>2026-04-11T13:33:48.921Z</time></trkpt><trkpt lat="45.454294315187326" lon="7.840181009030269"><ele>279.8</ele><time>2026-04-11T13:33:49.921Z</time></trkpt><trkpt lat="45.45439029356211" lon="7.840114613490696"><ele>277.6</ele><time>2026-04-11T13:33:50.921Z</time></trkpt><trkpt lat="45.454481527264306" lon="7.840043938527587"><ele>275.40000000000003</ele><time>2026-04-11T13:33:51.921Z</time></trkpt><trkpt lat="45.45455588479269" lon="7.839967559661167"><ele>273.2</ele><time>2026-04-11T13:33:52.921Z</time></trkpt><trkpt lat="45.45462276919292" lon="7.839881409785206"><ele>271.0</ele><time>2026-04-11T13:33:53.921Z</time></trkpt><trkpt lat="45.45468533278186" lon="7.839777912599309"><ele>269.8333333333333</ele><time>2026-04-11T13:33:54.921Z</time></trkpt><trkpt lat="45.454717620395584" lon="7.839677353423623"><ele>268.66666666666663</ele><time>2026-04-11T13:33:55.921Z</time></trkpt><trkpt lat="45.454733126940184" lon="7.839560697201419"><ele>267.5</ele><time>2026-04-11T13:33:56.921Z</time></trkpt><trkpt lat="45.45475138708687" lon="7.839430507494133"><ele>266.3333333333333</ele><time>2026-04-11T13:33:57.921Z</time></trkpt><trkpt lat="45.454779230027476" lon="7.839318016322595"><ele>265.1666666666667</ele><time>2026-04-11T13:33:58.921Z</time></trkpt><trkpt lat="45.45482141992929" lon="7.839229038617022"><ele>264.0</ele><time>2026-04-11T13:33:59.921Z</time></trkpt><trkpt lat="45.454869136412135" lon="7.839144176436146"><ele>264.0</ele><time>2026-04-11T13:34:00.921Z</time></trkpt><trkpt lat="45.45493376084639" lon="7.839068219346844"><ele>264.0</ele><time>2026-04-11T13:34:01.921Z</time></trkpt><trkpt lat="45.455007462094144" lon="7.839000945972558"><ele>264.0</ele><time>2026-04-11T13:34:02.921Z</time></trkpt><trkpt lat="45.45507654642054" lon="7.838930955712004"><ele>264.0</ele><time>2026-04-11T13:34:03.921Z</time></trkpt><trkpt lat="45.45514399025136" lon="7.838837767952382"><ele>264.0</ele><time>2026-04-11T13:34:04.921Z</time></trkpt><trkpt lat="45.45517313564471" lon="7.8387344541545465"><ele>264.0</ele><time>2026-04-11T13:34:05.921Z</time></trkpt><trkpt lat="45.455118763188246" lon="7.838584129884949"><ele>264.0</ele><time>2026-04-11T13:34:07.921Z</time></trkpt><trkpt lat="45.455145525733315" lon="7.838481460226694"><ele>264.0</ele><time>2026-04-11T13:34:09.921Z</time></trkpt><trkpt lat="45.45528161291817" lon="7.838497425853306"><ele>264.0</ele><time>2026-04-11T13:34:11.921Z</time></trkpt><trkpt lat="45.45537563375501" lon="7.8385103127916675"><ele>264.0</ele><time>2026-04-11T13:34:12.921Z</time></trkpt><trkpt lat="45.45544142733299" lon="7.8385328734693225"><ele>264.0</ele><time>2026-04-11T13:34:13.921Z</time></trkpt><trkpt lat="45.45550445128967" lon="7.8385460419320925"><ele>264.0</ele><time>2026-04-11T13:34:14.921Z</time></trkpt><trkpt lat="45.45557101085073" lon="7.838607571662075"><ele>261.3333333333333</ele><time>2026-04-11T13:34:15.921Z</time></trkpt><trkpt lat="45.455619507186285" lon="7.838703398094091"><ele>258.6666666666667</ele><time>2026-04-11T13:34:16.921Z</time></trkpt><trkpt lat="45.45563969872802" lon="7.838816503783662"><ele>256.0</ele><time>2026-04-11T13:34:17.921Z</time></trkpt><trkpt lat="45.45566724330997" lon="7.838945302795568"><ele>253.33333333333334</ele><time>2026-04-11T13:34:18.921Z</time></trkpt><trkpt lat="45.45568976204327" lon="7.839078130183018"><ele>250.66666666666669</ele><time>2026-04-11T13:34:19.921Z</time></trkpt><trkpt lat="45.45570915677286" lon="7.839203776630607"><ele>248.0</ele><time>2026-04-11T13:34:20.921Z</time></trkpt><trkpt lat="45.45574106157352" lon="7.8393270257458205"><ele>247.4</ele><time>2026-04-11T13:34:21.921Z</time></trkpt><trkpt lat="45.45579705609968" lon="7.839429171173321"><ele>246.8</ele><time>2026-04-11T13:34:22.921Z</time></trkpt><trkpt lat="45.45582620626752" lon="7.839552334843035"><ele>246.2</ele><time>2026-04-11T13:34:23.921Z</time></trkpt><trkpt lat="45.45586762413184" lon="7.839683181929494"><ele>245.6</ele><time>2026-04-11T13:34:24.921Z</time></trkpt><trkpt lat="45.45589751357528" lon="7.839800775195518"><ele>245.0</ele><time>2026-04-11T13:34:25.921Z</time></trkpt><trkpt lat="45.4559254020374" lon="7.839911806857388"><ele>245.00000000000003</ele><time>2026-04-11T13:34:26.921Z</time></trkpt><trkpt lat="45.45594845019612" lon="7.840007471111006"><ele>245.0</ele><time>2026-04-11T13:34:27.921Z</time></trkpt><trkpt lat="45.45597523379638" lon="7.840109359767772"><ele>245.0</ele><time>2026-04-11T13:34:28.921Z</time></trkpt><trkpt lat="45.455998548507694" lon="7.840214941971306"><ele>245.0</ele><time>2026-04-11T13:34:29.921Z</time></trkpt><trkpt lat="45.45602675049912" lon="7.840317400981301"><ele>245.00000000000003</ele><time>2026-04-11T13:34:30.921Z</time></trkpt><trkpt lat="45.45604565195329" lon="7.840418076628987"><ele>245.0</ele><time>2026-04-11T13:34:31.921Z</time></trkpt><trkpt lat="45.45606986830422" lon="7.840523509017257"><ele>245.50000000000003</ele><time>2026-04-11T13:34:32.921Z</time></trkpt><trkpt lat="45.456089095096104" lon="7.840630545545587"><ele>246.0</ele><time>2026-04-11T13:34:33.921Z</time></trkpt><trkpt lat="45.45609884935148" lon="7.8407456001433085"><ele>246.5</ele><time>2026-04-11T13:34:34.921Z</time></trkpt><trkpt lat="45.45612305467847" lon="7.840865902375284"><ele>247.0</ele><time>2026-04-11T13:34:35.921Z</time></trkpt><trkpt lat="45.45614825135662" lon="7.840991131714331"><ele>247.50000000000003</ele><time>2026-04-11T13:34:36.921Z</time></trkpt><trkpt lat="45.456179274191236" lon="7.841137480058756"><ele>248.0</ele><time>2026-04-11T13:34:37.921Z</time></trkpt><trkpt lat="45.456210677396555" lon="7.841285111253534"><ele>248.5</ele><time>2026-04-11T13:34:38.921Z</time></trkpt><trkpt lat="45.456259202977634" lon="7.841429597954148"><ele>249.0</ele><time>2026-04-11T13:34:39.921Z</time></trkpt><trkpt lat="45.456279855064075" lon="7.841592821594381"><ele>249.5</ele><time>2026-04-11T13:34:40.921Z</time></trkpt><trkpt lat="45.45633180619285" lon="7.841744633744613"><ele>250.0</ele><time>2026-04-11T13:34:41.921Z</time></trkpt><trkpt lat="45.45637035153455" lon="7.841893769620506"><ele>250.75</ele><time>2026-04-11T13:34:42.921Z</time></trkpt><trkpt lat="45.45640746777008" lon="7.8420485335763"><ele>251.5</ele><time>2026-04-11T13:34:43.918Z</time></trkpt><trkpt lat="45.45644024661257" lon="7.842184908570022"><ele>252.25</ele><time>2026-04-11T13:34:44.918Z</time></trkpt><trkpt lat="45.456483901665464" lon="7.8423304370214595"><ele>253.0</ele><time>2026-04-11T13:34:45.918Z</time></trkpt><trkpt lat="45.456529644047514" lon="7.842496304399402"><ele>253.0</ele><time>2026-04-11T13:34:46.917Z</time></trkpt><trkpt lat="45.4565520429698" lon="7.842673840512628"><ele>253.0</ele><time>2026-04-11T13:34:47.917Z</time></trkpt><trkpt lat="45.45658022664411" lon="7.84283322235563"><ele>253.0</ele><time>2026-04-11T13:34:48.917Z</time></trkpt><trkpt lat="45.45662647320941" lon="7.843007546251025"><ele>253.0</ele><time>2026-04-11T13:34:49.917Z</time></trkpt><trkpt lat="45.45664923958378" lon="7.843185579829309"><ele>253.0</ele><time>2026-04-11T13:34:50.917Z</time></trkpt><trkpt lat="45.456683926491884" lon="7.843362482331021"><ele>253.0</ele><time>2026-04-11T13:34:51.917Z</time></trkpt><trkpt lat="45.456717502852975" lon="7.843532358237437"><ele>253.0</ele><time>2026-04-11T13:34:52.918Z</time></trkpt><trkpt lat="45.45673858017268" lon="7.8437060952406"><ele>253.0</ele><time>2026-04-11T13:34:53.917Z</time></trkpt><trkpt lat="45.45677037763699" lon="7.843871238383923"><ele>252.75</ele><time>2026-04-11T13:34:54.917Z</time></trkpt><trkpt lat="45.45681450381383" lon="7.844021732279697"><ele>252.5</ele><time>2026-04-11T13:34:55.917Z</time></trkpt><trkpt lat="45.45684670271843" lon="7.844189401039433"><ele>252.25</ele><time>2026-04-11T13:34:56.917Z</time></trkpt><trkpt lat="45.45688344503968" lon="7.844357491926723"><ele>252.0</ele><time>2026-04-11T13:34:57.917Z</time></trkpt><trkpt lat="45.456918642240595" lon="7.844517911472659"><ele>254.0</ele><time>2026-04-11T13:34:58.917Z</time></trkpt><trkpt lat="45.45695251229248" lon="7.84467329214435"><ele>256.0</ele><time>2026-04-11T13:34:59.917Z</time></trkpt><trkpt lat="45.456987964759136" lon="7.844835355898482"><ele>258.0</ele><time>2026-04-11T13:35:00.917Z</time></trkpt><trkpt lat="45.457026119873994" lon="7.844999190603759"><ele>260.0</ele><time>2026-04-11T13:35:01.917Z</time></trkpt><trkpt lat="45.45706357674843" lon="7.845165651475548"><ele>261.4</ele><time>2026-04-11T13:35:02.917Z</time></trkpt><trkpt lat="45.45707959178236" lon="7.84532513152559"><ele>262.8</ele><time>2026-04-11T13:35:03.917Z</time></trkpt><trkpt lat="45.457103786653626" lon="7.845471795349366"><ele>264.2</ele><time>2026-04-11T13:35:04.917Z</time></trkpt><trkpt lat="45.45712370791267" lon="7.845621401744174"><ele>265.6</ele><time>2026-04-11T13:35:05.917Z</time></trkpt><trkpt lat="45.457138681956714" lon="7.845757993222753"><ele>267.0</ele><time>2026-04-11T13:35:06.917Z</time></trkpt><trkpt lat="45.45716491628485" lon="7.845899942609017"><ele>264.8</ele><time>2026-04-11T13:35:07.917Z</time></trkpt><trkpt lat="45.45717921638114" lon="7.8460502584179"><ele>262.6</ele><time>2026-04-11T13:35:08.917Z</time></trkpt><trkpt lat="45.45719749617712" lon="7.846199900423913"><ele>260.40000000000003</ele><time>2026-04-11T13:35:09.917Z</time></trkpt><trkpt lat="45.4572106906492" lon="7.846350285329185"><ele>258.2</ele><time>2026-04-11T13:35:10.917Z</time></trkpt><trkpt lat="45.45723308924164" lon="7.846486321613089"><ele>256.0</ele><time>2026-04-11T13:35:11.917Z</time></trkpt><trkpt lat="45.45723924473334" lon="7.8466035126496045"><ele>256.0</ele><time>2026-04-11T13:35:12.917Z</time></trkpt><trkpt lat="45.45725410494905" lon="7.846702216542164"><ele>256.0</ele><time>2026-04-11T13:35:13.917Z</time></trkpt><trkpt lat="45.45726717951939" lon="7.8468134121361865"><ele>256.0</ele><time>2026-04-11T13:35:15.917Z</time></trkpt><trkpt lat="45.45729799612973" lon="7.8469324491709465"><ele>256.0</ele><time>2026-04-11T13:35:20.917Z</time></trkpt><trkpt lat="45.45729663509417" lon="7.847057435842277"><ele>256.0</ele><time>2026-04-11T13:35:22.917Z</time></trkpt><trkpt lat="45.458400212142514" lon="7.84682927082439"><ele>254.0</ele><time>2026-04-11T13:35:30.917Z</time></trkpt><trkpt lat="45.45856530428779" lon="7.846750046956851"><ele>252.0</ele><time>2026-04-11T13:35:31.917Z</time></trkpt><trkpt lat="45.45875414359319" lon="7.846656679944252"><ele>250.0</ele><time>2026-04-11T13:35:32.917Z</time></trkpt><trkpt lat="45.45903085929335" lon="7.84647403295886"><ele>249.0</ele><time>2026-04-11T13:35:33.917Z</time></trkpt><trkpt lat="45.459293781692146" lon="7.846350675808878"><ele>248.0</ele><time>2026-04-11T13:35:34.917Z</time></trkpt><trkpt lat="45.459459216303536" lon="7.846260536989434"><ele>248.0</ele><time>2026-04-11T13:35:35.917Z</time></trkpt><trkpt lat="45.459599544343625" lon="7.846188546463827"><ele>248.0</ele><time>2026-04-11T13:35:36.917Z</time></trkpt><trkpt lat="45.45973757632635" lon="7.8461042273994295"><ele>248.0</ele><time>2026-04-11T13:35:37.917Z</time></trkpt><trkpt lat="45.459863218677036" lon="7.8460126855332835"><ele>248.0</ele><time>2026-04-11T13:35:38.917Z</time></trkpt><trkpt lat="45.459986429250364" lon="7.845926175107795"><ele>247.75</ele><time>2026-04-11T13:35:39.917Z</time></trkpt><trkpt lat="45.46009825224174" lon="7.845834482060016"><ele>247.5</ele><time>2026-04-11T13:35:40.917Z</time></trkpt><trkpt lat="45.46021451189549" lon="7.845769610549401"><ele>247.25</ele><time>2026-04-11T13:35:41.917Z</time></trkpt><trkpt lat="45.46033939454865" lon="7.845675581030979"><ele>247.0</ele><time>2026-04-11T13:35:42.917Z</time></trkpt><trkpt lat="45.46045684435386" lon="7.845577149257878"><ele>247.0</ele><time>2026-04-11T13:35:43.917Z</time></trkpt><trkpt lat="45.46057659362913" lon="7.845484753455864"><ele>247.0</ele><time>2026-04-11T13:35:44.917Z</time></trkpt><trkpt lat="45.46069465018661" lon="7.8454009985822255"><ele>247.0</ele><time>2026-04-11T13:35:45.917Z</time></trkpt><trkpt lat="45.46081299339535" lon="7.845321594047489"><ele>247.0</ele><time>2026-04-11T13:35:46.917Z</time></trkpt><trkpt lat="45.460924206285874" lon="7.845254706794452"><ele>247.0</ele><time>2026-04-11T13:35:47.917Z</time></trkpt><trkpt lat="45.46102056697726" lon="7.845249688680261"><ele>247.0</ele><time>2026-04-11T13:35:48.917Z</time></trkpt><trkpt lat="45.46108526837688" lon="7.845307059037642"><ele>247.0</ele><time>2026-04-11T13:35:49.917Z</time></trkpt><trkpt lat="45.46063605251234" lon="7.845517255998178"><ele>247.0</ele><time>2026-04-11T13:35:50.917Z</time></trkpt><trkpt lat="45.460836987932296" lon="7.845487464782525"><ele>247.0</ele><time>2026-04-11T13:35:51.917Z</time></trkpt><trkpt lat="45.46105521731788" lon="7.845397743572907"><ele>247.0</ele><time>2026-04-11T13:35:52.917Z</time></trkpt><trkpt lat="45.46098861077261" lon="7.845398672178472"><ele>247.0</ele><time>2026-04-11T13:35:53.917Z</time></trkpt><trkpt lat="45.46124364251106" lon="7.845274612694832"><ele>247.0</ele><time>2026-04-11T13:35:54.917Z</time></trkpt><trkpt lat="45.46144087393573" lon="7.845174890211605"><ele>246.33333333333331</ele><time>2026-04-11T13:35:55.917Z</time></trkpt><trkpt lat="45.461655452596794" lon="7.845061320048332"><ele>245.66666666666669</ele><time>2026-04-11T13:35:56.917Z</time></trkpt><trkpt lat="45.46182914136816" lon="7.844989181405236"><ele>245.0</ele><time>2026-04-11T13:35:57.917Z</time></trkpt><trkpt lat="45.461990116035246" lon="7.844925369669867"><ele>245.0</ele><time>2026-04-11T13:35:58.917Z</time></trkpt><trkpt lat="45.462138499473944" lon="7.844867175960186"><ele>245.0</ele><time>2026-04-11T13:35:59.917Z</time></trkpt><trkpt lat="45.46225393468417" lon="7.844796522650116"><ele>245.0</ele><time>2026-04-11T13:36:00.917Z</time></trkpt><trkpt lat="45.4623482574658" lon="7.844680854235708"><ele>245.0</ele><time>2026-04-11T13:36:01.917Z</time></trkpt><trkpt lat="45.46244739720422" lon="7.844548329656079"><ele>245.0</ele><time>2026-04-11T13:36:02.917Z</time></trkpt><trkpt lat="45.462552240460056" lon="7.844463270439503"><ele>245.0</ele><time>2026-04-11T13:36:03.917Z</time></trkpt><trkpt lat="45.462670217134175" lon="7.844409721312024"><ele>245.0</ele><time>2026-04-11T13:36:04.917Z</time></trkpt><trkpt lat="45.46276924584358" lon="7.844318953162779"><ele>245.0</ele><time>2026-04-11T13:36:05.917Z</time></trkpt><trkpt lat="45.46285626724766" lon="7.8442175801104"><ele>245.0</ele><time>2026-04-11T13:36:06.917Z</time></trkpt><trkpt lat="45.46294735233899" lon="7.844102294008446"><ele>245.0</ele><time>2026-04-11T13:36:07.917Z</time></trkpt><trkpt lat="45.46300972218691" lon="7.844012155557661"><ele>245.0</ele><time>2026-04-11T13:36:08.917Z</time></trkpt><trkpt lat="45.46306105975408" lon="7.843904299661388"><ele>245.0</ele><time>2026-04-11T13:36:09.917Z</time></trkpt><trkpt lat="45.46311692643538" lon="7.843778456316535"><ele>245.0</ele><time>2026-04-11T13:36:10.917Z</time></trkpt><trkpt lat="45.4631784574292" lon="7.843644949886255"><ele>245.0</ele><time>2026-04-11T13:36:11.917Z</time></trkpt><trkpt lat="45.46326063080474" lon="7.84351262562575"><ele>245.0</ele><time>2026-04-11T13:36:12.917Z</time></trkpt><trkpt lat="45.463324244418935" lon="7.843390862059467"><ele>245.0</ele><time>2026-04-11T13:36:13.917Z</time></trkpt><trkpt lat="45.46337699652535" lon="7.843308666880604"><ele>245.0</ele><time>2026-04-11T13:36:14.917Z</time></trkpt><trkpt lat="45.46347224274283" lon="7.8432625775120535"><ele>245.0</ele><time>2026-04-11T13:36:16.917Z</time></trkpt><trkpt lat="45.463562073788786" lon="7.84312465788879"><ele>245.0</ele><time>2026-04-11T13:36:18.917Z</time></trkpt><trkpt lat="45.46361111058974" lon="7.842999124220452"><ele>245.0</ele><time>2026-04-11T13:36:19.917Z</time></trkpt><trkpt lat="45.4636778840547" lon="7.842884339589916"><ele>245.0</ele><time>2026-04-11T13:36:20.917Z</time></trkpt><trkpt lat="45.4637328260724" lon="7.842784362034304"><ele>245.0</ele><time>2026-04-11T13:36:21.917Z</time></trkpt><trkpt lat="45.46375530362143" lon="7.842699712192983"><ele>245.0</ele><time>2026-04-11T13:36:22.917Z</time></trkpt><trkpt lat="45.46366624411388" lon="7.84257101818223"><ele>244.8</ele><time>2026-04-11T13:36:24.917Z</time></trkpt><trkpt lat="45.46357981305592" lon="7.842510440217876"><ele>244.6</ele><time>2026-04-11T13:36:25.917Z</time></trkpt><trkpt lat="45.4635113009953" lon="7.8424048644491995"><ele>244.39999999999998</ele><time>2026-04-11T13:36:26.917Z</time></trkpt><trkpt lat="45.463438894403865" lon="7.842280302075447"><ele>244.2</ele><time>2026-04-11T13:36:27.917Z</time></trkpt><trkpt lat="45.46336999088432" lon="7.842139433630061"><ele>244.0</ele><time>2026-04-11T13:36:28.917Z</time></trkpt><trkpt lat="45.46331062699849" lon="7.841972939949323"><ele>244.0</ele><time>2026-04-11T13:36:29.917Z</time></trkpt><trkpt lat="45.46327191229022" lon="7.841799834043219"><ele>244.0</ele><time>2026-04-11T13:36:30.917Z</time></trkpt><trkpt lat="45.46325808372935" lon="7.841637348165692"><ele>244.0</ele><time>2026-04-11T13:36:31.917Z</time></trkpt><trkpt lat="45.463237028298714" lon="7.841464524354935"><ele>244.0</ele><time>2026-04-11T13:36:32.917Z</time></trkpt><trkpt lat="45.463231286412494" lon="7.84130039209487"><ele>244.0</ele><time>2026-04-11T13:36:33.917Z</time></trkpt><trkpt lat="45.46324996296116" lon="7.841115803346352"><ele>244.0</ele><time>2026-04-11T13:36:34.917Z</time></trkpt><trkpt lat="45.463282800104146" lon="7.840921426995146"><ele>244.0</ele><time>2026-04-11T13:36:35.917Z</time></trkpt><trkpt lat="45.46333395620991" lon="7.840733417436681"><ele>244.0</ele><time>2026-04-11T13:36:36.917Z</time></trkpt><trkpt lat="45.46339846170525" lon="7.840543511416575"><ele>244.0</ele><time>2026-04-11T13:36:37.917Z</time></trkpt><trkpt lat="45.463451158858604" lon="7.840355672460357"><ele>244.0</ele><time>2026-04-11T13:36:38.917Z</time></trkpt><trkpt lat="45.463501453292686" lon="7.840165863963034"><ele>244.0</ele><time>2026-04-11T13:36:39.917Z</time></trkpt><trkpt lat="45.46354933945107" lon="7.839972357787339"><ele>244.0</ele><time>2026-04-11T13:36:40.917Z</time></trkpt><trkpt lat="45.46359414626518" lon="7.839777132056713"><ele>244.0</ele><time>2026-04-11T13:36:41.917Z</time></trkpt><trkpt lat="45.46364039717828" lon="7.839587298987541"><ele>244.0</ele><time>2026-04-11T13:36:42.917Z</time></trkpt><trkpt lat="45.46368936798086" lon="7.839396361218537"><ele>244.0</ele><time>2026-04-11T13:36:43.917Z</time></trkpt><trkpt lat="45.46373679381303" lon="7.839203806616455"><ele>244.0</ele><time>2026-04-11T13:36:44.917Z</time></trkpt><trkpt lat="45.463796166768084" lon="7.83902304619506"><ele>244.25</ele><time>2026-04-11T13:36:45.917Z</time></trkpt><trkpt lat="45.46386250052305" lon="7.838850838160318"><ele>244.5</ele><time>2026-04-11T13:36:46.917Z</time></trkpt><trkpt lat="45.4639444335988" lon="7.838687937463357"><ele>244.75</ele><time>2026-04-11T13:36:47.917Z</time></trkpt><trkpt lat="45.46402406346753" lon="7.838526265768032"><ele>245.0</ele><time>2026-04-11T13:36:48.917Z</time></trkpt><trkpt lat="45.46410957821578" lon="7.838368838702656"><ele>245.0</ele><time>2026-04-11T13:36:49.913Z</time></trkpt><trkpt lat="45.4641997146675" lon="7.838210133665716"><ele>245.0</ele><time>2026-04-11T13:36:50.913Z</time></trkpt><trkpt lat="45.464296593899576" lon="7.8380649123532296"><ele>245.0</ele><time>2026-04-11T13:36:51.913Z</time></trkpt><trkpt lat="45.464399105431454" lon="7.837926310764342"><ele>245.0</ele><time>2026-04-11T13:36:52.913Z</time></trkpt><trkpt lat="45.46449853263075" lon="7.837784541812338"><ele>245.0</ele><time>2026-04-11T13:36:53.913Z</time></trkpt><trkpt lat="45.464593044642875" lon="7.837652606470004"><ele>245.0</ele><time>2026-04-11T13:36:54.913Z</time></trkpt><trkpt lat="45.46467768112582" lon="7.8375191606246855"><ele>245.0</ele><time>2026-04-11T13:36:55.913Z</time></trkpt><trkpt lat="45.46474868840956" lon="7.837382348940405"><ele>245.0</ele><time>2026-04-11T13:36:56.913Z</time></trkpt><trkpt lat="45.46480724768703" lon="7.83724772411691"><ele>244.8</ele><time>2026-04-11T13:36:57.913Z</time></trkpt><trkpt lat="45.464850283259054" lon="7.83714715024851"><ele>244.6</ele><time>2026-04-11T13:36:58.913Z</time></trkpt><trkpt lat="45.464919269938136" lon="7.837086537899094"><ele>244.39999999999998</ele><time>2026-04-11T13:36:59.913Z</time></trkpt><trkpt lat="45.46499635957281" lon="7.836994710480428"><ele>244.2</ele><time>2026-04-11T13:37:00.913Z</time></trkpt><trkpt lat="45.46507199250815" lon="7.836859421347195"><ele>244.0</ele><time>2026-04-11T13:37:01.913Z</time></trkpt><trkpt lat="45.46513209764439" lon="7.836721257851902"><ele>244.0</ele><time>2026-04-11T13:37:02.912Z</time></trkpt><trkpt lat="45.46517992621742" lon="7.836576952454951"><ele>243.99999999999997</ele><time>2026-04-11T13:37:03.912Z</time></trkpt><trkpt lat="45.465232009444044" lon="7.836427885691163"><ele>243.99999999999997</ele><time>2026-04-11T13:37:04.912Z</time></trkpt><trkpt lat="45.465281393282105" lon="7.83628857244142"><ele>244.0</ele><time>2026-04-11T13:37:05.912Z</time></trkpt><trkpt lat="45.46531561195491" lon="7.836152525462165"><ele>244.0</ele><time>2026-04-11T13:37:06.912Z</time></trkpt><trkpt lat="45.46532940514669" lon="7.836033327160976"><ele>243.83333333333331</ele><time>2026-04-11T13:37:07.912Z</time></trkpt><trkpt lat="45.46532473457751" lon="7.8359355306954495"><ele>243.66666666666666</ele><time>2026-04-11T13:37:08.912Z</time></trkpt><trkpt lat="45.46537489191797" lon="7.835842771608017"><ele>243.5</ele><time>2026-04-11T13:37:10.912Z</time></trkpt><trkpt lat="45.46542194260972" lon="7.835779551561595"><ele>243.33333333333331</ele><time>2026-04-11T13:37:11.912Z</time></trkpt><trkpt lat="45.46547982259459" lon="7.835688098913363"><ele>243.16666666666666</ele><time>2026-04-11T13:37:12.912Z</time></trkpt><trkpt lat="45.46551537514614" lon="7.835538910934388"><ele>243.0</ele><time>2026-04-11T13:37:13.912Z</time></trkpt><trkpt lat="45.465542281932954" lon="7.835371291056797"><ele>243.5</ele><time>2026-04-11T13:37:14.912Z</time></trkpt><trkpt lat="45.46557083181637" lon="7.835199527527881"><ele>244.0</ele><time>2026-04-11T13:37:15.912Z</time></trkpt><trkpt lat="45.46559317620743" lon="7.835030053766299"><ele>244.5</ele><time>2026-04-11T13:37:16.913Z</time></trkpt><trkpt lat="45.465610304489324" lon="7.834848855730401"><ele>245.0</ele><time>2026-04-11T13:37:17.913Z</time></trkpt><trkpt lat="45.465624122943346" lon="7.834659236563636"><ele>245.0</ele><time>2026-04-11T13:37:18.913Z</time></trkpt><trkpt lat="45.46563564546776" lon="7.834471435743186"><ele>245.0</ele><time>2026-04-11T13:37:19.913Z</time></trkpt><trkpt lat="45.46564817775506" lon="7.834285025572274"><ele>245.0</ele><time>2026-04-11T13:37:20.913Z</time></trkpt><trkpt lat="45.465650573597955" lon="7.8340942237080045"><ele>245.0</ele><time>2026-04-11T13:37:21.913Z</time></trkpt><trkpt lat="45.4656410663633" lon="7.833900887910253"><ele>245.0</ele><time>2026-04-11T13:37:22.913Z</time></trkpt><trkpt lat="45.465629155180245" lon="7.833714083752918"><ele>245.0</ele><time>2026-04-11T13:37:23.913Z</time></trkpt><trkpt lat="45.465616713362095" lon="7.833521928250167"><ele>245.0</ele><time>2026-04-11T13:37:24.913Z</time></trkpt><trkpt lat="45.465596175656174" lon="7.833334467467828"><ele>245.0</ele><time>2026-04-11T13:37:25.913Z</time></trkpt><trkpt lat="45.46556083136844" lon="7.833154270459736"><ele>245.0</ele><time>2026-04-11T13:37:26.913Z</time></trkpt><trkpt lat="45.46551119495992" lon="7.832979642376137"><ele>245.0</ele><time>2026-04-11T13:37:27.913Z</time></trkpt><trkpt lat="45.465458474745944" lon="7.8328107863007395"><ele>245.0</ele><time>2026-04-11T13:37:28.913Z</time></trkpt><trkpt lat="45.46539874854852" lon="7.832657361629005"><ele>245.0</ele><time>2026-04-11T13:37:29.913Z</time></trkpt><trkpt lat="45.465347184963754" lon="7.83252280518001"><ele>244.8</ele><time>2026-04-11T13:37:30.913Z</time></trkpt><trkpt lat="45.46530186319685" lon="7.832391535547336"><ele>244.6</ele><time>2026-04-11T13:37:31.913Z</time></trkpt><trkpt lat="45.4652708121752" lon="7.83225698905999"><ele>244.39999999999998</ele><time>2026-04-11T13:37:32.913Z</time></trkpt><trkpt lat="45.465250636284914" lon="7.832113938139126"><ele>244.2</ele><time>2026-04-11T13:37:33.913Z</time></trkpt><trkpt lat="45.46524393680682" lon="7.8319506215003"><ele>244.0</ele><time>2026-04-11T13:37:34.913Z</time></trkpt><trkpt lat="45.46525173389482" lon="7.831784310018075"><ele>244.0</ele><time>2026-04-11T13:37:35.913Z</time></trkpt><trkpt lat="45.46527408050609" lon="7.831615044433493"><ele>244.0</ele><time>2026-04-11T13:37:36.913Z</time></trkpt><trkpt lat="45.46530762238344" lon="7.831450251775465"><ele>244.0</ele><time>2026-04-11T13:37:37.913Z</time></trkpt><trkpt lat="45.46534264613176" lon="7.831292499933233"><ele>244.0</ele><time>2026-04-11T13:37:38.913Z</time></trkpt><trkpt lat="45.46537431887908" lon="7.831161594737726"><ele>243.99999999999997</ele><time>2026-04-11T13:37:39.913Z</time></trkpt><trkpt lat="45.46539570782502" lon="7.831050162576334"><ele>244.0</ele><time>2026-04-11T13:37:40.913Z</time></trkpt><trkpt lat="45.46541649265569" lon="7.830959165928019"><ele>244.0</ele><time>2026-04-11T13:37:41.913Z</time></trkpt><trkpt lat="45.465448356776974" lon="7.830875574629684"><ele>244.0</ele><time>2026-04-11T13:37:42.913Z</time></trkpt><trkpt lat="45.46555058598595" lon="7.830811804719422"><ele>243.99999999999997</ele><time>2026-04-11T13:37:44.913Z</time></trkpt><trkpt lat="45.465618582742934" lon="7.83082443192797"><ele>244.0</ele><time>2026-04-11T13:37:45.913Z</time></trkpt><trkpt lat="45.46570690183688" lon="7.830881626053994"><ele>244.16666666666666</ele><time>2026-04-11T13:37:46.913Z</time></trkpt><trkpt lat="45.46576967091035" lon="7.830949551005277"><ele>244.33333333333331</ele><time>2026-04-11T13:37:47.913Z</time></trkpt><trkpt lat="45.46584623412878" lon="7.831003652677694"><ele>244.5</ele><time>2026-04-11T13:37:48.913Z</time></trkpt><trkpt lat="45.46591968750096" lon="7.8310479000498425"><ele>244.66666666666669</ele><time>2026-04-11T13:37:49.913Z</time></trkpt><trkpt lat="45.466000506907704" lon="7.831097887823603"><ele>244.83333333333334</ele><time>2026-04-11T13:37:50.913Z</time></trkpt><trkpt lat="45.4660783555206" lon="7.831152190719333"><ele>245.0</ele><time>2026-04-11T13:37:51.913Z</time></trkpt><trkpt lat="45.46616354116168" lon="7.8312077008451375"><ele>245.00000000000003</ele><time>2026-04-11T13:37:52.913Z</time></trkpt><trkpt lat="45.466249413530484" lon="7.831265514706061"><ele>245.0</ele><time>2026-04-11T13:37:53.913Z</time></trkpt><trkpt lat="45.46632662295151" lon="7.831310961826278"><ele>245.0</ele><time>2026-04-11T13:37:54.913Z</time></trkpt><trkpt lat="45.46638772124305" lon="7.831343242281676"><ele>245.0</ele><time>2026-04-11T13:37:55.913Z</time></trkpt><trkpt lat="45.466486959736756" lon="7.831385265296232"><ele>245.00000000000003</ele><time>2026-04-11T13:37:57.913Z</time></trkpt><trkpt lat="45.46655711335716" lon="7.8314081869141114"><ele>245.0</ele><time>2026-04-11T13:37:58.913Z</time></trkpt><trkpt lat="45.46664349427862" lon="7.831423610220205"><ele>244.8</ele><time>2026-04-11T13:37:59.913Z</time></trkpt><trkpt lat="45.46674099401273" lon="7.831438767747786"><ele>244.6</ele><time>2026-04-11T13:38:00.913Z</time></trkpt><trkpt lat="45.46684118285801" lon="7.831455745553213"><ele>244.39999999999998</ele><time>2026-04-11T13:38:01.913Z</time></trkpt><trkpt lat="45.46694710328829" lon="7.83147752283839"><ele>244.2</ele><time>2026-04-11T13:38:02.913Z</time></trkpt><trkpt lat="45.467063257135315" lon="7.831507868872396"><ele>244.0</ele><time>2026-04-11T13:38:03.913Z</time></trkpt><trkpt lat="45.467161410857656" lon="7.831535848742701"><ele>244.6</ele><time>2026-04-11T13:38:04.913Z</time></trkpt><trkpt lat="45.467267062793816" lon="7.831563563745717"><ele>245.2</ele><time>2026-04-11T13:38:05.913Z</time></trkpt><trkpt lat="45.46736161083876" lon="7.831581334990046"><ele>245.79999999999998</ele><time>2026-04-11T13:38:06.913Z</time></trkpt><trkpt lat="45.46745813676984" lon="7.831606035883025"><ele>246.39999999999998</ele><time>2026-04-11T13:38:07.913Z</time></trkpt><trkpt lat="45.46755216317607" lon="7.831621717268818"><ele>247.0</ele><time>2026-04-11T13:38:08.913Z</time></trkpt><trkpt lat="45.467647105430814" lon="7.8316385764285315"><ele>246.99999999999997</ele><time>2026-04-11T13:38:09.913Z</time></trkpt><trkpt lat="45.467740491858365" lon="7.831660409594451"><ele>247.0</ele><time>2026-04-11T13:38:10.913Z</time></trkpt><trkpt lat="45.46782709686741" lon="7.83168483583328"><ele>247.0</ele><time>2026-04-11T13:38:11.913Z</time></trkpt><trkpt lat="45.467920198957806" lon="7.8317006841723105"><ele>247.0</ele><time>2026-04-11T13:38:12.913Z</time></trkpt><trkpt lat="45.46798699808587" lon="7.83171956867287"><ele>246.99999999999997</ele><time>2026-04-11T13:38:13.913Z</time></trkpt><trkpt lat="45.46806609580729" lon="7.831743624064203"><ele>247.0</ele><time>2026-04-11T13:38:14.913Z</time></trkpt><trkpt lat="45.468146368742424" lon="7.831772691530035"><ele>247.33333333333331</ele><time>2026-04-11T13:38:15.913Z</time></trkpt><trkpt lat="45.468225078497305" lon="7.831782458636384"><ele>247.66666666666666</ele><time>2026-04-11T13:38:16.913Z</time></trkpt><trkpt lat="45.46833890617286" lon="7.83178890508783"><ele>248.0</ele><time>2026-04-11T13:38:17.913Z</time></trkpt><trkpt lat="45.468426432972606" lon="7.831800210017399"><ele>248.33333333333331</ele><time>2026-04-11T13:38:18.913Z</time></trkpt><trkpt lat="45.468503481963715" lon="7.831816295809606"><ele>248.66666666666666</ele><time>2026-04-11T13:38:19.913Z</time></trkpt><trkpt lat="45.46857308020639" lon="7.831819113371162"><ele>249.0</ele><time>2026-04-11T13:38:20.913Z</time></trkpt><trkpt lat="45.46863687083825" lon="7.831813160205959"><ele>249.0</ele><time>2026-04-11T13:38:22.913Z</time></trkpt><trkpt lat="45.46864555694835" lon="7.831661193826345"><ele>248.99999999999997</ele><time>2026-04-11T13:38:25.913Z</time></trkpt><trkpt lat="45.46867851908511" lon="7.831471200799478"><ele>248.99999999999997</ele><time>2026-04-11T13:38:27.913Z</time></trkpt><trkpt lat="45.46869106500107" lon="7.8313574081079835"><ele>249.0</ele><time>2026-04-11T13:38:28.913Z</time></trkpt><trkpt lat="45.46870961139553" lon="7.831254975227909"><ele>249.0</ele><time>2026-04-11T13:38:29.913Z</time></trkpt><trkpt lat="45.46873005073858" lon="7.8311463738618246"><ele>249.0</ele><time>2026-04-11T13:38:30.913Z</time></trkpt><trkpt lat="45.4687299709496" lon="7.831049818625027"><ele>248.99999999999997</ele><time>2026-04-11T13:38:31.913Z</time></trkpt><trkpt lat="45.46873193928456" lon="7.830957802942515"><ele>249.0</ele><time>2026-04-11T13:38:32.913Z</time></trkpt><trkpt lat="45.468724181363754" lon="7.830859946528035"><ele>249.0</ele><time>2026-04-11T13:38:33.913Z</time></trkpt><trkpt lat="45.46873369786023" lon="7.830764927641218"><ele>248.99999999999997</ele><time>2026-04-11T13:38:34.913Z</time></trkpt><trkpt lat="45.468741285812044" lon="7.830670999903616"><ele>249.0</ele><time>2026-04-11T13:38:35.913Z</time></trkpt><trkpt lat="45.468770342856764" lon="7.83058327385021"><ele>249.0</ele><time>2026-04-11T13:38:36.913Z</time></trkpt><trkpt lat="45.46879177234402" lon="7.830488163087429"><ele>249.16666666666666</ele><time>2026-04-11T13:38:37.913Z</time></trkpt><trkpt lat="45.46879922194342" lon="7.830383877639864"><ele>249.33333333333331</ele><time>2026-04-11T13:38:38.913Z</time></trkpt><trkpt lat="45.46880390431989" lon="7.830282785123492"><ele>249.5</ele><time>2026-04-11T13:38:39.913Z</time></trkpt><trkpt lat="45.468810480029425" lon="7.830183123037687"><ele>249.66666666666666</ele><time>2026-04-11T13:38:40.913Z</time></trkpt><trkpt lat="45.46876790763963" lon="7.830075201966754"><ele>249.83333333333331</ele><time>2026-04-11T13:38:41.913Z</time></trkpt><trkpt lat="45.468738905054586" lon="7.829969465993321"><ele>250.0</ele><time>2026-04-11T13:38:42.913Z</time></trkpt><trkpt lat="45.46870170533126" lon="7.829866173415499"><ele>250.16666666666666</ele><time>2026-04-11T13:38:43.913Z</time></trkpt><trkpt lat="45.46866858059396" lon="7.829750149713636"><ele>250.33333333333331</ele><time>2026-04-11T13:38:44.913Z</time></trkpt><trkpt lat="45.46864143320408" lon="7.829635078726152"><ele>250.5</ele><time>2026-04-11T13:38:45.913Z</time></trkpt><trkpt lat="45.4686240849933" lon="7.829543299426169"><ele>250.66666666666669</ele><time>2026-04-11T13:38:46.913Z</time></trkpt><trkpt lat="45.468611992585906" lon="7.829455027716665"><ele>250.83333333333334</ele><time>2026-04-11T13:38:47.913Z</time></trkpt><trkpt lat="45.46864992144995" lon="7.829359088804857"><ele>251.0</ele><time>2026-04-11T13:38:48.913Z</time></trkpt><trkpt lat="45.468704620904084" lon="7.829261141376987"><ele>251.83333333333334</ele><time>2026-04-11T13:38:51.913Z</time></trkpt><trkpt lat="45.46878686812771" lon="7.8291624843961705"><ele>252.66666666666669</ele><time>2026-04-11T13:38:53.913Z</time></trkpt><trkpt lat="45.46882859932653" lon="7.829086383451844"><ele>253.5</ele><time>2026-04-11T13:38:54.913Z</time></trkpt><trkpt lat="45.468930761572295" lon="7.828986325433671"><ele>254.33333333333331</ele><time>2026-04-11T13:38:56.91Z</time></trkpt><trkpt lat="45.46899780155321" lon="7.828956659899994"><ele>255.16666666666666</ele><time>2026-04-11T13:38:57.91Z</time></trkpt><trkpt lat="45.46906909965974" lon="7.828924765109602"><ele>256.0</ele><time>2026-04-11T13:38:58.909Z</time></trkpt><trkpt lat="45.469140897056775" lon="7.828898409726757"><ele>256.0</ele><time>2026-04-11T13:38:59.909Z</time></trkpt><trkpt lat="45.46920561969695" lon="7.828867214582698"><ele>256.0</ele><time>2026-04-11T13:39:00.909Z</time></trkpt><trkpt lat="45.469353427274854" lon="7.828871618023982"><ele>256.0</ele><time>2026-04-11T13:39:02.91Z</time></trkpt><trkpt lat="45.469358289981194" lon="7.828775071074036"><ele>256.0</ele><time>2026-04-11T13:39:03.91Z</time></trkpt><trkpt lat="45.469481786539326" lon="7.828691906966111"><ele>256.0</ele><time>2026-04-11T13:39:05.909Z</time></trkpt><trkpt lat="45.469549823319305" lon="7.828666630648849"><ele>254.60000000000002</ele><time>2026-04-11T13:39:06.909Z</time></trkpt><trkpt lat="45.46961799316654" lon="7.828669228321578"><ele>253.20000000000002</ele><time>2026-04-11T13:39:07.909Z</time></trkpt><trkpt lat="45.46970017134182" lon="7.828681651984952"><ele>251.79999999999998</ele><time>2026-04-11T13:39:08.909Z</time></trkpt><trkpt lat="45.46979465668224" lon="7.828666046638902"><ele>250.39999999999998</ele><time>2026-04-11T13:39:09.909Z</time></trkpt><trkpt lat="45.46988571616959" lon="7.828669525791334"><ele>249.0</ele><time>2026-04-11T13:39:10.909Z</time></trkpt><trkpt lat="45.47002486336466" lon="7.828704372635611"><ele>249.0</ele><time>2026-04-11T13:39:11.909Z</time></trkpt><trkpt lat="45.47017263869547" lon="7.828723542673823"><ele>249.0</ele><time>2026-04-11T13:39:12.909Z</time></trkpt><trkpt lat="45.47027425913234" lon="7.828736344646325"><ele>249.0</ele><time>2026-04-11T13:39:13.909Z</time></trkpt><trkpt lat="45.470361079079346" lon="7.828744592744183"><ele>249.0</ele><time>2026-04-11T13:39:14.909Z</time></trkpt><trkpt lat="45.47047424122098" lon="7.828751008033017"><ele>249.66666666666666</ele><time>2026-04-11T13:39:15.909Z</time></trkpt><trkpt lat="45.4705764764204" lon="7.828762246125904"><ele>250.33333333333331</ele><time>2026-04-11T13:39:16.909Z</time></trkpt><trkpt lat="45.47066337929957" lon="7.828767346282612"><ele>251.0</ele><time>2026-04-11T13:39:17.909Z</time></trkpt><trkpt lat="45.47073502518586" lon="7.828769935425881"><ele>251.66666666666666</ele><time>2026-04-11T13:39:18.909Z</time></trkpt><trkpt lat="45.470800369448376" lon="7.828759822485448"><ele>252.33333333333331</ele><time>2026-04-11T13:39:19.909Z</time></trkpt><trkpt lat="45.470908085147656" lon="7.8287764708049545"><ele>253.0</ele><time>2026-04-11T13:39:21.909Z</time></trkpt><trkpt lat="45.470985743298925" lon="7.8288066024880765"><ele>252.99999999999997</ele><time>2026-04-11T13:39:24.909Z</time></trkpt><trkpt lat="45.47107587691589" lon="7.828828570239566"><ele>253.0</ele><time>2026-04-11T13:39:51.909Z</time></trkpt><trkpt lat="45.471138257689205" lon="7.828849036065364"><ele>253.0</ele><time>2026-04-11T13:40:23.91Z</time></trkpt><trkpt lat="45.471219494370246" lon="7.8289016244332394"><ele>253.0</ele><time>2026-04-11T13:40:26.91Z</time></trkpt><trkpt lat="45.47129593944784" lon="7.828961986034396"><ele>252.99999999999997</ele><time>2026-04-11T13:40:28.91Z</time></trkpt><trkpt lat="45.471367185743844" lon="7.829006496834236"><ele>253.0</ele><time>2026-04-11T13:40:29.91Z</time></trkpt><trkpt lat="45.47143256837222" lon="7.829048127939777"><ele>254.0</ele><time>2026-04-11T13:40:30.91Z</time></trkpt><trkpt lat="45.47149084392009" lon="7.829084146184157"><ele>255.0</ele><time>2026-04-11T13:40:31.91Z</time></trkpt><trkpt lat="45.47159676592479" lon="7.829142527884196"><ele>256.0</ele><time>2026-04-11T13:40:33.91Z</time></trkpt><trkpt lat="45.47168105268692" lon="7.829170434681704"><ele>257.0</ele><time>2026-04-11T13:40:35.91Z</time></trkpt><trkpt lat="45.4717674209151" lon="7.829108837446981"><ele>258.0</ele><time>2026-04-11T13:40:37.91Z</time></trkpt><trkpt lat="45.47182775105735" lon="7.829014427863359"><ele>258.0</ele><time>2026-04-11T13:40:39.91Z</time></trkpt><trkpt lat="45.47188270234727" lon="7.82895616638149"><ele>258.0</ele><time>2026-04-11T13:40:40.91Z</time></trkpt><trkpt lat="45.47193878659881" lon="7.828896312334277"><ele>258.0</ele><time>2026-04-11T13:40:41.91Z</time></trkpt><trkpt lat="45.472035019841606" lon="7.828797408473912"><ele>258.0</ele><time>2026-04-11T13:40:43.91Z</time></trkpt><trkpt lat="45.47210536845263" lon="7.828792277660142"><ele>258.0</ele><time>2026-04-11T13:40:44.91Z</time></trkpt><trkpt lat="45.472201380364176" lon="7.828772953198004"><ele>258.0</ele><time>2026-04-11T13:40:46.91Z</time></trkpt><trkpt lat="45.472265895943245" lon="7.8287057694769695"><ele>257.57142857142856</ele><time>2026-04-11T13:40:48.91Z</time></trkpt><trkpt lat="45.47229019831555" lon="7.828614164511337"><ele>257.1428571428571</ele><time>2026-04-11T13:40:50.91Z</time></trkpt><trkpt lat="45.472281878935455" lon="7.828518293704553"><ele>256.7142857142857</ele><time>2026-04-11T13:40:52.91Z</time></trkpt><trkpt lat="45.47225933528032" lon="7.828432700656956"><ele>256.2857142857143</ele><time>2026-04-11T13:40:53.91Z</time></trkpt><trkpt lat="45.47224828232437" lon="7.82832840443668"><ele>255.8571428571429</ele><time>2026-04-11T13:40:54.91Z</time></trkpt><trkpt lat="45.47226587795948" lon="7.828217338530824"><ele>255.42857142857144</ele><time>2026-04-11T13:40:56.91Z</time></trkpt><trkpt lat="45.47229746479035" lon="7.828134017451178"><ele>255.0</ele><time>2026-04-11T13:40:58.91Z</time></trkpt><trkpt lat="45.47224046096301" lon="7.828072197453531"><ele>255.85714285714286</ele><time>2026-04-11T13:41:01.906Z</time></trkpt><trkpt lat="45.47218257564485" lon="7.828145850853324"><ele>256.7142857142857</ele><time>2026-04-11T13:41:04.906Z</time></trkpt><trkpt lat="45.472126718113664" lon="7.828058589003374"><ele>257.57142857142856</ele><time>2026-04-11T13:41:08.906Z</time></trkpt><trkpt lat="45.472117624546435" lon="7.827957987705693"><ele>258.42857142857144</ele><time>2026-04-11T13:41:10.906Z</time></trkpt><trkpt lat="45.472135472033145" lon="7.827852028676856"><ele>259.2857142857143</ele><time>2026-04-11T13:41:12.906Z</time></trkpt><trkpt lat="45.4721608729395" lon="7.827766315394594"><ele>260.14285714285717</ele><time>2026-04-11T13:41:14.906Z</time></trkpt><trkpt lat="45.47220605304372" lon="7.827702549600248"><ele>261.0</ele><time>2026-04-11T13:41:16.906Z</time></trkpt><trkpt lat="45.4722099700827" lon="7.827598170141089"><ele>264.8</ele><time>2026-04-11T13:41:18.906Z</time></trkpt><trkpt lat="45.47219624548486" lon="7.827505717328902"><ele>268.6</ele><time>2026-04-11T13:41:22.906Z</time></trkpt><trkpt lat="45.4721735066555" lon="7.827418952915727"><ele>272.4</ele><time>2026-04-11T13:41:30.906Z</time></trkpt><trkpt lat="45.472111882647276" lon="7.8273581918950725"><ele>276.2</ele><time>2026-04-11T13:43:35.902Z</time></trkpt><trkpt lat="45.47202971188006" lon="7.827317917137191"><ele>280.0</ele><time>2026-04-11T13:43:46.902Z</time></trkpt><trkpt lat="45.471981730948826" lon="7.827065383667264"><ele>283.0</ele><time>2026-04-11T13:45:54.899Z</time></trkpt><trkpt lat="45.47197781527687" lon="7.8269098096246825"><ele>286.0</ele><time>2026-04-11T13:45:56.899Z</time></trkpt><trkpt lat="45.4719683220652" lon="7.826741895333211"><ele>289.0</ele><time>2026-04-11T13:45:58.899Z</time></trkpt><trkpt lat="45.47197840917898" lon="7.826574323034744"><ele>292.0</ele><time>2026-04-11T13:46:00.899Z</time></trkpt><trkpt lat="45.47199307756165" lon="7.8264240181037765"><ele>295.4</ele><time>2026-04-11T13:46:02.899Z</time></trkpt><trkpt lat="45.471968816179654" lon="7.826339323351948"><ele>298.79999999999995</ele><time>2026-04-11T13:46:03.901Z</time></trkpt><trkpt lat="45.47192567607343" lon="7.826166824693245"><ele>302.2</ele><time>2026-04-11T13:46:05.905Z</time></trkpt><trkpt lat="45.47191805280941" lon="7.826071290300853"><ele>305.59999999999997</ele><time>2026-04-11T13:46:06.908Z</time></trkpt><trkpt lat="45.471916262878956" lon="7.825905907827997"><ele>309.0</ele><time>2026-04-11T13:46:08.911Z</time></trkpt><trkpt lat="45.471881862862695" lon="7.825725335956138"><ele>311.4</ele><time>2026-04-11T13:46:10.915Z</time></trkpt><trkpt lat="45.47188508188304" lon="7.825597454734161"><ele>313.79999999999995</ele><time>2026-04-11T13:46:12.918Z</time></trkpt><trkpt lat="45.47186587540012" lon="7.825495413268342"><ele>316.20000000000005</ele><time>2026-04-11T13:46:13.919Z</time></trkpt><trkpt lat="45.47182615178951" lon="7.82538584546957"><ele>318.6</ele><time>2026-04-11T13:46:14.92Z</time></trkpt><trkpt lat="45.471786470455925" lon="7.8252674132168085"><ele>321.0</ele><time>2026-04-11T13:46:15.921Z</time></trkpt><trkpt lat="45.471770084355256" lon="7.82506183092044"><ele>321.8333333333333</ele><time>2026-04-11T13:46:17.924Z</time></trkpt><trkpt lat="45.471773784670404" lon="7.824922168205426"><ele>322.6666666666667</ele><time>2026-04-11T13:46:18.925Z</time></trkpt><trkpt lat="45.47175867559986" lon="7.824825794074344"><ele>323.5</ele><time>2026-04-11T13:46:19.925Z</time></trkpt><trkpt lat="45.471761974793715" lon="7.82472332763241"><ele>324.33333333333337</ele><time>2026-04-11T13:46:21.927Z</time></trkpt><trkpt lat="45.47182677622022" lon="7.824597513466515"><ele>325.1666666666667</ele><time>2026-04-11T13:46:26.93Z</time></trkpt><trkpt lat="45.4718581223932" lon="7.824498277637312"><ele>326.0</ele><time>2026-04-11T13:46:28.932Z</time></trkpt><trkpt lat="45.47186396994095" lon="7.8243053404533525"><ele>327.20000000000005</ele><time>2026-04-11T13:46:30.933Z</time></trkpt><trkpt lat="45.47185554462757" lon="7.824195649231267"><ele>328.40000000000003</ele><time>2026-04-11T13:46:31.933Z</time></trkpt><trkpt lat="45.47180929728808" lon="7.824046813242419"><ele>329.6</ele><time>2026-04-11T13:46:33.934Z</time></trkpt><trkpt lat="45.47173819178275" lon="7.8239272251011895"><ele>330.8</ele><time>2026-04-11T13:46:35.934Z</time></trkpt><trkpt lat="45.47170036399214" lon="7.823752016887265"><ele>332.0</ele><time>2026-04-11T13:46:37.935Z</time></trkpt><trkpt lat="45.4716872147367" lon="7.823645944386291"><ele>331.1666666666667</ele><time>2026-04-11T13:46:38.935Z</time></trkpt><trkpt lat="45.47167776850341" lon="7.823478356511998"><ele>330.33333333333337</ele><time>2026-04-11T13:46:40.936Z</time></trkpt><trkpt lat="45.47164983447088" lon="7.823331496041945"><ele>329.5</ele><time>2026-04-11T13:46:42.936Z</time></trkpt><trkpt lat="45.47167102376169" lon="7.823207090395111"><ele>328.6666666666667</ele><time>2026-04-11T13:46:44.937Z</time></trkpt><trkpt lat="45.471705795143905" lon="7.823131862879624"><ele>327.8333333333333</ele><time>2026-04-11T13:46:45.937Z</time></trkpt><trkpt lat="45.47172529945497" lon="7.823046041997181"><ele>327.0</ele><time>2026-04-11T13:46:46.937Z</time></trkpt><trkpt lat="45.471731999146854" lon="7.822946935360806"><ele>327.0</ele><time>2026-04-11T13:46:47.937Z</time></trkpt><trkpt lat="45.471733764574125" lon="7.82284625171575"><ele>327.0</ele><time>2026-04-11T13:46:48.937Z</time></trkpt><trkpt lat="45.47177524534481" lon="7.82274362850787"><ele>327.0</ele><time>2026-04-11T13:46:52.938Z</time></trkpt><trkpt lat="45.47178831527972" lon="7.822649424170131"><ele>327.0</ele><time>2026-04-11T13:46:55.938Z</time></trkpt><trkpt lat="45.47184034877123" lon="7.822563725676183"><ele>327.0</ele><time>2026-04-11T13:46:58.938Z</time></trkpt><trkpt lat="45.471866829051024" lon="7.8224635350246885"><ele>327.0</ele><time>2026-04-11T13:47:01.939Z</time></trkpt><trkpt lat="45.47193924138851" lon="7.8224146172005256"><ele>326.5</ele><time>2026-04-11T13:47:06.939Z</time></trkpt><trkpt lat="45.47202345941071" lon="7.822385898524959"><ele>326.0</ele><time>2026-04-11T13:47:08.939Z</time></trkpt><trkpt lat="45.47211286393556" lon="7.8223514495847155"><ele>325.5</ele><time>2026-04-11T13:47:10.939Z</time></trkpt><trkpt lat="45.47218206806167" lon="7.822293963909605"><ele>325.0</ele><time>2026-04-11T13:47:12.939Z</time></trkpt><trkpt lat="45.472171917554896" lon="7.822163789388569"><ele>324.5</ele><time>2026-04-11T13:47:15.939Z</time></trkpt><trkpt lat="45.47212716899372" lon="7.822083062906873"><ele>324.0</ele><time>2026-04-11T13:47:18.94Z</time></trkpt><trkpt lat="45.47205770490817" lon="7.822015268475359"><ele>323.0</ele><time>2026-04-11T13:47:20.937Z</time></trkpt><trkpt lat="45.47201764518412" lon="7.8219248781440545"><ele>322.0</ele><time>2026-04-11T13:47:23.936Z</time></trkpt><trkpt lat="45.47201200657143" lon="7.821825278529598"><ele>321.0</ele><time>2026-04-11T13:47:26.936Z</time></trkpt><trkpt lat="45.47200450836768" lon="7.821711598592988"><ele>320.0</ele><time>2026-04-11T13:47:28.937Z</time></trkpt><trkpt lat="45.47196810327116" lon="7.821596345337941"><ele>319.0</ele><time>2026-04-11T13:47:31.936Z</time></trkpt><trkpt lat="45.471953711366154" lon="7.821504666539738"><ele>318.0</ele><time>2026-04-11T13:47:39.937Z</time></trkpt><trkpt lat="45.471860511829355" lon="7.821316650677042"><ele>317.1666666666667</ele><time>2026-04-11T13:48:41.938Z</time></trkpt><trkpt lat="45.471820326412924" lon="7.82122197779284"><ele>316.3333333333333</ele><time>2026-04-11T13:48:51.938Z</time></trkpt><trkpt lat="45.47182272153246" lon="7.821126395884949"><ele>315.5</ele><time>2026-04-11T13:48:55.938Z</time></trkpt><trkpt lat="45.47191074687455" lon="7.82111694713939"><ele>314.66666666666663</ele><time>2026-04-11T13:49:03.938Z</time></trkpt><trkpt lat="45.47201841642368" lon="7.821129389658899"><ele>313.8333333333333</ele><time>2026-04-11T13:49:10.938Z</time></trkpt><trkpt lat="45.47208498205624" lon="7.8211076806089235"><ele>313.0</ele><time>2026-04-11T13:49:14.939Z</time></trkpt><trkpt lat="45.472222357848715" lon="7.821066652886277"><ele>309.85714285714283</ele><time>2026-04-11T13:49:32.934Z</time></trkpt><trkpt lat="45.472227375481765" lon="7.820959636213373"><ele>306.7142857142857</ele><time>2026-04-11T13:49:37.934Z</time></trkpt><trkpt lat="45.47226642906373" lon="7.82086420181755"><ele>303.57142857142856</ele><time>2026-04-11T13:49:42.935Z</time></trkpt><trkpt lat="45.47231986839909" lon="7.820803663451064"><ele>300.42857142857144</ele><time>2026-04-11T13:49:44.935Z</time></trkpt><trkpt lat="45.47234623323831" lon="7.820704256307244"><ele>297.2857142857143</ele><time>2026-04-11T13:49:47.935Z</time></trkpt><trkpt lat="45.47241153198669" lon="7.8207002438278"><ele>294.1428571428571</ele><time>2026-04-11T13:49:49.935Z</time></trkpt><trkpt lat="45.47248443143847" lon="7.820702012379047"><ele>291.0</ele><time>2026-04-11T13:49:52.935Z</time></trkpt><trkpt lat="45.47254530903593" lon="7.820762748630785"><ele>291.0</ele><time>2026-04-11T13:49:56.935Z</time></trkpt><trkpt lat="45.472568219699035" lon="7.820860362061536"><ele>291.0</ele><time>2026-04-11T13:49:59.935Z</time></trkpt><trkpt lat="45.472627860349974" lon="7.820953877372759"><ele>291.0</ele><time>2026-04-11T13:50:03.935Z</time></trkpt><trkpt lat="45.47269457257804" lon="7.820975755552721"><ele>291.0</ele><time>2026-04-11T13:50:06.935Z</time></trkpt><trkpt lat="45.47275883683363" lon="7.821078135746948"><ele>291.0</ele><time>2026-04-11T13:50:09.935Z</time></trkpt><trkpt lat="45.47282432886452" lon="7.821178908518607"><ele>291.0</ele><time>2026-04-11T13:50:12.935Z</time></trkpt><trkpt lat="45.472859273148714" lon="7.821259918849403"><ele>292.8333333333333</ele><time>2026-04-11T13:50:14.935Z</time></trkpt><trkpt lat="45.47293568683693" lon="7.821329632033639"><ele>294.6666666666667</ele><time>2026-04-11T13:50:17.935Z</time></trkpt><trkpt lat="45.47299070054017" lon="7.821381599236596"><ele>296.5</ele><time>2026-04-11T13:50:19.935Z</time></trkpt><trkpt lat="45.47304566358839" lon="7.821475512255798"><ele>298.33333333333337</ele><time>2026-04-11T13:50:22.935Z</time></trkpt><trkpt lat="45.47307163993019" lon="7.82155923930698"><ele>300.1666666666667</ele><time>2026-04-11T13:50:24.935Z</time></trkpt><trkpt lat="45.4731144680549" lon="7.8216455144853985"><ele>302.0</ele><time>2026-04-11T13:50:26.936Z</time></trkpt><trkpt lat="45.47318206531636" lon="7.821679359694844"><ele>302.0</ele><time>2026-04-11T13:50:28.936Z</time></trkpt><trkpt lat="45.47325358916246" lon="7.821700685467677"><ele>302.0</ele><time>2026-04-11T13:50:31.936Z</time></trkpt><trkpt lat="45.473315849617705" lon="7.821661561224536"><ele>302.0</ele><time>2026-04-11T13:50:34.936Z</time></trkpt><trkpt lat="45.47337772069875" lon="7.821592692586079"><ele>302.0</ele><time>2026-04-11T13:50:38.936Z</time></trkpt><trkpt lat="45.473428578211234" lon="7.821510257549095"><ele>302.0</ele><time>2026-04-11T13:50:40.936Z</time></trkpt><trkpt lat="45.47348131478051" lon="7.821459091158106"><ele>302.0</ele><time>2026-04-11T13:50:42.936Z</time></trkpt><trkpt lat="45.47354243099482" lon="7.821324908582612"><ele>302.00000000000006</ele><time>2026-04-11T13:50:44.936Z</time></trkpt><trkpt lat="45.47357560068409" lon="7.821232134342731"><ele>302.0</ele><time>2026-04-11T13:50:46.936Z</time></trkpt><trkpt lat="45.473637396715006" lon="7.821199423845644"><ele>302.0</ele><time>2026-04-11T13:50:50.936Z</time></trkpt><trkpt lat="45.47371442591328" lon="7.8211348390199795"><ele>302.0</ele><time>2026-04-11T13:50:54.936Z</time></trkpt><trkpt lat="45.473749227245726" lon="7.821052854492503"><ele>302.0</ele><time>2026-04-11T13:50:57.936Z</time></trkpt><trkpt lat="45.47380347103011" lon="7.820972826710408"><ele>302.00000000000006</ele><time>2026-04-11T13:51:00.936Z</time></trkpt><trkpt lat="45.473821651257325" lon="7.820873766312077"><ele>302.0</ele><time>2026-04-11T13:51:04.936Z</time></trkpt><trkpt lat="45.47383428202805" lon="7.820785127102506"><ele>297.6666666666667</ele><time>2026-04-11T13:51:09.936Z</time></trkpt><trkpt lat="45.473873899473475" lon="7.820697187689942"><ele>293.33333333333337</ele><time>2026-04-11T13:51:16.936Z</time></trkpt><trkpt lat="45.47393327058198" lon="7.820590133841863"><ele>289.0</ele><time>2026-04-11T13:51:58.933Z</time></trkpt><trkpt lat="45.47390058671933" lon="7.8204971769136025"><ele>284.6666666666667</ele><time>2026-04-11T14:04:14.925Z</time></trkpt><trkpt lat="45.47391757852466" lon="7.820395132416784"><ele>280.3333333333333</ele><time>2026-04-11T14:04:17.926Z</time></trkpt><trkpt lat="45.4739440854011" lon="7.820262089539488"><ele>276.0</ele><time>2026-04-11T14:04:20.926Z</time></trkpt><trkpt lat="45.47395765391753" lon="7.820165387946569"><ele>273.40000000000003</ele><time>2026-04-11T14:04:23.926Z</time></trkpt><trkpt lat="45.47398503048266" lon="7.820069405712429"><ele>270.8</ele><time>2026-04-11T14:04:26.926Z</time></trkpt><trkpt lat="45.47401729864431" lon="7.819909786296103"><ele>268.20000000000005</ele><time>2026-04-11T14:04:29.926Z</time></trkpt><trkpt lat="45.47402169573553" lon="7.819764988842102"><ele>265.6</ele><time>2026-04-11T14:04:31.926Z</time></trkpt><trkpt lat="45.4740390774373" lon="7.819631633315958"><ele>263.0</ele><time>2026-04-11T14:04:35.926Z</time></trkpt><trkpt lat="45.47401802907943" lon="7.819492053187989"><ele>263.6</ele><time>2026-04-11T14:04:37.926Z</time></trkpt><trkpt lat="45.47401230732091" lon="7.819312383126554"><ele>264.20000000000005</ele><time>2026-04-11T14:04:39.926Z</time></trkpt><trkpt lat="45.474011383226255" lon="7.819121381698022"><ele>264.8</ele><time>2026-04-11T14:04:41.926Z</time></trkpt><trkpt lat="45.47399866157833" lon="7.8189996903460095"><ele>265.40000000000003</ele><time>2026-04-11T14:04:42.926Z</time></trkpt><trkpt lat="45.47399045755757" lon="7.818888442344343"><ele>266.0</ele><time>2026-04-11T14:04:43.926Z</time></trkpt><trkpt lat="45.47399009426378" lon="7.818783147434153"><ele>266.0</ele><time>2026-04-11T14:04:44.926Z</time></trkpt><trkpt lat="45.47392910016805" lon="7.818583074224239"><ele>266.0</ele><time>2026-04-11T14:04:45.926Z</time></trkpt><trkpt lat="45.4739491184842" lon="7.818390786142489"><ele>266.0</ele><time>2026-04-11T14:04:46.926Z</time></trkpt><trkpt lat="45.47395097604521" lon="7.818286010955245"><ele>266.0</ele><time>2026-04-11T14:04:47.926Z</time></trkpt><trkpt lat="45.47398386415761" lon="7.818127016434261"><ele>266.0</ele><time>2026-04-11T14:04:49.926Z</time></trkpt><trkpt lat="45.47400525857401" lon="7.818041595177828"><ele>266.0</ele><time>2026-04-11T14:04:50.926Z</time></trkpt><trkpt lat="45.474050480358635" lon="7.817974640812039"><ele>266.0</ele><time>2026-04-11T14:04:51.926Z</time></trkpt><trkpt lat="45.47409462063601" lon="7.817885523885028"><ele>266.0</ele><time>2026-04-11T14:04:52.926Z</time></trkpt><trkpt lat="45.474122985416194" lon="7.817797570271625"><ele>266.0</ele><time>2026-04-11T14:04:53.926Z</time></trkpt><trkpt lat="45.47414265451541" lon="7.817699132991731"><ele>266.0</ele><time>2026-04-11T14:04:54.926Z</time></trkpt><trkpt lat="45.4741897015616" lon="7.817507773271862"><ele>266.5</ele><time>2026-04-11T14:04:56.926Z</time></trkpt><trkpt lat="45.47422469339562" lon="7.817394422462187"><ele>267.0</ele><time>2026-04-11T14:04:57.926Z</time></trkpt><trkpt lat="45.47425444330755" lon="7.817266790936716"><ele>267.5</ele><time>2026-04-11T14:04:58.926Z</time></trkpt><trkpt lat="45.47428593686033" lon="7.817173800061293"><ele>268.0</ele><time>2026-04-11T14:04:59.926Z</time></trkpt><trkpt lat="45.47432476562077" lon="7.817052782053166"><ele>268.5</ele><time>2026-04-11T14:05:01.926Z</time></trkpt><trkpt lat="45.47435529903514" lon="7.816926797855066"><ele>269.0</ele><time>2026-04-11T14:05:04.926Z</time></trkpt><trkpt lat="45.47437513315147" lon="7.816836900751452"><ele>269.0</ele><time>2026-04-11T14:05:05.926Z</time></trkpt><trkpt lat="45.47440181291742" lon="7.8167528471495205"><ele>269.0</ele><time>2026-04-11T14:05:06.926Z</time></trkpt><trkpt lat="45.4744288747539" lon="7.816657476682395"><ele>269.0</ele><time>2026-04-11T14:05:07.926Z</time></trkpt><trkpt lat="45.47444658723017" lon="7.816555259841642"><ele>269.0</ele><time>2026-04-11T14:05:08.926Z</time></trkpt><trkpt lat="45.47447105472729" lon="7.816452911945747"><ele>269.0</ele><time>2026-04-11T14:05:09.926Z</time></trkpt><trkpt lat="45.474518004550184" lon="7.816356698021936"><ele>269.0</ele><time>2026-04-11T14:05:10.926Z</time></trkpt><trkpt lat="45.47455307084933" lon="7.816252552098796"><ele>269.0</ele><time>2026-04-11T14:05:11.927Z</time></trkpt><trkpt lat="45.474589151382766" lon="7.816160741163935"><ele>269.0</ele><time>2026-04-11T14:05:12.927Z</time></trkpt><trkpt lat="45.47463005720709" lon="7.816074400407934"><ele>269.0</ele><time>2026-04-11T14:05:13.927Z</time></trkpt><trkpt lat="45.47466779519763" lon="7.815994281816434"><ele>269.0</ele><time>2026-04-11T14:05:14.927Z</time></trkpt><trkpt lat="45.4747168256994" lon="7.81589651487614"><ele>269.0</ele><time>2026-04-11T14:05:15.927Z</time></trkpt><trkpt lat="45.47474717742257" lon="7.815785859981101"><ele>269.0</ele><time>2026-04-11T14:05:16.927Z</time></trkpt><trkpt lat="45.474788591038035" lon="7.815674875574639"><ele>269.6666666666667</ele><time>2026-04-11T14:05:17.927Z</time></trkpt><trkpt lat="45.47483534048755" lon="7.815563715674126"><ele>270.33333333333337</ele><time>2026-04-11T14:05:18.927Z</time></trkpt><trkpt lat="45.474876569535084" lon="7.815441585087201"><ele>271.0</ele><time>2026-04-11T14:05:19.927Z</time></trkpt><trkpt lat="45.47491586905121" lon="7.815334478794499"><ele>271.6666666666667</ele><time>2026-04-11T14:05:20.927Z</time></trkpt><trkpt lat="45.474951688616954" lon="7.815224318961221"><ele>272.3333333333333</ele><time>2026-04-11T14:05:21.927Z</time></trkpt><trkpt lat="45.474984223389605" lon="7.815112012379491"><ele>273.0</ele><time>2026-04-11T14:05:22.927Z</time></trkpt><trkpt lat="45.47501741193838" lon="7.814999241609871"><ele>273.6666666666667</ele><time>2026-04-11T14:05:23.927Z</time></trkpt><trkpt lat="45.475033262032014" lon="7.8148842427124805"><ele>274.3333333333333</ele><time>2026-04-11T14:05:24.927Z</time></trkpt><trkpt lat="45.475071443424326" lon="7.814773509935313"><ele>275.0</ele><time>2026-04-11T14:05:25.927Z</time></trkpt><trkpt lat="45.47509908620711" lon="7.8146616293605025"><ele>275.66666666666663</ele><time>2026-04-11T14:05:26.927Z</time></trkpt><trkpt lat="45.475122802750754" lon="7.8145542997165"><ele>276.3333333333333</ele><time>2026-04-11T14:05:27.927Z</time></trkpt><trkpt lat="45.475152451715296" lon="7.814412892638055"><ele>277.0</ele><time>2026-04-11T14:05:29.927Z</time></trkpt><trkpt lat="45.47521104858203" lon="7.81433756235957"><ele>278.4</ele><time>2026-04-11T14:05:32.927Z</time></trkpt><trkpt lat="45.475295397475605" lon="7.814310768618134"><ele>279.79999999999995</ele><time>2026-04-11T14:05:35.927Z</time></trkpt><trkpt lat="45.47537945622921" lon="7.814288834091191"><ele>281.2</ele><time>2026-04-11T14:05:37.927Z</time></trkpt><trkpt lat="45.47547419046731" lon="7.814302747506089"><ele>282.59999999999997</ele><time>2026-04-11T14:05:39.927Z</time></trkpt><trkpt lat="45.475554241632004" lon="7.814298502114169"><ele>284.0</ele><time>2026-04-11T14:05:41.927Z</time></trkpt><trkpt lat="45.475645734561645" lon="7.8141120436613605"><ele>285.59999999999997</ele><time>2026-04-11T14:05:46.927Z</time></trkpt><trkpt lat="45.47561788062111" lon="7.8139338408012184"><ele>287.2</ele><time>2026-04-11T14:05:48.927Z</time></trkpt><trkpt lat="45.47558070522516" lon="7.813828606361669"><ele>288.79999999999995</ele><time>2026-04-11T14:05:49.927Z</time></trkpt><trkpt lat="45.47555300290404" lon="7.813719357623498"><ele>290.4</ele><time>2026-04-11T14:05:50.929Z</time></trkpt><trkpt lat="45.47552541783739" lon="7.813591545365171"><ele>292.0</ele><time>2026-04-11T14:05:51.931Z</time></trkpt><trkpt lat="45.475492394203066" lon="7.81345907818398"><ele>291.6</ele><time>2026-04-11T14:05:52.932Z</time></trkpt><trkpt lat="45.47547216382998" lon="7.8133182667361325"><ele>291.2</ele><time>2026-04-11T14:05:53.933Z</time></trkpt><trkpt lat="45.475439728674836" lon="7.813164097240182"><ele>290.8</ele><time>2026-04-11T14:05:54.935Z</time></trkpt><trkpt lat="45.47540604494949" lon="7.813005914160297"><ele>290.4</ele><time>2026-04-11T14:05:55.936Z</time></trkpt><trkpt lat="45.47537223360316" lon="7.812866149376319"><ele>290.0</ele><time>2026-04-11T14:05:56.937Z</time></trkpt><trkpt lat="45.47533166138806" lon="7.812719352977346"><ele>290.6</ele><time>2026-04-11T14:05:57.938Z</time></trkpt><trkpt lat="45.47529947726751" lon="7.812559622008697"><ele>291.2</ele><time>2026-04-11T14:05:58.939Z</time></trkpt><trkpt lat="45.47527119129473" lon="7.812402266172598"><ele>291.8</ele><time>2026-04-11T14:05:59.94Z</time></trkpt><trkpt lat="45.47524021445897" lon="7.812249240652401"><ele>292.4</ele><time>2026-04-11T14:06:00.941Z</time></trkpt><trkpt lat="45.475206336455166" lon="7.812106888061619"><ele>293.0</ele><time>2026-04-11T14:06:01.942Z</time></trkpt><trkpt lat="45.47518051096855" lon="7.811966508592512"><ele>293.0</ele><time>2026-04-11T14:06:02.943Z</time></trkpt><trkpt lat="45.47516784063983" lon="7.811836234921702"><ele>293.0</ele><time>2026-04-11T14:06:03.943Z</time></trkpt><trkpt lat="45.475119109220984" lon="7.811725582796951"><ele>293.0</ele><time>2026-04-11T14:06:04.944Z</time></trkpt><trkpt lat="45.475065218082456" lon="7.811624875197222"><ele>293.0</ele><time>2026-04-11T14:06:05.945Z</time></trkpt><trkpt lat="45.47496831282387" lon="7.811560465769035"><ele>293.0</ele><time>2026-04-11T14:06:06.945Z</time></trkpt><trkpt lat="45.474882876945266" lon="7.81151430894452"><ele>293.4</ele><time>2026-04-11T14:06:07.946Z</time></trkpt><trkpt lat="45.47477390442326" lon="7.811525620378749"><ele>293.8</ele><time>2026-04-11T14:06:08.946Z</time></trkpt><trkpt lat="45.47467904259302" lon="7.811497339927258"><ele>294.2</ele><time>2026-04-11T14:06:09.947Z</time></trkpt><trkpt lat="45.47459340801682" lon="7.81145001976697"><ele>294.6</ele><time>2026-04-11T14:06:10.947Z</time></trkpt><trkpt lat="45.474525547490224" lon="7.811356972838381"><ele>295.0</ele><time>2026-04-11T14:06:11.948Z</time></trkpt><trkpt lat="45.47445557842356" lon="7.8112692347671135"><ele>295.0</ele><time>2026-04-11T14:06:12.948Z</time></trkpt><trkpt lat="45.47440479411671" lon="7.811165133029671"><ele>295.0</ele><time>2026-04-11T14:06:13.945Z</time></trkpt><trkpt lat="45.474360321057695" lon="7.8110456971878035"><ele>295.0</ele><time>2026-04-11T14:06:14.946Z</time></trkpt><trkpt lat="45.47434809885329" lon="7.8109227455946595"><ele>295.0</ele><time>2026-04-11T14:06:15.946Z</time></trkpt><trkpt lat="45.47442083185709" lon="7.8107708699344585"><ele>295.0</ele><time>2026-04-11T14:06:16.946Z</time></trkpt><trkpt lat="45.474421383480106" lon="7.810615316099525"><ele>296.8</ele><time>2026-04-11T14:06:17.946Z</time></trkpt><trkpt lat="45.47439137905558" lon="7.810481508504554"><ele>298.6</ele><time>2026-04-11T14:06:18.946Z</time></trkpt><trkpt lat="45.47433123545706" lon="7.810361994915695"><ele>300.4</ele><time>2026-04-11T14:06:19.947Z</time></trkpt><trkpt lat="45.47427033859918" lon="7.810241477979496"><ele>302.2</ele><time>2026-04-11T14:06:20.946Z</time></trkpt><trkpt lat="45.47421005146457" lon="7.810121405185854"><ele>304.0</ele><time>2026-04-11T14:06:21.947Z</time></trkpt><trkpt lat="45.474161391759964" lon="7.81000781023986"><ele>305.4</ele><time>2026-04-11T14:06:22.947Z</time></trkpt><trkpt lat="45.47413530433152" lon="7.8099035714401035"><ele>306.79999999999995</ele><time>2026-04-11T14:06:23.947Z</time></trkpt><trkpt lat="45.47417365644332" lon="7.809798851372998"><ele>308.20000000000005</ele><time>2026-04-11T14:06:25.948Z</time></trkpt><trkpt lat="45.47431380196417" lon="7.809851229730684"><ele>309.6</ele><time>2026-04-11T14:06:26.947Z</time></trkpt><trkpt lat="45.47439268097826" lon="7.809903243582631"><ele>311.0</ele><time>2026-04-11T14:06:27.948Z</time></trkpt><trkpt lat="45.47448112940333" lon="7.8099554974862455"><ele>311.0</ele><time>2026-04-11T14:06:28.948Z</time></trkpt><trkpt lat="45.47457105641556" lon="7.810020724072106"><ele>311.0</ele><time>2026-04-11T14:06:29.948Z</time></trkpt><trkpt lat="45.47466067150793" lon="7.8100955808961885"><ele>311.0</ele><time>2026-04-11T14:06:30.948Z</time></trkpt><trkpt lat="45.47474313675896" lon="7.810167407544678"><ele>311.0</ele><time>2026-04-11T14:06:31.948Z</time></trkpt><trkpt lat="45.47482754361661" lon="7.810246321741591"><ele>311.0</ele><time>2026-04-11T14:06:32.948Z</time></trkpt><trkpt lat="45.47489895977676" lon="7.810338380716894"><ele>311.40000000000003</ele><time>2026-04-11T14:06:33.948Z</time></trkpt><trkpt lat="45.47494336082631" lon="7.810445195917607"><ele>311.8</ele><time>2026-04-11T14:06:34.949Z</time></trkpt><trkpt lat="45.474969357037985" lon="7.810559517972746"><ele>312.20000000000005</ele><time>2026-04-11T14:06:35.949Z</time></trkpt><trkpt lat="45.47501824719448" lon="7.81067166469024"><ele>312.6</ele><time>2026-04-11T14:06:36.949Z</time></trkpt><trkpt lat="45.4750950442234" lon="7.81075704068705"><ele>313.0</ele><time>2026-04-11T14:06:37.949Z</time></trkpt><trkpt lat="45.47517975143209" lon="7.81080944846782"><ele>313.0</ele><time>2026-04-11T14:06:38.949Z</time></trkpt><trkpt lat="45.47526122372278" lon="7.810824855114897"><ele>313.0</ele><time>2026-04-11T14:06:39.949Z</time></trkpt><trkpt lat="45.47534699056065" lon="7.810792054227835"><ele>313.0</ele><time>2026-04-11T14:06:40.949Z</time></trkpt><trkpt lat="45.47543227405961" lon="7.81070739371224"><ele>313.0</ele><time>2026-04-11T14:06:41.949Z</time></trkpt><trkpt lat="45.475477742331236" lon="7.810576037547842"><ele>313.0</ele><time>2026-04-11T14:06:42.949Z</time></trkpt><trkpt lat="45.475511073034866" lon="7.810426987074312"><ele>313.8333333333333</ele><time>2026-04-11T14:06:43.949Z</time></trkpt><trkpt lat="45.475544558283524" lon="7.8103056092614445"><ele>314.66666666666663</ele><time>2026-04-11T14:06:44.949Z</time></trkpt><trkpt lat="45.47559816342252" lon="7.810190360135493"><ele>315.5</ele><time>2026-04-11T14:06:45.949Z</time></trkpt><trkpt lat="45.47562111313209" lon="7.810078112851373"><ele>316.3333333333333</ele><time>2026-04-11T14:06:46.95Z</time></trkpt><trkpt lat="45.47563267866932" lon="7.809969626578449"><ele>317.1666666666667</ele><time>2026-04-11T14:06:47.95Z</time></trkpt><trkpt lat="45.475610925552175" lon="7.809876100986323"><ele>318.0</ele><time>2026-04-11T14:06:48.95Z</time></trkpt><trkpt lat="45.47547146046376" lon="7.809768084997429"><ele>318.6</ele><time>2026-04-11T14:06:50.95Z</time></trkpt><trkpt lat="45.47537500197144" lon="7.809727995495963"><ele>319.20000000000005</ele><time>2026-04-11T14:06:51.95Z</time></trkpt><trkpt lat="45.475273625815355" lon="7.809670289426667"><ele>319.8</ele><time>2026-04-11T14:06:52.95Z</time></trkpt><trkpt lat="45.47517720490516" lon="7.809572646001946"><ele>320.40000000000003</ele><time>2026-04-11T14:06:53.95Z</time></trkpt><trkpt lat="45.47509545460749" lon="7.809459168248685"><ele>321.0</ele><time>2026-04-11T14:06:54.95Z</time></trkpt><trkpt lat="45.47501331036604" lon="7.809346480656101"><ele>323.25</ele><time>2026-04-11T14:06:55.95Z</time></trkpt><trkpt lat="45.47493561012922" lon="7.809223583014792"><ele>325.5</ele><time>2026-04-11T14:06:56.95Z</time></trkpt><trkpt lat="45.47486818470716" lon="7.809095096805789"><ele>327.75</ele><time>2026-04-11T14:06:57.95Z</time></trkpt><trkpt lat="45.474793779646824" lon="7.808970491209245"><ele>330.0</ele><time>2026-04-11T14:06:58.95Z</time></trkpt><trkpt lat="45.47471615461138" lon="7.808834465993854"><ele>330.0</ele><time>2026-04-11T14:06:59.95Z</time></trkpt><trkpt lat="45.47464429569741" lon="7.808720563330215"><ele>330.0</ele><time>2026-04-11T14:07:00.95Z</time></trkpt><trkpt lat="45.474559019338116" lon="7.808617726449089"><ele>330.0</ele><time>2026-04-11T14:07:01.95Z</time></trkpt><trkpt lat="45.47447495327284" lon="7.808516090021189"><ele>330.0</ele><time>2026-04-11T14:07:02.95Z</time></trkpt><trkpt lat="45.47439283779362" lon="7.808406924393241"><ele>330.0</ele><time>2026-04-11T14:07:03.95Z</time></trkpt><trkpt lat="45.47430958669756" lon="7.80830214939761"><ele>331.0</ele><time>2026-04-11T14:07:04.95Z</time></trkpt><trkpt lat="45.47422922763564" lon="7.808210959036148"><ele>332.0</ele><time>2026-04-11T14:07:05.95Z</time></trkpt><trkpt lat="45.47415628049194" lon="7.808103112399193"><ele>333.0</ele><time>2026-04-11T14:07:06.95Z</time></trkpt><trkpt lat="45.4741070814685" lon="7.807966238490501"><ele>334.0</ele><time>2026-04-11T14:07:07.951Z</time></trkpt><trkpt lat="45.47409127932648" lon="7.80782987050355"><ele>335.0</ele><time>2026-04-11T14:07:08.951Z</time></trkpt><trkpt lat="45.47407243386913" lon="7.807683383108205"><ele>335.2</ele><time>2026-04-11T14:07:09.951Z</time></trkpt><trkpt lat="45.47402766139147" lon="7.8075558178042455"><ele>335.4</ele><time>2026-04-11T14:07:10.951Z</time></trkpt><trkpt lat="45.47398265939597" lon="7.8074419005607"><ele>335.6</ele><time>2026-04-11T14:07:11.951Z</time></trkpt><trkpt lat="45.47390385656747" lon="7.807338832011753"><ele>335.8</ele><time>2026-04-11T14:07:12.951Z</time></trkpt><trkpt lat="45.473825585870955" lon="7.807267559674587"><ele>336.0</ele><time>2026-04-11T14:07:13.951Z</time></trkpt><trkpt lat="45.4737354720205" lon="7.807179358875021"><ele>336.0</ele><time>2026-04-11T14:07:14.951Z</time></trkpt><trkpt lat="45.47363538723428" lon="7.807120423766726"><ele>336.0</ele><time>2026-04-11T14:07:15.951Z</time></trkpt><trkpt lat="45.473544565637056" lon="7.807062225344178"><ele>336.0</ele><time>2026-04-11T14:07:16.951Z</time></trkpt><trkpt lat="45.47343758902385" lon="7.807006807198025"><ele>336.0</ele><time>2026-04-11T14:07:17.951Z</time></trkpt><trkpt lat="45.4733284628291" lon="7.806945733038168"><ele>336.0</ele><time>2026-04-11T14:07:18.951Z</time></trkpt><trkpt lat="45.47323698675899" lon="7.806893867447629"><ele>336.0</ele><time>2026-04-11T14:07:19.951Z</time></trkpt><trkpt lat="45.47313982955011" lon="7.806831705994626"><ele>336.0</ele><time>2026-04-11T14:07:20.951Z</time></trkpt><trkpt lat="45.47303991243072" lon="7.806814309055532"><ele>336.0</ele><time>2026-04-11T14:07:21.951Z</time></trkpt><trkpt lat="45.472925277692916" lon="7.806791746871529"><ele>336.0</ele><time>2026-04-11T14:07:22.951Z</time></trkpt><trkpt lat="45.472815521393166" lon="7.806845833483921"><ele>336.0</ele><time>2026-04-11T14:07:23.951Z</time></trkpt><trkpt lat="45.47270588599423" lon="7.806895575208607"><ele>336.6</ele><time>2026-04-11T14:07:24.951Z</time></trkpt><trkpt lat="45.47260104816112" lon="7.806932450285861"><ele>337.20000000000005</ele><time>2026-04-11T14:07:25.951Z</time></trkpt><trkpt lat="45.472487292530644" lon="7.806938347334281"><ele>337.79999999999995</ele><time>2026-04-11T14:07:26.951Z</time></trkpt><trkpt lat="45.47236674877275" lon="7.806941567678784"><ele>338.4</ele><time>2026-04-11T14:07:27.951Z</time></trkpt><trkpt lat="45.47226165519086" lon="7.8069303562725985"><ele>339.0</ele><time>2026-04-11T14:07:28.951Z</time></trkpt><trkpt lat="45.47214507369092" lon="7.806905009420908"><ele>340.75</ele><time>2026-04-11T14:07:29.951Z</time></trkpt><trkpt lat="45.4720280961038" lon="7.806927999394568"><ele>342.5</ele><time>2026-04-11T14:07:30.951Z</time></trkpt><trkpt lat="45.471933364552584" lon="7.806998219458069"><ele>344.25</ele><time>2026-04-11T14:07:31.951Z</time></trkpt><trkpt lat="45.471827926524945" lon="7.807061412841694"><ele>346.0</ele><time>2026-04-11T14:07:32.951Z</time></trkpt><trkpt lat="45.47172078289137" lon="7.8071173662008"><ele>346.0</ele><time>2026-04-11T14:07:33.951Z</time></trkpt><trkpt lat="45.47161564501303" lon="7.807135500266466"><ele>346.0</ele><time>2026-04-11T14:07:34.951Z</time></trkpt><trkpt lat="45.47150571651816" lon="7.807152553829485"><ele>346.0</ele><time>2026-04-11T14:07:35.951Z</time></trkpt><trkpt lat="45.47140104975654" lon="7.807150559246378"><ele>346.0</ele><time>2026-04-11T14:07:36.951Z</time></trkpt><trkpt lat="45.4713153990415" lon="7.807158838031606"><ele>346.0</ele><time>2026-04-11T14:07:37.951Z</time></trkpt><trkpt lat="45.471240571418726" lon="7.8071579832716775"><ele>346.0</ele><time>2026-04-11T14:07:38.951Z</time></trkpt><trkpt lat="45.47116046529136" lon="7.807106784471289"><ele>346.0</ele><time>2026-04-11T14:07:40.951Z</time></trkpt><trkpt lat="45.47125747453742" lon="7.80702605684889"><ele>346.0</ele><time>2026-04-11T14:07:43.951Z</time></trkpt><trkpt lat="45.47134431470669" lon="7.807020474265752"><ele>346.0</ele><time>2026-04-11T14:07:44.952Z</time></trkpt><trkpt lat="45.471439212649614" lon="7.807007656382553"><ele>346.0</ele><time>2026-04-11T14:07:45.952Z</time></trkpt><trkpt lat="45.47154820030639" lon="7.8069570071724375"><ele>346.0</ele><time>2026-04-11T14:07:46.952Z</time></trkpt><trkpt lat="45.47162752798009" lon="7.806843823704104"><ele>346.0</ele><time>2026-04-11T14:07:47.952Z</time></trkpt><trkpt lat="45.47166764659924" lon="7.806750603921605"><ele>346.0</ele><time>2026-04-11T14:07:48.952Z</time></trkpt><trkpt lat="45.47170851783779" lon="7.806653764779088"><ele>346.0</ele><time>2026-04-11T14:07:49.952Z</time></trkpt><trkpt lat="45.4717609323718" lon="7.806571400512688"><ele>346.0</ele><time>2026-04-11T14:07:50.952Z</time></trkpt><trkpt lat="45.471840534224654" lon="7.806532536848998"><ele>346.0</ele><time>2026-04-11T14:07:51.952Z</time></trkpt><trkpt lat="45.47192998847377" lon="7.806488121664726"><ele>348.4</ele><time>2026-04-11T14:07:52.952Z</time></trkpt><trkpt lat="45.47203107010417" lon="7.806433605977387"><ele>350.8</ele><time>2026-04-11T14:07:53.952Z</time></trkpt><trkpt lat="45.47212275652096" lon="7.806362269500776"><ele>353.2</ele><time>2026-04-11T14:07:54.952Z</time></trkpt><trkpt lat="45.47220772425539" lon="7.806280817586628"><ele>355.59999999999997</ele><time>2026-04-11T14:07:55.952Z</time></trkpt><trkpt lat="45.47228897980735" lon="7.806192416854341"><ele>358.0</ele><time>2026-04-11T14:07:56.952Z</time></trkpt><trkpt lat="45.472373412661604" lon="7.806104325738298"><ele>358.0</ele><time>2026-04-11T14:07:57.952Z</time></trkpt><trkpt lat="45.472453989787226" lon="7.806028091947112"><ele>358.0</ele><time>2026-04-11T14:07:58.952Z</time></trkpt><trkpt lat="45.47256169857273" lon="7.805962932291867"><ele>358.0</ele><time>2026-04-11T14:07:59.952Z</time></trkpt><trkpt lat="45.47267716334563" lon="7.805912384336373"><ele>358.0</ele><time>2026-04-11T14:08:00.952Z</time></trkpt><trkpt lat="45.47279144657716" lon="7.805869571244168"><ele>361.2</ele><time>2026-04-11T14:08:01.952Z</time></trkpt><trkpt lat="45.4728938236232" lon="7.805832050519378"><ele>364.4</ele><time>2026-04-11T14:08:02.952Z</time></trkpt><trkpt lat="45.473007517648725" lon="7.80579974325596"><ele>367.59999999999997</ele><time>2026-04-11T14:08:03.952Z</time></trkpt><trkpt lat="45.47311462909947" lon="7.805762802312522"><ele>370.79999999999995</ele><time>2026-04-11T14:08:04.952Z</time></trkpt><trkpt lat="45.47322341670361" lon="7.805724793003149"><ele>374.0</ele><time>2026-04-11T14:08:05.952Z</time></trkpt><trkpt lat="45.4733323722303" lon="7.805683366663175"><ele>374.0</ele><time>2026-04-11T14:08:06.952Z</time></trkpt><trkpt lat="45.473457930345226" lon="7.805628820036039"><ele>374.0</ele><time>2026-04-11T14:08:07.952Z</time></trkpt><trkpt lat="45.47357655921979" lon="7.805572369595272"><ele>374.0</ele><time>2026-04-11T14:08:08.952Z</time></trkpt><trkpt lat="45.47370032607848" lon="7.805492322843388"><ele>374.0</ele><time>2026-04-11T14:08:09.952Z</time></trkpt><trkpt lat="45.473789822215736" lon="7.805380274087747"><ele>374.6</ele><time>2026-04-11T14:08:10.952Z</time></trkpt><trkpt lat="45.47387078642274" lon="7.805294584091069"><ele>375.2</ele><time>2026-04-11T14:08:11.952Z</time></trkpt><trkpt lat="45.473976930178964" lon="7.805388378477523"><ele>375.8</ele><time>2026-04-11T14:08:12.952Z</time></trkpt><trkpt lat="45.47408383858474" lon="7.805400026474207"><ele>376.40000000000003</ele><time>2026-04-11T14:08:14.952Z</time></trkpt><trkpt lat="45.474192505768926" lon="7.805419577085095"><ele>377.0</ele><time>2026-04-11T14:08:15.952Z</time></trkpt><trkpt lat="45.47430882567879" lon="7.805439119729733"><ele>377.0</ele><time>2026-04-11T14:08:16.952Z</time></trkpt><trkpt lat="45.47442174441479" lon="7.805451180795349"><ele>377.0</ele><time>2026-04-11T14:08:17.952Z</time></trkpt><trkpt lat="45.474528352903135" lon="7.805453031587555"><ele>377.0</ele><time>2026-04-11T14:08:18.952Z</time></trkpt><trkpt lat="45.47463938982055" lon="7.805404462294261"><ele>377.0</ele><time>2026-04-11T14:08:19.949Z</time></trkpt><trkpt lat="45.474757301001034" lon="7.805345871114936"><ele>378.0</ele><time>2026-04-11T14:08:20.948Z</time></trkpt><trkpt lat="45.474880101976176" lon="7.805298724308603"><ele>379.0</ele><time>2026-04-11T14:08:21.948Z</time></trkpt><trkpt lat="45.474995146139925" lon="7.805313252667102"><ele>380.0</ele><time>2026-04-11T14:08:22.948Z</time></trkpt><trkpt lat="45.47509731783634" lon="7.805319200129207"><ele>381.0</ele><time>2026-04-11T14:08:23.949Z</time></trkpt><trkpt lat="45.475221765734176" lon="7.805325654546843"><ele>381.0</ele><time>2026-04-11T14:08:24.949Z</time></trkpt><trkpt lat="45.47535251278532" lon="7.805330770374824"><ele>381.0</ele><time>2026-04-11T14:08:25.949Z</time></trkpt><trkpt lat="45.47547434826834" lon="7.805349275978015"><ele>381.0</ele><time>2026-04-11T14:08:26.949Z</time></trkpt><trkpt lat="45.47557685019269" lon="7.805424926683866"><ele>381.0</ele><time>2026-04-11T14:08:27.949Z</time></trkpt><trkpt lat="45.475683126918625" lon="7.805488204200714"><ele>382.25</ele><time>2026-04-11T14:08:28.949Z</time></trkpt><trkpt lat="45.4757936698007" lon="7.805516698484572"><ele>383.5</ele><time>2026-04-11T14:08:29.948Z</time></trkpt><trkpt lat="45.47590773553622" lon="7.805510315659983"><ele>384.75</ele><time>2026-04-11T14:08:30.948Z</time></trkpt><trkpt lat="45.47601467899832" lon="7.805472261718067"><ele>386.0</ele><time>2026-04-11T14:08:31.948Z</time></trkpt><trkpt lat="45.476119043682935" lon="7.805402521887667"><ele>386.0</ele><time>2026-04-11T14:08:32.948Z</time></trkpt><trkpt lat="45.47622211281516" lon="7.805349252128836"><ele>386.0</ele><time>2026-04-11T14:08:33.948Z</time></trkpt><trkpt lat="45.47634394725888" lon="7.805294165502898"><ele>386.0</ele><time>2026-04-11T14:08:34.948Z</time></trkpt><trkpt lat="45.47646168473699" lon="7.8052671494801205"><ele>386.0</ele><time>2026-04-11T14:08:35.948Z</time></trkpt><trkpt lat="45.4765700438827" lon="7.805223604224427"><ele>386.8</ele><time>2026-04-11T14:08:36.948Z</time></trkpt><trkpt lat="45.47667206723509" lon="7.805180570790229"><ele>387.6</ele><time>2026-04-11T14:08:37.948Z</time></trkpt><trkpt lat="45.47676504356083" lon="7.805149424494018"><ele>388.4</ele><time>2026-04-11T14:08:38.948Z</time></trkpt><trkpt lat="45.476879608304614" lon="7.805117927596376"><ele>389.2</ele><time>2026-04-11T14:08:39.948Z</time></trkpt><trkpt lat="45.476992415266686" lon="7.805083190287679"><ele>390.0</ele><time>2026-04-11T14:08:40.948Z</time></trkpt><trkpt lat="45.47710281274862" lon="7.80504610013992"><ele>392.6</ele><time>2026-04-11T14:08:41.948Z</time></trkpt><trkpt lat="45.477204332150784" lon="7.804995832832396"><ele>395.2</ele><time>2026-04-11T14:08:42.948Z</time></trkpt><trkpt lat="45.47729971703526" lon="7.804924503553854"><ele>397.79999999999995</ele><time>2026-04-11T14:08:43.949Z</time></trkpt><trkpt lat="45.47738694744485" lon="7.804839872346761"><ele>400.4</ele><time>2026-04-11T14:08:44.949Z</time></trkpt><trkpt lat="45.47746961316129" lon="7.804740379969024"><ele>403.0</ele><time>2026-04-11T14:08:45.949Z</time></trkpt><trkpt lat="45.477565303845644" lon="7.804677336578794"><ele>403.0</ele><time>2026-04-11T14:08:46.949Z</time></trkpt><trkpt lat="45.477669417144696" lon="7.804683131553757"><ele>403.0</ele><time>2026-04-11T14:08:47.949Z</time></trkpt><trkpt lat="45.47777023080839" lon="7.804744774168304"><ele>403.0</ele><time>2026-04-11T14:08:48.949Z</time></trkpt><trkpt lat="45.47786854442232" lon="7.804792838677747"><ele>403.0</ele><time>2026-04-11T14:08:49.949Z</time></trkpt><trkpt lat="45.477948955101894" lon="7.804837900466977"><ele>403.0</ele><time>2026-04-11T14:08:50.949Z</time></trkpt><trkpt lat="45.47803317374742" lon="7.804898639724978"><ele>404.33333333333337</ele><time>2026-04-11T14:08:51.949Z</time></trkpt><trkpt lat="45.47809200795626" lon="7.804951275627055"><ele>405.6666666666667</ele><time>2026-04-11T14:08:52.949Z</time></trkpt><trkpt lat="45.47816179477427" lon="7.804977029526165"><ele>407.0</ele><time>2026-04-11T14:08:54.949Z</time></trkpt><trkpt lat="45.478244609855075" lon="7.8050046641328725"><ele>408.33333333333337</ele><time>2026-04-11T14:08:58.949Z</time></trkpt><trkpt lat="45.478348704907795" lon="7.805044163930491"><ele>409.6666666666667</ele><time>2026-04-11T14:09:00.949Z</time></trkpt><trkpt lat="45.478430365820635" lon="7.8050743065906225"><ele>411.0</ele><time>2026-04-11T14:09:02.949Z</time></trkpt><trkpt lat="45.478514518584575" lon="7.805063059419171"><ele>411.0</ele><time>2026-04-11T14:09:04.949Z</time></trkpt><trkpt lat="45.47858238369902" lon="7.805069898706608"><ele>411.0</ele><time>2026-04-11T14:09:06.949Z</time></trkpt><trkpt lat="45.47864608785122" lon="7.805092644888729"><ele>411.0</ele><time>2026-04-11T14:09:58.95Z</time></trkpt><trkpt lat="45.47874888320327" lon="7.805120025694434"><ele>411.0</ele><time>2026-04-11T14:10:01.95Z</time></trkpt><trkpt lat="45.47883633793897" lon="7.805141310400624"><ele>411.0</ele><time>2026-04-11T14:10:03.95Z</time></trkpt><trkpt lat="45.47891327418252" lon="7.805102039299675"><ele>411.0</ele><time>2026-04-11T14:10:06.95Z</time></trkpt><trkpt lat="45.478963033715026" lon="7.805043433429336"><ele>412.6</ele><time>2026-04-11T14:10:10.95Z</time></trkpt><trkpt lat="45.47903734910783" lon="7.804932642137096"><ele>414.20000000000005</ele><time>2026-04-11T14:10:12.951Z</time></trkpt><trkpt lat="45.478970068062154" lon="7.804852515669184"><ele>415.79999999999995</ele><time>2026-04-11T14:10:15.951Z</time></trkpt><trkpt lat="45.47888163095069" lon="7.804866362103799"><ele>417.4</ele><time>2026-04-11T14:10:17.951Z</time></trkpt><trkpt lat="45.47882805972187" lon="7.804763983872771"><ele>419.0</ele><time>2026-04-11T14:10:19.951Z</time></trkpt><trkpt lat="45.47884460856131" lon="7.804642143080378"><ele>419.0</ele><time>2026-04-11T14:10:21.951Z</time></trkpt><trkpt lat="45.47889039243037" lon="7.804545094451902"><ele>419.0</ele><time>2026-04-11T14:10:23.951Z</time></trkpt><trkpt lat="45.47897464454747" lon="7.804453756320505"><ele>419.0</ele><time>2026-04-11T14:10:25.948Z</time></trkpt><trkpt lat="45.47906078474959" lon="7.80433833076152"><ele>419.0</ele><time>2026-04-11T14:10:27.947Z</time></trkpt><trkpt lat="45.47914305601759" lon="7.804275772362346"><ele>419.0</ele><time>2026-04-11T14:10:28.948Z</time></trkpt><trkpt lat="45.47919893109843" lon="7.804202031018493"><ele>423.0</ele><time>2026-04-11T14:10:29.948Z</time></trkpt><trkpt lat="45.47923169997087" lon="7.804082164274368"><ele>427.0</ele><time>2026-04-11T14:10:31.948Z</time></trkpt><trkpt lat="45.4791943910861" lon="7.804000944396364"><ele>431.0</ele><time>2026-04-11T14:10:33.948Z</time></trkpt><trkpt lat="45.47911184918975" lon="7.8038892919125225"><ele>435.0</ele><time>2026-04-11T14:10:35.948Z</time></trkpt><trkpt lat="45.479119829807146" lon="7.803790820716429"><ele>439.0</ele><time>2026-04-11T14:10:37.948Z</time></trkpt><trkpt lat="45.47920028110286" lon="7.803671355246054"><ele>439.00000000000006</ele><time>2026-04-11T14:10:39.948Z</time></trkpt><trkpt lat="45.47931305098719" lon="7.8036156801456205"><ele>439.0</ele><time>2026-04-11T14:10:41.948Z</time></trkpt><trkpt lat="45.47939097112048" lon="7.803595119293105"><ele>439.0</ele><time>2026-04-11T14:10:44.948Z</time></trkpt><trkpt lat="45.479465850228216" lon="7.803595413039148"><ele>439.0</ele><time>2026-04-11T14:10:46.948Z</time></trkpt><trkpt lat="45.479539546002776" lon="7.803573580561434"><ele>439.00000000000006</ele><time>2026-04-11T14:10:48.948Z</time></trkpt><trkpt lat="45.47955717800425" lon="7.803480317087684"><ele>439.0</ele><time>2026-04-11T14:10:50.948Z</time></trkpt><trkpt lat="45.479531332945655" lon="7.8033874795377"><ele>443.5</ele><time>2026-04-11T14:10:52.948Z</time></trkpt><trkpt lat="45.47944501464787" lon="7.803279873859615"><ele>448.0</ele><time>2026-04-11T14:10:54.948Z</time></trkpt><trkpt lat="45.47940473828469" lon="7.803199478926995"><ele>452.5</ele><time>2026-04-11T14:10:56.948Z</time></trkpt><trkpt lat="45.479604504112864" lon="7.803165670761637"><ele>457.0</ele><time>2026-04-11T14:11:01.948Z</time></trkpt><trkpt lat="45.47969190021127" lon="7.803233213385759"><ele>461.00000000000006</ele><time>2026-04-11T14:11:03.949Z</time></trkpt><trkpt lat="45.47975655924665" lon="7.8032346551999545"><ele>465.0</ele><time>2026-04-11T14:11:06.949Z</time></trkpt><trkpt lat="45.47977304740592" lon="7.8030857246115595"><ele>469.0</ele><time>2026-04-11T14:11:08.949Z</time></trkpt><trkpt lat="45.47979865832641" lon="7.802932758029361"><ele>473.0</ele><time>2026-04-11T14:11:10.949Z</time></trkpt><trkpt lat="45.47979165585962" lon="7.802800769384914"><ele>477.00000000000006</ele><time>2026-04-11T14:11:12.949Z</time></trkpt><trkpt lat="45.47978414180953" lon="7.802696888221996"><ele>481.0</ele><time>2026-04-11T14:11:13.949Z</time></trkpt><trkpt lat="45.47978193949956" lon="7.802595189109892"><ele>481.0</ele><time>2026-04-11T14:11:15.949Z</time></trkpt><trkpt lat="45.4799596707149" lon="7.8026158736302875"><ele>481.0</ele><time>2026-04-11T14:11:34.949Z</time></trkpt><trkpt lat="45.480030250644695" lon="7.802669673816579"><ele>481.0</ele><time>2026-04-11T14:11:37.949Z</time></trkpt><trkpt lat="45.48006371507346" lon="7.802812221533508"><ele>481.0</ele><time>2026-04-11T14:11:39.949Z</time></trkpt><trkpt lat="45.48010297701732" lon="7.802994887476568"><ele>481.0</ele><time>2026-04-11T14:11:41.949Z</time></trkpt><trkpt lat="45.48012961303028" lon="7.803137067208593"><ele>481.0</ele><time>2026-04-11T14:11:42.949Z</time></trkpt><trkpt lat="45.48014446690713" lon="7.803228227645158"><ele>481.0</ele><time>2026-04-11T14:11:43.949Z</time></trkpt><trkpt lat="45.48019734144033" lon="7.803388804881608"><ele>481.0</ele><time>2026-04-11T14:11:45.949Z</time></trkpt><trkpt lat="45.48023460733466" lon="7.803504520350381"><ele>481.0</ele><time>2026-04-11T14:11:46.949Z</time></trkpt><trkpt lat="45.4802433499184" lon="7.803624288031158"><ele>483.6</ele><time>2026-04-11T14:11:47.949Z</time></trkpt><trkpt lat="45.48025837529949" lon="7.803739955271586"><ele>486.20000000000005</ele><time>2026-04-11T14:11:48.95Z</time></trkpt><trkpt lat="45.480313315005745" lon="7.803880927061983"><ele>488.79999999999995</ele><time>2026-04-11T14:11:50.95Z</time></trkpt><trkpt lat="45.4803672204576" lon="7.803934642799431"><ele>491.4</ele><time>2026-04-11T14:11:51.95Z</time></trkpt><trkpt lat="45.4804757560072" lon="7.803975410730337"><ele>494.0</ele><time>2026-04-11T14:11:53.95Z</time></trkpt><trkpt lat="45.48058692352424" lon="7.803977079310899"><ele>493.99999999999994</ele><time>2026-04-11T14:11:55.95Z</time></trkpt><trkpt lat="45.48066739988606" lon="7.803982410318408"><ele>494.0</ele><time>2026-04-11T14:11:56.95Z</time></trkpt><trkpt lat="45.48075466347296" lon="7.803999792603679"><ele>494.0</ele><time>2026-04-11T14:11:57.95Z</time></trkpt><trkpt lat="45.480854438454216" lon="7.804017818416951"><ele>494.0</ele><time>2026-04-11T14:11:58.95Z</time></trkpt><trkpt lat="45.48093544309059" lon="7.804038327650457"><ele>493.99999999999994</ele><time>2026-04-11T14:11:59.95Z</time></trkpt><trkpt lat="45.481026794648876" lon="7.804053753150001"><ele>494.0</ele><time>2026-04-11T14:12:00.95Z</time></trkpt><trkpt lat="45.48111081050044" lon="7.804054711299463"><ele>493.99999999999994</ele><time>2026-04-11T14:12:01.95Z</time></trkpt><trkpt lat="45.48118812007028" lon="7.804073679511839"><ele>494.0</ele><time>2026-04-11T14:12:02.95Z</time></trkpt><trkpt lat="45.481279732645184" lon="7.804092667900197"><ele>494.0</ele><time>2026-04-11T14:12:03.95Z</time></trkpt><trkpt lat="45.48135956718267" lon="7.804115581703234"><ele>494.0</ele><time>2026-04-11T14:12:04.95Z</time></trkpt><trkpt lat="45.48142482292368" lon="7.8041284735895005"><ele>493.99999999999994</ele><time>2026-04-11T14:12:05.95Z</time></trkpt><trkpt lat="45.481503600467214" lon="7.804152878830659"><ele>494.0</ele><time>2026-04-11T14:12:06.95Z</time></trkpt><trkpt lat="45.48147707107065" lon="7.804050196450213"><ele>493.99999999999994</ele><time>2026-04-11T14:12:11.95Z</time></trkpt><trkpt lat="45.48138321338547" lon="7.803996962356362"><ele>494.0</ele><time>2026-04-11T14:12:13.95Z</time></trkpt><trkpt lat="45.48131023790417" lon="7.803946714126673"><ele>494.0</ele><time>2026-04-11T14:12:15.95Z</time></trkpt><trkpt lat="45.48125817766676" lon="7.803890000194793"><ele>494.0</ele><time>2026-04-11T14:12:16.95Z</time></trkpt><trkpt lat="45.48116785449758" lon="7.803777380296588"><ele>493.99999999999994</ele><time>2026-04-11T14:12:18.95Z</time></trkpt><trkpt lat="45.48112957254079" lon="7.803703662977169"><ele>494.0</ele><time>2026-04-11T14:12:19.95Z</time></trkpt><trkpt lat="45.48102654349814" lon="7.803573502459464"><ele>498.4</ele><time>2026-04-11T14:12:21.95Z</time></trkpt><trkpt lat="45.480939094090424" lon="7.80348792680285"><ele>502.79999999999995</ele><time>2026-04-11T14:12:22.95Z</time></trkpt><trkpt lat="45.480884417479196" lon="7.803412961091274"><ele>507.20000000000005</ele><time>2026-04-11T14:12:23.95Z</time></trkpt><trkpt lat="45.48083041032089" lon="7.803340185090245"><ele>511.6</ele><time>2026-04-11T14:12:24.95Z</time></trkpt><trkpt lat="45.480804661025644" lon="7.803218385842013"><ele>516.0</ele><time>2026-04-11T14:12:26.95Z</time></trkpt><trkpt lat="45.48094367100464" lon="7.803263141120131"><ele>516.0</ele><time>2026-04-11T14:12:30.95Z</time></trkpt><trkpt lat="45.481014388145596" lon="7.803291661616414"><ele>516.0</ele><time>2026-04-11T14:12:31.947Z</time></trkpt><trkpt lat="45.48109227430485" lon="7.803313685645347"><ele>516.0</ele><time>2026-04-11T14:12:32.947Z</time></trkpt><trkpt lat="45.48117323464843" lon="7.803326722815634"><ele>516.0</ele><time>2026-04-11T14:12:33.947Z</time></trkpt><trkpt lat="45.48127839040163" lon="7.803373166408661"><ele>516.0</ele><time>2026-04-11T14:12:34.946Z</time></trkpt><trkpt lat="45.481356467493555" lon="7.803382350435604"><ele>516.0</ele><time>2026-04-11T14:12:35.946Z</time></trkpt><trkpt lat="45.4814193086461" lon="7.803411168925698"><ele>516.0</ele><time>2026-04-11T14:12:36.946Z</time></trkpt><trkpt lat="45.481401076289295" lon="7.803314305371275"><ele>516.0</ele><time>2026-04-11T14:12:41.946Z</time></trkpt><trkpt lat="45.48133825179262" lon="7.8032448784149455"><ele>516.0</ele><time>2026-04-11T14:12:43.946Z</time></trkpt><trkpt lat="45.48128027492662" lon="7.803205552010011"><ele>516.0</ele><time>2026-04-11T14:12:45.947Z</time></trkpt><trkpt lat="45.48121099092314" lon="7.8031892869941455"><ele>516.0</ele><time>2026-04-11T14:12:58.947Z</time></trkpt><trkpt lat="45.48112029089435" lon="7.803133999338211"><ele>516.0</ele><time>2026-04-11T14:13:05.947Z</time></trkpt><trkpt lat="45.48109973176511" lon="7.803039749365996"><ele>516.0</ele><time>2026-04-11T14:13:06.947Z</time></trkpt><trkpt lat="45.48107271325448" lon="7.802909081823301"><ele>516.0</ele><time>2026-04-11T14:13:07.947Z</time></trkpt><trkpt lat="45.481053151634235" lon="7.802800612039105"><ele>516.0</ele><time>2026-04-11T14:13:08.947Z</time></trkpt><trkpt lat="45.48103690887436" lon="7.802694284454642"><ele>516.0</ele><time>2026-04-11T14:13:09.947Z</time></trkpt><trkpt lat="45.481055101750705" lon="7.802523746454844"><ele>516.0</ele><time>2026-04-11T14:13:11.947Z</time></trkpt><trkpt lat="45.481081792732994" lon="7.802425693947247"><ele>516.0</ele><time>2026-04-11T14:13:12.947Z</time></trkpt><trkpt lat="45.481114210624135" lon="7.802313713236316"><ele>521.4</ele><time>2026-04-11T14:13:13.947Z</time></trkpt><trkpt lat="45.48114160742613" lon="7.802187533021765"><ele>526.8</ele><time>2026-04-11T14:13:14.947Z</time></trkpt><trkpt lat="45.48117193085881" lon="7.802081744287236"><ele>532.1999999999999</ele><time>2026-04-11T14:13:15.947Z</time></trkpt><trkpt lat="45.4811839109502" lon="7.801942327044418"><ele>537.6</ele><time>2026-04-11T14:13:16.947Z</time></trkpt><trkpt lat="45.481190608822864" lon="7.801792166553439"><ele>543.0</ele><time>2026-04-11T14:13:17.947Z</time></trkpt><trkpt lat="45.481223733324654" lon="7.801658995756623"><ele>544.0</ele><time>2026-04-11T14:13:18.947Z</time></trkpt><trkpt lat="45.48125592216313" lon="7.801505180748788"><ele>545.0</ele><time>2026-04-11T14:13:19.947Z</time></trkpt><trkpt lat="45.48127404373439" lon="7.801355317895442"><ele>546.0</ele><time>2026-04-11T14:13:20.947Z</time></trkpt><trkpt lat="45.48128119473782" lon="7.801239073510728"><ele>547.0</ele><time>2026-04-11T14:13:21.947Z</time></trkpt><trkpt lat="45.481293922209765" lon="7.801137225523322"><ele>548.0</ele><time>2026-04-11T14:13:22.947Z</time></trkpt><trkpt lat="45.48130152253732" lon="7.801022613704497"><ele>549.6666666666666</ele><time>2026-04-11T14:13:23.947Z</time></trkpt><trkpt lat="45.48127988336882" lon="7.800921673879339"><ele>551.3333333333333</ele><time>2026-04-11T14:13:24.947Z</time></trkpt><trkpt lat="45.48123741516288" lon="7.800791426530969"><ele>553.0</ele><time>2026-04-11T14:13:25.947Z</time></trkpt><trkpt lat="45.481194971626856" lon="7.800662409196077"><ele>554.6666666666666</ele><time>2026-04-11T14:13:26.948Z</time></trkpt><trkpt lat="45.48115314141161" lon="7.800570517503261"><ele>556.3333333333334</ele><time>2026-04-11T14:13:27.948Z</time></trkpt><trkpt lat="45.48110347482928" lon="7.800500972907325"><ele>558.0</ele><time>2026-04-11T14:13:29.948Z</time></trkpt><trkpt lat="45.48121189467757" lon="7.800550741542711"><ele>565.1999999999999</ele><time>2026-04-11T14:13:33.948Z</time></trkpt><trkpt lat="45.48131608402343" lon="7.800626344510497"><ele>572.4</ele><time>2026-04-11T14:13:35.948Z</time></trkpt><trkpt lat="45.48138333126208" lon="7.800746535093065"><ele>579.5999999999999</ele><time>2026-04-11T14:13:37.948Z</time></trkpt><trkpt lat="45.48144809576074" lon="7.800894041609113"><ele>586.8</ele><time>2026-04-11T14:13:39.948Z</time></trkpt><trkpt lat="45.48146155016561" lon="7.801007872734188"><ele>594.0</ele><time>2026-04-11T14:13:40.948Z</time></trkpt><trkpt lat="45.48151024297475" lon="7.801095920946253"><ele>594.0</ele><time>2026-04-11T14:13:41.948Z</time></trkpt><trkpt lat="45.48154563300694" lon="7.801170579253703"><ele>594.0</ele><time>2026-04-11T14:13:42.948Z</time></trkpt><trkpt lat="45.4815621591974" lon="7.8013417852952465"><ele>594.0</ele><time>2026-04-11T14:13:44.948Z</time></trkpt><trkpt lat="45.48156908153101" lon="7.801477012190325"><ele>594.0</ele><time>2026-04-11T14:13:45.948Z</time></trkpt><trkpt lat="45.48157965654562" lon="7.801573482673415"><ele>594.0</ele><time>2026-04-11T14:13:46.948Z</time></trkpt><trkpt lat="45.48157543267585" lon="7.801666964949355"><ele>594.0</ele><time>2026-04-11T14:13:47.948Z</time></trkpt><trkpt lat="45.481572355509805" lon="7.80181887163047"><ele>594.0</ele><time>2026-04-11T14:13:49.948Z</time></trkpt><trkpt lat="45.48176838944609" lon="7.801836251122682"><ele>594.0</ele><time>2026-04-11T14:13:57.948Z</time></trkpt><trkpt lat="45.48180544919943" lon="7.801749249194752"><ele>594.0</ele><time>2026-04-11T14:13:59.948Z</time></trkpt><trkpt lat="45.48185467875581" lon="7.801688256951681"><ele>594.0</ele><time>2026-04-11T14:14:02.948Z</time></trkpt><trkpt lat="45.481776223326875" lon="7.801673297171755"><ele>594.0</ele><time>2026-04-11T14:14:06.948Z</time></trkpt><trkpt lat="45.48180828078939" lon="7.8015920209808"><ele>594.0</ele><time>2026-04-11T14:14:12.949Z</time></trkpt><trkpt lat="45.48187048916048" lon="7.801564661786103"><ele>594.0</ele><time>2026-04-11T14:14:14.949Z</time></trkpt><trkpt lat="45.48190589358406" lon="7.801483703582452"><ele>594.0</ele><time>2026-04-11T14:14:18.949Z</time></trkpt><trkpt lat="45.4818858900248" lon="7.801359861196417"><ele>594.0</ele><time>2026-04-11T14:14:22.949Z</time></trkpt><trkpt lat="45.48193174820585" lon="7.801243856120779"><ele>594.0</ele><time>2026-04-11T14:14:25.949Z</time></trkpt><trkpt lat="45.48194792842316" lon="7.801135616307389"><ele>594.0</ele><time>2026-04-11T14:14:28.949Z</time></trkpt><trkpt lat="45.48194791707828" lon="7.801013272607256"><ele>595.8571428571429</ele><time>2026-04-11T14:15:23.946Z</time></trkpt><trkpt lat="45.481963916148025" lon="7.800914119390462"><ele>597.7142857142858</ele><time>2026-04-11T14:15:29.946Z</time></trkpt><trkpt lat="45.48198619667698" lon="7.800819541355984"><ele>599.5714285714286</ele><time>2026-04-11T14:15:32.946Z</time></trkpt><trkpt lat="45.4819896923699" lon="7.800728790869967"><ele>601.4285714285714</ele><time>2026-04-11T14:15:34.946Z</time></trkpt><trkpt lat="45.48201272780063" lon="7.800609882183205"><ele>603.2857142857142</ele><time>2026-04-11T14:15:36.946Z</time></trkpt><trkpt lat="45.482033547547395" lon="7.800513129204036"><ele>605.1428571428571</ele><time>2026-04-11T14:15:38.946Z</time></trkpt><trkpt lat="45.482081099656156" lon="7.800410996697991"><ele>607.0</ele><time>2026-04-11T14:15:41.946Z</time></trkpt><trkpt lat="45.4820981593838" lon="7.800286464860119"><ele>609.1666666666667</ele><time>2026-04-11T14:15:43.946Z</time></trkpt><trkpt lat="45.48212337118819" lon="7.800145927989719"><ele>611.3333333333334</ele><time>2026-04-11T14:15:46.946Z</time></trkpt><trkpt lat="45.48207492957622" lon="7.80001685146977"><ele>613.5</ele><time>2026-04-11T14:15:48.946Z</time></trkpt><trkpt lat="45.48204958035012" lon="7.799916267580184"><ele>615.6666666666666</ele><time>2026-04-11T14:15:50.946Z</time></trkpt><trkpt lat="45.4820411566003" lon="7.799823116528024"><ele>617.8333333333333</ele><time>2026-04-11T14:15:52.946Z</time></trkpt><trkpt lat="45.48212551024066" lon="7.7998347668308226"><ele>620.0</ele><time>2026-04-11T14:15:57.946Z</time></trkpt><trkpt lat="45.48222438852949" lon="7.799871100532157"><ele>620.0</ele><time>2026-04-11T14:16:13.947Z</time></trkpt><trkpt lat="45.48215862924769" lon="7.799858932769038"><ele>620.0</ele><time>2026-04-11T14:18:52.943Z</time></trkpt><trkpt lat="45.482118838791294" lon="7.799767603549668"><ele>620.0</ele><time>2026-04-11T14:18:56.943Z</time></trkpt><trkpt lat="45.48209380596453" lon="7.799868973405662"><ele>620.0</ele><time>2026-04-11T14:19:04.944Z</time></trkpt><trkpt lat="45.48209422163165" lon="7.79998186136958"><ele>620.0</ele><time>2026-04-11T14:19:07.944Z</time></trkpt><trkpt lat="45.482094411222604" lon="7.800090756438687"><ele>620.0</ele><time>2026-04-11T14:19:09.944Z</time></trkpt><trkpt lat="45.4820496483843" lon="7.800205288090856"><ele>617.8333333333333</ele><time>2026-04-11T14:19:12.944Z</time></trkpt><trkpt lat="45.48202382752184" lon="7.800303288315287"><ele>615.6666666666666</ele><time>2026-04-11T14:19:15.944Z</time></trkpt><trkpt lat="45.481989339607885" lon="7.800406477362706"><ele>613.5</ele><time>2026-04-11T14:19:18.944Z</time></trkpt><trkpt lat="45.48198896730056" lon="7.80049983646415"><ele>611.3333333333334</ele><time>2026-04-11T14:19:20.944Z</time></trkpt><trkpt lat="45.4819888124953" lon="7.800625352650857"><ele>609.1666666666667</ele><time>2026-04-11T14:19:23.944Z</time></trkpt><trkpt lat="45.481981797098264" lon="7.8007186863483495"><ele>607.0</ele><time>2026-04-11T14:19:25.944Z</time></trkpt><trkpt lat="45.48194785072597" lon="7.800850141289753"><ele>607.0</ele><time>2026-04-11T14:27:54.941Z</time></trkpt><trkpt lat="45.48195558878366" lon="7.800946476741302"><ele>607.0</ele><time>2026-04-11T14:28:22.942Z</time></trkpt><trkpt lat="45.48199625396741" lon="7.800856578132271"><ele>607.0</ele><time>2026-04-11T14:28:42.942Z</time></trkpt><trkpt lat="45.48198355323437" lon="7.800752379182797"><ele>607.0</ele><time>2026-04-11T14:28:45.942Z</time></trkpt><trkpt lat="45.48199104862035" lon="7.800641840871287"><ele>607.0</ele><time>2026-04-11T14:28:48.942Z</time></trkpt><trkpt lat="45.48203538792535" lon="7.8005298889789945"><ele>607.0</ele><time>2026-04-11T14:28:51.942Z</time></trkpt><trkpt lat="45.4820656638937" lon="7.800426307598829"><ele>607.0</ele><time>2026-04-11T14:28:54.942Z</time></trkpt><trkpt lat="45.4820861162455" lon="7.8003004826733715"><ele>607.0</ele><time>2026-04-11T14:28:56.942Z</time></trkpt><trkpt lat="45.48209965300292" lon="7.800199080583746"><ele>607.0</ele><time>2026-04-11T14:28:58.942Z</time></trkpt><trkpt lat="45.482066297562106" lon="7.800081794842784"><ele>607.0</ele><time>2026-04-11T14:29:00.942Z</time></trkpt><trkpt lat="45.48204656571696" lon="7.799936871301845"><ele>607.0</ele><time>2026-04-11T14:29:02.943Z</time></trkpt><trkpt lat="45.48201712584646" lon="7.799840371669169"><ele>607.0</ele><time>2026-04-11T14:29:04.943Z</time></trkpt><trkpt lat="45.482099733119476" lon="7.799789374985655"><ele>612.8333333333334</ele><time>2026-04-11T14:29:14.943Z</time></trkpt><trkpt lat="45.482153126524935" lon="7.799854318941811"><ele>618.6666666666667</ele><time>2026-04-11T14:29:16.943Z</time></trkpt><trkpt lat="45.48221536827823" lon="7.799924911554402"><ele>624.5</ele><time>2026-04-11T14:29:18.943Z</time></trkpt><trkpt lat="45.48225068065782" lon="7.800048244362917"><ele>630.3333333333334</ele><time>2026-04-11T14:29:21.939Z</time></trkpt><trkpt lat="45.48228547890964" lon="7.800180464286604"><ele>636.1666666666666</ele><time>2026-04-11T14:29:23.939Z</time></trkpt><trkpt lat="45.482272399932114" lon="7.800288119468023"><ele>642.0</ele><time>2026-04-11T14:29:25.939Z</time></trkpt><trkpt lat="45.48228191290559" lon="7.800425499984587"><ele>642.0</ele><time>2026-04-11T14:29:27.939Z</time></trkpt><trkpt lat="45.48234022248979" lon="7.800461717905562"><ele>642.0</ele><time>2026-04-11T14:29:28.938Z</time></trkpt><trkpt lat="45.48242834543672" lon="7.800400761748825"><ele>642.0</ele><time>2026-04-11T14:29:31.938Z</time></trkpt><trkpt lat="45.48243117739839" lon="7.800297691127953"><ele>642.0</ele><time>2026-04-11T14:29:33.939Z</time></trkpt><trkpt lat="45.4824326289703" lon="7.800173062094639"><ele>642.0</ele><time>2026-04-11T14:29:36.939Z</time></trkpt><trkpt lat="45.48246930654988" lon="7.800095903349919"><ele>642.0</ele><time>2026-04-11T14:29:39.939Z</time></trkpt><trkpt lat="45.48256449239057" lon="7.800110288676143"><ele>646.3333333333334</ele><time>2026-04-11T14:29:46.939Z</time></trkpt><trkpt lat="45.482670708988444" lon="7.800133109743882"><ele>650.6666666666666</ele><time>2026-04-11T14:29:49.939Z</time></trkpt><trkpt lat="45.482738127710334" lon="7.800115724350073"><ele>655.0</ele><time>2026-04-11T14:29:51.939Z</time></trkpt><trkpt lat="45.48280967252991" lon="7.800070538809813"><ele>659.3333333333333</ele><time>2026-04-11T14:29:53.939Z</time></trkpt><trkpt lat="45.48287550460888" lon="7.800023374410324"><ele>663.6666666666666</ele><time>2026-04-11T14:29:55.939Z</time></trkpt><trkpt lat="45.482816657711865" lon="7.799952148028246"><ele>668.0</ele><time>2026-04-11T14:30:07.94Z</time></trkpt><trkpt lat="45.48275742215986" lon="7.799902519276296"><ele>668.0</ele><time>2026-04-11T14:30:09.94Z</time></trkpt><trkpt lat="45.482728798559236" lon="7.7998068057399275"><ele>668.0</ele><time>2026-04-11T14:30:11.94Z</time></trkpt><trkpt lat="45.48271780827594" lon="7.79971714171992"><ele>668.0</ele><time>2026-04-11T14:30:16.94Z</time></trkpt><trkpt lat="45.482717521868835" lon="7.799625640543759"><ele>668.0</ele><time>2026-04-11T14:30:24.94Z</time></trkpt><trkpt lat="45.48271387585669" lon="7.79951139924648"><ele>668.0</ele><time>2026-04-11T14:30:26.94Z</time></trkpt><trkpt lat="45.48268617035615" lon="7.799413984885385"><ele>668.0</ele><time>2026-04-11T14:30:28.94Z</time></trkpt><trkpt lat="45.48275103336897" lon="7.79942052064167"><ele>668.0</ele><time>2026-04-11T14:30:33.942Z</time></trkpt><trkpt lat="45.482806612956274" lon="7.799496763380582"><ele>668.0</ele><time>2026-04-11T14:30:35.943Z</time></trkpt><trkpt lat="45.4828609220479" lon="7.799548921103821"><ele>668.0</ele><time>2026-04-11T14:30:37.945Z</time></trkpt><trkpt lat="45.48287513583631" lon="7.799449896687618"><ele>668.0</ele><time>2026-04-11T14:30:43.949Z</time></trkpt><trkpt lat="45.482944948948756" lon="7.799464771309026"><ele>668.0</ele><time>2026-04-11T14:30:46.95Z</time></trkpt><trkpt lat="45.483075392158526" lon="7.7994698688926745"><ele>668.0</ele><time>2026-04-11T14:30:50.952Z</time></trkpt><trkpt lat="45.48314176728305" lon="7.799371678413713"><ele>668.0</ele><time>2026-04-11T14:30:52.952Z</time></trkpt><trkpt lat="45.48318417702555" lon="7.799271117263003"><ele>675.0</ele><time>2026-04-11T14:30:54.953Z</time></trkpt><trkpt lat="45.48324108356206" lon="7.7991787856645285"><ele>682.0</ele><time>2026-04-11T14:30:56.953Z</time></trkpt><trkpt lat="45.48324521199969" lon="7.799080184637898"><ele>689.0</ele><time>2026-04-11T14:30:59.954Z</time></trkpt><trkpt lat="45.483298299918175" lon="7.799029244570043"><ele>696.0</ele><time>2026-04-11T14:31:01.955Z</time></trkpt><trkpt lat="45.48336019859706" lon="7.79896633443476"><ele>703.0</ele><time>2026-04-11T14:31:04.955Z</time></trkpt><trkpt lat="45.48344133999733" lon="7.798915516143363"><ele>710.0</ele><time>2026-04-11T14:31:07.955Z</time></trkpt><trkpt lat="45.4835285847874" lon="7.7988393398353315"><ele>710.0</ele><time>2026-04-11T14:31:16.956Z</time></trkpt><trkpt lat="45.48361843978111" lon="7.798832266360199"><ele>710.0</ele><time>2026-04-11T14:31:18.957Z</time></trkpt><trkpt lat="45.48369584546359" lon="7.798862150936456"><ele>710.0</ele><time>2026-04-11T14:31:20.957Z</time></trkpt><trkpt lat="45.48373642793158" lon="7.798953183603264"><ele>710.0</ele><time>2026-04-11T14:31:22.957Z</time></trkpt><trkpt lat="45.48382682348257" lon="7.799028062913368"><ele>710.0</ele><time>2026-04-11T14:31:25.952Z</time></trkpt><trkpt lat="45.48389051459261" lon="7.799066602701664"><ele>710.0</ele><time>2026-04-11T14:31:27.953Z</time></trkpt><trkpt lat="45.483950391477215" lon="7.7990322584105725"><ele>715.0</ele><time>2026-04-11T14:31:30.953Z</time></trkpt><trkpt lat="45.48407196604352" lon="7.79898886152662"><ele>720.0</ele><time>2026-04-11T14:31:33.953Z</time></trkpt><trkpt lat="45.484250047952315" lon="7.7989888395448395"><ele>725.0</ele><time>2026-04-11T14:31:38.952Z</time></trkpt><trkpt lat="45.484335295130876" lon="7.799005739838104"><ele>730.0</ele><time>2026-04-11T14:31:40.952Z</time></trkpt><trkpt lat="45.484391050931585" lon="7.799098120514536"><ele>730.0</ele><time>2026-04-11T14:31:42.952Z</time></trkpt><trkpt lat="45.48447981243681" lon="7.799178446704384"><ele>730.0</ele><time>2026-04-11T14:31:44.952Z</time></trkpt><trkpt lat="45.48455917096191" lon="7.799294749136572"><ele>730.0</ele><time>2026-04-11T14:31:46.953Z</time></trkpt><trkpt lat="45.48462420204814" lon="7.799364747562982"><ele>730.0</ele><time>2026-04-11T14:31:48.953Z</time></trkpt><trkpt lat="45.48470241050844" lon="7.799459984812078"><ele>730.0</ele><time>2026-04-11T14:31:50.953Z</time></trkpt><trkpt lat="45.48474266281549" lon="7.7995513989256775"><ele>729.0</ele><time>2026-04-11T14:31:51.953Z</time></trkpt><trkpt lat="45.48485325870577" lon="7.799631809390058"><ele>728.0</ele><time>2026-04-11T14:31:53.953Z</time></trkpt><trkpt lat="45.48490890929948" lon="7.799712474165483"><ele>727.0</ele><time>2026-04-11T14:31:55.953Z</time></trkpt><trkpt lat="45.484927572161155" lon="7.799841695547359"><ele>726.0</ele><time>2026-04-11T14:32:04.953Z</time></trkpt><trkpt lat="45.48499884549078" lon="7.799938487546637"><ele>725.0</ele><time>2026-04-11T14:32:06.953Z</time></trkpt><trkpt lat="45.485031295573684" lon="7.800052546953902"><ele>725.0</ele><time>2026-04-11T14:32:08.953Z</time></trkpt><trkpt lat="45.485111765825145" lon="7.800095776194851"><ele>725.0</ele><time>2026-04-11T14:32:10.953Z</time></trkpt><trkpt lat="45.48520331086801" lon="7.80018776299506"><ele>725.0</ele><time>2026-04-11T14:32:12.953Z</time></trkpt><trkpt lat="45.48525886715894" lon="7.800317467328551"><ele>725.0</ele><time>2026-04-11T14:32:14.953Z</time></trkpt><trkpt lat="45.48531843682208" lon="7.800367178109153"><ele>725.0</ele><time>2026-04-11T14:32:16.953Z</time></trkpt><trkpt lat="45.48537225228446" lon="7.800293090950149"><ele>725.0</ele><time>2026-04-11T14:32:20.954Z</time></trkpt><trkpt lat="45.485432371326795" lon="7.80020394178182"><ele>726.1666666666666</ele><time>2026-04-11T14:32:24.954Z</time></trkpt><trkpt lat="45.48549322059145" lon="7.800136206010901"><ele>727.3333333333333</ele><time>2026-04-11T14:32:26.954Z</time></trkpt><trkpt lat="45.48552713561246" lon="7.800021847920138"><ele>728.5</ele><time>2026-04-11T14:32:28.954Z</time></trkpt><trkpt lat="45.48557033220693" lon="7.799910210754985"><ele>729.6666666666666</ele><time>2026-04-11T14:32:30.954Z</time></trkpt><trkpt lat="45.485600857318694" lon="7.799797028255509"><ele>730.8333333333334</ele><time>2026-04-11T14:32:32.954Z</time></trkpt><trkpt lat="45.48566754395544" lon="7.79968564793898"><ele>732.0</ele><time>2026-04-11T14:32:34.954Z</time></trkpt><trkpt lat="45.485768000216225" lon="7.79961591278407"><ele>732.0</ele><time>2026-04-11T14:32:36.954Z</time></trkpt><trkpt lat="45.48586615538131" lon="7.799627166983768"><ele>732.0</ele><time>2026-04-11T14:32:38.954Z</time></trkpt><trkpt lat="45.48596331778921" lon="7.799751922155192"><ele>732.0</ele><time>2026-04-11T14:32:40.954Z</time></trkpt><trkpt lat="45.486048814582816" lon="7.799859725637433"><ele>732.0</ele><time>2026-04-11T14:32:42.954Z</time></trkpt><trkpt lat="45.486121566630494" lon="7.7999688045253865"><ele>732.0</ele><time>2026-04-11T14:32:44.954Z</time></trkpt><trkpt lat="45.48620262569762" lon="7.7999996588491785"><ele>732.0</ele><time>2026-04-11T14:32:46.954Z</time></trkpt><trkpt lat="45.48626048075024" lon="7.800081479107397"><ele>732.0</ele><time>2026-04-11T14:32:48.954Z</time></trkpt><trkpt lat="45.486289769736665" lon="7.800161008696677"><ele>732.0</ele><time>2026-04-11T14:32:49.954Z</time></trkpt><trkpt lat="45.486325371335575" lon="7.800257233640042"><ele>732.0</ele><time>2026-04-11T14:32:50.954Z</time></trkpt><trkpt lat="45.486357890680765" lon="7.800346799320259"><ele>732.0</ele><time>2026-04-11T14:32:51.954Z</time></trkpt><trkpt lat="45.48639784150189" lon="7.80043699805967"><ele>732.0</ele><time>2026-04-11T14:32:52.954Z</time></trkpt><trkpt lat="45.48644466539058" lon="7.800508129728652"><ele>732.0</ele><time>2026-04-11T14:32:53.954Z</time></trkpt><trkpt lat="45.486490782880196" lon="7.800589848915529"><ele>731.1428571428571</ele><time>2026-04-11T14:32:54.954Z</time></trkpt><trkpt lat="45.48653919872394" lon="7.8006748545735105"><ele>730.2857142857143</ele><time>2026-04-11T14:32:55.954Z</time></trkpt><trkpt lat="45.486581391215346" lon="7.800761825320299"><ele>729.4285714285713</ele><time>2026-04-11T14:32:56.954Z</time></trkpt><trkpt lat="45.486621806055915" lon="7.800831502677967"><ele>728.5714285714286</ele><time>2026-04-11T14:32:57.954Z</time></trkpt><trkpt lat="45.48667260719545" lon="7.800902594492676"><ele>727.7142857142857</ele><time>2026-04-11T14:32:58.955Z</time></trkpt><trkpt lat="45.48672119645361" lon="7.800965814434169"><ele>726.8571428571428</ele><time>2026-04-11T14:32:59.955Z</time></trkpt><trkpt lat="45.48676041394896" lon="7.801040790222474"><ele>726.0</ele><time>2026-04-11T14:33:00.955Z</time></trkpt><trkpt lat="45.486837942921284" lon="7.801153565522681"><ele>726.1999999999999</ele><time>2026-04-11T14:33:02.955Z</time></trkpt><trkpt lat="45.486903774422494" lon="7.801258005341905"><ele>726.4</ele><time>2026-04-11T14:33:04.955Z</time></trkpt><trkpt lat="45.48700502241196" lon="7.801285416445882"><ele>726.6</ele><time>2026-04-11T14:33:06.955Z</time></trkpt><trkpt lat="45.48710150523179" lon="7.80139045954406"><ele>726.8</ele><time>2026-04-11T14:33:08.955Z</time></trkpt><trkpt lat="45.487190263991124" lon="7.801424013612355"><ele>727.0</ele><time>2026-04-11T14:33:10.955Z</time></trkpt><trkpt lat="45.48726034215223" lon="7.8014209460167345"><ele>727.0</ele><time>2026-04-11T14:33:12.955Z</time></trkpt><trkpt lat="45.48730573616101" lon="7.801485914934762"><ele>727.0</ele><time>2026-04-11T14:33:20.955Z</time></trkpt><trkpt lat="45.4873826173824" lon="7.801557519547922"><ele>727.0</ele><time>2026-04-11T14:33:44.951Z</time></trkpt><trkpt lat="45.48744865085787" lon="7.801615195376795"><ele>727.0</ele><time>2026-04-11T14:33:46.951Z</time></trkpt><trkpt lat="45.48756372817598" lon="7.801571200778773"><ele>727.0</ele><time>2026-04-11T14:33:56.951Z</time></trkpt><trkpt lat="45.48761979487615" lon="7.801618883162569"><ele>727.0</ele><time>2026-04-11T14:33:59.951Z</time></trkpt><trkpt lat="45.48767606499498" lon="7.8016945785547565"><ele>727.0</ele><time>2026-04-11T14:34:04.951Z</time></trkpt><trkpt lat="45.48775697675462" lon="7.8017179095074365"><ele>727.0</ele><time>2026-04-11T14:34:06.951Z</time></trkpt><trkpt lat="45.48780915773197" lon="7.801768645739569"><ele>727.0</ele><time>2026-04-11T14:34:11.951Z</time></trkpt><trkpt lat="45.48783279652164" lon="7.801859567900608"><ele>727.0</ele><time>2026-04-11T14:36:58.953Z</time></trkpt><trkpt lat="45.487877384459736" lon="7.801967858385962"><ele>727.0</ele><time>2026-04-11T14:37:00.953Z</time></trkpt><trkpt lat="45.487922949529185" lon="7.802078937006586"><ele>727.0</ele><time>2026-04-11T14:37:02.953Z</time></trkpt><trkpt lat="45.487986384048966" lon="7.802164988404766"><ele>731.1428571428571</ele><time>2026-04-11T14:37:04.953Z</time></trkpt><trkpt lat="45.488044956242035" lon="7.8022044010830305"><ele>735.2857142857143</ele><time>2026-04-11T14:37:09.953Z</time></trkpt><trkpt lat="45.488106791407674" lon="7.8022214988768255"><ele>739.4285714285714</ele><time>2026-04-11T14:37:34.954Z</time></trkpt><trkpt lat="45.48814557723783" lon="7.802292741981199"><ele>743.5714285714286</ele><time>2026-04-11T14:38:50.951Z</time></trkpt><trkpt lat="45.488151984895794" lon="7.802406464482969"><ele>747.7142857142858</ele><time>2026-04-11T14:40:01.948Z</time></trkpt><trkpt lat="45.48820919600655" lon="7.802465060472238"><ele>751.8571428571429</ele><time>2026-04-11T14:40:11.948Z</time></trkpt><trkpt lat="45.48825716288916" lon="7.802553007919332"><ele>756.0</ele><time>2026-04-11T14:40:14.948Z</time></trkpt><trkpt lat="45.488292353304615" lon="7.802632093326515"><ele>756.0</ele><time>2026-04-11T14:40:18.948Z</time></trkpt><trkpt lat="45.488366003091095" lon="7.802644998734735"><ele>756.0</ele><time>2026-04-11T14:40:21.948Z</time></trkpt><trkpt lat="45.48845304321485" lon="7.802661661359571"><ele>756.0</ele><time>2026-04-11T14:40:23.949Z</time></trkpt><trkpt lat="45.48851645852747" lon="7.802732039145428"><ele>756.0</ele><time>2026-04-11T14:40:25.949Z</time></trkpt><trkpt lat="45.48859388780012" lon="7.802762591413502"><ele>756.0</ele><time>2026-04-11T14:40:27.949Z</time></trkpt><trkpt lat="45.48872168572232" lon="7.802811251007822"><ele>761.4</ele><time>2026-04-11T14:40:29.949Z</time></trkpt><trkpt lat="45.48882299191223" lon="7.802874649204554"><ele>766.8</ele><time>2026-04-11T14:40:31.949Z</time></trkpt><trkpt lat="45.488944917289565" lon="7.802985665587477"><ele>772.1999999999999</ele><time>2026-04-11T14:40:33.949Z</time></trkpt><trkpt lat="45.48901307096031" lon="7.803023947928547"><ele>777.5999999999999</ele><time>2026-04-11T14:40:34.949Z</time></trkpt><trkpt lat="45.48907769943636" lon="7.803099027525968"><ele>783.0</ele><time>2026-04-11T14:40:35.949Z</time></trkpt><trkpt lat="45.4891596905634" lon="7.803157524833633"><ele>783.0</ele><time>2026-04-11T14:40:36.949Z</time></trkpt><trkpt lat="45.48924006111461" lon="7.803197215712821"><ele>783.0</ele><time>2026-04-11T14:40:37.949Z</time></trkpt><trkpt lat="45.4893194823094" lon="7.803253731470119"><ele>783.0</ele><time>2026-04-11T14:40:38.949Z</time></trkpt><trkpt lat="45.489394619023045" lon="7.803299548262735"><ele>783.0</ele><time>2026-04-11T14:40:39.949Z</time></trkpt><trkpt lat="45.48946430742459" lon="7.803332383270268"><ele>783.0</ele><time>2026-04-11T14:40:40.949Z</time></trkpt><trkpt lat="45.48954334566776" lon="7.803377525809903"><ele>783.0</ele><time>2026-04-11T14:40:41.949Z</time></trkpt><trkpt lat="45.48961805997584" lon="7.803428786433857"><ele>783.0</ele><time>2026-04-11T14:40:42.949Z</time></trkpt><trkpt lat="45.489703415167845" lon="7.803470036679539"><ele>783.0</ele><time>2026-04-11T14:40:43.949Z</time></trkpt><trkpt lat="45.489786278874014" lon="7.8035087131741045"><ele>783.0</ele><time>2026-04-11T14:40:44.949Z</time></trkpt><trkpt lat="45.489863550725" lon="7.8035443515126826"><ele>783.0</ele><time>2026-04-11T14:40:45.949Z</time></trkpt><trkpt lat="45.48996221542241" lon="7.80357640093368"><ele>783.0</ele><time>2026-04-11T14:40:46.949Z</time></trkpt><trkpt lat="45.490038481200436" lon="7.803609802631834"><ele>783.0</ele><time>2026-04-11T14:40:47.949Z</time></trkpt><trkpt lat="45.49011021824204" lon="7.803637794468727"><ele>785.4</ele><time>2026-04-11T14:40:48.949Z</time></trkpt><trkpt lat="45.49019986489976" lon="7.803666853422873"><ele>787.8</ele><time>2026-04-11T14:40:49.949Z</time></trkpt><trkpt lat="45.49028744220294" lon="7.803693472580838"><ele>790.2</ele><time>2026-04-11T14:40:50.949Z</time></trkpt><trkpt lat="45.49036535904423" lon="7.8037314342828585"><ele>792.6</ele><time>2026-04-11T14:40:51.949Z</time></trkpt><trkpt lat="45.490441008315216" lon="7.803742978317417"><ele>795.0</ele><time>2026-04-11T14:40:52.949Z</time></trkpt><trkpt lat="45.490552836368394" lon="7.803785084100966"><ele>795.0</ele><time>2026-04-11T14:40:54.949Z</time></trkpt><trkpt lat="45.490640337196766" lon="7.803814129807173"><ele>795.0</ele><time>2026-04-11T14:40:56.949Z</time></trkpt><trkpt lat="45.49069945827484" lon="7.803846641930814"><ele>795.0</ele><time>2026-04-11T14:40:58.949Z</time></trkpt><trkpt lat="45.49064779029733" lon="7.803933270324961"><ele>795.0</ele><time>2026-04-11T14:41:01.95Z</time></trkpt><trkpt lat="45.49055637874547" lon="7.803895115329868"><ele>795.0</ele><time>2026-04-11T14:41:03.95Z</time></trkpt><trkpt lat="45.490456027034156" lon="7.803886328547811"><ele>795.0</ele><time>2026-04-11T14:41:05.95Z</time></trkpt><trkpt lat="45.490368399747176" lon="7.803899986009694"><ele>795.0</ele><time>2026-04-11T14:41:07.95Z</time></trkpt><trkpt lat="45.49026173848214" lon="7.803921157615261"><ele>795.0</ele><time>2026-04-11T14:41:09.95Z</time></trkpt><trkpt lat="45.490157930384505" lon="7.8039371260228645"><ele>795.0</ele><time>2026-04-11T14:41:11.95Z</time></trkpt><trkpt lat="45.49005998605557" lon="7.803948768548547"><ele>795.0</ele><time>2026-04-11T14:41:13.95Z</time></trkpt><trkpt lat="45.4899788835118" lon="7.804016659712941"><ele>795.0</ele><time>2026-04-11T14:41:15.95Z</time></trkpt><trkpt lat="45.48995802208364" lon="7.804142749004305"><ele>795.0</ele><time>2026-04-11T14:41:17.95Z</time></trkpt><trkpt lat="45.489951165191" lon="7.804290276298856"><ele>795.0</ele><time>2026-04-11T14:41:19.95Z</time></trkpt><trkpt lat="45.489972158209426" lon="7.80440116950279"><ele>795.0</ele><time>2026-04-11T14:41:21.95Z</time></trkpt><trkpt lat="45.490009303926534" lon="7.804490751161292"><ele>795.0</ele><time>2026-04-11T14:41:24.95Z</time></trkpt><trkpt lat="45.48996215906168" lon="7.804386289805378"><ele>795.0</ele><time>2026-04-11T14:45:23.948Z</time></trkpt><trkpt lat="45.489897273998686" lon="7.804394560397643"><ele>795.0</ele><time>2026-04-11T14:45:44.948Z</time></trkpt><trkpt lat="45.48998352861963" lon="7.804393799412483"><ele>791.6</ele><time>2026-04-11T14:48:48.959Z</time></trkpt><trkpt lat="45.49001869524663" lon="7.804471720499306"><ele>788.2</ele><time>2026-04-11T14:48:54.959Z</time></trkpt><trkpt lat="45.4901190549024" lon="7.8046224188785756"><ele>784.8</ele><time>2026-04-11T14:51:37.96Z</time></trkpt><trkpt lat="45.490184942804945" lon="7.80471863171765"><ele>781.4</ele><time>2026-04-11T14:51:38.96Z</time></trkpt><trkpt lat="45.49023976178708" lon="7.804796391128669"><ele>778.0</ele><time>2026-04-11T14:51:39.96Z</time></trkpt><trkpt lat="45.49029299893881" lon="7.804861629108009"><ele>778.0</ele><time>2026-04-11T14:51:40.96Z</time></trkpt><trkpt lat="45.49033943947443" lon="7.804922262546622"><ele>778.0</ele><time>2026-04-11T14:51:41.96Z</time></trkpt><trkpt lat="45.49042976896508" lon="7.8051123195365175"><ele>778.0</ele><time>2026-04-11T14:51:43.961Z</time></trkpt><trkpt lat="45.49047740555733" lon="7.805214739824507"><ele>778.0</ele><time>2026-04-11T14:51:44.961Z</time></trkpt><trkpt lat="45.490523120564575" lon="7.80530416344811"><ele>778.0</ele><time>2026-04-11T14:51:45.961Z</time></trkpt><trkpt lat="45.49055099200346" lon="7.805392054731766"><ele>776.8333333333333</ele><time>2026-04-11T14:51:46.961Z</time></trkpt><trkpt lat="45.49059991858711" lon="7.805477709407747"><ele>775.6666666666666</ele><time>2026-04-11T14:51:47.961Z</time></trkpt><trkpt lat="45.490656587273655" lon="7.805581906990968"><ele>774.5</ele><time>2026-04-11T14:51:48.961Z</time></trkpt><trkpt lat="45.49069656569302" lon="7.805679738733274"><ele>773.3333333333333</ele><time>2026-04-11T14:51:49.961Z</time></trkpt><trkpt lat="45.49073359931797" lon="7.805793023669819"><ele>772.1666666666666</ele><time>2026-04-11T14:51:50.961Z</time></trkpt><trkpt lat="45.490763798767404" lon="7.805893334728297"><ele>771.0</ele><time>2026-04-11T14:51:51.961Z</time></trkpt><trkpt lat="45.490769517760164" lon="7.805996395330996"><ele>771.0</ele><time>2026-04-11T14:51:52.961Z</time></trkpt><trkpt lat="45.49077682680438" lon="7.806120704371265"><ele>771.0</ele><time>2026-04-11T14:51:53.961Z</time></trkpt><trkpt lat="45.490802178569254" lon="7.806214862049294"><ele>771.0</ele><time>2026-04-11T14:51:54.961Z</time></trkpt><trkpt lat="45.49088443399656" lon="7.806361595231683"><ele>771.0</ele><time>2026-04-11T14:51:56.961Z</time></trkpt><trkpt lat="45.490942643012595" lon="7.806426195017661"><ele>771.0</ele><time>2026-04-11T14:51:57.961Z</time></trkpt><trkpt lat="45.491043951993525" lon="7.806520424779316"><ele>771.0</ele><time>2026-04-11T14:51:59.961Z</time></trkpt><trkpt lat="45.491106034127604" lon="7.806586763809132"><ele>771.0</ele><time>2026-04-11T14:52:00.961Z</time></trkpt><trkpt lat="45.49117832396333" lon="7.806620276125776"><ele>771.0</ele><time>2026-04-11T14:52:01.961Z</time></trkpt><trkpt lat="45.49124850768388" lon="7.806652293928304"><ele>771.0</ele><time>2026-04-11T14:52:02.961Z</time></trkpt><trkpt lat="45.49131378195798" lon="7.806687754119226"><ele>771.0</ele><time>2026-04-11T14:52:03.961Z</time></trkpt><trkpt lat="45.491391085650626" lon="7.8067372501183705"><ele>771.0</ele><time>2026-04-11T14:52:04.961Z</time></trkpt><trkpt lat="45.491460434230724" lon="7.80679889977184"><ele>769.8333333333334</ele><time>2026-04-11T14:52:05.961Z</time></trkpt><trkpt lat="45.491531058425565" lon="7.806864208047827"><ele>768.6666666666666</ele><time>2026-04-11T14:52:06.961Z</time></trkpt><trkpt lat="45.49158036080069" lon="7.806929919112258"><ele>767.5</ele><time>2026-04-11T14:52:07.961Z</time></trkpt><trkpt lat="45.49164665017786" lon="7.806987235158976"><ele>766.3333333333333</ele><time>2026-04-11T14:52:08.961Z</time></trkpt><trkpt lat="45.49170750948309" lon="7.807042131623561"><ele>765.1666666666666</ele><time>2026-04-11T14:52:09.961Z</time></trkpt><trkpt lat="45.49177670354104" lon="7.80710613455498"><ele>764.0</ele><time>2026-04-11T14:52:10.961Z</time></trkpt><trkpt lat="45.49184163228682" lon="7.8071520928059"><ele>764.0</ele><time>2026-04-11T14:52:11.961Z</time></trkpt><trkpt lat="45.49191264860618" lon="7.807193870565232"><ele>764.0</ele><time>2026-04-11T14:52:12.961Z</time></trkpt><trkpt lat="45.49198215442784" lon="7.807254413410212"><ele>764.0</ele><time>2026-04-11T14:52:13.961Z</time></trkpt><trkpt lat="45.49205872821303" lon="7.807284555217029"><ele>764.0</ele><time>2026-04-11T14:52:14.961Z</time></trkpt><trkpt lat="45.49213378440502" lon="7.807291295234249"><ele>764.0</ele><time>2026-04-11T14:52:15.961Z</time></trkpt><trkpt lat="45.49220048020144" lon="7.807306213364611"><ele>764.0</ele><time>2026-04-11T14:52:16.962Z</time></trkpt><trkpt lat="45.492271046104456" lon="7.80734448062867"><ele>767.0</ele><time>2026-04-11T14:52:17.962Z</time></trkpt><trkpt lat="45.49234708838621" lon="7.8073751536906295"><ele>770.0</ele><time>2026-04-11T14:52:18.962Z</time></trkpt><trkpt lat="45.492429285079616" lon="7.807412863208245"><ele>773.0</ele><time>2026-04-11T14:52:19.962Z</time></trkpt><trkpt lat="45.492511197406984" lon="7.807444737425731"><ele>776.0</ele><time>2026-04-11T14:52:20.962Z</time></trkpt><trkpt lat="45.492585704917815" lon="7.80745429130068"><ele>779.0</ele><time>2026-04-11T14:52:21.962Z</time></trkpt><trkpt lat="45.49273010143564" lon="7.807506223095399"><ele>779.0</ele><time>2026-04-11T14:52:41.96Z</time></trkpt><trkpt lat="45.49290664931175" lon="7.807545131772313"><ele>779.0</ele><time>2026-04-11T14:52:46.96Z</time></trkpt><trkpt lat="45.49299124081176" lon="7.807573896527551"><ele>779.0</ele><time>2026-04-11T14:52:48.96Z</time></trkpt><trkpt lat="45.49309487274231" lon="7.807609839565481"><ele>779.0</ele><time>2026-04-11T14:52:50.96Z</time></trkpt><trkpt lat="45.49319464721578" lon="7.807633676562392"><ele>780.0</ele><time>2026-04-11T14:52:52.96Z</time></trkpt><trkpt lat="45.49330307781097" lon="7.807640438025056"><ele>781.0</ele><time>2026-04-11T14:52:54.96Z</time></trkpt><trkpt lat="45.493405485699824" lon="7.807663665984592"><ele>782.0</ele><time>2026-04-11T14:52:55.96Z</time></trkpt><trkpt lat="45.49350024342388" lon="7.807656779229657"><ele>783.0</ele><time>2026-04-11T14:52:56.96Z</time></trkpt><trkpt lat="45.49359193430332" lon="7.807655341856435"><ele>784.0</ele><time>2026-04-11T14:52:57.96Z</time></trkpt><trkpt lat="45.4936804780626" lon="7.807668824850416"><ele>778.6</ele><time>2026-04-11T14:52:58.96Z</time></trkpt><trkpt lat="45.49378152828726" lon="7.807711302438913"><ele>773.2</ele><time>2026-04-11T14:52:59.96Z</time></trkpt><trkpt lat="45.49387989834241" lon="7.807741593251125"><ele>767.8000000000001</ele><time>2026-04-11T14:53:00.961Z</time></trkpt><trkpt lat="45.49397777657765" lon="7.807732570730062"><ele>762.4000000000001</ele><time>2026-04-11T14:53:01.961Z</time></trkpt><trkpt lat="45.49404835385156" lon="7.807724954625563"><ele>757.0</ele><time>2026-04-11T14:53:02.961Z</time></trkpt><trkpt lat="45.49413289621105" lon="7.807734648309807"><ele>757.0</ele><time>2026-04-11T14:53:03.961Z</time></trkpt><trkpt lat="45.49421388195534" lon="7.8077233738885505"><ele>757.0</ele><time>2026-04-11T14:53:04.961Z</time></trkpt><trkpt lat="45.4942770316714" lon="7.807746028157031"><ele>757.0</ele><time>2026-04-11T14:53:05.961Z</time></trkpt><trkpt lat="45.49435590118249" lon="7.80779129742996"><ele>757.0</ele><time>2026-04-11T14:53:06.961Z</time></trkpt><trkpt lat="45.49443623822076" lon="7.807774681551926"><ele>757.0</ele><time>2026-04-11T14:53:07.961Z</time></trkpt><trkpt lat="45.494506265028114" lon="7.807766173172283"><ele>757.0</ele><time>2026-04-11T14:53:08.961Z</time></trkpt><trkpt lat="45.49455464934571" lon="7.80770530344567"><ele>757.0</ele><time>2026-04-11T14:53:09.961Z</time></trkpt><trkpt lat="45.49458859262946" lon="7.807625799782036"><ele>760.0</ele><time>2026-04-11T14:53:10.961Z</time></trkpt><trkpt lat="45.49467808999395" lon="7.807513837120445"><ele>763.0</ele><time>2026-04-11T14:53:12.961Z</time></trkpt><trkpt lat="45.49474898403526" lon="7.80747419266054"><ele>766.0</ele><time>2026-04-11T14:53:13.961Z</time></trkpt><trkpt lat="45.49482154761651" lon="7.807443861077071"><ele>769.0</ele><time>2026-04-11T14:53:14.961Z</time></trkpt><trkpt lat="45.494907856655495" lon="7.807442025070627"><ele>772.0</ele><time>2026-04-11T14:53:15.961Z</time></trkpt><trkpt lat="45.49500607527214" lon="7.80739780306251"><ele>772.0</ele><time>2026-04-11T14:53:16.961Z</time></trkpt><trkpt lat="45.49507042093863" lon="7.807342030414834"><ele>772.0</ele><time>2026-04-11T14:53:17.961Z</time></trkpt><trkpt lat="45.49514426940356" lon="7.8072681833741004"><ele>772.0</ele><time>2026-04-11T14:53:18.961Z</time></trkpt><trkpt lat="45.49523602843348" lon="7.8071907049321965"><ele>772.0</ele><time>2026-04-11T14:53:19.961Z</time></trkpt><trkpt lat="45.49530959201008" lon="7.807114042701458"><ele>772.0</ele><time>2026-04-11T14:53:20.961Z</time></trkpt><trkpt lat="45.49537445541644" lon="7.8070280873741735"><ele>771.2</ele><time>2026-04-11T14:53:21.961Z</time></trkpt><trkpt lat="45.495421738136855" lon="7.8069600020815155"><ele>770.4000000000001</ele><time>2026-04-11T14:53:22.961Z</time></trkpt><trkpt lat="45.495487169220205" lon="7.8068307004068"><ele>769.5999999999999</ele><time>2026-04-11T14:53:24.961Z</time></trkpt><trkpt lat="45.495556194841676" lon="7.806610611949338"><ele>768.8</ele><time>2026-04-11T14:53:26.961Z</time></trkpt><trkpt lat="45.49560270932183" lon="7.806498793579685"><ele>768.0</ele><time>2026-04-11T14:53:27.961Z</time></trkpt><trkpt lat="45.49565412301676" lon="7.806327788205772"><ele>768.0</ele><time>2026-04-11T14:53:29.961Z</time></trkpt><trkpt lat="45.49570122188519" lon="7.8062080132462714"><ele>768.0</ele><time>2026-04-11T14:53:30.961Z</time></trkpt><trkpt lat="45.49578421038383" lon="7.8061198440412065"><ele>768.0</ele><time>2026-04-11T14:53:31.961Z</time></trkpt><trkpt lat="45.495834883684125" lon="7.8060289382275405"><ele>768.0</ele><time>2026-04-11T14:53:32.961Z</time></trkpt><trkpt lat="45.495911927027386" lon="7.8059661354304"><ele>768.0</ele><time>2026-04-11T14:53:33.961Z</time></trkpt><trkpt lat="45.495974247344115" lon="7.8059080719283385"><ele>768.0</ele><time>2026-04-11T14:53:34.961Z</time></trkpt><trkpt lat="45.496028070481266" lon="7.805838481743321"><ele>766.8333333333334</ele><time>2026-04-11T14:53:35.962Z</time></trkpt><trkpt lat="45.496096931039354" lon="7.80576395797087"><ele>765.6666666666666</ele><time>2026-04-11T14:53:36.962Z</time></trkpt><trkpt lat="45.49618119571958" lon="7.805679904704835"><ele>764.5</ele><time>2026-04-11T14:53:37.962Z</time></trkpt><trkpt lat="45.496263880692446" lon="7.805628062760355"><ele>763.3333333333333</ele><time>2026-04-11T14:53:38.962Z</time></trkpt><trkpt lat="45.4963393404053" lon="7.805591866578578"><ele>762.1666666666666</ele><time>2026-04-11T14:53:39.962Z</time></trkpt><trkpt lat="45.49641075745491" lon="7.805535073501342"><ele>761.0</ele><time>2026-04-11T14:53:40.962Z</time></trkpt><trkpt lat="45.49645640186085" lon="7.805472033916221"><ele>760.9999999999999</ele><time>2026-04-11T14:53:41.962Z</time></trkpt><trkpt lat="45.496444607086275" lon="7.805366429059511"><ele>761.0</ele><time>2026-04-11T14:53:43.962Z</time></trkpt><trkpt lat="45.496387617418314" lon="7.805282301013299"><ele>761.0</ele><time>2026-04-11T14:53:45.962Z</time></trkpt><trkpt lat="45.496348361726135" lon="7.805199761616646"><ele>761.0</ele><time>2026-04-11T14:53:47.962Z</time></trkpt><trkpt lat="45.49631298140909" lon="7.805093745946965"><ele>761.0</ele><time>2026-04-11T14:53:49.962Z</time></trkpt><trkpt lat="45.496279919786296" lon="7.805006788924992"><ele>760.9999999999999</ele><time>2026-04-11T14:53:51.962Z</time></trkpt><trkpt lat="45.49623389939714" lon="7.804941830814337"><ele>761.0</ele><time>2026-04-11T14:53:52.962Z</time></trkpt><trkpt lat="45.49615493758961" lon="7.804824748786728"><ele>765.0</ele><time>2026-04-11T14:53:54.962Z</time></trkpt><trkpt lat="45.496102743404535" lon="7.804755417996273"><ele>769.0</ele><time>2026-04-11T14:53:55.962Z</time></trkpt><trkpt lat="45.49604968503873" lon="7.804669781916291"><ele>773.0</ele><time>2026-04-11T14:53:56.962Z</time></trkpt><trkpt lat="45.49600559551835" lon="7.804564831533408"><ele>777.0</ele><time>2026-04-11T14:53:58.962Z</time></trkpt><trkpt lat="45.495964834594815" lon="7.804472195634674"><ele>781.0000000000001</ele><time>2026-04-11T14:54:00.962Z</time></trkpt><trkpt lat="45.49592350495104" lon="7.804307738451299"><ele>785.0</ele><time>2026-04-11T14:54:02.962Z</time></trkpt><trkpt lat="45.4958870700679" lon="7.8042290458028525"><ele>785.0</ele><time>2026-04-11T14:54:04.962Z</time></trkpt><trkpt lat="45.49582033684495" lon="7.804278149956442"><ele>785.0</ele><time>2026-04-11T14:54:06.962Z</time></trkpt><trkpt lat="45.495723907019126" lon="7.804433920061975"><ele>785.0</ele><time>2026-04-11T14:54:08.962Z</time></trkpt><trkpt lat="45.495664579037644" lon="7.8045495701450145"><ele>785.0</ele><time>2026-04-11T14:54:09.963Z</time></trkpt><trkpt lat="45.495608915023546" lon="7.804635590526723"><ele>785.0</ele><time>2026-04-11T14:54:10.963Z</time></trkpt><trkpt lat="45.49555792494228" lon="7.804699015777651"><ele>787.0000000000001</ele><time>2026-04-11T14:54:11.963Z</time></trkpt><trkpt lat="45.49548708948705" lon="7.804705855886702"><ele>789.0</ele><time>2026-04-11T14:54:12.963Z</time></trkpt><trkpt lat="45.495421506489016" lon="7.804619791616652"><ele>791.0</ele><time>2026-04-11T14:54:14.963Z</time></trkpt><trkpt lat="45.49539499199853" lon="7.804511080920984"><ele>793.0</ele><time>2026-04-11T14:54:17.963Z</time></trkpt><trkpt lat="45.495325300902664" lon="7.80446048277849"><ele>795.0000000000001</ele><time>2026-04-11T14:54:19.963Z</time></trkpt><trkpt lat="45.49524493503802" lon="7.804474676027902"><ele>797.0</ele><time>2026-04-11T14:54:22.963Z</time></trkpt><trkpt lat="45.495184518029994" lon="7.804509563541808"><ele>798.8333333333334</ele><time>2026-04-11T14:54:24.963Z</time></trkpt><trkpt lat="45.495122383991294" lon="7.804565840664895"><ele>800.6666666666667</ele><time>2026-04-11T14:54:26.963Z</time></trkpt><trkpt lat="45.49506563176998" lon="7.8046362809863385"><ele>802.5</ele><time>2026-04-11T14:54:28.963Z</time></trkpt><trkpt lat="45.495009782090385" lon="7.8047499074914315"><ele>804.3333333333333</ele><time>2026-04-11T14:54:31.96Z</time></trkpt><trkpt lat="45.494927093888506" lon="7.804834355591967"><ele>806.1666666666666</ele><time>2026-04-11T14:54:33.96Z</time></trkpt><trkpt lat="45.494841477260394" lon="7.804883903829404"><ele>808.0</ele><time>2026-04-11T14:54:35.96Z</time></trkpt><trkpt lat="45.494728103055294" lon="7.804894101614136"><ele>807.9999999999999</ele><time>2026-04-11T14:54:37.96Z</time></trkpt><trkpt lat="45.49462425776382" lon="7.804906293565261"><ele>808.0</ele><time>2026-04-11T14:54:39.96Z</time></trkpt><trkpt lat="45.494555911725364" lon="7.804896810142896"><ele>808.0</ele><time>2026-04-11T14:54:40.96Z</time></trkpt><trkpt lat="45.49443795157572" lon="7.80487959162592"><ele>808.0</ele><time>2026-04-11T14:54:42.96Z</time></trkpt><trkpt lat="45.494369631518" lon="7.804875345306165"><ele>807.9999999999999</ele><time>2026-04-11T14:54:43.96Z</time></trkpt><trkpt lat="45.49430220532072" lon="7.804882510438074"><ele>808.0</ele><time>2026-04-11T14:54:44.96Z</time></trkpt><trkpt lat="45.49423901315019" lon="7.804873920941642"><ele>806.8</ele><time>2026-04-11T14:54:45.96Z</time></trkpt><trkpt lat="45.49413378667183" lon="7.804841213305446"><ele>805.5999999999999</ele><time>2026-04-11T14:54:47.96Z</time></trkpt><trkpt lat="45.49402513803347" lon="7.804804282401903"><ele>804.4000000000001</ele><time>2026-04-11T14:54:49.96Z</time></trkpt><trkpt lat="45.49392642662801" lon="7.8047797695688415"><ele>803.2</ele><time>2026-04-11T14:54:51.96Z</time></trkpt><trkpt lat="45.49385500396669" lon="7.804773695336466"><ele>802.0</ele><time>2026-04-11T14:54:53.96Z</time></trkpt><trkpt lat="45.4939276380341" lon="7.804710703475663"><ele>801.9999999999999</ele><time>2026-04-11T14:55:01.96Z</time></trkpt><trkpt lat="45.493997125303544" lon="7.804685951142153"><ele>802.0</ele><time>2026-04-11T14:55:03.961Z</time></trkpt><trkpt lat="45.49407459341798" lon="7.8046652002553385"><ele>802.0</ele><time>2026-04-11T14:55:06.961Z</time></trkpt><trkpt lat="45.49412022080269" lon="7.804599567030545"><ele>802.0</ele><time>2026-04-11T14:55:09.961Z</time></trkpt><trkpt lat="45.49414297919265" lon="7.80450594624273"><ele>801.9999999999999</ele><time>2026-04-11T14:55:11.961Z</time></trkpt><trkpt lat="45.494167673621135" lon="7.804416323309008"><ele>802.0</ele><time>2026-04-11T14:55:14.961Z</time></trkpt><trkpt lat="45.494281120138936" lon="7.804387876424983"><ele>797.8</ele><time>2026-04-11T14:55:18.961Z</time></trkpt><trkpt lat="45.49435740940103" lon="7.80432704397041"><ele>793.6</ele><time>2026-04-11T14:55:20.961Z</time></trkpt><trkpt lat="45.49446070031844" lon="7.80423352200222"><ele>789.4</ele><time>2026-04-11T14:55:22.961Z</time></trkpt><trkpt lat="45.49451910785462" lon="7.80410271185632"><ele>785.1999999999999</ele><time>2026-04-11T14:55:24.961Z</time></trkpt><trkpt lat="45.49451863352393" lon="7.8040096200957345"><ele>781.0</ele><time>2026-04-11T14:55:25.961Z</time></trkpt><trkpt lat="45.494487975760904" lon="7.8039130523904"><ele>780.9999999999999</ele><time>2026-04-11T14:55:26.961Z</time></trkpt><trkpt lat="45.49444466291736" lon="7.803828244642793"><ele>781.0</ele><time>2026-04-11T14:55:27.961Z</time></trkpt><trkpt lat="45.49439187786442" lon="7.803703337285788"><ele>781.0</ele><time>2026-04-11T14:55:29.961Z</time></trkpt><trkpt lat="45.49435286316358" lon="7.803584225460096"><ele>781.0</ele><time>2026-04-11T14:55:31.961Z</time></trkpt><trkpt lat="45.49432055001654" lon="7.8035068073325355"><ele>780.9999999999999</ele><time>2026-04-11T14:55:33.961Z</time></trkpt><trkpt lat="45.49428726813077" lon="7.803347974177556"><ele>781.0</ele><time>2026-04-11T14:55:36.961Z</time></trkpt><trkpt lat="45.494205938890694" lon="7.803241043432186"><ele>779.8</ele><time>2026-04-11T14:55:39.962Z</time></trkpt><trkpt lat="45.49413886188807" lon="7.803102069800532"><ele>778.5999999999999</ele><time>2026-04-11T14:55:41.962Z</time></trkpt><trkpt lat="45.494062538465194" lon="7.803011162639014"><ele>777.4</ele><time>2026-04-11T14:55:43.962Z</time></trkpt><trkpt lat="45.494024020082854" lon="7.802924433247942"><ele>776.2</ele><time>2026-04-11T14:55:44.962Z</time></trkpt><trkpt lat="45.49399667033874" lon="7.802799213885255"><ele>775.0</ele><time>2026-04-11T14:55:45.962Z</time></trkpt><trkpt lat="45.493971487051404" lon="7.802707301674804"><ele>775.8</ele><time>2026-04-11T14:55:46.962Z</time></trkpt><trkpt lat="45.4939213362843" lon="7.8025964200604125"><ele>776.6</ele><time>2026-04-11T14:55:48.962Z</time></trkpt><trkpt lat="45.49393085368508" lon="7.802467320719252"><ele>777.4000000000001</ele><time>2026-04-11T14:55:50.962Z</time></trkpt><trkpt lat="45.49398285415077" lon="7.802323244176507"><ele>778.2</ele><time>2026-04-11T14:55:52.962Z</time></trkpt><trkpt lat="45.49402820919402" lon="7.80215718891401"><ele>779.0</ele><time>2026-04-11T14:55:54.962Z</time></trkpt><trkpt lat="45.49404956211599" lon="7.802060313674278"><ele>779.0000000000001</ele><time>2026-04-11T14:55:55.962Z</time></trkpt><trkpt lat="45.49406331989603" lon="7.8019671297327955"><ele>779.0</ele><time>2026-04-11T14:55:56.962Z</time></trkpt><trkpt lat="45.49408935075002" lon="7.8017996774894245"><ele>779.0</ele><time>2026-04-11T14:55:58.962Z</time></trkpt><trkpt lat="45.4941070233143" lon="7.801704675930157"><ele>779.0</ele><time>2026-04-11T14:55:59.962Z</time></trkpt><trkpt lat="45.49412512135336" lon="7.8015928492476405"><ele>779.0000000000001</ele><time>2026-04-11T14:56:00.962Z</time></trkpt><trkpt lat="45.49414512330386" lon="7.801482825520916"><ele>779.0</ele><time>2026-04-11T14:56:01.962Z</time></trkpt><trkpt lat="45.49417359363651" lon="7.801371598716716"><ele>779.5000000000001</ele><time>2026-04-11T14:56:02.962Z</time></trkpt><trkpt lat="45.49420589833479" lon="7.80126377369879"><ele>780.0</ele><time>2026-04-11T14:56:03.962Z</time></trkpt><trkpt lat="45.494234327501054" lon="7.80116341873213"><ele>780.5</ele><time>2026-04-11T14:56:04.962Z</time></trkpt><trkpt lat="45.49426496272097" lon="7.801053003368674"><ele>781.0</ele><time>2026-04-11T14:56:05.962Z</time></trkpt><trkpt lat="45.49430481049725" lon="7.800953371399231"><ele>781.5000000000001</ele><time>2026-04-11T14:56:06.962Z</time></trkpt><trkpt lat="45.494360521309595" lon="7.800867417838155"><ele>782.0</ele><time>2026-04-11T14:56:07.962Z</time></trkpt><trkpt lat="45.49441356886853" lon="7.800782453973413"><ele>782.8333333333334</ele><time>2026-04-11T14:56:08.962Z</time></trkpt><trkpt lat="45.49448074198597" lon="7.800692211053472"><ele>783.6666666666667</ele><time>2026-04-11T14:56:09.962Z</time></trkpt><trkpt lat="45.49453118593433" lon="7.800598564063322"><ele>784.5</ele><time>2026-04-11T14:56:10.962Z</time></trkpt><trkpt lat="45.49458864761742" lon="7.800517349233719"><ele>785.3333333333333</ele><time>2026-04-11T14:56:11.963Z</time></trkpt><trkpt lat="45.49464663898135" lon="7.8004440015407495"><ele>786.1666666666666</ele><time>2026-04-11T14:56:12.963Z</time></trkpt><trkpt lat="45.4947223860855" lon="7.800390300353223"><ele>787.0</ele><time>2026-04-11T14:56:13.963Z</time></trkpt><trkpt lat="45.494798744410396" lon="7.800326312425445"><ele>785.8</ele><time>2026-04-11T14:56:14.963Z</time></trkpt><trkpt lat="45.49487712362481" lon="7.800267837196439"><ele>784.6</ele><time>2026-04-11T14:56:15.963Z</time></trkpt><trkpt lat="45.49495074776377" lon="7.800192194863164"><ele>783.4</ele><time>2026-04-11T14:56:16.963Z</time></trkpt><trkpt lat="45.49503377120728" lon="7.800113546849588"><ele>782.1999999999999</ele><time>2026-04-11T14:56:17.963Z</time></trkpt><trkpt lat="45.49511606725517" lon="7.800031939165516"><ele>781.0</ele><time>2026-04-11T14:56:18.963Z</time></trkpt><trkpt lat="45.49519552300445" lon="7.7999504406543005"><ele>780.9999999999999</ele><time>2026-04-11T14:56:19.963Z</time></trkpt><trkpt lat="45.495272992843596" lon="7.799875709610227"><ele>781.0</ele><time>2026-04-11T14:56:20.963Z</time></trkpt><trkpt lat="45.49535232345435" lon="7.7997989787473765"><ele>781.0</ele><time>2026-04-11T14:56:21.963Z</time></trkpt><trkpt lat="45.4954154035273" lon="7.7997162797130555"><ele>781.0</ele><time>2026-04-11T14:56:22.963Z</time></trkpt><trkpt lat="45.49548488819878" lon="7.799637399849022"><ele>780.9999999999999</ele><time>2026-04-11T14:56:23.963Z</time></trkpt><trkpt lat="45.495552644238" lon="7.799564934415783"><ele>781.0</ele><time>2026-04-11T14:56:24.963Z</time></trkpt><trkpt lat="45.49561737611578" lon="7.7994969079266925"><ele>781.4999999999999</ele><time>2026-04-11T14:56:25.963Z</time></trkpt><trkpt lat="45.49569112480819" lon="7.799432934213277"><ele>782.0</ele><time>2026-04-11T14:56:26.963Z</time></trkpt><trkpt lat="45.495757730479916" lon="7.799376814231896"><ele>782.5</ele><time>2026-04-11T14:56:27.963Z</time></trkpt><trkpt lat="45.49581614173155" lon="7.799317728681541"><ele>783.0</ele><time>2026-04-11T14:56:28.963Z</time></trkpt><trkpt lat="45.4958746597921" lon="7.799266059676548"><ele>783.4999999999999</ele><time>2026-04-11T14:56:29.963Z</time></trkpt><trkpt lat="45.49594243890139" lon="7.799220444853897"><ele>784.0</ele><time>2026-04-11T14:56:30.963Z</time></trkpt><trkpt lat="45.4960229496518" lon="7.799186131465714"><ele>783.9999999999999</ele><time>2026-04-11T14:56:31.963Z</time></trkpt><trkpt lat="45.49610168517465" lon="7.799167252135792"><ele>784.0</ele><time>2026-04-11T14:56:32.963Z</time></trkpt><trkpt lat="45.496186841064805" lon="7.799160323084148"><ele>784.0</ele><time>2026-04-11T14:56:33.963Z</time></trkpt><trkpt lat="45.49627999667306" lon="7.799163543903364"><ele>784.0</ele><time>2026-04-11T14:56:34.963Z</time></trkpt><trkpt lat="45.49637031331644" lon="7.799161349603844"><ele>783.9999999999999</ele><time>2026-04-11T14:56:35.963Z</time></trkpt><trkpt lat="45.49646433285101" lon="7.799172513822677"><ele>784.0</ele><time>2026-04-11T14:56:36.963Z</time></trkpt><trkpt lat="45.496562514565326" lon="7.799176669330232"><ele>783.4000000000001</ele><time>2026-04-11T14:56:37.96Z</time></trkpt><trkpt lat="45.496664376226" lon="7.799175482688912"><ele>782.8</ele><time>2026-04-11T14:56:38.96Z</time></trkpt><trkpt lat="45.496759535762145" lon="7.799175476581039"><ele>782.2</ele><time>2026-04-11T14:56:39.96Z</time></trkpt><trkpt lat="45.49684796219423" lon="7.799164981286823"><ele>781.5999999999999</ele><time>2026-04-11T14:56:40.96Z</time></trkpt><trkpt lat="45.49693487643797" lon="7.799152768590794"><ele>781.0</ele><time>2026-04-11T14:56:41.961Z</time></trkpt><trkpt lat="45.49701672766496" lon="7.7991433967796056"><ele>781.3333333333333</ele><time>2026-04-11T14:56:42.961Z</time></trkpt><trkpt lat="45.49710057641973" lon="7.799138102521373"><ele>781.6666666666666</ele><time>2026-04-11T14:56:43.961Z</time></trkpt><trkpt lat="45.497185196033506" lon="7.799139881200765"><ele>782.0</ele><time>2026-04-11T14:56:44.96Z</time></trkpt><trkpt lat="45.497261822512606" lon="7.799144883956989"><ele>782.3333333333333</ele><time>2026-04-11T14:56:45.96Z</time></trkpt><trkpt lat="45.497342496244315" lon="7.799132627181858"><ele>782.6666666666666</ele><time>2026-04-11T14:56:46.961Z</time></trkpt><trkpt lat="45.497410980602545" lon="7.799094266866805"><ele>783.0</ele><time>2026-04-11T14:56:47.961Z</time></trkpt><trkpt lat="45.49747574585801" lon="7.799030806526196"><ele>783.0</ele><time>2026-04-11T14:56:48.961Z</time></trkpt><trkpt lat="45.497529990460855" lon="7.798957241573978"><ele>783.0</ele><time>2026-04-11T14:56:49.96Z</time></trkpt><trkpt lat="45.497580453633816" lon="7.798880838880018"><ele>783.0</ele><time>2026-04-11T14:56:50.961Z</time></trkpt><trkpt lat="45.497635957338744" lon="7.798811032233129"><ele>783.0</ele><time>2026-04-11T14:56:51.961Z</time></trkpt><trkpt lat="45.49773261533062" lon="7.798788279853704"><ele>783.0</ele><time>2026-04-11T14:56:53.961Z</time></trkpt><trkpt lat="45.49781867406404" lon="7.79888024246681"><ele>783.0</ele><time>2026-04-11T14:56:55.961Z</time></trkpt><trkpt lat="45.497870502651494" lon="7.798955237571646"><ele>783.7142857142857</ele><time>2026-04-11T14:56:56.961Z</time></trkpt><trkpt lat="45.4979290249723" lon="7.799017968867081"><ele>784.4285714285714</ele><time>2026-04-11T14:56:57.961Z</time></trkpt><trkpt lat="45.49798451957394" lon="7.799081875086579"><ele>785.1428571428571</ele><time>2026-04-11T14:56:58.961Z</time></trkpt><trkpt lat="45.498041887906304" lon="7.799161690862286"><ele>785.8571428571429</ele><time>2026-04-11T14:56:59.961Z</time></trkpt><trkpt lat="45.49809729348622" lon="7.799228178474386"><ele>786.5714285714287</ele><time>2026-04-11T14:57:00.961Z</time></trkpt><trkpt lat="45.49815112895841" lon="7.799293350982767"><ele>787.2857142857143</ele><time>2026-04-11T14:57:01.961Z</time></trkpt><trkpt lat="45.49820570013289" lon="7.79936426577052"><ele>788.0</ele><time>2026-04-11T14:57:02.961Z</time></trkpt><trkpt lat="45.498261650036014" lon="7.799422598350169"><ele>785.6666666666667</ele><time>2026-04-11T14:57:03.961Z</time></trkpt><trkpt lat="45.49831863909861" lon="7.799491756558575"><ele>783.3333333333334</ele><time>2026-04-11T14:57:04.961Z</time></trkpt><trkpt lat="45.49837966061967" lon="7.799551714551386"><ele>781.0</ele><time>2026-04-11T14:57:05.961Z</time></trkpt><trkpt lat="45.498440136985785" lon="7.799608884194891"><ele>778.6666666666667</ele><time>2026-04-11T14:57:06.961Z</time></trkpt><trkpt lat="45.49849694340411" lon="7.799658976050802"><ele>776.3333333333334</ele><time>2026-04-11T14:57:07.961Z</time></trkpt><trkpt lat="45.498569769332754" lon="7.799716774396883"><ele>774.0</ele><time>2026-04-11T14:57:08.961Z</time></trkpt><trkpt lat="45.498680395389734" lon="7.799747964140486"><ele>774.0</ele><time>2026-04-11T14:57:10.961Z</time></trkpt><trkpt lat="45.49874579973795" lon="7.79974006865793"><ele>774.0</ele><time>2026-04-11T14:57:11.961Z</time></trkpt><trkpt lat="45.498822202153534" lon="7.7997144258333835"><ele>774.0</ele><time>2026-04-11T14:57:12.961Z</time></trkpt><trkpt lat="45.4989009482587" lon="7.799662121011072"><ele>774.0</ele><time>2026-04-11T14:57:13.961Z</time></trkpt><trkpt lat="45.49897315103505" lon="7.7996060788759705"><ele>774.0</ele><time>2026-04-11T14:57:14.961Z</time></trkpt><trkpt lat="45.49904185955613" lon="7.799546928115233"><ele>774.0</ele><time>2026-04-11T14:57:15.961Z</time></trkpt><trkpt lat="45.49912449781993" lon="7.799504164268141"><ele>775.3333333333334</ele><time>2026-04-11T14:57:16.961Z</time></trkpt><trkpt lat="45.499202405143556" lon="7.799463507204575"><ele>776.6666666666667</ele><time>2026-04-11T14:57:17.961Z</time></trkpt><trkpt lat="45.49928520423465" lon="7.799427779951873"><ele>778.0</ele><time>2026-04-11T14:57:18.961Z</time></trkpt><trkpt lat="45.49936709840948" lon="7.799406863151531"><ele>779.3333333333334</ele><time>2026-04-11T14:57:19.961Z</time></trkpt><trkpt lat="45.49946393256079" lon="7.7993929554042545"><ele>780.6666666666667</ele><time>2026-04-11T14:57:20.961Z</time></trkpt><trkpt lat="45.49955687131598" lon="7.799384376211123"><ele>782.0</ele><time>2026-04-11T14:57:21.961Z</time></trkpt><trkpt lat="45.49964652306237" lon="7.799376355063285"><ele>785.0000000000001</ele><time>2026-04-11T14:57:22.961Z</time></trkpt><trkpt lat="45.49972932067656" lon="7.79933062157177"><ele>788.0</ele><time>2026-04-11T14:57:23.962Z</time></trkpt><trkpt lat="45.49979478069377" lon="7.799283744747974"><ele>791.0</ele><time>2026-04-11T14:57:24.962Z</time></trkpt><trkpt lat="45.49984916993778" lon="7.79923509230997"><ele>794.0</ele><time>2026-04-11T14:57:25.962Z</time></trkpt><trkpt lat="45.499914227277294" lon="7.799187413993432"><ele>797.0000000000001</ele><time>2026-04-11T14:57:26.962Z</time></trkpt><trkpt lat="45.49999103838204" lon="7.799154035402424"><ele>800.0</ele><time>2026-04-11T14:57:27.962Z</time></trkpt><trkpt lat="45.500062528611224" lon="7.799091327510199"><ele>800.0000000000001</ele><time>2026-04-11T14:57:28.962Z</time></trkpt><trkpt lat="45.50012829319512" lon="7.799025559144197"><ele>800.0</ele><time>2026-04-11T14:57:29.962Z</time></trkpt><trkpt lat="45.50019035800697" lon="7.798940152045533"><ele>800.0</ele><time>2026-04-11T14:57:30.962Z</time></trkpt><trkpt lat="45.50024594749744" lon="7.798863007244325"><ele>800.0</ele><time>2026-04-11T14:57:31.962Z</time></trkpt><trkpt lat="45.50030847494056" lon="7.798775747061421"><ele>800.0000000000001</ele><time>2026-04-11T14:57:32.962Z</time></trkpt><trkpt lat="45.50036531343071" lon="7.798704339267153"><ele>800.0</ele><time>2026-04-11T14:57:33.962Z</time></trkpt><trkpt lat="45.50041387096171" lon="7.798626921903345"><ele>800.3333333333334</ele><time>2026-04-11T14:57:34.962Z</time></trkpt><trkpt lat="45.50045561501574" lon="7.79853229548353"><ele>800.6666666666667</ele><time>2026-04-11T14:57:35.962Z</time></trkpt><trkpt lat="45.50049978280353" lon="7.798418669327696"><ele>801.0</ele><time>2026-04-11T14:57:36.962Z</time></trkpt><trkpt lat="45.50052496671664" lon="7.798334801543629"><ele>801.3333333333333</ele><time>2026-04-11T14:57:37.962Z</time></trkpt><trkpt lat="45.500603440347426" lon="7.798210183008369"><ele>801.6666666666666</ele><time>2026-04-11T14:57:39.962Z</time></trkpt><trkpt lat="45.50068722347078" lon="7.798209971542355"><ele>802.0</ele><time>2026-04-11T14:57:41.962Z</time></trkpt><trkpt lat="45.50075396448366" lon="7.798337860089529"><ele>801.9999999999999</ele><time>2026-04-11T14:57:43.962Z</time></trkpt><trkpt lat="45.500773063999354" lon="7.798426477716262"><ele>802.0</ele><time>2026-04-11T14:57:44.962Z</time></trkpt><trkpt lat="45.50077485845347" lon="7.798528158088006"><ele>802.0</ele><time>2026-04-11T14:57:45.962Z</time></trkpt><trkpt lat="45.50076843925716" lon="7.798627379022766"><ele>802.0</ele><time>2026-04-11T14:57:46.962Z</time></trkpt><trkpt lat="45.50077026334844" lon="7.798723075681637"><ele>801.9999999999999</ele><time>2026-04-11T14:57:47.962Z</time></trkpt><trkpt lat="45.50079675925049" lon="7.798893028064436"><ele>802.0</ele><time>2026-04-11T14:57:49.962Z</time></trkpt><trkpt lat="45.50082750813623" lon="7.798980200770248"><ele>801.9999999999999</ele><time>2026-04-11T14:57:50.962Z</time></trkpt><trkpt lat="45.50086888405982" lon="7.799077169952181"><ele>802.0</ele><time>2026-04-11T14:57:51.962Z</time></trkpt><trkpt lat="45.500904326486186" lon="7.799157508443759"><ele>802.0</ele><time>2026-04-11T14:57:52.962Z</time></trkpt><trkpt lat="45.500981784255124" lon="7.799220048497186"><ele>802.0</ele><time>2026-04-11T14:57:54.962Z</time></trkpt><trkpt lat="45.50104784399985" lon="7.799215473553528"><ele>801.9999999999999</ele><time>2026-04-11T14:57:55.962Z</time></trkpt><trkpt lat="45.50116915174523" lon="7.799242286515822"><ele>802.0</ele><time>2026-04-11T14:57:57.963Z</time></trkpt><trkpt lat="45.501249122051604" lon="7.799273715448913"><ele>808.0</ele><time>2026-04-11T14:58:00.963Z</time></trkpt><trkpt lat="45.5013354558292" lon="7.799308503802499"><ele>814.0</ele><time>2026-04-11T14:58:02.963Z</time></trkpt><trkpt lat="45.50132117909494" lon="7.799451956771798"><ele>820.0</ele><time>2026-04-11T14:58:06.963Z</time></trkpt><trkpt lat="45.5013331105951" lon="7.79954127764366"><ele>826.0</ele><time>2026-04-11T14:58:07.963Z</time></trkpt><trkpt lat="45.50141980030131" lon="7.799606271130591"><ele>832.0</ele><time>2026-04-11T14:58:10.963Z</time></trkpt><trkpt lat="45.501522633484406" lon="7.799643413393809"><ele>831.9999999999999</ele><time>2026-04-11T14:58:12.963Z</time></trkpt><trkpt lat="45.501596832971686" lon="7.799713855900029"><ele>832.0</ele><time>2026-04-11T14:58:14.963Z</time></trkpt><trkpt lat="45.50163165836009" lon="7.799805214851713"><ele>832.0</ele><time>2026-04-11T14:58:18.963Z</time></trkpt><trkpt lat="45.50170380740617" lon="7.799888064122572"><ele>832.0</ele><time>2026-04-11T14:58:20.963Z</time></trkpt><trkpt lat="45.50175766331387" lon="7.7999621662143"><ele>831.9999999999999</ele><time>2026-04-11T14:58:26.963Z</time></trkpt><trkpt lat="45.5018060076923" lon="7.800031330519241"><ele>832.0</ele><time>2026-04-11T14:58:35.964Z</time></trkpt><trkpt lat="45.501852573703815" lon="7.800097060763457"><ele>832.0</ele><time>2026-04-11T14:59:01.961Z</time></trkpt><trkpt lat="45.501918708841245" lon="7.800109673409261"><ele>832.0</ele><time>2026-04-11T14:59:04.961Z</time></trkpt><trkpt lat="45.502145587957735" lon="7.800105446391961"><ele>832.0</ele><time>2026-04-11T14:59:46.963Z</time></trkpt><trkpt lat="45.50219713086712" lon="7.800159522449665"><ele>832.0</ele><time>2026-04-11T15:05:06.973Z</time></trkpt><trkpt lat="45.50225535263504" lon="7.8002143051481365"><ele>832.0</ele><time>2026-04-11T15:05:12.973Z</time></trkpt><trkpt lat="45.50231772778101" lon="7.800246705806538"><ele>833.2</ele><time>2026-04-11T15:05:24.972Z</time></trkpt><trkpt lat="45.502380494368865" lon="7.8002898462040555"><ele>834.4000000000001</ele><time>2026-04-11T15:05:48.973Z</time></trkpt><trkpt lat="45.502264414721985" lon="7.8003962276378"><ele>835.5999999999999</ele><time>2026-04-11T15:11:27.977Z</time></trkpt><trkpt lat="45.502334742739976" lon="7.800348570038017"><ele>836.8</ele><time>2026-04-11T15:11:40.978Z</time></trkpt><trkpt lat="45.50239187290571" lon="7.800303313316366"><ele>838.0</ele><time>2026-04-11T15:11:56.978Z</time></trkpt><trkpt lat="45.502487632962286" lon="7.800431568433641"><ele>837.9999999999999</ele><time>2026-04-11T15:13:37.978Z</time></trkpt><trkpt lat="45.502556273148755" lon="7.800445736736938"><ele>838.0</ele><time>2026-04-11T15:13:44.979Z</time></trkpt><trkpt lat="45.50262466200983" lon="7.800480387646253"><ele>838.0</ele><time>2026-04-11T15:13:50.979Z</time></trkpt><trkpt lat="45.5026848729398" lon="7.8005334885765825"><ele>838.0</ele><time>2026-04-11T15:13:54.979Z</time></trkpt><trkpt lat="45.50275585703252" lon="7.800556395704605"><ele>838.0</ele><time>2026-04-11T15:13:59.979Z</time></trkpt><trkpt lat="45.502791825069906" lon="7.8006444507839845"><ele>837.9999999999999</ele><time>2026-04-11T15:14:06.979Z</time></trkpt><trkpt lat="45.502769233054885" lon="7.800730859598222"><ele>838.0</ele><time>2026-04-11T15:14:09.979Z</time></trkpt><trkpt lat="45.50279735576348" lon="7.800839691615354"><ele>837.9999999999999</ele><time>2026-04-11T15:14:12.979Z</time></trkpt><trkpt lat="45.50283753844595" lon="7.800942303698066"><ele>838.0</ele><time>2026-04-11T15:14:15.98Z</time></trkpt><trkpt lat="45.502882830918395" lon="7.8010426095815655"><ele>838.0</ele><time>2026-04-11T15:14:18.98Z</time></trkpt><trkpt lat="45.50292634036629" lon="7.801120583480899"><ele>838.0</ele><time>2026-04-11T15:14:20.98Z</time></trkpt><trkpt lat="45.50297487729706" lon="7.8012149332691285"><ele>837.9999999999999</ele><time>2026-04-11T15:14:23.98Z</time></trkpt><trkpt lat="45.50298596382782" lon="7.801333228188741"><ele>838.0</ele><time>2026-04-11T15:14:26.98Z</time></trkpt><trkpt lat="45.50304284240668" lon="7.801457925957975"><ele>843.4999999999999</ele><time>2026-04-11T15:14:28.98Z</time></trkpt><trkpt lat="45.503073828215726" lon="7.801551626476814"><ele>849.0</ele><time>2026-04-11T15:14:31.98Z</time></trkpt><trkpt lat="45.503109969298634" lon="7.8016637822755985"><ele>854.5</ele><time>2026-04-11T15:14:33.98Z</time></trkpt><trkpt lat="45.50313886272137" lon="7.801747555471682"><ele>860.0</ele><time>2026-04-11T15:14:37.98Z</time></trkpt><trkpt lat="45.50323462858757" lon="7.801791373272119"><ele>865.4999999999999</ele><time>2026-04-11T15:15:57.979Z</time></trkpt><trkpt lat="45.50323401733237" lon="7.801693108480003"><ele>871.0</ele><time>2026-04-11T15:16:26.98Z</time></trkpt><trkpt lat="45.50322890122731" lon="7.801598906175685"><ele>871.0</ele><time>2026-04-11T15:16:35.98Z</time></trkpt><trkpt lat="45.503191853149765" lon="7.801520207440316"><ele>871.0</ele><time>2026-04-11T15:16:43.981Z</time></trkpt><trkpt lat="45.50325282611306" lon="7.801581722117403"><ele>871.0</ele><time>2026-04-11T15:17:26.982Z</time></trkpt><trkpt lat="45.50332212583534" lon="7.8016205466425355"><ele>871.0</ele><time>2026-04-11T15:17:51.98Z</time></trkpt><trkpt lat="45.50334821549392" lon="7.801710089004654"><ele>871.0</ele><time>2026-04-11T15:18:08.981Z</time></trkpt><trkpt lat="45.50339410862562" lon="7.801800465833494"><ele>871.0</ele><time>2026-04-11T15:19:42.982Z</time></trkpt><trkpt lat="45.50345874520716" lon="7.801844009977956"><ele>871.0</ele><time>2026-04-11T15:19:46.982Z</time></trkpt><trkpt lat="45.50356494791164" lon="7.801840770474663"><ele>871.0</ele><time>2026-04-11T15:19:56.983Z</time></trkpt><trkpt lat="45.50349935961287" lon="7.801825037600852"><ele>871.0</ele><time>2026-04-11T15:31:00.993Z</time></trkpt><trkpt lat="45.50343227220016" lon="7.801832999043344"><ele>871.0</ele><time>2026-04-11T15:31:05.993Z</time></trkpt><trkpt lat="45.503378905822316" lon="7.801774808986311"><ele>871.0</ele><time>2026-04-11T15:31:13.993Z</time></trkpt><trkpt lat="45.50331553565413" lon="7.8017939239416805"><ele>871.0</ele><time>2026-04-11T15:31:21.994Z</time></trkpt><trkpt lat="45.50323520180248" lon="7.801808524703619"><ele>871.0</ele><time>2026-04-11T15:31:33.994Z</time></trkpt><trkpt lat="45.50317634905454" lon="7.801765131273432"><ele>871.0</ele><time>2026-04-11T15:31:42.994Z</time></trkpt><trkpt lat="45.50317177813892" lon="7.801858043607854"><ele>870.9999999999999</ele><time>2026-04-11T15:36:25.99Z</time></trkpt><trkpt lat="45.50316113204139" lon="7.801947415666392"><ele>871.0</ele><time>2026-04-11T15:36:31.988Z</time></trkpt><trkpt lat="45.50318974485186" lon="7.8020363059012965"><ele>871.0</ele><time>2026-04-11T15:36:37.988Z</time></trkpt><trkpt lat="45.503207978537446" lon="7.802134359262267"><ele>871.0</ele><time>2026-04-11T15:39:57.991Z</time></trkpt><trkpt lat="45.50314503515586" lon="7.802229891214669"><ele>870.9999999999999</ele><time>2026-04-11T15:40:01.991Z</time></trkpt><trkpt lat="45.503074538803986" lon="7.80229083587322"><ele>871.0</ele><time>2026-04-11T15:40:07.991Z</time></trkpt><trkpt lat="45.503071565485214" lon="7.802408083739329"><ele>870.9999999999999</ele><time>2026-04-11T15:40:10.991Z</time></trkpt><trkpt lat="45.503043500183594" lon="7.802511803368909"><ele>871.0</ele><time>2026-04-11T15:40:13.991Z</time></trkpt><trkpt lat="45.5030710768448" lon="7.80262691044467"><ele>871.0</ele><time>2026-04-11T15:40:17.991Z</time></trkpt><trkpt lat="45.50314571554406" lon="7.802617567010138"><ele>871.0</ele><time>2026-04-11T15:40:23.991Z</time></trkpt><trkpt lat="45.50317973041121" lon="7.802710951217026"><ele>870.9999999999999</ele><time>2026-04-11T15:46:17.994Z</time></trkpt><trkpt lat="45.50320124797683" lon="7.802830441800255"><ele>871.0</ele><time>2026-04-11T15:46:19.994Z</time></trkpt><trkpt lat="45.50320044255285" lon="7.802970471173161"><ele>871.8333333333333</ele><time>2026-04-11T15:46:21.994Z</time></trkpt><trkpt lat="45.50325298312909" lon="7.803079567638008"><ele>872.6666666666666</ele><time>2026-04-11T15:46:23.995Z</time></trkpt><trkpt lat="45.503267898633226" lon="7.803171154112171"><ele>873.5</ele><time>2026-04-11T15:46:25.995Z</time></trkpt><trkpt lat="45.50323325229285" lon="7.803271584723984"><ele>874.3333333333333</ele><time>2026-04-11T15:46:27.995Z</time></trkpt><trkpt lat="45.50317709966724" lon="7.803351726954106"><ele>875.1666666666666</ele><time>2026-04-11T15:46:30.995Z</time></trkpt><trkpt lat="45.50310146858446" lon="7.803439459173827"><ele>876.0</ele><time>2026-04-11T15:46:33.995Z</time></trkpt><trkpt lat="45.5030353309308" lon="7.803473534848341"><ele>876.1666666666666</ele><time>2026-04-11T15:46:36.995Z</time></trkpt><trkpt lat="45.50296376118008" lon="7.803544119144546"><ele>876.3333333333333</ele><time>2026-04-11T15:46:39.995Z</time></trkpt><trkpt lat="45.50291219037166" lon="7.803613859975256"><ele>876.5</ele><time>2026-04-11T15:46:46.995Z</time></trkpt><trkpt lat="45.502915229455255" lon="7.803726352036541"><ele>876.6666666666666</ele><time>2026-04-11T15:46:49.995Z</time></trkpt><trkpt lat="45.50287179049467" lon="7.803813179917358"><ele>876.8333333333333</ele><time>2026-04-11T15:46:52.995Z</time></trkpt><trkpt lat="45.502853549416834" lon="7.803924129409953"><ele>877.0</ele><time>2026-04-11T15:46:54.995Z</time></trkpt><trkpt lat="45.50286031793715" lon="7.804075478065184"><ele>872.8333333333333</ele><time>2026-04-11T15:46:56.995Z</time></trkpt><trkpt lat="45.50285449692013" lon="7.804170400147827"><ele>868.6666666666666</ele><time>2026-04-11T15:46:57.995Z</time></trkpt><trkpt lat="45.50285266395562" lon="7.8042665696846685"><ele>864.5</ele><time>2026-04-11T15:46:58.995Z</time></trkpt><trkpt lat="45.50285255467394" lon="7.804359745389353"><ele>860.3333333333333</ele><time>2026-04-11T15:46:59.995Z</time></trkpt><trkpt lat="45.50281879224986" lon="7.804445989219273"><ele>856.1666666666666</ele><time>2026-04-11T15:47:00.993Z</time></trkpt><trkpt lat="45.50284847288308" lon="7.804587050511682"><ele>852.0</ele><time>2026-04-11T15:47:02.993Z</time></trkpt><trkpt lat="45.50287670043283" lon="7.8047292811003945"><ele>848.4000000000001</ele><time>2026-04-11T15:47:04.993Z</time></trkpt><trkpt lat="45.50287814731344" lon="7.804840217306884"><ele>844.8000000000001</ele><time>2026-04-11T15:47:06.992Z</time></trkpt><trkpt lat="45.50280522890287" lon="7.804930617374296"><ele>841.2</ele><time>2026-04-11T15:47:08.993Z</time></trkpt><trkpt lat="45.5027153346999" lon="7.804869778243045"><ele>837.6</ele><time>2026-04-11T15:47:10.993Z</time></trkpt><trkpt lat="45.50263390590276" lon="7.804756636453064"><ele>834.0</ele><time>2026-04-11T15:47:12.993Z</time></trkpt><trkpt lat="45.502550436432436" lon="7.804659311424067"><ele>834.0</ele><time>2026-04-11T15:47:14.993Z</time></trkpt><trkpt lat="45.502478763691684" lon="7.804598177711063"><ele>834.0</ele><time>2026-04-11T15:47:16.993Z</time></trkpt><trkpt lat="45.50241885290947" lon="7.804540156589592"><ele>834.0</ele><time>2026-04-11T15:47:18.993Z</time></trkpt><trkpt lat="45.50235773629899" lon="7.804494538551427"><ele>834.0</ele><time>2026-04-11T15:47:23.993Z</time></trkpt><trkpt lat="45.50237496237209" lon="7.804597728746587"><ele>834.0</ele><time>2026-04-11T15:47:34.994Z</time></trkpt><trkpt lat="45.50242797986907" lon="7.804747535257616"><ele>834.0</ele><time>2026-04-11T15:47:36.994Z</time></trkpt><trkpt lat="45.50247493935285" lon="7.804855629985187"><ele>834.0</ele><time>2026-04-11T15:47:37.994Z</time></trkpt><trkpt lat="45.50249390705324" lon="7.804976432184284"><ele>834.0</ele><time>2026-04-11T15:47:38.994Z</time></trkpt><trkpt lat="45.50253497596777" lon="7.805067123418232"><ele>834.0</ele><time>2026-04-11T15:47:39.994Z</time></trkpt><trkpt lat="45.50259553257428" lon="7.805134049147697"><ele>834.0</ele><time>2026-04-11T15:47:40.994Z</time></trkpt><trkpt lat="45.50262646783822" lon="7.8052144930809915"><ele>834.0</ele><time>2026-04-11T15:47:41.994Z</time></trkpt><trkpt lat="45.50268485406811" lon="7.805362846729336"><ele>834.0</ele><time>2026-04-11T15:47:43.994Z</time></trkpt><trkpt lat="45.502723809201086" lon="7.805441232194747"><ele>835.8000000000001</ele><time>2026-04-11T15:47:44.994Z</time></trkpt><trkpt lat="45.50278009054911" lon="7.805595913191381"><ele>837.6</ele><time>2026-04-11T15:47:46.994Z</time></trkpt><trkpt lat="45.502862754706186" lon="7.8057217383571125"><ele>839.4</ele><time>2026-04-11T15:47:48.994Z</time></trkpt><trkpt lat="45.5029270794865" lon="7.805767720302548"><ele>841.2</ele><time>2026-04-11T15:47:49.994Z</time></trkpt><trkpt lat="45.50299502291773" lon="7.805787623889813"><ele>843.0</ele><time>2026-04-11T15:47:50.994Z</time></trkpt><trkpt lat="45.503068213232204" lon="7.805811750904839"><ele>843.0</ele><time>2026-04-11T15:47:51.994Z</time></trkpt><trkpt lat="45.50313369739825" lon="7.805832583337539"><ele>843.0</ele><time>2026-04-11T15:47:52.994Z</time></trkpt><trkpt lat="45.50323733105452" lon="7.805850019597005"><ele>843.0</ele><time>2026-04-11T15:47:54.994Z</time></trkpt><trkpt lat="45.50333025414624" lon="7.805852303287907"><ele>843.0</ele><time>2026-04-11T15:47:56.994Z</time></trkpt><trkpt lat="45.50342662843092" lon="7.80591379660725"><ele>843.0</ele><time>2026-04-11T15:47:58.994Z</time></trkpt><trkpt lat="45.5034965042736" lon="7.805956281190123"><ele>843.0</ele><time>2026-04-11T15:47:59.994Z</time></trkpt><trkpt lat="45.50358427008792" lon="7.806020735611052"><ele>844.5999999999999</ele><time>2026-04-11T15:48:00.994Z</time></trkpt><trkpt lat="45.50365312776981" lon="7.806101837711371"><ele>846.1999999999999</ele><time>2026-04-11T15:48:01.994Z</time></trkpt><trkpt lat="45.50372489826756" lon="7.806180884143372"><ele>847.8</ele><time>2026-04-11T15:48:02.994Z</time></trkpt><trkpt lat="45.50378700488214" lon="7.806246544726561"><ele>849.4</ele><time>2026-04-11T15:48:03.995Z</time></trkpt><trkpt lat="45.503876048663244" lon="7.8063335688517625"><ele>851.0</ele><time>2026-04-11T15:48:05.995Z</time></trkpt><trkpt lat="45.50395328175724" lon="7.806388081733008"><ele>851.0</ele><time>2026-04-11T15:48:07.995Z</time></trkpt><trkpt lat="45.5040511798481" lon="7.806497700904022"><ele>851.0</ele><time>2026-04-11T15:48:09.995Z</time></trkpt><trkpt lat="45.50413374006074" lon="7.806568877330644"><ele>851.0</ele><time>2026-04-11T15:48:11.995Z</time></trkpt><trkpt lat="45.5042302529469" lon="7.806673840662806"><ele>851.0</ele><time>2026-04-11T15:48:13.995Z</time></trkpt><trkpt lat="45.50428591553802" lon="7.806717032414184"><ele>851.0</ele><time>2026-04-11T15:48:14.995Z</time></trkpt><trkpt lat="45.50436900493114" lon="7.806776822288409"><ele>851.0</ele><time>2026-04-11T15:48:16.995Z</time></trkpt><trkpt lat="45.50443142419363" lon="7.806814425262652"><ele>851.0</ele><time>2026-04-11T15:48:18.995Z</time></trkpt><trkpt lat="45.50459142940728" lon="7.806831380504079"><ele>851.0</ele><time>2026-04-11T15:48:21.995Z</time></trkpt><trkpt lat="45.50468709128467" lon="7.806893393698647"><ele>851.0</ele><time>2026-04-11T15:48:23.995Z</time></trkpt><trkpt lat="45.50477910597203" lon="7.806974520349235"><ele>851.0</ele><time>2026-04-11T15:48:25.995Z</time></trkpt><trkpt lat="45.50483007879583" lon="7.8070285120066405"><ele>849.75</ele><time>2026-04-11T15:48:26.995Z</time></trkpt><trkpt lat="45.504929407782264" lon="7.8070416509790395"><ele>848.5</ele><time>2026-04-11T15:48:28.995Z</time></trkpt><trkpt lat="45.50505470488284" lon="7.80705051654239"><ele>847.25</ele><time>2026-04-11T15:48:30.995Z</time></trkpt><trkpt lat="45.50513509809188" lon="7.807155333720716"><ele>846.0</ele><time>2026-04-11T15:48:32.995Z</time></trkpt><trkpt lat="45.505242703667165" lon="7.807252298556513"><ele>846.0</ele><time>2026-04-11T15:48:34.995Z</time></trkpt><trkpt lat="45.50533144292515" lon="7.807329910372185"><ele>846.0</ele><time>2026-04-11T15:48:35.995Z</time></trkpt><trkpt lat="45.50540641637654" lon="7.807385006472468"><ele>846.0</ele><time>2026-04-11T15:48:36.995Z</time></trkpt><trkpt lat="45.50547250871417" lon="7.807443509833553"><ele>846.0</ele><time>2026-04-11T15:48:37.995Z</time></trkpt><trkpt lat="45.50551437789329" lon="7.807538472376395"><ele>846.0</ele><time>2026-04-11T15:48:38.995Z</time></trkpt><trkpt lat="45.5055675955703" lon="7.807613988865902"><ele>846.0</ele><time>2026-04-11T15:48:39.995Z</time></trkpt><trkpt lat="45.5056644592356" lon="7.807749234491309"><ele>850.1999999999999</ele><time>2026-04-11T15:48:41.996Z</time></trkpt><trkpt lat="45.5057334722535" lon="7.807831705498494"><ele>854.4</ele><time>2026-04-11T15:48:42.996Z</time></trkpt><trkpt lat="45.50578185242753" lon="7.807902730519189"><ele>858.6</ele><time>2026-04-11T15:48:43.996Z</time></trkpt><trkpt lat="45.505900279917824" lon="7.808067102383925"><ele>862.8</ele><time>2026-04-11T15:48:45.996Z</time></trkpt><trkpt lat="45.50595407749231" lon="7.808167618849505"><ele>867.0</ele><time>2026-04-11T15:48:46.996Z</time></trkpt><trkpt lat="45.50600783353775" lon="7.808278522838433"><ele>867.0</ele><time>2026-04-11T15:48:47.996Z</time></trkpt><trkpt lat="45.506032826342924" lon="7.808368514042666"><ele>867.0</ele><time>2026-04-11T15:48:48.996Z</time></trkpt><trkpt lat="45.50608577095039" lon="7.808591296599518"><ele>867.0</ele><time>2026-04-11T15:48:50.996Z</time></trkpt><trkpt lat="45.50612145810314" lon="7.808737664994601"><ele>867.0</ele><time>2026-04-11T15:48:51.996Z</time></trkpt><trkpt lat="45.50615721070708" lon="7.8088321964807905"><ele>867.0</ele><time>2026-04-11T15:48:52.996Z</time></trkpt><trkpt lat="45.5062001186073" lon="7.808940775970823"><ele>870.3333333333334</ele><time>2026-04-11T15:48:53.996Z</time></trkpt><trkpt lat="45.50624560031575" lon="7.809014679210143"><ele>873.6666666666667</ele><time>2026-04-11T15:48:54.996Z</time></trkpt><trkpt lat="45.50629291330523" lon="7.809095111201181"><ele>877.0</ele><time>2026-04-11T15:48:55.996Z</time></trkpt><trkpt lat="45.506364801771134" lon="7.809174424189288"><ele>880.3333333333334</ele><time>2026-04-11T15:48:56.996Z</time></trkpt><trkpt lat="45.50643314731042" lon="7.809241131896366"><ele>883.6666666666667</ele><time>2026-04-11T15:48:57.996Z</time></trkpt><trkpt lat="45.50652079550857" lon="7.809365905442117"><ele>887.0</ele><time>2026-04-11T15:48:58.996Z</time></trkpt><trkpt lat="45.5065740419134" lon="7.809470545287128"><ele>887.0</ele><time>2026-04-11T15:48:59.996Z</time></trkpt><trkpt lat="45.50659248974303" lon="7.809615075838937"><ele>887.0</ele><time>2026-04-11T15:49:00.996Z</time></trkpt><trkpt lat="45.50660678131552" lon="7.809743628602058"><ele>887.0</ele><time>2026-04-11T15:49:01.996Z</time></trkpt><trkpt lat="45.50662639887969" lon="7.80987697168056"><ele>887.0</ele><time>2026-04-11T15:49:02.996Z</time></trkpt><trkpt lat="45.5066445292309" lon="7.810002534734681"><ele>887.0</ele><time>2026-04-11T15:49:04.996Z</time></trkpt><trkpt lat="45.506677244760226" lon="7.810114904950929"><ele>883.75</ele><time>2026-04-11T15:54:22.989Z</time></trkpt><trkpt lat="45.50672783834176" lon="7.810232812683732"><ele>880.5</ele><time>2026-04-11T15:54:24.989Z</time></trkpt><trkpt lat="45.50677330948713" lon="7.810382026782038"><ele>877.25</ele><time>2026-04-11T15:54:26.989Z</time></trkpt><trkpt lat="45.50681644461509" lon="7.810545202007278"><ele>874.0</ele><time>2026-04-11T15:54:28.989Z</time></trkpt><trkpt lat="45.50687409719207" lon="7.810709912783245"><ele>874.0</ele><time>2026-04-11T15:54:30.989Z</time></trkpt><trkpt lat="45.506923425020275" lon="7.810845641290071"><ele>874.0</ele><time>2026-04-11T15:54:32.989Z</time></trkpt><trkpt lat="45.506989323232325" lon="7.810881066672787"><ele>874.0</ele><time>2026-04-11T15:54:34.989Z</time></trkpt><trkpt lat="45.507072433725874" lon="7.810910059935568"><ele>874.0</ele><time>2026-04-11T15:54:36.989Z</time></trkpt><trkpt lat="45.507332716159176" lon="7.810851307608129"><ele>875.0</ele><time>2026-04-11T15:54:42.989Z</time></trkpt><trkpt lat="45.50742881564287" lon="7.810830849716004"><ele>876.0000000000001</ele><time>2026-04-11T15:54:44.989Z</time></trkpt><trkpt lat="45.507532407850476" lon="7.8108437971059415"><ele>877.0000000000001</ele><time>2026-04-11T15:54:46.989Z</time></trkpt><trkpt lat="45.50760753439984" lon="7.8109392946314244"><ele>878.0</ele><time>2026-04-11T15:54:49.989Z</time></trkpt><trkpt lat="45.50772689458824" lon="7.811017933733628"><ele>879.0</ele><time>2026-04-11T15:54:51.99Z</time></trkpt><trkpt lat="45.50783752566643" lon="7.8110864913102285"><ele>879.0</ele><time>2026-04-11T15:54:53.99Z</time></trkpt><trkpt lat="45.507893369793585" lon="7.811128768036571"><ele>879.0</ele><time>2026-04-11T15:54:54.99Z</time></trkpt><trkpt lat="45.50796481982892" lon="7.811195819815703"><ele>879.0</ele><time>2026-04-11T15:54:55.99Z</time></trkpt><trkpt lat="45.508025744544" lon="7.811242641049201"><ele>879.0</ele><time>2026-04-11T15:54:56.99Z</time></trkpt><trkpt lat="45.50810208449137" lon="7.811282018941509"><ele>879.0</ele><time>2026-04-11T15:54:57.99Z</time></trkpt><trkpt lat="45.508180018091416" lon="7.811325233507096"><ele>879.0</ele><time>2026-04-11T15:54:58.99Z</time></trkpt><trkpt lat="45.50825637953423" lon="7.81133189985233"><ele>882.2</ele><time>2026-04-11T15:54:59.99Z</time></trkpt><trkpt lat="45.50833208319587" lon="7.811366803116414"><ele>885.4000000000001</ele><time>2026-04-11T15:55:00.99Z</time></trkpt><trkpt lat="45.50840584891528" lon="7.811380170909483"><ele>888.6</ele><time>2026-04-11T15:55:01.99Z</time></trkpt><trkpt lat="45.5085219033533" lon="7.811436768604087"><ele>891.8</ele><time>2026-04-11T15:55:03.99Z</time></trkpt><trkpt lat="45.50859017023197" lon="7.811481780763643"><ele>895.0</ele><time>2026-04-11T15:55:04.99Z</time></trkpt><trkpt lat="45.508693361921374" lon="7.81153747600771"><ele>893.8</ele><time>2026-04-11T15:55:06.99Z</time></trkpt><trkpt lat="45.508781199387876" lon="7.811601031719661"><ele>892.6</ele><time>2026-04-11T15:55:08.99Z</time></trkpt><trkpt lat="45.508821482398005" lon="7.811673318665644"><ele>891.4000000000001</ele><time>2026-04-11T15:55:09.99Z</time></trkpt><trkpt lat="45.50890452403415" lon="7.811760695618899"><ele>890.2</ele><time>2026-04-11T15:55:11.99Z</time></trkpt><trkpt lat="45.50900323874065" lon="7.811819345396576"><ele>889.0</ele><time>2026-04-11T15:55:13.99Z</time></trkpt><trkpt lat="45.50906749027317" lon="7.811906526923661"><ele>889.0</ele><time>2026-04-11T15:55:15.99Z</time></trkpt><trkpt lat="45.509150819248326" lon="7.811978032327237"><ele>889.0000000000001</ele><time>2026-04-11T15:55:17.99Z</time></trkpt><trkpt lat="45.50921079590143" lon="7.812014838176574"><ele>889.0000000000001</ele><time>2026-04-11T15:55:18.99Z</time></trkpt><trkpt lat="45.509266521568634" lon="7.8120686378983"><ele>889.0</ele><time>2026-04-11T15:55:19.99Z</time></trkpt><trkpt lat="45.509369257279154" lon="7.812180170833913"><ele>889.0</ele><time>2026-04-11T15:55:21.99Z</time></trkpt><trkpt lat="45.50946828828846" lon="7.812286547172684"><ele>894.3333333333333</ele><time>2026-04-11T15:55:23.99Z</time></trkpt><trkpt lat="45.5095828601942" lon="7.812370216425889"><ele>899.6666666666666</ele><time>2026-04-11T15:55:25.988Z</time></trkpt><trkpt lat="45.50964796662215" lon="7.812412791091263"><ele>905.0</ele><time>2026-04-11T15:55:26.988Z</time></trkpt><trkpt lat="45.50971639388078" lon="7.812444361504998"><ele>910.3333333333333</ele><time>2026-04-11T15:55:27.988Z</time></trkpt><trkpt lat="45.509796259749436" lon="7.812486212389828"><ele>915.6666666666666</ele><time>2026-04-11T15:55:28.988Z</time></trkpt><trkpt lat="45.50988295542339" lon="7.812528333797915"><ele>921.0</ele><time>2026-04-11T15:55:29.988Z</time></trkpt><trkpt lat="45.50995990055371" lon="7.812538831383924"><ele>921.0</ele><time>2026-04-11T15:55:30.988Z</time></trkpt><trkpt lat="45.51002949707625" lon="7.81255890926856"><ele>920.9999999999999</ele><time>2026-04-11T15:55:31.988Z</time></trkpt><trkpt lat="45.5100950548489" lon="7.812613312042535"><ele>920.9999999999999</ele><time>2026-04-11T15:55:32.988Z</time></trkpt><trkpt lat="45.510207542759794" lon="7.812686219430901"><ele>921.0</ele><time>2026-04-11T15:55:34.987Z</time></trkpt><trkpt lat="45.510280828212" lon="7.812696470151671"><ele>921.0</ele><time>2026-04-11T15:55:35.987Z</time></trkpt><trkpt lat="45.5103957790517" lon="7.812752011823607"><ele>921.0</ele><time>2026-04-11T15:55:37.988Z</time></trkpt><trkpt lat="45.510481859084855" lon="7.812831911206342"><ele>921.0</ele><time>2026-04-11T15:55:39.988Z</time></trkpt><trkpt lat="45.51057414735088" lon="7.812913730302496"><ele>921.0</ele><time>2026-04-11T15:55:41.988Z</time></trkpt><trkpt lat="45.51063284018223" lon="7.81295535180981"><ele>921.0</ele><time>2026-04-11T15:55:43.988Z</time></trkpt><trkpt lat="45.51068501126901" lon="7.813026849925255"><ele>921.0</ele><time>2026-04-11T15:55:45.988Z</time></trkpt><trkpt lat="45.510723327357816" lon="7.813155291363661"><ele>921.0</ele><time>2026-04-11T15:55:47.988Z</time></trkpt><trkpt lat="45.51078903886912" lon="7.813286598845455"><ele>921.0</ele><time>2026-04-11T15:55:49.988Z</time></trkpt><trkpt lat="45.51085931006954" lon="7.813400482292814"><ele>920.9999999999999</ele><time>2026-04-11T15:55:51.988Z</time></trkpt><trkpt lat="45.51094022983384" lon="7.813506340859194"><ele>920.9999999999999</ele><time>2026-04-11T15:55:53.988Z</time></trkpt><trkpt lat="45.511002475580014" lon="7.813584808486042"><ele>921.0</ele><time>2026-04-11T15:55:55.988Z</time></trkpt><trkpt lat="45.511039645665605" lon="7.813667975895964"><ele>921.0</ele><time>2026-04-11T15:55:57.988Z</time></trkpt><trkpt lat="45.51110550053942" lon="7.813771882353914"><ele>919.3333333333334</ele><time>2026-04-11T15:55:59.988Z</time></trkpt><trkpt lat="45.51119424957573" lon="7.813800235990067"><ele>917.6666666666667</ele><time>2026-04-11T15:56:01.988Z</time></trkpt><trkpt lat="45.511262091025245" lon="7.813782500791147"><ele>916.0</ele><time>2026-04-11T15:56:03.988Z</time></trkpt><trkpt lat="45.5113213992262" lon="7.813817830368757"><ele>914.3333333333334</ele><time>2026-04-11T15:56:06.988Z</time></trkpt><trkpt lat="45.51133369143214" lon="7.813935352709452"><ele>912.6666666666667</ele><time>2026-04-11T15:56:09.988Z</time></trkpt><trkpt lat="45.51129114579541" lon="7.814055250955015"><ele>911.0</ele><time>2026-04-11T15:56:11.988Z</time></trkpt><trkpt lat="45.511271504109835" lon="7.814150482514359"><ele>917.6666666666667</ele><time>2026-04-11T15:56:13.988Z</time></trkpt><trkpt lat="45.511276219756034" lon="7.814266973647596"><ele>924.3333333333334</ele><time>2026-04-11T15:56:15.989Z</time></trkpt><trkpt lat="45.51127910504937" lon="7.814375748982919"><ele>931.0</ele><time>2026-04-11T15:56:17.989Z</time></trkpt><trkpt lat="45.51128985510471" lon="7.8144958336450125"><ele>937.6666666666667</ele><time>2026-04-11T15:56:19.989Z</time></trkpt><trkpt lat="45.51131449075402" lon="7.814677195904713"><ele>944.3333333333334</ele><time>2026-04-11T15:56:22.989Z</time></trkpt><trkpt lat="45.51132717160733" lon="7.81478472523298"><ele>951.0</ele><time>2026-04-11T15:56:24.989Z</time></trkpt><trkpt lat="45.51138382620848" lon="7.8148937419345605"><ele>951.5714285714286</ele><time>2026-04-11T15:56:27.989Z</time></trkpt><trkpt lat="45.51144865429524" lon="7.8150064129076275"><ele>952.1428571428571</ele><time>2026-04-11T15:56:29.989Z</time></trkpt><trkpt lat="45.51150731789872" lon="7.815066298783795"><ele>952.7142857142857</ele><time>2026-04-11T15:56:31.989Z</time></trkpt><trkpt lat="45.51152949446648" lon="7.814981821355946"><ele>953.2857142857142</ele><time>2026-04-11T15:56:34.989Z</time></trkpt><trkpt lat="45.51156160922077" lon="7.814882754442794"><ele>953.8571428571429</ele><time>2026-04-11T15:56:36.989Z</time></trkpt><trkpt lat="45.51159924278893" lon="7.814807897729118"><ele>954.4285714285713</ele><time>2026-04-11T15:56:38.989Z</time></trkpt><trkpt lat="45.51162518420844" lon="7.814724623425921"><ele>954.9999999999999</ele><time>2026-04-11T15:56:40.989Z</time></trkpt><trkpt lat="45.511675368989636" lon="7.814795175670964"><ele>954.9999999999999</ele><time>2026-04-11T15:56:43.989Z</time></trkpt><trkpt lat="45.511680016810736" lon="7.814915767504976"><ele>955.0</ele><time>2026-04-11T15:56:46.989Z</time></trkpt><trkpt lat="45.51173017918725" lon="7.814975151960437"><ele>955.0</ele><time>2026-04-11T15:56:48.989Z</time></trkpt><trkpt lat="45.51175660811106" lon="7.815062617252622"><ele>955.0</ele><time>2026-04-11T15:56:50.989Z</time></trkpt><trkpt lat="45.51180764379193" lon="7.815207504929601"><ele>954.9999999999999</ele><time>2026-04-11T15:56:52.989Z</time></trkpt><trkpt lat="45.511842355244454" lon="7.815085119620916"><ele>955.0</ele><time>2026-04-11T15:56:58.99Z</time></trkpt><trkpt lat="45.511869116991654" lon="7.814997594997399"><ele>954.9999999999999</ele><time>2026-04-11T15:57:00.99Z</time></trkpt><trkpt lat="45.511912193222386" lon="7.814857633176971"><ele>955.0</ele><time>2026-04-11T15:57:02.99Z</time></trkpt><trkpt lat="45.51196961212277" lon="7.814765709763033"><ele>955.0</ele><time>2026-04-11T15:57:04.99Z</time></trkpt><trkpt lat="45.512017640973326" lon="7.81466649232626"><ele>955.0</ele><time>2026-04-11T15:57:06.99Z</time></trkpt><trkpt lat="45.512020538254674" lon="7.814768580866369"><ele>954.9999999999999</ele><time>2026-04-11T15:57:21.99Z</time></trkpt><trkpt lat="45.512080060809865" lon="7.814861420604248"><ele>955.0</ele><time>2026-04-11T15:57:23.99Z</time></trkpt><trkpt lat="45.51215130709246" lon="7.814977781880363"><ele>957.4999999999999</ele><time>2026-04-11T15:57:25.99Z</time></trkpt><trkpt lat="45.512184580393935" lon="7.814876438239053"><ele>960.0</ele><time>2026-04-11T15:57:30.988Z</time></trkpt><trkpt lat="45.51220728936787" lon="7.814755162362841"><ele>962.5</ele><time>2026-04-11T15:57:32.987Z</time></trkpt><trkpt lat="45.512217440701896" lon="7.814654407142207"><ele>965.0</ele><time>2026-04-11T15:57:34.987Z</time></trkpt><trkpt lat="45.512247668014815" lon="7.814524945213664"><ele>967.4999999999999</ele><time>2026-04-11T15:57:37.988Z</time></trkpt><trkpt lat="45.51229520859733" lon="7.814396359194736"><ele>970.0</ele><time>2026-04-11T15:57:39.987Z</time></trkpt><trkpt lat="45.51230749854136" lon="7.814302648457072"><ele>972.6666666666666</ele><time>2026-04-11T15:57:41.988Z</time></trkpt><trkpt lat="45.51236883011077" lon="7.814206102534958"><ele>975.3333333333333</ele><time>2026-04-11T15:57:44.987Z</time></trkpt><trkpt lat="45.512426740276325" lon="7.814119049972528"><ele>978.0</ele><time>2026-04-11T15:57:47.987Z</time></trkpt><trkpt lat="45.51250863092479" lon="7.814066392284859"><ele>980.6666666666667</ele><time>2026-04-11T15:57:49.987Z</time></trkpt><trkpt lat="45.51256748383985" lon="7.8139912687976905"><ele>983.3333333333334</ele><time>2026-04-11T15:57:51.987Z</time></trkpt><trkpt lat="45.51262546840453" lon="7.813867098439709"><ele>986.0</ele><time>2026-04-11T15:57:53.987Z</time></trkpt><trkpt lat="45.51268654152725" lon="7.813778237077428"><ele>986.0</ele><time>2026-04-11T15:57:55.987Z</time></trkpt><trkpt lat="45.512739746599586" lon="7.813710543268641"><ele>985.9999999999999</ele><time>2026-04-11T15:57:56.987Z</time></trkpt><trkpt lat="45.51283798654635" lon="7.813587386934965"><ele>985.9999999999999</ele><time>2026-04-11T15:57:58.987Z</time></trkpt><trkpt lat="45.51291709897253" lon="7.813516748249407"><ele>986.0</ele><time>2026-04-11T15:58:00.987Z</time></trkpt><trkpt lat="45.51303670217139" lon="7.813468485944323"><ele>986.0</ele><time>2026-04-11T15:58:02.987Z</time></trkpt><trkpt lat="45.51311043747575" lon="7.813435866739933"><ele>992.3333333333334</ele><time>2026-04-11T15:58:03.987Z</time></trkpt><trkpt lat="45.51317193823836" lon="7.813393859427118"><ele>998.6666666666667</ele><time>2026-04-11T15:58:04.987Z</time></trkpt><trkpt lat="45.51323631556747" lon="7.813347880042652"><ele>1005.0</ele><time>2026-04-11T15:58:05.988Z</time></trkpt><trkpt lat="45.513301816243334" lon="7.813325647774009"><ele>1011.3333333333333</ele><time>2026-04-11T15:58:06.988Z</time></trkpt><trkpt lat="45.51339056210079" lon="7.813316240131523"><ele>1017.6666666666666</ele><time>2026-04-11T15:58:07.988Z</time></trkpt><trkpt lat="45.51345080811957" lon="7.8132850923711485"><ele>1024.0</ele><time>2026-04-11T15:58:08.988Z</time></trkpt><trkpt lat="45.513500038423025" lon="7.813167707230801"><ele>1024.0</ele><time>2026-04-11T15:58:10.988Z</time></trkpt><trkpt lat="45.513426259980896" lon="7.813070912920172"><ele>1024.0</ele><time>2026-04-11T15:58:12.988Z</time></trkpt><trkpt lat="45.51333182534053" lon="7.8129870394769005"><ele>1024.0</ele><time>2026-04-11T15:58:14.988Z</time></trkpt><trkpt lat="45.51328610524788" lon="7.812912576176593"><ele>1024.0</ele><time>2026-04-11T15:58:15.988Z</time></trkpt><trkpt lat="45.51325356187806" lon="7.812831800305407"><ele>1024.0</ele><time>2026-04-11T15:58:16.988Z</time></trkpt><trkpt lat="45.51318596404495" lon="7.812659425657182"><ele>1023.6666666666666</ele><time>2026-04-11T15:58:18.988Z</time></trkpt><trkpt lat="45.51313060282793" lon="7.8125452356713545"><ele>1023.3333333333333</ele><time>2026-04-11T15:58:19.988Z</time></trkpt><trkpt lat="45.513072069034294" lon="7.8124466549136296"><ele>1023.0</ele><time>2026-04-11T15:58:20.988Z</time></trkpt><trkpt lat="45.51301782094088" lon="7.8123658418321495"><ele>1022.6666666666667</ele><time>2026-04-11T15:58:21.988Z</time></trkpt><trkpt lat="45.51296556304631" lon="7.812295331032458"><ele>1022.3333333333334</ele><time>2026-04-11T15:58:22.988Z</time></trkpt><trkpt lat="45.51291867375827" lon="7.812195179641618"><ele>1022.0</ele><time>2026-04-11T15:58:23.988Z</time></trkpt><trkpt lat="45.51288616656718" lon="7.812087235518332"><ele>1029.25</ele><time>2026-04-11T15:58:24.988Z</time></trkpt><trkpt lat="45.51307986529103" lon="7.812074233235967"><ele>1036.5</ele><time>2026-04-11T15:58:32.988Z</time></trkpt><trkpt lat="45.51314981677168" lon="7.812160444064393"><ele>1043.75</ele><time>2026-04-11T15:58:33.988Z</time></trkpt><trkpt lat="45.513212457350924" lon="7.812216076854299"><ele>1051.0</ele><time>2026-04-11T15:58:34.988Z</time></trkpt><trkpt lat="45.513320662806166" lon="7.812241544569401"><ele>1051.0</ele><time>2026-04-11T15:58:36.988Z</time></trkpt><trkpt lat="45.5133663842168" lon="7.812110626163231"><ele>1051.0</ele><time>2026-04-11T15:58:38.988Z</time></trkpt><trkpt lat="45.513435519770134" lon="7.812129040038351"><ele>1051.0</ele><time>2026-04-11T15:58:40.988Z</time></trkpt><trkpt lat="45.513510279399085" lon="7.81219202789476"><ele>1051.0</ele><time>2026-04-11T15:58:42.988Z</time></trkpt><trkpt lat="45.513599070872985" lon="7.812255224370231"><ele>1051.0</ele><time>2026-04-11T15:58:44.988Z</time></trkpt><trkpt lat="45.513698757448246" lon="7.812132361652137"><ele>1056.5</ele><time>2026-04-11T15:58:46.988Z</time></trkpt><trkpt lat="45.513741309192085" lon="7.812048874647063"><ele>1062.0</ele><time>2026-04-11T15:58:48.989Z</time></trkpt><trkpt lat="45.51383475651793" lon="7.812075067059048"><ele>1067.5</ele><time>2026-04-11T15:58:50.989Z</time></trkpt><trkpt lat="45.513942212107985" lon="7.812095483940992"><ele>1073.0</ele><time>2026-04-11T15:58:52.989Z</time></trkpt><trkpt lat="45.51400281396786" lon="7.812120829054303"><ele>1078.5</ele><time>2026-04-11T15:58:53.989Z</time></trkpt><trkpt lat="45.51408621848428" lon="7.812165925373397"><ele>1084.0</ele><time>2026-04-11T15:58:55.989Z</time></trkpt><trkpt lat="45.51420186201004" lon="7.812167654603901"><ele>1084.0</ele><time>2026-04-11T15:58:58.989Z</time></trkpt><trkpt lat="45.51426705503681" lon="7.812213395583748"><ele>1084.0</ele><time>2026-04-11T15:58:59.989Z</time></trkpt><trkpt lat="45.514331256312275" lon="7.812292650488804"><ele>1084.0</ele><time>2026-04-11T15:59:01.989Z</time></trkpt><trkpt lat="45.51441622217888" lon="7.81239207923854"><ele>1084.0</ele><time>2026-04-11T15:59:03.989Z</time></trkpt><trkpt lat="45.514441340695036" lon="7.81249369642008"><ele>1084.0</ele><time>2026-04-11T15:59:05.989Z</time></trkpt><trkpt lat="45.51446423283734" lon="7.812602385526847"><ele>1084.0</ele><time>2026-04-11T15:59:07.989Z</time></trkpt><trkpt lat="45.51454915757628" lon="7.812578672127643"><ele>1090.6666666666665</ele><time>2026-04-11T15:59:10.989Z</time></trkpt><trkpt lat="45.514606209202576" lon="7.812492823770702"><ele>1097.3333333333333</ele><time>2026-04-11T15:59:12.989Z</time></trkpt><trkpt lat="45.51468193825599" lon="7.812393463612994"><ele>1104.0</ele><time>2026-04-11T15:59:14.989Z</time></trkpt><trkpt lat="45.51472501098542" lon="7.812300644048534"><ele>1110.6666666666667</ele><time>2026-04-11T15:59:16.989Z</time></trkpt><trkpt lat="45.51474336009747" lon="7.8121966558213956"><ele>1117.3333333333335</ele><time>2026-04-11T15:59:19.989Z</time></trkpt><trkpt lat="45.514743453866586" lon="7.812092950663344"><ele>1124.0</ele><time>2026-04-11T15:59:21.989Z</time></trkpt><trkpt lat="45.51476797670927" lon="7.811966242602251"><ele>1124.0000000000002</ele><time>2026-04-11T15:59:23.989Z</time></trkpt><trkpt lat="45.51477576526091" lon="7.81186960716795"><ele>1124.0</ele><time>2026-04-11T15:59:25.989Z</time></trkpt><trkpt lat="45.51474924733482" lon="7.811746210828648"><ele>1124.0</ele><time>2026-04-11T15:59:27.989Z</time></trkpt><trkpt lat="45.51473649791223" lon="7.811649609929975"><ele>1124.0</ele><time>2026-04-11T15:59:29.989Z</time></trkpt><trkpt lat="45.514678202430844" lon="7.811580515976819"><ele>1124.0</ele><time>2026-04-11T15:59:31.99Z</time></trkpt><trkpt lat="45.514620559367046" lon="7.811542223323656"><ele>1124.0000000000002</ele><time>2026-04-11T15:59:32.99Z</time></trkpt><trkpt lat="45.51456422776585" lon="7.811485728533644"><ele>1124.0</ele><time>2026-04-11T15:59:34.99Z</time></trkpt><trkpt lat="45.51463926600575" lon="7.8114279727475155"><ele>1125.1428571428573</ele><time>2026-04-11T15:59:38.986Z</time></trkpt><trkpt lat="45.514692683488974" lon="7.811376978612299"><ele>1126.2857142857142</ele><time>2026-04-11T15:59:44.987Z</time></trkpt><trkpt lat="45.51475106898156" lon="7.81134267097095"><ele>1127.4285714285716</ele><time>2026-04-11T15:59:46.986Z</time></trkpt><trkpt lat="45.51480850450615" lon="7.811304902301188"><ele>1128.5714285714287</ele><time>2026-04-11T15:59:50.987Z</time></trkpt><trkpt lat="45.51476252765136" lon="7.811227128636588"><ele>1129.7142857142858</ele><time>2026-04-11T16:00:14.988Z</time></trkpt><trkpt lat="45.514708893027525" lon="7.811154977589011"><ele>1130.857142857143</ele><time>2026-04-11T16:00:17.988Z</time></trkpt><trkpt lat="45.51465080497435" lon="7.811089933277244"><ele>1132.0</ele><time>2026-04-11T16:00:49.988Z</time></trkpt><trkpt lat="45.51459109105773" lon="7.811043143598562"><ele>1132.0</ele><time>2026-04-11T16:01:00.989Z</time></trkpt><trkpt lat="45.514546568286626" lon="7.810963929410377"><ele>1132.0</ele><time>2026-04-11T16:01:03.989Z</time></trkpt><trkpt lat="45.5146147181004" lon="7.81091535663398"><ele>1132.0</ele><time>2026-04-11T16:01:09.989Z</time></trkpt><trkpt lat="45.514679857442445" lon="7.81088790398556"><ele>1132.0</ele><time>2026-04-11T16:01:13.989Z</time></trkpt><trkpt lat="45.51476078872153" lon="7.810859857501952"><ele>1132.0</ele><time>2026-04-11T16:01:28.989Z</time></trkpt><trkpt lat="45.514834699926915" lon="7.810815066035899"><ele>1132.0</ele><time>2026-04-11T16:01:32.989Z</time></trkpt><trkpt lat="45.51485538117536" lon="7.810722822087243"><ele>1132.0</ele><time>2026-04-11T16:01:37.99Z</time></trkpt><trkpt lat="45.51479835807333" lon="7.810678528257218"><ele>1136.0</ele><time>2026-04-11T16:01:40.99Z</time></trkpt><trkpt lat="45.51484827409531" lon="7.81062153824766"><ele>1140.0</ele><time>2026-04-11T16:01:43.987Z</time></trkpt><trkpt lat="45.514941962369846" lon="7.81057196498456"><ele>1144.0</ele><time>2026-04-11T16:02:09.987Z</time></trkpt><trkpt lat="45.514893240434205" lon="7.81046517898119"><ele>1148.0</ele><time>2026-04-11T16:02:37.987Z</time></trkpt><trkpt lat="45.5149295521571" lon="7.81053876552233"><ele>1152.0</ele><time>2026-04-11T16:05:16.989Z</time></trkpt><trkpt lat="45.514864469907245" lon="7.810563749849136"><ele>1156.0</ele><time>2026-04-11T16:05:39.99Z</time></trkpt><trkpt lat="45.51479304203767" lon="7.810613595836393"><ele>1156.0</ele><time>2026-04-11T16:05:42.99Z</time></trkpt><trkpt lat="45.514831974831665" lon="7.810687561416741"><ele>1156.0</ele><time>2026-04-11T16:05:48.99Z</time></trkpt><trkpt lat="45.51489311031111" lon="7.810712967480386"><ele>1156.0</ele><time>2026-04-11T16:05:56.987Z</time></trkpt><trkpt lat="45.514844455406205" lon="7.810780069265697"><ele>1156.0</ele><time>2026-04-11T16:06:01.987Z</time></trkpt><trkpt lat="45.51477816555397" lon="7.8108166159970125"><ele>1156.0</ele><time>2026-04-11T16:06:05.987Z</time></trkpt><trkpt lat="45.51471341343551" lon="7.810842716814157"><ele>1156.0</ele><time>2026-04-11T16:06:10.987Z</time></trkpt><trkpt lat="45.51464649942637" lon="7.810847670465182"><ele>1156.0</ele><time>2026-04-11T16:06:13.987Z</time></trkpt><trkpt lat="45.51457753259019" lon="7.810860348123043"><ele>1152.5714285714287</ele><time>2026-04-11T16:06:18.988Z</time></trkpt><trkpt lat="45.514541982840655" lon="7.810947908412756"><ele>1149.142857142857</ele><time>2026-04-11T16:06:33.988Z</time></trkpt><trkpt lat="45.5145874230305" lon="7.811011774063605"><ele>1145.7142857142858</ele><time>2026-04-11T16:06:37.988Z</time></trkpt><trkpt lat="45.51464770462029" lon="7.81104392911037"><ele>1142.2857142857142</ele><time>2026-04-11T16:06:40.988Z</time></trkpt><trkpt lat="45.51470582376702" lon="7.811095544157335"><ele>1138.857142857143</ele><time>2026-04-11T16:06:43.988Z</time></trkpt><trkpt lat="45.51476714090511" lon="7.811121361022188"><ele>1135.4285714285716</ele><time>2026-04-11T16:06:46.988Z</time></trkpt><trkpt lat="45.51481442112921" lon="7.811187965701306"><ele>1132.0</ele><time>2026-04-11T16:06:52.988Z</time></trkpt><trkpt lat="45.514797906225915" lon="7.8112821482968435"><ele>1132.0</ele><time>2026-04-11T16:07:03.989Z</time></trkpt><trkpt lat="45.51473228078389" lon="7.811301932631903"><ele>1132.0</ele><time>2026-04-11T16:07:06.989Z</time></trkpt><trkpt lat="45.514663740139504" lon="7.811311857322229"><ele>1132.0</ele><time>2026-04-11T16:07:10.989Z</time></trkpt><trkpt lat="45.514612954643525" lon="7.811388084153003"><ele>1132.0</ele><time>2026-04-11T16:07:13.989Z</time></trkpt><trkpt lat="45.51468260567376" lon="7.811441084816585"><ele>1132.0</ele><time>2026-04-11T16:07:32.989Z</time></trkpt><trkpt lat="45.51474388227712" lon="7.811510672156608"><ele>1132.0</ele><time>2026-04-11T16:07:34.989Z</time></trkpt><trkpt lat="45.514777019354376" lon="7.811613788752805"><ele>1132.0</ele><time>2026-04-11T16:07:36.989Z</time></trkpt><trkpt lat="45.51479064409181" lon="7.811724463124061"><ele>1132.0</ele><time>2026-04-11T16:07:38.989Z</time></trkpt><trkpt lat="45.514826453919" lon="7.811815699071774"><ele>1132.0</ele><time>2026-04-11T16:07:40.989Z</time></trkpt><trkpt lat="45.514826514438596" lon="7.811946150951493"><ele>1132.0</ele><time>2026-04-11T16:07:43.99Z</time></trkpt><trkpt lat="45.51481538270533" lon="7.81205237985458"><ele>1132.0</ele><time>2026-04-11T16:07:45.99Z</time></trkpt><trkpt lat="45.51481372721896" lon="7.812153387208054"><ele>1132.0</ele><time>2026-04-11T16:07:47.99Z</time></trkpt><trkpt lat="45.51476277998967" lon="7.812268122622834"><ele>1132.0</ele><time>2026-04-11T16:07:49.99Z</time></trkpt><trkpt lat="45.514729097018304" lon="7.812350399721048"><ele>1130.6666666666665</ele><time>2026-04-11T16:07:51.99Z</time></trkpt><trkpt lat="45.51465427304315" lon="7.812458095062863"><ele>1129.3333333333333</ele><time>2026-04-11T16:07:53.99Z</time></trkpt><trkpt lat="45.51457642415911" lon="7.812599167986071"><ele>1128.0</ele><time>2026-04-11T16:07:55.99Z</time></trkpt><trkpt lat="45.51452035965219" lon="7.812534046461494"><ele>1126.6666666666667</ele><time>2026-04-11T16:07:58.99Z</time></trkpt><trkpt lat="45.51453520940509" lon="7.812439923098714"><ele>1125.3333333333335</ele><time>2026-04-11T16:08:00.987Z</time></trkpt><trkpt lat="45.51449923195904" lon="7.812346491604749"><ele>1124.0</ele><time>2026-04-11T16:08:02.987Z</time></trkpt><trkpt lat="45.51442080235053" lon="7.812270220116946"><ele>1116.0</ele><time>2026-04-11T16:08:04.987Z</time></trkpt><trkpt lat="45.51435459764198" lon="7.812207770646663"><ele>1108.0</ele><time>2026-04-11T16:08:06.987Z</time></trkpt><trkpt lat="45.514238435628094" lon="7.812193990404232"><ele>1100.0</ele><time>2026-04-11T16:08:08.987Z</time></trkpt><trkpt lat="45.514166750527096" lon="7.812128984685066"><ele>1092.0</ele><time>2026-04-11T16:08:10.988Z</time></trkpt><trkpt lat="45.514064423338155" lon="7.812103415777706"><ele>1084.0</ele><time>2026-04-11T16:08:12.987Z</time></trkpt><trkpt lat="45.51395376229589" lon="7.812104928876844"><ele>1084.0</ele><time>2026-04-11T16:08:14.987Z</time></trkpt><trkpt lat="45.513860634068294" lon="7.812121741334497"><ele>1084.0</ele><time>2026-04-11T16:08:16.987Z</time></trkpt><trkpt lat="45.51380731121971" lon="7.812213190650367"><ele>1084.0</ele><time>2026-04-11T16:08:18.987Z</time></trkpt><trkpt lat="45.51376955739062" lon="7.812290841931688"><ele>1084.0</ele><time>2026-04-11T16:08:20.987Z</time></trkpt><trkpt lat="45.51365535901329" lon="7.812265811724988"><ele>1084.0</ele><time>2026-04-11T16:08:22.987Z</time></trkpt><trkpt lat="45.51356011448699" lon="7.812171494437995"><ele>1078.5</ele><time>2026-04-11T16:08:24.987Z</time></trkpt><trkpt lat="45.51350213744604" lon="7.812115938918283"><ele>1073.0</ele><time>2026-04-11T16:08:26.987Z</time></trkpt><trkpt lat="45.51346350189276" lon="7.812215755003842"><ele>1067.5</ele><time>2026-04-11T16:08:28.987Z</time></trkpt><trkpt lat="45.513394091445534" lon="7.812298873218834"><ele>1062.0</ele><time>2026-04-11T16:08:30.987Z</time></trkpt><trkpt lat="45.513324901202715" lon="7.812238707958329"><ele>1056.5</ele><time>2026-04-11T16:08:31.988Z</time></trkpt><trkpt lat="45.51326654713378" lon="7.812187699625373"><ele>1051.0</ele><time>2026-04-11T16:08:32.988Z</time></trkpt><trkpt lat="45.513196862841035" lon="7.812111800723513"><ele>1051.0</ele><time>2026-04-11T16:08:34.988Z</time></trkpt><trkpt lat="45.513123942614214" lon="7.812126087302572"><ele>1051.0</ele><time>2026-04-11T16:08:36.988Z</time></trkpt><trkpt lat="45.51304364893963" lon="7.812104469743011"><ele>1051.0</ele><time>2026-04-11T16:08:38.988Z</time></trkpt><trkpt lat="45.512996071321" lon="7.812029033988607"><ele>1051.0</ele><time>2026-04-11T16:08:40.988Z</time></trkpt><trkpt lat="45.51292603930497" lon="7.812064803491393"><ele>1051.0</ele><time>2026-04-11T16:08:42.988Z</time></trkpt><trkpt lat="45.512951003067236" lon="7.812156335200708"><ele>1051.0</ele><time>2026-04-11T16:08:44.988Z</time></trkpt><trkpt lat="45.513009782417775" lon="7.812235883910618"><ele>1051.0</ele><time>2026-04-11T16:08:46.988Z</time></trkpt><trkpt lat="45.51306713385138" lon="7.812323527132454"><ele>1051.0</ele><time>2026-04-11T16:08:48.988Z</time></trkpt><trkpt lat="45.513113026018246" lon="7.812412012850997"><ele>1051.0</ele><time>2026-04-11T16:08:50.988Z</time></trkpt><trkpt lat="45.51315608345477" lon="7.812495264283155"><ele>1051.0</ele><time>2026-04-11T16:08:52.988Z</time></trkpt><trkpt lat="45.513191462298515" lon="7.812572547576719"><ele>1051.0</ele><time>2026-04-11T16:08:54.988Z</time></trkpt><trkpt lat="45.513231245727646" lon="7.812679284374001"><ele>1051.0</ele><time>2026-04-11T16:08:57.988Z</time></trkpt><trkpt lat="45.51327907986343" lon="7.812795493243556"><ele>1045.6</ele><time>2026-04-11T16:09:00.988Z</time></trkpt><trkpt lat="45.513374520546236" lon="7.812886297053104"><ele>1040.1999999999998</ele><time>2026-04-11T16:09:02.988Z</time></trkpt><trkpt lat="45.51344971440667" lon="7.812953528331697"><ele>1034.8000000000002</ele><time>2026-04-11T16:09:04.988Z</time></trkpt><trkpt lat="45.51353742628384" lon="7.8129913476490955"><ele>1029.4</ele><time>2026-04-11T16:09:06.988Z</time></trkpt><trkpt lat="45.51353500358413" lon="7.813087194782273"><ele>1024.0</ele><time>2026-04-11T16:09:09.988Z</time></trkpt><trkpt lat="45.51344817058626" lon="7.813116905265804"><ele>1023.9999999999999</ele><time>2026-04-11T16:09:11.988Z</time></trkpt><trkpt lat="45.51335259829259" lon="7.813161308437691"><ele>1024.0</ele><time>2026-04-11T16:09:13.989Z</time></trkpt><trkpt lat="45.513270635862014" lon="7.813187770739499"><ele>1024.0</ele><time>2026-04-11T16:09:15.989Z</time></trkpt><trkpt lat="45.513194128427685" lon="7.813236855656613"><ele>1024.0</ele><time>2026-04-11T16:09:17.989Z</time></trkpt><trkpt lat="45.51312939955937" lon="7.813301002290569"><ele>1023.9999999999999</ele><time>2026-04-11T16:09:20.989Z</time></trkpt><trkpt lat="45.513035557525704" lon="7.813338362479127"><ele>1024.0</ele><time>2026-04-11T16:09:22.989Z</time></trkpt><trkpt lat="45.512957784523" lon="7.813393853917841"><ele>1023.9999999999999</ele><time>2026-04-11T16:09:24.989Z</time></trkpt><trkpt lat="45.51290911298626" lon="7.813474778605738"><ele>1024.0</ele><time>2026-04-11T16:09:26.989Z</time></trkpt><trkpt lat="45.51285731233217" lon="7.813560999755138"><ele>1024.0</ele><time>2026-04-11T16:09:27.989Z</time></trkpt><trkpt lat="45.512775128513546" lon="7.813658763305756"><ele>1024.0</ele><time>2026-04-11T16:09:29.989Z</time></trkpt><trkpt lat="45.51272802156184" lon="7.8137631691546"><ele>1023.9999999999999</ele><time>2026-04-11T16:09:31.989Z</time></trkpt><trkpt lat="45.512660354589144" lon="7.81385814121195"><ele>1024.0</ele><time>2026-04-11T16:09:33.989Z</time></trkpt><trkpt lat="45.51259598810931" lon="7.813914047007293"><ele>1017.6666666666666</ele><time>2026-04-11T16:09:34.989Z</time></trkpt><trkpt lat="45.512518933889" lon="7.813951427070826"><ele>1011.3333333333333</ele><time>2026-04-11T16:09:35.989Z</time></trkpt><trkpt lat="45.5124560015637" lon="7.8140246352641975"><ele>1005.0</ele><time>2026-04-11T16:09:36.989Z</time></trkpt><trkpt lat="45.51241071480152" lon="7.814122711986872"><ele>998.6666666666667</ele><time>2026-04-11T16:09:37.989Z</time></trkpt><trkpt lat="45.51237522592361" lon="7.814241653118335"><ele>992.3333333333334</ele><time>2026-04-11T16:09:38.989Z</time></trkpt><trkpt lat="45.512346130063555" lon="7.814358508702286"><ele>986.0</ele><time>2026-04-11T16:09:39.989Z</time></trkpt><trkpt lat="45.5123265513537" lon="7.814458780487117"><ele>983.7142857142857</ele><time>2026-04-11T16:09:40.989Z</time></trkpt><trkpt lat="45.512311701335435" lon="7.814547013661968"><ele>981.4285714285716</ele><time>2026-04-11T16:09:41.989Z</time></trkpt><trkpt lat="45.51229276970285" lon="7.814641897472938"><ele>979.1428571428572</ele><time>2026-04-11T16:09:42.989Z</time></trkpt><trkpt lat="45.51228479867647" lon="7.814745734101345"><ele>976.8571428571429</ele><time>2026-04-11T16:09:43.989Z</time></trkpt><trkpt lat="45.51227179565009" lon="7.814845802722748"><ele>974.5714285714287</ele><time>2026-04-11T16:09:44.989Z</time></trkpt><trkpt lat="45.51223447780402" lon="7.814940686271057"><ele>972.2857142857144</ele><time>2026-04-11T16:09:46.989Z</time></trkpt><trkpt lat="45.51215348359004" lon="7.814917132731764"><ele>970.0000000000001</ele><time>2026-04-11T16:09:48.988Z</time></trkpt><trkpt lat="45.51210794034008" lon="7.814792900383739"><ele>969.9999999999999</ele><time>2026-04-11T16:09:50.988Z</time></trkpt><trkpt lat="45.51208903550826" lon="7.814693984117618"><ele>970.0</ele><time>2026-04-11T16:09:52.987Z</time></trkpt><trkpt lat="45.512057344750964" lon="7.814615926175117"><ele>970.0</ele><time>2026-04-11T16:09:54.987Z</time></trkpt><trkpt lat="45.51199086335446" lon="7.814711488479638"><ele>970.0</ele><time>2026-04-11T16:09:56.987Z</time></trkpt><trkpt lat="45.51193535490696" lon="7.814835294926819"><ele>969.9999999999999</ele><time>2026-04-11T16:09:58.986Z</time></trkpt><trkpt lat="45.51190878241606" lon="7.814927156685246"><ele>970.0</ele><time>2026-04-11T16:09:59.986Z</time></trkpt><trkpt lat="45.51188296722514" lon="7.8150524136951445"><ele>967.4999999999999</ele><time>2026-04-11T16:10:00.986Z</time></trkpt><trkpt lat="45.51185519453946" lon="7.8151406351612644"><ele>965.0</ele><time>2026-04-11T16:10:01.986Z</time></trkpt><trkpt lat="45.51187948343468" lon="7.815256661485269"><ele>962.5</ele><time>2026-04-11T16:10:03.986Z</time></trkpt><trkpt lat="45.51181033898675" lon="7.815252329348991"><ele>960.0</ele><time>2026-04-11T16:10:07.983Z</time></trkpt><trkpt lat="45.51178825616378" lon="7.815157975165236"><ele>957.4999999999999</ele><time>2026-04-11T16:10:09.983Z</time></trkpt><trkpt lat="45.51174979694974" lon="7.815070305312344"><ele>955.0</ele><time>2026-04-11T16:10:11.982Z</time></trkpt><trkpt lat="45.51172740687304" lon="7.814933035991722"><ele>954.9999999999999</ele><time>2026-04-11T16:10:13.982Z</time></trkpt><trkpt lat="45.511729604032595" lon="7.814818695520218"><ele>955.0</ele><time>2026-04-11T16:10:15.983Z</time></trkpt><trkpt lat="45.51166330765522" lon="7.814822769264694"><ele>955.0</ele><time>2026-04-11T16:10:19.982Z</time></trkpt><trkpt lat="45.511624739530625" lon="7.81496396831412"><ele>955.0</ele><time>2026-04-11T16:10:21.982Z</time></trkpt><trkpt lat="45.51159434274733" lon="7.815044531385007"><ele>954.9999999999999</ele><time>2026-04-11T16:10:22.982Z</time></trkpt><trkpt lat="45.511572116946425" lon="7.815144513544668"><ele>955.0</ele><time>2026-04-11T16:10:24.982Z</time></trkpt><trkpt lat="45.511487628499545" lon="7.815148266147539"><ele>955.0</ele><time>2026-04-11T16:10:27.982Z</time></trkpt><trkpt lat="45.51143133801826" lon="7.814992944485661"><ele>955.0</ele><time>2026-04-11T16:10:30.982Z</time></trkpt><trkpt lat="45.51140543012773" lon="7.814845295967473"><ele>955.0</ele><time>2026-04-11T16:10:32.982Z</time></trkpt><trkpt lat="45.51139694139336" lon="7.814694928753547"><ele>955.0</ele><time>2026-04-11T16:10:34.982Z</time></trkpt><trkpt lat="45.51138724599239" lon="7.814544175006405"><ele>955.0</ele><time>2026-04-11T16:10:36.982Z</time></trkpt><trkpt lat="45.51139896066957" lon="7.814428925011812"><ele>954.9999999999999</ele><time>2026-04-11T16:10:37.982Z</time></trkpt><trkpt lat="45.511407925152575" lon="7.814329346557375"><ele>955.0</ele><time>2026-04-11T16:10:38.982Z</time></trkpt><trkpt lat="45.51143151185989" lon="7.814234935048985"><ele>955.0</ele><time>2026-04-11T16:10:39.982Z</time></trkpt><trkpt lat="45.511446959888765" lon="7.814128070342946"><ele>955.0</ele><time>2026-04-11T16:10:40.982Z</time></trkpt><trkpt lat="45.51144490317581" lon="7.814038039287217"><ele>954.9999999999999</ele><time>2026-04-11T16:10:41.982Z</time></trkpt><trkpt lat="45.511387031159536" lon="7.813904484990695"><ele>955.0</ele><time>2026-04-11T16:10:43.982Z</time></trkpt><trkpt lat="45.51127690318882" lon="7.813893218011221"><ele>949.3333333333333</ele><time>2026-04-11T16:10:45.982Z</time></trkpt><trkpt lat="45.51120465090724" lon="7.813884204248829"><ele>943.6666666666666</ele><time>2026-04-11T16:10:46.982Z</time></trkpt><trkpt lat="45.511092353618324" lon="7.813764824155822"><ele>938.0</ele><time>2026-04-11T16:10:48.982Z</time></trkpt><trkpt lat="45.51104757990401" lon="7.813674891133478"><ele>932.3333333333333</ele><time>2026-04-11T16:10:49.982Z</time></trkpt><trkpt lat="45.511000240288595" lon="7.813586799839405"><ele>926.6666666666666</ele><time>2026-04-11T16:10:50.982Z</time></trkpt><trkpt lat="45.51096063556074" lon="7.813508510537417"><ele>921.0</ele><time>2026-04-11T16:10:51.982Z</time></trkpt><trkpt lat="45.510903268755754" lon="7.813443443300535"><ele>921.0</ele><time>2026-04-11T16:10:52.982Z</time></trkpt><trkpt lat="45.510798509938944" lon="7.8132944164983975"><ele>920.9999999999999</ele><time>2026-04-11T16:10:54.982Z</time></trkpt><trkpt lat="45.51075476444739" lon="7.813205113843239"><ele>920.9999999999999</ele><time>2026-04-11T16:10:55.982Z</time></trkpt><trkpt lat="45.5107364903018" lon="7.8131179217934985"><ele>921.0</ele><time>2026-04-11T16:10:56.982Z</time></trkpt><trkpt lat="45.510704333573564" lon="7.813040153549892"><ele>921.0</ele><time>2026-04-11T16:10:57.982Z</time></trkpt><trkpt lat="45.51061373682723" lon="7.8129478927128195"><ele>921.0</ele><time>2026-04-11T16:10:59.982Z</time></trkpt><trkpt lat="45.510553533823895" lon="7.812876596538321"><ele>920.9999999999999</ele><time>2026-04-11T16:11:00.982Z</time></trkpt><trkpt lat="45.51047310239279" lon="7.812793907992601"><ele>920.9999999999999</ele><time>2026-04-11T16:11:01.982Z</time></trkpt><trkpt lat="45.510388831672195" lon="7.8127244076055335"><ele>921.0</ele><time>2026-04-11T16:11:02.982Z</time></trkpt><trkpt lat="45.51027540023768" lon="7.81270042038096"><ele>921.0</ele><time>2026-04-11T16:11:03.982Z</time></trkpt><trkpt lat="45.51017689900682" lon="7.812684008797529"><ele>921.0</ele><time>2026-04-11T16:11:04.982Z</time></trkpt><trkpt lat="45.510083774642496" lon="7.812638467256736"><ele>920.9999999999999</ele><time>2026-04-11T16:11:05.982Z</time></trkpt><trkpt lat="45.50998351369806" lon="7.812595486632502"><ele>920.9999999999999</ele><time>2026-04-11T16:11:06.982Z</time></trkpt><trkpt lat="45.509882765637805" lon="7.812546947175592"><ele>921.0</ele><time>2026-04-11T16:11:07.982Z</time></trkpt><trkpt lat="45.509787401064145" lon="7.812512426746308"><ele>921.0</ele><time>2026-04-11T16:11:08.982Z</time></trkpt><trkpt lat="45.50969940649892" lon="7.8124687287384305"><ele>921.0</ele><time>2026-04-11T16:11:09.982Z</time></trkpt><trkpt lat="45.509618713583194" lon="7.812398441800202"><ele>920.9999999999999</ele><time>2026-04-11T16:11:10.983Z</time></trkpt><trkpt lat="45.50955400706645" lon="7.812342779977435"><ele>920.9999999999999</ele><time>2026-04-11T16:11:11.983Z</time></trkpt><trkpt lat="45.5094729327512" lon="7.812289639027175"><ele>921.0</ele><time>2026-04-11T16:11:12.983Z</time></trkpt><trkpt lat="45.50938399648379" lon="7.81221467060084"><ele>921.0</ele><time>2026-04-11T16:11:13.983Z</time></trkpt><trkpt lat="45.50929539426504" lon="7.812137317438763"><ele>921.0</ele><time>2026-04-11T16:11:14.983Z</time></trkpt><trkpt lat="45.509228882900636" lon="7.812067065918858"><ele>921.0</ele><time>2026-04-11T16:11:15.983Z</time></trkpt><trkpt lat="45.50915898728171" lon="7.811996585258979"><ele>921.0</ele><time>2026-04-11T16:11:16.983Z</time></trkpt><trkpt lat="45.50907877281834" lon="7.811929238334564"><ele>921.0</ele><time>2026-04-11T16:11:17.983Z</time></trkpt><trkpt lat="45.5089951387472" lon="7.811853448934858"><ele>921.0</ele><time>2026-04-11T16:11:18.983Z</time></trkpt><trkpt lat="45.508927488558825" lon="7.811777328250286"><ele>921.0</ele><time>2026-04-11T16:11:19.983Z</time></trkpt><trkpt lat="45.50886818654106" lon="7.811718697406815"><ele>921.0</ele><time>2026-04-11T16:11:20.983Z</time></trkpt><trkpt lat="45.50877873830436" lon="7.811644113534263"><ele>921.0</ele><time>2026-04-11T16:11:21.983Z</time></trkpt><trkpt lat="45.50870861427223" lon="7.811555975956819"><ele>921.0</ele><time>2026-04-11T16:11:22.983Z</time></trkpt><trkpt lat="45.508636692210565" lon="7.811483855353636"><ele>921.0</ele><time>2026-04-11T16:11:23.983Z</time></trkpt><trkpt lat="45.508567788474856" lon="7.811433753313868"><ele>921.0</ele><time>2026-04-11T16:11:24.983Z</time></trkpt><trkpt lat="45.5084850894996" lon="7.81141226779349"><ele>921.0</ele><time>2026-04-11T16:11:25.983Z</time></trkpt><trkpt lat="45.508405945206825" lon="7.811404849810542"><ele>915.8</ele><time>2026-04-11T16:11:26.983Z</time></trkpt><trkpt lat="45.508312766269555" lon="7.811385890363039"><ele>910.5999999999999</ele><time>2026-04-11T16:11:34.983Z</time></trkpt><trkpt lat="45.508201023957646" lon="7.81133077725827"><ele>905.4</ele><time>2026-04-11T16:11:36.983Z</time></trkpt><trkpt lat="45.508119079607525" lon="7.811260026747204"><ele>900.2</ele><time>2026-04-11T16:11:37.983Z</time></trkpt><trkpt lat="45.50802263905287" lon="7.811157773535499"><ele>895.0</ele><time>2026-04-11T16:11:38.983Z</time></trkpt><trkpt lat="45.50793602812854" lon="7.811105100491057"><ele>897.4</ele><time>2026-04-11T16:11:39.983Z</time></trkpt><trkpt lat="45.50783493046465" lon="7.811028148524648"><ele>899.8</ele><time>2026-04-11T16:11:40.983Z</time></trkpt><trkpt lat="45.507730385632904" lon="7.810956608978807"><ele>902.2</ele><time>2026-04-11T16:11:41.983Z</time></trkpt><trkpt lat="45.507648288560596" lon="7.8108977751570565"><ele>904.6</ele><time>2026-04-11T16:11:42.983Z</time></trkpt><trkpt lat="45.50754749066323" lon="7.810853692559377"><ele>907.0</ele><time>2026-04-11T16:11:43.983Z</time></trkpt><trkpt lat="45.50744711781211" lon="7.810861804878028"><ele>906.9999999999999</ele><time>2026-04-11T16:11:44.983Z</time></trkpt><trkpt lat="45.507331843204355" lon="7.810883012496738"><ele>907.0</ele><time>2026-04-11T16:11:45.983Z</time></trkpt><trkpt lat="45.50725954539641" lon="7.810913595686267"><ele>907.0</ele><time>2026-04-11T16:11:46.983Z</time></trkpt><trkpt lat="45.507179193799985" lon="7.810919345312548"><ele>907.0</ele><time>2026-04-11T16:11:47.983Z</time></trkpt><trkpt lat="45.50709929600373" lon="7.810930306826165"><ele>906.9999999999999</ele><time>2026-04-11T16:11:48.983Z</time></trkpt><trkpt lat="45.50703445776552" lon="7.810905223182734"><ele>907.0</ele><time>2026-04-11T16:11:49.983Z</time></trkpt><trkpt lat="45.50696589725396" lon="7.8108615841616995"><ele>901.4999999999999</ele><time>2026-04-11T16:11:50.983Z</time></trkpt><trkpt lat="45.50689087767201" lon="7.810853995770407"><ele>896.0</ele><time>2026-04-11T16:11:51.983Z</time></trkpt><trkpt lat="45.50685803349023" lon="7.81072225908963"><ele>890.5</ele><time>2026-04-11T16:11:52.983Z</time></trkpt><trkpt lat="45.50682451685156" lon="7.810629990635644"><ele>885.0</ele><time>2026-04-11T16:11:53.983Z</time></trkpt><trkpt lat="45.50678898484775" lon="7.810523598465463"><ele>879.4999999999999</ele><time>2026-04-11T16:11:54.983Z</time></trkpt><trkpt lat="45.50678182860304" lon="7.810381116363967"><ele>874.0</ele><time>2026-04-11T16:11:55.983Z</time></trkpt><trkpt lat="45.50675762901316" lon="7.8102514090182895"><ele>876.1666666666666</ele><time>2026-04-11T16:11:56.984Z</time></trkpt><trkpt lat="45.5067214621585" lon="7.810133910103333"><ele>878.3333333333333</ele><time>2026-04-11T16:11:57.984Z</time></trkpt><trkpt lat="45.5066910896012" lon="7.810033134570472"><ele>880.5</ele><time>2026-04-11T16:11:58.984Z</time></trkpt><trkpt lat="45.50666543212912" lon="7.8099311348130085"><ele>882.6666666666667</ele><time>2026-04-11T16:11:59.984Z</time></trkpt><trkpt lat="45.50664796719907" lon="7.809829149032722"><ele>884.8333333333334</ele><time>2026-04-11T16:12:00.984Z</time></trkpt><trkpt lat="45.5066357145742" lon="7.809727932422054"><ele>887.0</ele><time>2026-04-11T16:12:01.984Z</time></trkpt><trkpt lat="45.50662052957595" lon="7.809630531794979"><ele>887.0000000000001</ele><time>2026-04-11T16:12:02.984Z</time></trkpt><trkpt lat="45.50660061543351" lon="7.809542520274326"><ele>887.0</ele><time>2026-04-11T16:12:03.984Z</time></trkpt><trkpt lat="45.506559117784406" lon="7.809473721608362"><ele>887.0</ele><time>2026-04-11T16:12:04.984Z</time></trkpt><trkpt lat="45.50650426459232" lon="7.809403045517108"><ele>887.0</ele><time>2026-04-11T16:12:05.984Z</time></trkpt><trkpt lat="45.5064364572041" lon="7.809336859875795"><ele>887.0000000000001</ele><time>2026-04-11T16:12:06.984Z</time></trkpt><trkpt lat="45.50637309957534" lon="7.809223660161767"><ele>887.0</ele><time>2026-04-11T16:12:07.984Z</time></trkpt><trkpt lat="45.50631792214184" lon="7.8091202911903475"><ele>889.8333333333334</ele><time>2026-04-11T16:12:08.984Z</time></trkpt><trkpt lat="45.5062823568949" lon="7.809010240595429"><ele>892.6666666666667</ele><time>2026-04-11T16:12:09.984Z</time></trkpt><trkpt lat="45.506242008959035" lon="7.808892964463197"><ele>895.5</ele><time>2026-04-11T16:12:10.984Z</time></trkpt><trkpt lat="45.50621274771013" lon="7.8087910822334505"><ele>898.3333333333333</ele><time>2026-04-11T16:12:11.984Z</time></trkpt><trkpt lat="45.50619208151475" lon="7.808703550816288"><ele>901.1666666666666</ele><time>2026-04-11T16:12:12.982Z</time></trkpt><trkpt lat="45.50618461113773" lon="7.808576898895228"><ele>904.0</ele><time>2026-04-11T16:12:13.981Z</time></trkpt><trkpt lat="45.50614240028761" lon="7.808455712428018"><ele>896.6</ele><time>2026-04-11T16:12:14.981Z</time></trkpt><trkpt lat="45.50610495582721" lon="7.808352191025612"><ele>889.2</ele><time>2026-04-11T16:12:15.981Z</time></trkpt><trkpt lat="45.50604414418622" lon="7.808227146054475"><ele>881.8000000000001</ele><time>2026-04-11T16:12:16.981Z</time></trkpt><trkpt lat="45.505979877260906" lon="7.808137137974354"><ele>874.4000000000001</ele><time>2026-04-11T16:12:17.981Z</time></trkpt><trkpt lat="45.50593638785827" lon="7.808054012552568"><ele>867.0</ele><time>2026-04-11T16:12:18.981Z</time></trkpt><trkpt lat="45.505855650037894" lon="7.8079167615978395"><ele>867.0</ele><time>2026-04-11T16:12:20.981Z</time></trkpt><trkpt lat="45.505756923408875" lon="7.807834928418248"><ele>867.0</ele><time>2026-04-11T16:12:21.981Z</time></trkpt><trkpt lat="45.50567198666356" lon="7.807747016036585"><ele>867.0</ele><time>2026-04-11T16:12:22.981Z</time></trkpt><trkpt lat="45.505614016923815" lon="7.8076447136042075"><ele>867.0</ele><time>2026-04-11T16:12:23.981Z</time></trkpt><trkpt lat="45.50557260327594" lon="7.807536871655687"><ele>867.0</ele><time>2026-04-11T16:12:24.981Z</time></trkpt><trkpt lat="45.50551357499038" lon="7.807450320996793"><ele>863.5</ele><time>2026-04-11T16:12:25.981Z</time></trkpt><trkpt lat="45.505457352974226" lon="7.807366925142209"><ele>860.0</ele><time>2026-04-11T16:12:26.981Z</time></trkpt><trkpt lat="45.50541045032387" lon="7.807287477833048"><ele>856.5</ele><time>2026-04-11T16:12:27.981Z</time></trkpt><trkpt lat="45.50535427250334" lon="7.807218863645561"><ele>853.0</ele><time>2026-04-11T16:12:28.981Z</time></trkpt><trkpt lat="45.50526345253914" lon="7.807175435847172"><ele>849.5</ele><time>2026-04-11T16:12:29.981Z</time></trkpt><trkpt lat="45.505186509018515" lon="7.807118582932458"><ele>846.0</ele><time>2026-04-11T16:12:30.981Z</time></trkpt><trkpt lat="45.505111449293004" lon="7.807094104881857"><ele>846.0</ele><time>2026-04-11T16:12:31.981Z</time></trkpt><trkpt lat="45.50502963095084" lon="7.807076339376384"><ele>846.0</ele><time>2026-04-11T16:12:32.982Z</time></trkpt><trkpt lat="45.50493417923377" lon="7.807057216619013"><ele>846.0</ele><time>2026-04-11T16:12:33.982Z</time></trkpt><trkpt lat="45.50486255050135" lon="7.80698667380746"><ele>846.0</ele><time>2026-04-11T16:12:34.982Z</time></trkpt><trkpt lat="45.504793658094115" lon="7.8068765874155615"><ele>846.0</ele><time>2026-04-11T16:12:35.982Z</time></trkpt><trkpt lat="45.50471253854331" lon="7.806835290723195"><ele>846.8333333333334</ele><time>2026-04-11T16:12:36.982Z</time></trkpt><trkpt lat="45.504641363067684" lon="7.806807759213434"><ele>847.6666666666667</ele><time>2026-04-11T16:12:37.982Z</time></trkpt><trkpt lat="45.50454254284755" lon="7.806799801619486"><ele>848.5</ele><time>2026-04-11T16:12:38.982Z</time></trkpt><trkpt lat="45.50445289643573" lon="7.806778258062434"><ele>849.3333333333334</ele><time>2026-04-11T16:12:39.982Z</time></trkpt><trkpt lat="45.50437163549696" lon="7.806719823964285"><ele>850.1666666666667</ele><time>2026-04-11T16:12:40.982Z</time></trkpt><trkpt lat="45.50430326906512" lon="7.806626011785521"><ele>851.0</ele><time>2026-04-11T16:12:41.982Z</time></trkpt><trkpt lat="45.50422333716265" lon="7.806549475489494"><ele>851.0</ele><time>2026-04-11T16:12:42.982Z</time></trkpt><trkpt lat="45.50414589906153" lon="7.806464199139144"><ele>851.0</ele><time>2026-04-11T16:12:43.982Z</time></trkpt><trkpt lat="45.50406941729624" lon="7.806372838726991"><ele>851.0</ele><time>2026-04-11T16:12:44.982Z</time></trkpt><trkpt lat="45.5039899771501" lon="7.806275393562202"><ele>851.0</ele><time>2026-04-11T16:12:45.982Z</time></trkpt><trkpt lat="45.5038934812319" lon="7.806165674691048"><ele>851.0</ele><time>2026-04-11T16:12:46.982Z</time></trkpt><trkpt lat="45.50378843665852" lon="7.806052589024983"><ele>849.0</ele><time>2026-04-11T16:12:47.982Z</time></trkpt><trkpt lat="45.50368172208138" lon="7.805958857194428"><ele>847.0</ele><time>2026-04-11T16:12:48.982Z</time></trkpt><trkpt lat="45.50357857414977" lon="7.805873805919774"><ele>845.0</ele><time>2026-04-11T16:12:49.982Z</time></trkpt><trkpt lat="45.50344992764056" lon="7.805824552756341"><ele>843.0</ele><time>2026-04-11T16:12:50.982Z</time></trkpt><trkpt lat="45.50333058657076" lon="7.805803915980903"><ele>843.0</ele><time>2026-04-11T16:12:51.982Z</time></trkpt><trkpt lat="45.503197336087034" lon="7.805818748497497"><ele>843.0</ele><time>2026-04-11T16:12:52.982Z</time></trkpt><trkpt lat="45.50307026947773" lon="7.805806175479424"><ele>843.0</ele><time>2026-04-11T16:12:53.982Z</time></trkpt><trkpt lat="45.5029715670371" lon="7.805767192054046"><ele>843.0</ele><time>2026-04-11T16:12:54.982Z</time></trkpt><trkpt lat="45.50287690754086" lon="7.805703575328101"><ele>841.2</ele><time>2026-04-11T16:12:55.982Z</time></trkpt><trkpt lat="45.50281742187911" lon="7.805619016992019"><ele>839.4</ele><time>2026-04-11T16:12:56.982Z</time></trkpt><trkpt lat="45.50277325541794" lon="7.805476415284459"><ele>837.6</ele><time>2026-04-11T16:12:57.982Z</time></trkpt><trkpt lat="45.50271575922416" lon="7.805340082581036"><ele>835.8000000000001</ele><time>2026-04-11T16:12:58.982Z</time></trkpt><trkpt lat="45.50264833885699" lon="7.805194646078773"><ele>834.0</ele><time>2026-04-11T16:12:59.982Z</time></trkpt><trkpt lat="45.50257473001367" lon="7.8050451109647145"><ele>834.0</ele><time>2026-04-11T16:13:00.982Z</time></trkpt><trkpt lat="45.50250704768506" lon="7.804909567691245"><ele>834.0</ele><time>2026-04-11T16:13:01.982Z</time></trkpt><trkpt lat="45.50244047069464" lon="7.804764602885546"><ele>834.0</ele><time>2026-04-11T16:13:02.982Z</time></trkpt><trkpt lat="45.50237313055803" lon="7.804630922424804"><ele>834.0</ele><time>2026-04-11T16:13:03.982Z</time></trkpt><trkpt lat="45.50232570881796" lon="7.804497440478577"><ele>834.0</ele><time>2026-04-11T16:13:04.982Z</time></trkpt><trkpt lat="45.50226847430656" lon="7.804374317717174"><ele>834.0</ele><time>2026-04-11T16:13:05.982Z</time></trkpt><trkpt lat="45.502195751670236" lon="7.804263615691618"><ele>834.0</ele><time>2026-04-11T16:13:06.982Z</time></trkpt><trkpt lat="45.50214378088237" lon="7.8041726477060935"><ele>834.0</ele><time>2026-04-11T16:13:07.982Z</time></trkpt><trkpt lat="45.502097499714395" lon="7.804074426599988"><ele>834.0</ele><time>2026-04-11T16:13:08.982Z</time></trkpt><trkpt lat="45.50206790676417" lon="7.8039519721217685"><ele>838.25</ele><time>2026-04-11T16:13:09.982Z</time></trkpt><trkpt lat="45.502047977794376" lon="7.80380578885841"><ele>842.5</ele><time>2026-04-11T16:13:10.982Z</time></trkpt><trkpt lat="45.50203754944524" lon="7.803667781985428"><ele>846.75</ele><time>2026-04-11T16:13:11.982Z</time></trkpt><trkpt lat="45.50204541695769" lon="7.8035073320273725"><ele>851.0</ele><time>2026-04-11T16:13:12.982Z</time></trkpt><trkpt lat="45.50208853773344" lon="7.803309457650792"><ele>851.0</ele><time>2026-04-11T16:13:13.982Z</time></trkpt><trkpt lat="45.5021117837316" lon="7.803132742396785"><ele>851.0</ele><time>2026-04-11T16:13:14.982Z</time></trkpt><trkpt lat="45.50213884501519" lon="7.802978550588261"><ele>851.0</ele><time>2026-04-11T16:13:15.982Z</time></trkpt><trkpt lat="45.502181869666714" lon="7.802832254837146"><ele>851.0</ele><time>2026-04-11T16:13:16.982Z</time></trkpt><trkpt lat="45.50220712672037" lon="7.80268562765945"><ele>847.8</ele><time>2026-04-11T16:13:17.982Z</time></trkpt><trkpt lat="45.50219872439983" lon="7.802527393859521"><ele>844.5999999999999</ele><time>2026-04-11T16:13:18.983Z</time></trkpt><trkpt lat="45.50220086471043" lon="7.802366476358866"><ele>841.4</ele><time>2026-04-11T16:13:19.983Z</time></trkpt><trkpt lat="45.50219961993994" lon="7.802238493341086"><ele>838.2</ele><time>2026-04-11T16:13:20.983Z</time></trkpt><trkpt lat="45.502205211426244" lon="7.802072313287604"><ele>835.0</ele><time>2026-04-11T16:13:21.983Z</time></trkpt><trkpt lat="45.50224708309222" lon="7.801889181914572"><ele>833.75</ele><time>2026-04-11T16:13:22.983Z</time></trkpt><trkpt lat="45.50227376202961" lon="7.8017230700789275"><ele>832.5</ele><time>2026-04-11T16:13:23.983Z</time></trkpt><trkpt lat="45.5022973975219" lon="7.801575908210837"><ele>831.25</ele><time>2026-04-11T16:13:24.983Z</time></trkpt><trkpt lat="45.502324696842045" lon="7.8014180337230465"><ele>830.0</ele><time>2026-04-11T16:13:25.983Z</time></trkpt><trkpt lat="45.50236260720142" lon="7.801267314056751"><ele>830.0000000000001</ele><time>2026-04-11T16:13:26.983Z</time></trkpt><trkpt lat="45.502349211675174" lon="7.801133584758128"><ele>830.0</ele><time>2026-04-11T16:13:27.983Z</time></trkpt><trkpt lat="45.502312173822055" lon="7.801022251628375"><ele>830.0</ele><time>2026-04-11T16:13:28.983Z</time></trkpt><trkpt lat="45.502267330173886" lon="7.800931367553467"><ele>830.0</ele><time>2026-04-11T16:13:29.983Z</time></trkpt><trkpt lat="45.50219700227088" lon="7.8008596332937925"><ele>830.0000000000001</ele><time>2026-04-11T16:13:30.983Z</time></trkpt><trkpt lat="45.50213692329969" lon="7.8008205989903034"><ele>830.0</ele><time>2026-04-11T16:13:31.983Z</time></trkpt><trkpt lat="45.50206805806663" lon="7.800779926267983"><ele>826.75</ele><time>2026-04-11T16:13:32.983Z</time></trkpt><trkpt lat="45.501926239874784" lon="7.800739490537296"><ele>823.5</ele><time>2026-04-11T16:13:33.983Z</time></trkpt><trkpt lat="45.501750897782294" lon="7.8007453967073115"><ele>820.25</ele><time>2026-04-11T16:13:34.983Z</time></trkpt><trkpt lat="45.501632163130736" lon="7.8007742735231185"><ele>817.0</ele><time>2026-04-11T16:13:35.983Z</time></trkpt><trkpt lat="45.50155601447869" lon="7.80080254706386"><ele>817.0</ele><time>2026-04-11T16:13:36.983Z</time></trkpt><trkpt lat="45.50143614502992" lon="7.8007657031498185"><ele>817.0</ele><time>2026-04-11T16:13:38.983Z</time></trkpt><trkpt lat="45.5013900807531" lon="7.8006994052470775"><ele>817.0</ele><time>2026-04-11T16:13:39.983Z</time></trkpt><trkpt lat="45.50132139896511" lon="7.800611095597739"><ele>817.0</ele><time>2026-04-11T16:13:41.983Z</time></trkpt><trkpt lat="45.50125564073668" lon="7.80052474741732"><ele>817.0</ele><time>2026-04-11T16:13:43.983Z</time></trkpt><trkpt lat="45.501179173469865" lon="7.800468014937928"><ele>813.9999999999999</ele><time>2026-04-11T16:13:44.983Z</time></trkpt><trkpt lat="45.50111821492676" lon="7.8003859962454225"><ele>811.0</ele><time>2026-04-11T16:13:45.983Z</time></trkpt><trkpt lat="45.50107127775985" lon="7.800290084685323"><ele>808.0</ele><time>2026-04-11T16:13:46.983Z</time></trkpt><trkpt lat="45.501054258375234" lon="7.800157359081072"><ele>805.0</ele><time>2026-04-11T16:13:47.983Z</time></trkpt><trkpt lat="45.50105786709059" lon="7.800023786585954"><ele>801.9999999999999</ele><time>2026-04-11T16:13:48.983Z</time></trkpt><trkpt lat="45.501058725944965" lon="7.7998899585331465"><ele>799.0</ele><time>2026-04-11T16:13:49.983Z</time></trkpt><trkpt lat="45.501059014008106" lon="7.799744238732317"><ele>799.0</ele><time>2026-04-11T16:13:50.983Z</time></trkpt><trkpt lat="45.501071814228006" lon="7.799605769218377"><ele>799.0</ele><time>2026-04-11T16:13:51.983Z</time></trkpt><trkpt lat="45.5010456312009" lon="7.7994567447709455"><ele>799.0</ele><time>2026-04-11T16:13:52.983Z</time></trkpt><trkpt lat="45.50102504916189" lon="7.7993380650295165"><ele>799.0</ele><time>2026-04-11T16:13:53.983Z</time></trkpt><trkpt lat="45.501004904350005" lon="7.799229997673817"><ele>799.0</ele><time>2026-04-11T16:13:54.983Z</time></trkpt><trkpt lat="45.500986384650446" lon="7.799113453459703"><ele>799.4999999999999</ele><time>2026-04-11T16:13:55.983Z</time></trkpt><trkpt lat="45.50095318584603" lon="7.799003716994134"><ele>800.0</ele><time>2026-04-11T16:13:56.983Z</time></trkpt><trkpt lat="45.50093684616863" lon="7.798904750039295"><ele>800.5</ele><time>2026-04-11T16:13:57.983Z</time></trkpt><trkpt lat="45.50091424440361" lon="7.79879842276076"><ele>801.0</ele><time>2026-04-11T16:13:58.983Z</time></trkpt><trkpt lat="45.500872278279516" lon="7.798697826965927"><ele>801.4999999999999</ele><time>2026-04-11T16:13:59.983Z</time></trkpt><trkpt lat="45.500853663086424" lon="7.798510939381698"><ele>802.0</ele><time>2026-04-11T16:14:01.983Z</time></trkpt><trkpt lat="45.50085201612244" lon="7.7983903571213355"><ele>802.6</ele><time>2026-04-11T16:14:02.983Z</time></trkpt><trkpt lat="45.50082747022498" lon="7.79827147388022"><ele>803.2</ele><time>2026-04-11T16:14:03.983Z</time></trkpt><trkpt lat="45.500764680999644" lon="7.798202248828998"><ele>803.8</ele><time>2026-04-11T16:14:04.983Z</time></trkpt><trkpt lat="45.500650687433264" lon="7.798120669758998"><ele>804.4</ele><time>2026-04-11T16:14:06.983Z</time></trkpt><trkpt lat="45.500577258008214" lon="7.798159174025303"><ele>805.0</ele><time>2026-04-11T16:14:07.983Z</time></trkpt><trkpt lat="45.50054157579692" lon="7.7982777358136595"><ele>805.0</ele><time>2026-04-11T16:14:08.983Z</time></trkpt><trkpt lat="45.500508550262914" lon="7.79835648995355"><ele>805.0</ele><time>2026-04-11T16:14:09.984Z</time></trkpt><trkpt lat="45.500463281612824" lon="7.7984665827256565"><ele>805.0</ele><time>2026-04-11T16:14:10.984Z</time></trkpt><trkpt lat="45.50040885177753" lon="7.798586134608705"><ele>805.0</ele><time>2026-04-11T16:14:11.984Z</time></trkpt><trkpt lat="45.50032573777503" lon="7.798697389476956"><ele>805.0</ele><time>2026-04-11T16:14:12.984Z</time></trkpt><trkpt lat="45.50023969255679" lon="7.798803674083647"><ele>803.75</ele><time>2026-04-11T16:14:13.984Z</time></trkpt><trkpt lat="45.50015075452633" lon="7.798918158652867"><ele>802.5</ele><time>2026-04-11T16:14:14.984Z</time></trkpt><trkpt lat="45.50005004685842" lon="7.799037892857526"><ele>801.25</ele><time>2026-04-11T16:14:15.984Z</time></trkpt><trkpt lat="45.499923757002904" lon="7.7991341098705815"><ele>800.0</ele><time>2026-04-11T16:14:16.984Z</time></trkpt><trkpt lat="45.49980150059145" lon="7.799219216949056"><ele>800.0</ele><time>2026-04-11T16:14:17.984Z</time></trkpt><trkpt lat="45.49968517144838" lon="7.799285574360949"><ele>800.0</ele><time>2026-04-11T16:14:18.98Z</time></trkpt><trkpt lat="45.49956565346432" lon="7.7993274121533975"><ele>800.0</ele><time>2026-04-11T16:14:19.98Z</time></trkpt><trkpt lat="45.499438330890314" lon="7.799364513552203"><ele>800.0</ele><time>2026-04-11T16:14:20.98Z</time></trkpt><trkpt lat="45.4993069403223" lon="7.799391429750117"><ele>795.5</ele><time>2026-04-11T16:14:21.98Z</time></trkpt><trkpt lat="45.499173581304085" lon="7.79943621679875"><ele>791.0</ele><time>2026-04-11T16:14:22.98Z</time></trkpt><trkpt lat="45.4990523984043" lon="7.7995025515661185"><ele>786.5</ele><time>2026-04-11T16:14:23.98Z</time></trkpt><trkpt lat="45.498941791087816" lon="7.79958943831367"><ele>782.0</ele><time>2026-04-11T16:14:24.981Z</time></trkpt><trkpt lat="45.49883398391259" lon="7.799678387665626"><ele>780.4000000000001</ele><time>2026-04-11T16:14:25.981Z</time></trkpt><trkpt lat="45.498719912077284" lon="7.799713251360794"><ele>778.8000000000001</ele><time>2026-04-11T16:14:26.981Z</time></trkpt><trkpt lat="45.4986197560586" lon="7.799703498519623"><ele>777.2</ele><time>2026-04-11T16:14:27.98Z</time></trkpt><trkpt lat="45.49854039313473" lon="7.799678755096184"><ele>775.6</ele><time>2026-04-11T16:14:28.98Z</time></trkpt><trkpt lat="45.49845969551791" lon="7.799592075134915"><ele>774.0</ele><time>2026-04-11T16:14:29.98Z</time></trkpt><trkpt lat="45.49837692264976" lon="7.7995078208640365"><ele>774.0</ele><time>2026-04-11T16:14:30.98Z</time></trkpt><trkpt lat="45.498278455819936" lon="7.799401646144221"><ele>774.0</ele><time>2026-04-11T16:14:31.98Z</time></trkpt><trkpt lat="45.498188248525416" lon="7.799269052571688"><ele>774.0</ele><time>2026-04-11T16:14:32.98Z</time></trkpt><trkpt lat="45.49810292374694" lon="7.7991557383340195"><ele>774.0</ele><time>2026-04-11T16:14:33.98Z</time></trkpt><trkpt lat="45.4980188315817" lon="7.7990490467832565"><ele>775.8000000000001</ele><time>2026-04-11T16:14:34.98Z</time></trkpt><trkpt lat="45.49794341943044" lon="7.7989401103613805"><ele>777.6</ele><time>2026-04-11T16:14:35.98Z</time></trkpt><trkpt lat="45.49786326949287" lon="7.798841354008792"><ele>779.4</ele><time>2026-04-11T16:14:36.98Z</time></trkpt><trkpt lat="45.497793498582546" lon="7.798771405476366"><ele>781.2</ele><time>2026-04-11T16:14:37.98Z</time></trkpt><trkpt lat="45.497709589380605" lon="7.798753747311875"><ele>783.0</ele><time>2026-04-11T16:14:38.981Z</time></trkpt><trkpt lat="45.49762534480768" lon="7.798746765171973"><ele>783.0</ele><time>2026-04-11T16:14:39.981Z</time></trkpt><trkpt lat="45.49754632158879" lon="7.798835610102528"><ele>783.0</ele><time>2026-04-11T16:14:40.981Z</time></trkpt><trkpt lat="45.49749488102235" lon="7.798957960797941"><ele>783.0</ele><time>2026-04-11T16:14:41.981Z</time></trkpt><trkpt lat="45.4974058915737" lon="7.7990495237022275"><ele>783.0</ele><time>2026-04-11T16:14:42.981Z</time></trkpt><trkpt lat="45.49731895014426" lon="7.799106687531921"><ele>783.0</ele><time>2026-04-11T16:14:43.981Z</time></trkpt><trkpt lat="45.49721979808392" lon="7.799126074461465"><ele>783.0</ele><time>2026-04-11T16:14:44.981Z</time></trkpt><trkpt lat="45.497121995352785" lon="7.799099216279556"><ele>783.0</ele><time>2026-04-11T16:14:45.981Z</time></trkpt><trkpt lat="45.49702965786422" lon="7.799092662338263"><ele>783.0</ele><time>2026-04-11T16:14:46.981Z</time></trkpt><trkpt lat="45.496933074797084" lon="7.799097749655698"><ele>783.0</ele><time>2026-04-11T16:14:47.981Z</time></trkpt><trkpt lat="45.49683930140426" lon="7.799103453062114"><ele>783.0</ele><time>2026-04-11T16:14:48.981Z</time></trkpt><trkpt lat="45.49674149413707" lon="7.799108412738547"><ele>783.2</ele><time>2026-04-11T16:14:49.981Z</time></trkpt><trkpt lat="45.49664334885016" lon="7.799107864386829"><ele>783.4</ele><time>2026-04-11T16:14:50.981Z</time></trkpt><trkpt lat="45.49653527336347" lon="7.799108573736902"><ele>783.6</ele><time>2026-04-11T16:14:51.981Z</time></trkpt><trkpt lat="45.49642709860887" lon="7.799112934360721"><ele>783.8000000000001</ele><time>2026-04-11T16:14:52.981Z</time></trkpt><trkpt lat="45.49632271857063" lon="7.799120319042578"><ele>784.0</ele><time>2026-04-11T16:14:53.981Z</time></trkpt><trkpt lat="45.496235601727676" lon="7.799108588105972"><ele>784.0</ele><time>2026-04-11T16:14:54.981Z</time></trkpt><trkpt lat="45.49615512785071" lon="7.799110383220037"><ele>784.0</ele><time>2026-04-11T16:14:56.981Z</time></trkpt><trkpt lat="45.496242945216544" lon="7.799142112486106"><ele>784.0</ele><time>2026-04-11T16:15:00.981Z</time></trkpt><trkpt lat="45.49636265093516" lon="7.799147366354392"><ele>784.0</ele><time>2026-04-11T16:15:02.981Z</time></trkpt><trkpt lat="45.496479255462084" lon="7.799161475494531"><ele>784.0</ele><time>2026-04-11T16:15:04.981Z</time></trkpt><trkpt lat="45.496568269101815" lon="7.799176806204128"><ele>783.4000000000001</ele><time>2026-04-11T16:15:06.981Z</time></trkpt><trkpt lat="45.496650158234296" lon="7.799174001567923"><ele>782.8</ele><time>2026-04-11T16:15:09.981Z</time></trkpt><trkpt lat="45.496691916679815" lon="7.799101192201542"><ele>782.2</ele><time>2026-04-11T16:15:29.982Z</time></trkpt><trkpt lat="45.49650434902074" lon="7.7990990817692945"><ele>781.5999999999999</ele><time>2026-04-11T16:21:21.983Z</time></trkpt><trkpt lat="45.496439214150996" lon="7.799104147972868"><ele>781.0</ele><time>2026-04-11T16:21:22.983Z</time></trkpt><trkpt lat="45.49636907223781" lon="7.799113419211433"><ele>781.0</ele><time>2026-04-11T16:21:23.983Z</time></trkpt><trkpt lat="45.49627168573985" lon="7.7991080033172375"><ele>781.0</ele><time>2026-04-11T16:21:24.983Z</time></trkpt><trkpt lat="45.49616574831205" lon="7.799119556212646"><ele>781.0</ele><time>2026-04-11T16:21:25.983Z</time></trkpt><trkpt lat="45.4960601038285" lon="7.799133158546276"><ele>781.0</ele><time>2026-04-11T16:21:26.983Z</time></trkpt><trkpt lat="45.495958157704976" lon="7.799171397358031"><ele>781.0</ele><time>2026-04-11T16:21:27.983Z</time></trkpt><trkpt lat="45.495851344799696" lon="7.799223080160634"><ele>781.0</ele><time>2026-04-11T16:21:28.983Z</time></trkpt><trkpt lat="45.4957491466492" lon="7.799331197716411"><ele>781.0</ele><time>2026-04-11T16:21:29.983Z</time></trkpt><trkpt lat="45.495632426292744" lon="7.799466220340231"><ele>781.0</ele><time>2026-04-11T16:21:30.983Z</time></trkpt><trkpt lat="45.49550331098427" lon="7.799606482156079"><ele>781.0</ele><time>2026-04-11T16:21:31.983Z</time></trkpt><trkpt lat="45.49535213860155" lon="7.799779679010406"><ele>781.0</ele><time>2026-04-11T16:21:32.983Z</time></trkpt><trkpt lat="45.49522570801351" lon="7.79991510190538"><ele>781.0</ele><time>2026-04-11T16:21:33.983Z</time></trkpt><trkpt lat="45.49511643236601" lon="7.800029670318923"><ele>781.0</ele><time>2026-04-11T16:21:34.983Z</time></trkpt><trkpt lat="45.495003189692106" lon="7.800098931362182"><ele>781.0</ele><time>2026-04-11T16:21:35.983Z</time></trkpt><trkpt lat="45.49490937592665" lon="7.800191487062367"><ele>782.1999999999999</ele><time>2026-04-11T16:21:36.983Z</time></trkpt><trkpt lat="45.49481946786446" lon="7.8002666987972615"><ele>783.4</ele><time>2026-04-11T16:21:37.983Z</time></trkpt><trkpt lat="45.49472353897854" lon="7.8003383995778615"><ele>784.6</ele><time>2026-04-11T16:21:38.983Z</time></trkpt><trkpt lat="45.49462906521408" lon="7.800418318505785"><ele>785.8</ele><time>2026-04-11T16:21:39.983Z</time></trkpt><trkpt lat="45.49454148937046" lon="7.800536394116715"><ele>787.0</ele><time>2026-04-11T16:21:40.983Z</time></trkpt><trkpt lat="45.49445802571154" lon="7.800634058807876"><ele>787.0</ele><time>2026-04-11T16:21:41.983Z</time></trkpt><trkpt lat="45.49438370812009" lon="7.800767263325393"><ele>787.0</ele><time>2026-04-11T16:21:42.983Z</time></trkpt><trkpt lat="45.49431256463001" lon="7.800903171366124"><ele>787.0</ele><time>2026-04-11T16:21:43.983Z</time></trkpt><trkpt lat="45.49424764532281" lon="7.801040688371806"><ele>787.0</ele><time>2026-04-11T16:21:44.983Z</time></trkpt><trkpt lat="45.49419893712549" lon="7.801179701566401"><ele>786.0</ele><time>2026-04-11T16:21:45.983Z</time></trkpt><trkpt lat="45.494163663737595" lon="7.801331964204198"><ele>785.0</ele><time>2026-04-11T16:21:46.984Z</time></trkpt><trkpt lat="45.49413229034692" lon="7.801482342654819"><ele>784.0</ele><time>2026-04-11T16:21:47.984Z</time></trkpt><trkpt lat="45.494099719709" lon="7.801627218345529"><ele>783.0</ele><time>2026-04-11T16:21:48.984Z</time></trkpt><trkpt lat="45.49406715517618" lon="7.801789618971684"><ele>782.0</ele><time>2026-04-11T16:21:49.984Z</time></trkpt><trkpt lat="45.49403489566663" lon="7.801929493266044"><ele>781.5000000000001</ele><time>2026-04-11T16:21:50.984Z</time></trkpt><trkpt lat="45.49399230936833" lon="7.802047436556313"><ele>781.0</ele><time>2026-04-11T16:21:51.984Z</time></trkpt><trkpt lat="45.493970543028865" lon="7.802158059370075"><ele>780.5</ele><time>2026-04-11T16:21:52.984Z</time></trkpt><trkpt lat="45.493948381472265" lon="7.802253108144795"><ele>780.0</ele><time>2026-04-11T16:21:53.984Z</time></trkpt><trkpt lat="45.493920309689805" lon="7.802341430673085"><ele>779.5000000000001</ele><time>2026-04-11T16:21:54.984Z</time></trkpt><trkpt lat="45.49386786168203" lon="7.802488622650369"><ele>779.0</ele><time>2026-04-11T16:21:56.984Z</time></trkpt><trkpt lat="45.49382992398756" lon="7.802571280541213"><ele>778.2</ele><time>2026-04-11T16:21:58.984Z</time></trkpt><trkpt lat="45.49396573558165" lon="7.8028023876757535"><ele>777.4000000000001</ele><time>2026-04-11T16:22:01.984Z</time></trkpt><trkpt lat="45.49401614948044" lon="7.8028670659341985"><ele>776.6</ele><time>2026-04-11T16:22:02.984Z</time></trkpt><trkpt lat="45.494058397513875" lon="7.802938417442177"><ele>775.8</ele><time>2026-04-11T16:22:03.984Z</time></trkpt><trkpt lat="45.494102848218056" lon="7.803013490437914"><ele>775.0</ele><time>2026-04-11T16:22:04.984Z</time></trkpt><trkpt lat="45.49415571282929" lon="7.803095337798572"><ele>775.0</ele><time>2026-04-11T16:22:05.984Z</time></trkpt><trkpt lat="45.49427065031138" lon="7.803156015355897"><ele>775.0</ele><time>2026-04-11T16:22:07.984Z</time></trkpt><trkpt lat="45.494403589123124" lon="7.803144277342059"><ele>775.0</ele><time>2026-04-11T16:22:09.984Z</time></trkpt><trkpt lat="45.49446716193379" lon="7.803155170996394"><ele>775.0</ele><time>2026-04-11T16:22:10.984Z</time></trkpt><trkpt lat="45.49454912512084" lon="7.8031541236209"><ele>775.0</ele><time>2026-04-11T16:22:11.984Z</time></trkpt><trkpt lat="45.49466984811996" lon="7.803115537521241"><ele>775.2</ele><time>2026-04-11T16:22:12.984Z</time></trkpt><trkpt lat="45.494761902889366" lon="7.803100627544224"><ele>775.4</ele><time>2026-04-11T16:22:13.984Z</time></trkpt><trkpt lat="45.494862808243695" lon="7.803074633157009"><ele>775.5999999999999</ele><time>2026-04-11T16:22:14.984Z</time></trkpt><trkpt lat="45.49495307046449" lon="7.803063418290767"><ele>775.8</ele><time>2026-04-11T16:22:15.984Z</time></trkpt><trkpt lat="45.49505286833754" lon="7.80302128400921"><ele>776.0</ele><time>2026-04-11T16:22:16.984Z</time></trkpt><trkpt lat="45.49515014404001" lon="7.802959354777355"><ele>776.0</ele><time>2026-04-11T16:22:17.984Z</time></trkpt><trkpt lat="45.495247193715976" lon="7.802901085806053"><ele>776.0</ele><time>2026-04-11T16:22:18.984Z</time></trkpt><trkpt lat="45.49534614437112" lon="7.802869282599303"><ele>776.0</ele><time>2026-04-11T16:22:19.984Z</time></trkpt><trkpt lat="45.4954533697702" lon="7.802826088281402"><ele>776.0</ele><time>2026-04-11T16:22:20.984Z</time></trkpt><trkpt lat="45.49555528401584" lon="7.802789102942781"><ele>776.0</ele><time>2026-04-11T16:22:21.984Z</time></trkpt><trkpt lat="45.495651777590176" lon="7.802750931511637"><ele>776.0000000000001</ele><time>2026-04-11T16:22:22.984Z</time></trkpt><trkpt lat="45.495754061433324" lon="7.802717308747404"><ele>776.0</ele><time>2026-04-11T16:22:23.984Z</time></trkpt><trkpt lat="45.49585465308286" lon="7.80269739463633"><ele>776.0</ele><time>2026-04-11T16:22:24.984Z</time></trkpt><trkpt lat="45.4959339737424" lon="7.802714894999424"><ele>776.0</ele><time>2026-04-11T16:22:25.984Z</time></trkpt><trkpt lat="45.496002301752355" lon="7.8027459364914495"><ele>776.0000000000001</ele><time>2026-04-11T16:22:26.984Z</time></trkpt><trkpt lat="45.496054195092036" lon="7.802840312284634"><ele>776.0</ele><time>2026-04-11T16:22:27.984Z</time></trkpt><trkpt lat="45.496104068306" lon="7.802925573510966"><ele>776.0000000000001</ele><time>2026-04-11T16:22:28.984Z</time></trkpt><trkpt lat="45.496116273537524" lon="7.80308626225125"><ele>776.0</ele><time>2026-04-11T16:22:29.984Z</time></trkpt><trkpt lat="45.49615858292102" lon="7.803197659373465"><ele>776.0</ele><time>2026-04-11T16:22:30.984Z</time></trkpt><trkpt lat="45.49617459507666" lon="7.8033094973925845"><ele>776.0</ele><time>2026-04-11T16:22:31.984Z</time></trkpt><trkpt lat="45.496182385359596" lon="7.803411957908874"><ele>776.0000000000001</ele><time>2026-04-11T16:22:32.985Z</time></trkpt><trkpt lat="45.49621631809318" lon="7.80350327221359"><ele>776.0</ele><time>2026-04-11T16:22:33.985Z</time></trkpt><trkpt lat="45.4962318119625" lon="7.803619624678034"><ele>768.6666666666667</ele><time>2026-04-11T16:22:34.985Z</time></trkpt><trkpt lat="45.496256402722736" lon="7.803725690111512"><ele>761.3333333333334</ele><time>2026-04-11T16:22:35.985Z</time></trkpt><trkpt lat="45.49646381906332" lon="7.803464595895185"><ele>754.0</ele><time>2026-04-11T16:22:40.985Z</time></trkpt><trkpt lat="45.49656591903966" lon="7.803357580790871"><ele>752.8333333333334</ele><time>2026-04-11T16:22:42.983Z</time></trkpt><trkpt lat="45.49662832770611" lon="7.803299095199381"><ele>751.6666666666667</ele><time>2026-04-11T16:22:43.983Z</time></trkpt><trkpt lat="45.49668858705098" lon="7.803250809543162"><ele>750.5</ele><time>2026-04-11T16:22:44.983Z</time></trkpt><trkpt lat="45.49676100817179" lon="7.803214652962759"><ele>749.3333333333334</ele><time>2026-04-11T16:22:45.983Z</time></trkpt><trkpt lat="45.49681915960446" lon="7.8031702222013735"><ele>748.1666666666666</ele><time>2026-04-11T16:22:46.983Z</time></trkpt><trkpt lat="45.49688945372885" lon="7.803067233695913"><ele>747.0</ele><time>2026-04-11T16:22:48.983Z</time></trkpt><trkpt lat="45.496972510665294" lon="7.803021871780016"><ele>742.8</ele><time>2026-04-11T16:22:50.983Z</time></trkpt><trkpt lat="45.49708680136207" lon="7.80309283027431"><ele>738.6</ele><time>2026-04-11T16:22:52.982Z</time></trkpt><trkpt lat="45.49717210413847" lon="7.8031592747339555"><ele>734.4</ele><time>2026-04-11T16:22:53.982Z</time></trkpt><trkpt lat="45.49725355318226" lon="7.803208287633595"><ele>730.1999999999999</ele><time>2026-04-11T16:22:54.984Z</time></trkpt><trkpt lat="45.49731877371256" lon="7.803229914078934"><ele>726.0</ele><time>2026-04-11T16:22:55.983Z</time></trkpt><trkpt lat="45.497393404944845" lon="7.803229667777059"><ele>726.0</ele><time>2026-04-11T16:22:56.983Z</time></trkpt><trkpt lat="45.49746027820447" lon="7.803225798526246"><ele>726.0</ele><time>2026-04-11T16:22:57.983Z</time></trkpt><trkpt lat="45.49752622164406" lon="7.803199060074698"><ele>726.0</ele><time>2026-04-11T16:22:58.983Z</time></trkpt><trkpt lat="45.49759796328977" lon="7.803165503765693"><ele>726.0</ele><time>2026-04-11T16:22:59.983Z</time></trkpt><trkpt lat="45.49766346226916" lon="7.803158924723013"><ele>726.0</ele><time>2026-04-11T16:23:00.983Z</time></trkpt><trkpt lat="45.49772991740021" lon="7.80317529807706"><ele>726.0</ele><time>2026-04-11T16:23:02.983Z</time></trkpt><trkpt lat="45.497812067533864" lon="7.803270333314782"><ele>726.0</ele><time>2026-04-11T16:23:04.983Z</time></trkpt><trkpt lat="45.49780344747257" lon="7.803383425339366"><ele>726.0</ele><time>2026-04-11T16:23:06.983Z</time></trkpt><trkpt lat="45.49774758698855" lon="7.803524177825953"><ele>726.0</ele><time>2026-04-11T16:23:08.983Z</time></trkpt><trkpt lat="45.49772142298434" lon="7.803628095826378"><ele>726.0</ele><time>2026-04-11T16:23:09.983Z</time></trkpt><trkpt lat="45.49769186726626" lon="7.803762883157639"><ele>726.0</ele><time>2026-04-11T16:23:10.983Z</time></trkpt><trkpt lat="45.49768832835837" lon="7.803898487344808"><ele>725.5</ele><time>2026-04-11T16:23:11.984Z</time></trkpt><trkpt lat="45.49768488847487" lon="7.804000973442928"><ele>725.0</ele><time>2026-04-11T16:23:12.984Z</time></trkpt><trkpt lat="45.49767893302682" lon="7.804156739400643"><ele>724.5</ele><time>2026-04-11T16:23:14.984Z</time></trkpt><trkpt lat="45.497708489559535" lon="7.804279984705504"><ele>724.0</ele><time>2026-04-11T16:23:16.984Z</time></trkpt><trkpt lat="45.49778164510652" lon="7.804352114142016"><ele>723.5</ele><time>2026-04-11T16:23:18.984Z</time></trkpt><trkpt lat="45.49782471616638" lon="7.8042561093004625"><ele>723.0</ele><time>2026-04-11T16:23:21.984Z</time></trkpt><trkpt lat="45.49793447033716" lon="7.804223393405631"><ele>715.0</ele><time>2026-04-11T16:23:24.984Z</time></trkpt><trkpt lat="45.49806223252557" lon="7.804187738793984"><ele>707.0</ele><time>2026-04-11T16:23:26.984Z</time></trkpt><trkpt lat="45.49812123470846" lon="7.804140938623347"><ele>699.0</ele><time>2026-04-11T16:23:27.984Z</time></trkpt><trkpt lat="45.498181957374825" lon="7.8040884511863835"><ele>691.0</ele><time>2026-04-11T16:23:28.984Z</time></trkpt><trkpt lat="45.49826317642375" lon="7.80404932769069"><ele>683.0</ele><time>2026-04-11T16:23:29.984Z</time></trkpt><trkpt lat="45.49835501433542" lon="7.8040002747086525"><ele>683.0</ele><time>2026-04-11T16:23:31.984Z</time></trkpt><trkpt lat="45.498408247516885" lon="7.803951981293017"><ele>683.0</ele><time>2026-04-11T16:23:33.984Z</time></trkpt><trkpt lat="45.49848198680073" lon="7.803977110772607"><ele>683.0</ele><time>2026-04-11T16:23:36.984Z</time></trkpt><trkpt lat="45.49851271655059" lon="7.80406513673369"><ele>683.0</ele><time>2026-04-11T16:23:39.984Z</time></trkpt><trkpt lat="45.498576243708094" lon="7.804002725195519"><ele>683.0</ele><time>2026-04-11T16:23:41.984Z</time></trkpt><trkpt lat="45.498600417584825" lon="7.803901842121648"><ele>683.0</ele><time>2026-04-11T16:23:43.984Z</time></trkpt><trkpt lat="45.49866597611622" lon="7.803921868407144"><ele>683.0</ele><time>2026-04-11T16:23:45.984Z</time></trkpt><trkpt lat="45.4986917555468" lon="7.804015098567574"><ele>683.0</ele><time>2026-04-11T16:23:48.984Z</time></trkpt><trkpt lat="45.498688310272314" lon="7.804143465260245"><ele>683.0</ele><time>2026-04-11T16:23:50.984Z</time></trkpt><trkpt lat="45.49868533257944" lon="7.804234287530451"><ele>683.0</ele><time>2026-04-11T16:23:51.984Z</time></trkpt><trkpt lat="45.498697374749064" lon="7.8043340569783295"><ele>683.0</ele><time>2026-04-11T16:23:52.984Z</time></trkpt><trkpt lat="45.49871021244702" lon="7.804422782353792"><ele>683.0</ele><time>2026-04-11T16:23:53.984Z</time></trkpt><trkpt lat="45.49881341368676" lon="7.804544909103565"><ele>683.0</ele><time>2026-04-11T16:23:55.984Z</time></trkpt><trkpt lat="45.498867888855706" lon="7.804602994772731"><ele>680.5999999999999</ele><time>2026-04-11T16:23:57.985Z</time></trkpt><trkpt lat="45.49887928277961" lon="7.804773252510089"><ele>678.1999999999999</ele><time>2026-04-11T16:23:59.985Z</time></trkpt><trkpt lat="45.498875857095854" lon="7.804934955803469"><ele>675.8</ele><time>2026-04-11T16:24:01.985Z</time></trkpt><trkpt lat="45.49889944433728" lon="7.805047869512256"><ele>673.4</ele><time>2026-04-11T16:24:02.985Z</time></trkpt><trkpt lat="45.49897059804825" lon="7.805136517458302"><ele>671.0</ele><time>2026-04-11T16:24:04.985Z</time></trkpt><trkpt lat="45.49901349491227" lon="7.805270602712253"><ele>667.0</ele><time>2026-04-11T16:24:06.985Z</time></trkpt><trkpt lat="45.499023277751526" lon="7.8053923738512925"><ele>663.0</ele><time>2026-04-11T16:24:08.985Z</time></trkpt><trkpt lat="45.49909339262819" lon="7.805490473497686"><ele>659.0</ele><time>2026-04-11T16:24:11.985Z</time></trkpt><trkpt lat="45.499110009876254" lon="7.805592122050229"><ele>655.0</ele><time>2026-04-11T16:24:13.985Z</time></trkpt><trkpt lat="45.499118705303324" lon="7.805706464886871"><ele>651.0</ele><time>2026-04-11T16:24:15.985Z</time></trkpt><trkpt lat="45.4991727699216" lon="7.805865324667383"><ele>648.3333333333334</ele><time>2026-04-11T16:24:18.985Z</time></trkpt><trkpt lat="45.499196591199286" lon="7.8060479391836495"><ele>645.6666666666666</ele><time>2026-04-11T16:24:20.985Z</time></trkpt><trkpt lat="45.49921756913014" lon="7.806136283654284"><ele>643.0</ele><time>2026-04-11T16:24:21.985Z</time></trkpt><trkpt lat="45.49924445286442" lon="7.80624970626527"><ele>640.3333333333333</ele><time>2026-04-11T16:24:23.985Z</time></trkpt><trkpt lat="45.49925700116353" lon="7.806374878180271"><ele>637.6666666666666</ele><time>2026-04-11T16:24:24.985Z</time></trkpt><trkpt lat="45.499259011418815" lon="7.806469832503436"><ele>635.0</ele><time>2026-04-11T16:24:25.985Z</time></trkpt><trkpt lat="45.49926758539607" lon="7.806561509277809"><ele>635.0</ele><time>2026-04-11T16:24:26.985Z</time></trkpt><trkpt lat="45.49927077957716" lon="7.806747854197001"><ele>635.0</ele><time>2026-04-11T16:24:28.985Z</time></trkpt><trkpt lat="45.499259482496676" lon="7.806935035747516"><ele>635.0</ele><time>2026-04-11T16:24:30.985Z</time></trkpt><trkpt lat="45.49926250963348" lon="7.807039173313193"><ele>635.0</ele><time>2026-04-11T16:24:31.985Z</time></trkpt><trkpt lat="45.499253322990405" lon="7.807186429172709"><ele>635.0</ele><time>2026-04-11T16:24:32.985Z</time></trkpt><trkpt lat="45.49927066153946" lon="7.807309102545809"><ele>632.6</ele><time>2026-04-11T16:24:33.985Z</time></trkpt><trkpt lat="45.49927778874089" lon="7.80740888763948"><ele>630.2</ele><time>2026-04-11T16:24:34.985Z</time></trkpt><trkpt lat="45.49928429242316" lon="7.807590152156018"><ele>627.8</ele><time>2026-04-11T16:24:36.985Z</time></trkpt><trkpt lat="45.49927999543601" lon="7.807679768403356"><ele>625.4</ele><time>2026-04-11T16:24:37.985Z</time></trkpt><trkpt lat="45.499246198689114" lon="7.807840949948776"><ele>623.0</ele><time>2026-04-11T16:24:39.985Z</time></trkpt><trkpt lat="45.49920332274171" lon="7.808036977104868"><ele>620.8333333333333</ele><time>2026-04-11T16:24:41.985Z</time></trkpt><trkpt lat="45.499193558156286" lon="7.808128928642158"><ele>618.6666666666666</ele><time>2026-04-11T16:24:42.985Z</time></trkpt><trkpt lat="45.499258505767976" lon="7.808277026310375"><ele>616.5</ele><time>2026-04-11T16:24:44.986Z</time></trkpt><trkpt lat="45.4993329535853" lon="7.80835383697132"><ele>614.3333333333334</ele><time>2026-04-11T16:24:46.986Z</time></trkpt><trkpt lat="45.49934735282592" lon="7.808444404893735"><ele>612.1666666666667</ele><time>2026-04-11T16:24:48.983Z</time></trkpt><trkpt lat="45.49930084559759" lon="7.808509771232859"><ele>610.0</ele><time>2026-04-11T16:24:53.983Z</time></trkpt><trkpt lat="45.499313359636815" lon="7.8086013744195455"><ele>608.1666666666667</ele><time>2026-04-11T16:24:56.983Z</time></trkpt><trkpt lat="45.499288580251076" lon="7.808691369069308"><ele>606.3333333333334</ele><time>2026-04-11T16:25:12.983Z</time></trkpt><trkpt lat="45.499272355730014" lon="7.80878746211161"><ele>604.5</ele><time>2026-04-11T16:25:14.983Z</time></trkpt><trkpt lat="45.499195840554904" lon="7.808877409345517"><ele>602.6666666666666</ele><time>2026-04-11T16:25:16.983Z</time></trkpt><trkpt lat="45.4991459526833" lon="7.808966259476851"><ele>600.8333333333333</ele><time>2026-04-11T16:25:18.983Z</time></trkpt><trkpt lat="45.499080486327685" lon="7.809099708680099"><ele>599.0</ele><time>2026-04-11T16:25:20.983Z</time></trkpt><trkpt lat="45.499047887451" lon="7.809244092272743"><ele>596.4</ele><time>2026-04-11T16:25:22.983Z</time></trkpt><trkpt lat="45.49904154386654" lon="7.809382625474751"><ele>593.8</ele><time>2026-04-11T16:25:24.983Z</time></trkpt><trkpt lat="45.499031784160266" lon="7.809529790247293"><ele>591.2</ele><time>2026-04-11T16:25:26.984Z</time></trkpt><trkpt lat="45.499019817074945" lon="7.809654863299473"><ele>588.6</ele><time>2026-04-11T16:25:28.984Z</time></trkpt><trkpt lat="45.49899091646935" lon="7.809749714222658"><ele>586.0</ele><time>2026-04-11T16:25:36.984Z</time></trkpt><trkpt lat="45.49902345533619" lon="7.809867749240299"><ele>586.0</ele><time>2026-04-11T16:25:38.984Z</time></trkpt><trkpt lat="45.499063603487144" lon="7.809942694166574"><ele>586.0</ele><time>2026-04-11T16:25:40.984Z</time></trkpt><trkpt lat="45.499069299675156" lon="7.810049064337372"><ele>586.0</ele><time>2026-04-11T16:25:45.984Z</time></trkpt><trkpt lat="45.49904698417634" lon="7.810155237473967"><ele>586.0</ele><time>2026-04-11T16:25:48.984Z</time></trkpt><trkpt lat="45.49903583383475" lon="7.81027793266315"><ele>586.0</ele><time>2026-04-11T16:25:51.984Z</time></trkpt><trkpt lat="45.499030479924095" lon="7.8104338310426575"><ele>586.0</ele><time>2026-04-11T16:25:54.984Z</time></trkpt><trkpt lat="45.49904481288935" lon="7.810545929171611"><ele>581.4</ele><time>2026-04-11T16:25:56.984Z</time></trkpt><trkpt lat="45.49906915517359" lon="7.810644159300579"><ele>576.8</ele><time>2026-04-11T16:25:59.984Z</time></trkpt><trkpt lat="45.499087703410275" lon="7.810770841651177"><ele>572.1999999999999</ele><time>2026-04-11T16:26:04.985Z</time></trkpt><trkpt lat="45.499078319911995" lon="7.810923799807666"><ele>567.6</ele><time>2026-04-11T16:26:06.985Z</time></trkpt><trkpt lat="45.499032283887054" lon="7.811083170514571"><ele>563.0</ele><time>2026-04-11T16:26:08.985Z</time></trkpt><trkpt lat="45.49902155740517" lon="7.811216953084133"><ele>559.4</ele><time>2026-04-11T16:26:10.985Z</time></trkpt><trkpt lat="45.49908441491707" lon="7.811395255577969"><ele>555.8</ele><time>2026-04-11T16:26:12.985Z</time></trkpt><trkpt lat="45.49911287167162" lon="7.8114802074315515"><ele>552.2</ele><time>2026-04-11T16:26:13.985Z</time></trkpt><trkpt lat="45.49916876576285" lon="7.811621790882425"><ele>548.6</ele><time>2026-04-11T16:26:15.985Z</time></trkpt><trkpt lat="45.49924072370436" lon="7.8117527111169975"><ele>545.0</ele><time>2026-04-11T16:26:17.985Z</time></trkpt><trkpt lat="45.4992595877124" lon="7.811853921713584"><ele>540.0</ele><time>2026-04-11T16:26:18.985Z</time></trkpt><trkpt lat="45.499285984014826" lon="7.811995179676787"><ele>535.0</ele><time>2026-04-11T16:26:19.985Z</time></trkpt><trkpt lat="45.499295002695625" lon="7.812128369542935"><ele>530.0</ele><time>2026-04-11T16:26:20.985Z</time></trkpt><trkpt lat="45.49931774672457" lon="7.812241319633073"><ele>525.0</ele><time>2026-04-11T16:26:21.985Z</time></trkpt><trkpt lat="45.49932585725892" lon="7.812343829422652"><ele>520.0</ele><time>2026-04-11T16:26:22.985Z</time></trkpt><trkpt lat="45.49936175792949" lon="7.812485415918192"><ele>520.0</ele><time>2026-04-11T16:26:24.985Z</time></trkpt><trkpt lat="45.49936015844863" lon="7.8126043351449175"><ele>520.0</ele><time>2026-04-11T16:26:25.985Z</time></trkpt><trkpt lat="45.49939273500844" lon="7.812741348197619"><ele>520.0</ele><time>2026-04-11T16:26:27.985Z</time></trkpt><trkpt lat="45.49942457288249" lon="7.812829741777872"><ele>520.0</ele><time>2026-04-11T16:26:29.985Z</time></trkpt><trkpt lat="45.499351845433544" lon="7.812772703955869"><ele>520.0</ele><time>2026-04-11T16:26:33.985Z</time></trkpt><trkpt lat="45.49933463243025" lon="7.812647698691396"><ele>520.0</ele><time>2026-04-11T16:26:35.985Z</time></trkpt><trkpt lat="45.4992773516944" lon="7.8125472710912724"><ele>520.0</ele><time>2026-04-11T16:26:38.985Z</time></trkpt><trkpt lat="45.499248029077" lon="7.812647063771919"><ele>520.0</ele><time>2026-04-11T16:26:43.985Z</time></trkpt><trkpt lat="45.49926088040969" lon="7.8127563856320235"><ele>520.0</ele><time>2026-04-11T16:26:45.986Z</time></trkpt><trkpt lat="45.49927478670769" lon="7.812852413048367"><ele>520.0</ele><time>2026-04-11T16:26:47.986Z</time></trkpt><trkpt lat="45.499291843394275" lon="7.812996905961823"><ele>520.0</ele><time>2026-04-11T16:26:49.986Z</time></trkpt><trkpt lat="45.49934540313445" lon="7.813093824415913"><ele>520.0</ele><time>2026-04-11T16:26:51.986Z</time></trkpt><trkpt lat="45.49939325999846" lon="7.813185628737276"><ele>519.0</ele><time>2026-04-11T16:26:53.986Z</time></trkpt><trkpt lat="45.499469926735365" lon="7.8132648814864"><ele>518.0</ele><time>2026-04-11T16:26:55.984Z</time></trkpt><trkpt lat="45.499544381569336" lon="7.8133330902689995"><ele>517.0</ele><time>2026-04-11T16:26:57.984Z</time></trkpt><trkpt lat="45.49961435654586" lon="7.813409156924881"><ele>516.0</ele><time>2026-04-11T16:26:59.983Z</time></trkpt><trkpt lat="45.49970465734358" lon="7.813472943633969"><ele>515.0</ele><time>2026-04-11T16:27:01.984Z</time></trkpt><trkpt lat="45.499804931556106" lon="7.813497373819401"><ele>508.16666666666663</ele><time>2026-04-11T16:27:03.983Z</time></trkpt><trkpt lat="45.49988372362818" lon="7.813536983952753"><ele>501.3333333333333</ele><time>2026-04-11T16:27:05.983Z</time></trkpt><trkpt lat="45.49994370539498" lon="7.813617251922166"><ele>494.5</ele><time>2026-04-11T16:27:07.984Z</time></trkpt><trkpt lat="45.499962591168" lon="7.813708184020039"><ele>487.66666666666663</ele><time>2026-04-11T16:27:10.984Z</time></trkpt><trkpt lat="45.49989083277065" lon="7.813715934337676"><ele>480.8333333333333</ele><time>2026-04-11T16:27:13.984Z</time></trkpt><trkpt lat="45.499814405165296" lon="7.813783183707393"><ele>474.0</ele><time>2026-04-11T16:27:16.984Z</time></trkpt><trkpt lat="45.49987018629776" lon="7.813849625896032"><ele>474.0</ele><time>2026-04-11T16:27:18.984Z</time></trkpt><trkpt lat="45.49995132883733" lon="7.81390337728641"><ele>474.0</ele><time>2026-04-11T16:27:20.984Z</time></trkpt><trkpt lat="45.500008052946775" lon="7.813968049998976"><ele>474.0</ele><time>2026-04-11T16:27:22.984Z</time></trkpt><trkpt lat="45.499933235806175" lon="7.81400117506398"><ele>474.0</ele><time>2026-04-11T16:27:25.984Z</time></trkpt><trkpt lat="45.49982115140598" lon="7.814002523094755"><ele>474.0</ele><time>2026-04-11T16:27:27.984Z</time></trkpt><trkpt lat="45.49972364835251" lon="7.813999842438678"><ele>474.0</ele><time>2026-04-11T16:27:29.984Z</time></trkpt><trkpt lat="45.49962603726772" lon="7.814008359838655"><ele>474.0</ele><time>2026-04-11T16:27:31.984Z</time></trkpt><trkpt lat="45.499544313208425" lon="7.814029861059071"><ele>474.0</ele><time>2026-04-11T16:27:33.984Z</time></trkpt><trkpt lat="45.49948551381175" lon="7.814068590364609"><ele>474.0</ele><time>2026-04-11T16:27:35.984Z</time></trkpt><trkpt lat="45.499546534152685" lon="7.814108781569231"><ele>474.0</ele><time>2026-04-11T16:27:37.984Z</time></trkpt><trkpt lat="45.499588200583496" lon="7.814223710169308"><ele>474.0</ele><time>2026-04-11T16:27:42.984Z</time></trkpt><trkpt lat="45.49949407489322" lon="7.814239056035608"><ele>470.3333333333333</ele><time>2026-04-11T16:27:45.985Z</time></trkpt><trkpt lat="45.49940205696539" lon="7.814250834272878"><ele>466.66666666666663</ele><time>2026-04-11T16:27:47.985Z</time></trkpt><trkpt lat="45.49931388849179" lon="7.814238402050084"><ele>463.0</ele><time>2026-04-11T16:27:49.985Z</time></trkpt><trkpt lat="45.49933000425034" lon="7.814359278836579"><ele>459.3333333333333</ele><time>2026-04-11T16:27:55.985Z</time></trkpt><trkpt lat="45.499394102014904" lon="7.814428008854324"><ele>455.66666666666663</ele><time>2026-04-11T16:27:57.985Z</time></trkpt><trkpt lat="45.49945245001354" lon="7.814465321813678"><ele>452.0</ele><time>2026-04-11T16:27:59.985Z</time></trkpt><trkpt lat="45.49952229920304" lon="7.814525247728539"><ele>449.3333333333333</ele><time>2026-04-11T16:28:01.985Z</time></trkpt><trkpt lat="45.499591492879375" lon="7.8145955017444635"><ele>446.66666666666663</ele><time>2026-04-11T16:28:03.985Z</time></trkpt><trkpt lat="45.49965974527563" lon="7.8146837911253755"><ele>444.0</ele><time>2026-04-11T16:28:05.985Z</time></trkpt><trkpt lat="45.49975368075681" lon="7.814735596603442"><ele>441.33333333333337</ele><time>2026-04-11T16:28:07.985Z</time></trkpt><trkpt lat="45.499808963616104" lon="7.8147962931091755"><ele>438.6666666666667</ele><time>2026-04-11T16:28:09.985Z</time></trkpt><trkpt lat="45.49987151804326" lon="7.814845637334729"><ele>436.0</ele><time>2026-04-11T16:28:12.985Z</time></trkpt><trkpt lat="45.49983591092791" lon="7.814943088581138"><ele>436.00000000000006</ele><time>2026-04-11T16:28:15.985Z</time></trkpt><trkpt lat="45.49974760216091" lon="7.814928457219145"><ele>436.0</ele><time>2026-04-11T16:28:17.985Z</time></trkpt><trkpt lat="45.49964796764584" lon="7.814950823133108"><ele>436.0</ele><time>2026-04-11T16:28:19.985Z</time></trkpt><trkpt lat="45.49956969112731" lon="7.814944385677548"><ele>436.0</ele><time>2026-04-11T16:28:21.985Z</time></trkpt><trkpt lat="45.499517582367936" lon="7.815022146463564"><ele>436.00000000000006</ele><time>2026-04-11T16:28:24.985Z</time></trkpt><trkpt lat="45.49956076334283" lon="7.815157538921561"><ele>436.0</ele><time>2026-04-11T16:28:26.985Z</time></trkpt><trkpt lat="45.499625054920465" lon="7.815279922666573"><ele>431.1666666666667</ele><time>2026-04-11T16:28:28.985Z</time></trkpt><trkpt lat="45.49969785978183" lon="7.815333544522105"><ele>426.33333333333337</ele><time>2026-04-11T16:28:30.986Z</time></trkpt><trkpt lat="45.49975646075839" lon="7.815387087126381"><ele>421.5</ele><time>2026-04-11T16:28:32.986Z</time></trkpt><trkpt lat="45.499782138631105" lon="7.815522461624217"><ele>416.66666666666663</ele><time>2026-04-11T16:28:34.986Z</time></trkpt><trkpt lat="45.4997770299101" lon="7.815615350868921"><ele>411.8333333333333</ele><time>2026-04-11T16:28:36.986Z</time></trkpt><trkpt lat="45.49970303954709" lon="7.815632371174148"><ele>407.0</ele><time>2026-04-11T16:28:38.986Z</time></trkpt><trkpt lat="45.499631002709776" lon="7.815647924477833"><ele>407.0</ele><time>2026-04-11T16:28:40.986Z</time></trkpt><trkpt lat="45.49960704396307" lon="7.81573486590181"><ele>407.0</ele><time>2026-04-11T16:28:42.986Z</time></trkpt><trkpt lat="45.49972365281909" lon="7.815889460169395"><ele>407.0</ele><time>2026-04-11T16:28:45.986Z</time></trkpt><trkpt lat="45.49972615293897" lon="7.816026269213245"><ele>407.0</ele><time>2026-04-11T16:28:47.986Z</time></trkpt><trkpt lat="45.4995910439662" lon="7.816136334555842"><ele>402.40000000000003</ele><time>2026-04-11T16:28:50.986Z</time></trkpt><trkpt lat="45.49949827241435" lon="7.8161744240338455"><ele>397.8</ele><time>2026-04-11T16:28:52.986Z</time></trkpt><trkpt lat="45.4994092475319" lon="7.816204619079559"><ele>393.2</ele><time>2026-04-11T16:28:55.986Z</time></trkpt><trkpt lat="45.49931741840584" lon="7.816292293200139"><ele>388.6</ele><time>2026-04-11T16:28:57.986Z</time></trkpt><trkpt lat="45.49921227873067" lon="7.81635286032305"><ele>384.0</ele><time>2026-04-11T16:28:59.986Z</time></trkpt><trkpt lat="45.4991501316611" lon="7.816390743466443"><ele>384.0</ele><time>2026-04-11T16:29:00.985Z</time></trkpt><trkpt lat="45.499095543417035" lon="7.816439530841878"><ele>384.0</ele><time>2026-04-11T16:29:01.984Z</time></trkpt><trkpt lat="45.49899432852976" lon="7.816542470313427"><ele>384.0</ele><time>2026-04-11T16:29:03.984Z</time></trkpt><trkpt lat="45.49890127413283" lon="7.816654323511348"><ele>384.0</ele><time>2026-04-11T16:29:05.985Z</time></trkpt><trkpt lat="45.49876531039892" lon="7.8166774887289"><ele>384.0</ele><time>2026-04-11T16:29:07.984Z</time></trkpt><trkpt lat="45.49868363609943" lon="7.816691593745232"><ele>382.0</ele><time>2026-04-11T16:29:09.985Z</time></trkpt><trkpt lat="45.49861000717253" lon="7.816814096238519"><ele>380.0</ele><time>2026-04-11T16:29:11.984Z</time></trkpt><trkpt lat="45.49863828530146" lon="7.816916230596996"><ele>378.0</ele><time>2026-04-11T16:29:14.984Z</time></trkpt><trkpt lat="45.498656574039146" lon="7.817008632866624"><ele>376.0</ele><time>2026-04-11T16:29:16.984Z</time></trkpt><trkpt lat="45.49857681157437" lon="7.817025533035242"><ele>374.0</ele><time>2026-04-11T16:29:18.984Z</time></trkpt><trkpt lat="45.4984579236716" lon="7.817013269629228"><ele>371.2</ele><time>2026-04-11T16:29:20.984Z</time></trkpt><trkpt lat="45.49839850220631" lon="7.817102425004879"><ele>368.4</ele><time>2026-04-11T16:30:01.984Z</time></trkpt><trkpt lat="45.49835516748499" lon="7.817199397528857"><ele>365.6</ele><time>2026-04-11T16:30:06.984Z</time></trkpt><trkpt lat="45.4984025748391" lon="7.8172610569681025"><ele>362.8</ele><time>2026-04-11T16:30:08.984Z</time></trkpt><trkpt lat="45.49853146654409" lon="7.8173288789416375"><ele>360.0</ele><time>2026-04-11T16:30:10.985Z</time></trkpt><trkpt lat="45.498593933348" lon="7.817406139936242"><ele>360.0</ele><time>2026-04-11T16:30:12.985Z</time></trkpt><trkpt lat="45.49863989490842" lon="7.817508216941408"><ele>360.0</ele><time>2026-04-11T16:30:14.985Z</time></trkpt><trkpt lat="45.49866240223804" lon="7.817653114134311"><ele>360.0</ele><time>2026-04-11T16:30:16.985Z</time></trkpt><trkpt lat="45.49868461042458" lon="7.817791703180439"><ele>360.0</ele><time>2026-04-11T16:30:18.985Z</time></trkpt><trkpt lat="45.49871865495023" lon="7.817936322180032"><ele>360.0</ele><time>2026-04-11T16:30:20.985Z</time></trkpt><trkpt lat="45.49874897807805" lon="7.818102075193683"><ele>359.5</ele><time>2026-04-11T16:30:22.985Z</time></trkpt><trkpt lat="45.49876472914008" lon="7.818194709880987"><ele>359.0</ele><time>2026-04-11T16:30:24.127Z</time></trkpt><trkpt lat="45.4987999966743" lon="7.81828564835362"><ele>358.5</ele><time>2026-04-11T16:30:25.127Z</time></trkpt><trkpt lat="45.49874965953926" lon="7.818378658779456"><ele>358.0</ele><time>2026-04-11T16:30:26.985Z</time></trkpt><trkpt lat="45.498764157703285" lon="7.818551014438963"><ele>357.5</ele><time>2026-04-11T16:30:28.985Z</time></trkpt><trkpt lat="45.49872626455539" lon="7.818685347898854"><ele>357.0</ele><time>2026-04-11T16:30:30.985Z</time></trkpt><trkpt lat="45.49865115731098" lon="7.8188085878690865"><ele>354.0</ele><time>2026-04-11T16:30:32.985Z</time></trkpt><trkpt lat="45.498593783494634" lon="7.818874998645278"><ele>351.0</ele><time>2026-04-11T16:30:34.126Z</time></trkpt><trkpt lat="45.49855439208526" lon="7.819001607840861"><ele>348.0</ele><time>2026-04-11T16:30:38.126Z</time></trkpt><trkpt lat="45.49859695910173" lon="7.81872838766665"><ele>345.0</ele><time>2026-04-11T16:30:40.985Z</time></trkpt><trkpt lat="45.4988935967164" lon="7.819171324904158"><ele>345.0</ele><time>2026-04-11T16:30:41.985Z</time></trkpt><trkpt lat="45.498998363790314" lon="7.8192805615520475"><ele>345.0</ele><time>2026-04-11T16:30:42.985Z</time></trkpt><trkpt lat="45.4990959993172" lon="7.819461775497211"><ele>345.0</ele><time>2026-04-11T16:30:43.985Z</time></trkpt><trkpt lat="45.49910790753418" lon="7.819606705243019"><ele>345.0</ele><time>2026-04-11T16:30:44.985Z</time></trkpt><trkpt lat="45.49914243213699" lon="7.819682634554905"><ele>342.6666666666667</ele><time>2026-04-11T16:30:45.985Z</time></trkpt><trkpt lat="45.49918378552583" lon="7.819786672244462"><ele>340.3333333333333</ele><time>2026-04-11T16:30:46.985Z</time></trkpt><trkpt lat="45.49922037944967" lon="7.819888411584737"><ele>338.0</ele><time>2026-04-11T16:30:47.985Z</time></trkpt><trkpt lat="45.49924146262946" lon="7.819993878221185"><ele>335.66666666666663</ele><time>2026-04-11T16:30:48.985Z</time></trkpt><trkpt lat="45.49928083272362" lon="7.820093204235524"><ele>333.3333333333333</ele><time>2026-04-11T16:30:49.985Z</time></trkpt><trkpt lat="45.499334824950026" lon="7.820164914601785"><ele>331.0</ele><time>2026-04-11T16:30:50.985Z</time></trkpt><trkpt lat="45.49937209766991" lon="7.820245254796993"><ele>328.40000000000003</ele><time>2026-04-11T16:30:52.985Z</time></trkpt><trkpt lat="45.49946372890116" lon="7.820378166604286"><ele>325.8</ele><time>2026-04-11T16:30:54.985Z</time></trkpt><trkpt lat="45.49956729996357" lon="7.820498727785411"><ele>323.20000000000005</ele><time>2026-04-11T16:30:55.986Z</time></trkpt><trkpt lat="45.49961901376072" lon="7.820565171753625"><ele>320.6</ele><time>2026-04-11T16:30:56.986Z</time></trkpt><trkpt lat="45.49966096842087" lon="7.820635982904345"><ele>318.0</ele><time>2026-04-11T16:30:57.986Z</time></trkpt><trkpt lat="45.49970840482654" lon="7.820707181665497"><ele>318.0</ele><time>2026-04-11T16:30:58.986Z</time></trkpt><trkpt lat="45.49978018440813" lon="7.820751206754707"><ele>318.0</ele><time>2026-04-11T16:30:59.986Z</time></trkpt><trkpt lat="45.49984603043274" lon="7.8208375351842285"><ele>318.0</ele><time>2026-04-11T16:31:00.986Z</time></trkpt><trkpt lat="45.499890049244186" lon="7.820920663452272"><ele>318.0</ele><time>2026-04-11T16:31:01.986Z</time></trkpt><trkpt lat="45.499937078864434" lon="7.820990913685144"><ele>318.0</ele><time>2026-04-11T16:31:02.986Z</time></trkpt><trkpt lat="45.500008780908686" lon="7.821068147887818"><ele>318.0</ele><time>2026-04-11T16:31:05.986Z</time></trkpt><trkpt lat="45.50005449325295" lon="7.821172208773812"><ele>316.57142857142856</ele><time>2026-04-11T16:31:10.983Z</time></trkpt><trkpt lat="45.50010289583007" lon="7.821243549263443"><ele>315.14285714285717</ele><time>2026-04-11T16:31:12.983Z</time></trkpt><trkpt lat="45.50017445603229" lon="7.8213089315865885"><ele>313.7142857142857</ele><time>2026-04-11T16:31:15.983Z</time></trkpt><trkpt lat="45.50022828887087" lon="7.821355700170788"><ele>312.2857142857143</ele><time>2026-04-11T16:31:18.983Z</time></trkpt><trkpt lat="45.50026692413802" lon="7.821430927903527"><ele>310.8571428571429</ele><time>2026-04-11T16:31:21.983Z</time></trkpt><trkpt lat="45.50026739100588" lon="7.821526668942309"><ele>309.42857142857144</ele><time>2026-04-11T16:31:29.983Z</time></trkpt><trkpt lat="45.50023652147888" lon="7.821648197273843"><ele>308.0</ele><time>2026-04-11T16:31:32.983Z</time></trkpt><trkpt lat="45.50021606398983" lon="7.8217579755476585"><ele>306.33333333333337</ele><time>2026-04-11T16:31:34.983Z</time></trkpt><trkpt lat="45.50028360222278" lon="7.821877287375815"><ele>304.6666666666667</ele><time>2026-04-11T16:31:37.983Z</time></trkpt><trkpt lat="45.50034875682258" lon="7.821897692164555"><ele>303.0</ele><time>2026-04-11T16:31:38.983Z</time></trkpt><trkpt lat="45.50041626722948" lon="7.821935152749638"><ele>301.3333333333333</ele><time>2026-04-11T16:31:39.983Z</time></trkpt><trkpt lat="45.500502050979634" lon="7.821983148454455"><ele>299.66666666666663</ele><time>2026-04-11T16:31:40.983Z</time></trkpt><trkpt lat="45.50057618160514" lon="7.822014914359978"><ele>298.0</ele><time>2026-04-11T16:31:41.983Z</time></trkpt><trkpt lat="45.50067936445787" lon="7.822074104116367"><ele>297.2</ele><time>2026-04-11T16:31:43.983Z</time></trkpt><trkpt lat="45.50074295984995" lon="7.822078900301352"><ele>296.4</ele><time>2026-04-11T16:31:44.984Z</time></trkpt><trkpt lat="45.50081017678435" lon="7.8221383278561865"><ele>295.59999999999997</ele><time>2026-04-11T16:31:45.984Z</time></trkpt><trkpt lat="45.50089213369673" lon="7.82217890560593"><ele>294.8</ele><time>2026-04-11T16:31:46.984Z</time></trkpt><trkpt lat="45.500972615070516" lon="7.822215951844727"><ele>294.0</ele><time>2026-04-11T16:31:47.984Z</time></trkpt><trkpt lat="45.50120366096475" lon="7.82222945504899"><ele>293.59999999999997</ele><time>2026-04-11T16:31:50.984Z</time></trkpt><trkpt lat="45.50126582336713" lon="7.822280048453795"><ele>293.2</ele><time>2026-04-11T16:31:51.984Z</time></trkpt><trkpt lat="45.50132459147391" lon="7.822382527259427"><ele>292.79999999999995</ele><time>2026-04-11T16:31:53.984Z</time></trkpt><trkpt lat="45.50136233043793" lon="7.822485848471219"><ele>292.4</ele><time>2026-04-11T16:31:55.984Z</time></trkpt><trkpt lat="45.5014544487985" lon="7.822597580617903"><ele>292.0</ele><time>2026-04-11T16:31:58.984Z</time></trkpt><trkpt lat="45.50147001111163" lon="7.8227512312784375"><ele>290.3333333333333</ele><time>2026-04-11T16:32:00.984Z</time></trkpt><trkpt lat="45.501465692479776" lon="7.822857140477818"><ele>288.66666666666663</ele><time>2026-04-11T16:32:02.984Z</time></trkpt><trkpt lat="45.50144254262324" lon="7.823000469279208"><ele>287.0</ele><time>2026-04-11T16:32:04.984Z</time></trkpt><trkpt lat="45.501420353984706" lon="7.823093618373319"><ele>285.3333333333333</ele><time>2026-04-11T16:32:05.984Z</time></trkpt><trkpt lat="45.501427135096556" lon="7.823192193758239"><ele>283.6666666666667</ele><time>2026-04-11T16:32:06.984Z</time></trkpt><trkpt lat="45.50139692633794" lon="7.823316442308409"><ele>282.0</ele><time>2026-04-11T16:32:08.984Z</time></trkpt><trkpt lat="45.50132646912332" lon="7.823356938826367"><ele>281.0</ele><time>2026-04-11T16:32:10.984Z</time></trkpt><trkpt lat="45.5012462175781" lon="7.823487988535927"><ele>280.0</ele><time>2026-04-11T16:32:12.984Z</time></trkpt><trkpt lat="45.50118684870877" lon="7.823520333530112"><ele>279.0</ele><time>2026-04-11T16:32:13.984Z</time></trkpt><trkpt lat="45.5011148290123" lon="7.823613954289084"><ele>278.0</ele><time>2026-04-11T16:32:14.984Z</time></trkpt><trkpt lat="45.501049580281354" lon="7.823717039541474"><ele>277.0</ele><time>2026-04-11T16:32:15.984Z</time></trkpt><trkpt lat="45.50099097443646" lon="7.8238034692462035"><ele>277.0</ele><time>2026-04-11T16:32:16.984Z</time></trkpt><trkpt lat="45.50092937660726" lon="7.823877423943226"><ele>277.0</ele><time>2026-04-11T16:32:17.984Z</time></trkpt><trkpt lat="45.500880635192864" lon="7.823935231058888"><ele>277.0</ele><time>2026-04-11T16:32:18.984Z</time></trkpt><trkpt lat="45.50078225849437" lon="7.824012262634669"><ele>277.0</ele><time>2026-04-11T16:32:20.984Z</time></trkpt><trkpt lat="45.500707918970555" lon="7.824047595889948"><ele>277.0</ele><time>2026-04-11T16:32:21.984Z</time></trkpt><trkpt lat="45.50058929099156" lon="7.824141790716651"><ele>277.0</ele><time>2026-04-11T16:32:23.984Z</time></trkpt><trkpt lat="45.5005001629973" lon="7.824220393613006"><ele>277.0</ele><time>2026-04-11T16:32:24.984Z</time></trkpt><trkpt lat="45.50040999762528" lon="7.82428315624626"><ele>277.0</ele><time>2026-04-11T16:32:25.984Z</time></trkpt><trkpt lat="45.50034632952187" lon="7.824349510353535"><ele>277.0</ele><time>2026-04-11T16:32:26.984Z</time></trkpt><trkpt lat="45.50028426617761" lon="7.8244108643272385"><ele>277.0</ele><time>2026-04-11T16:32:27.984Z</time></trkpt><trkpt lat="45.5001694944093" lon="7.8245012657890225"><ele>276.2</ele><time>2026-04-11T16:32:29.984Z</time></trkpt><trkpt lat="45.50007546039547" lon="7.8245570472102175"><ele>275.4</ele><time>2026-04-11T16:32:30.985Z</time></trkpt><trkpt lat="45.49999868929952" lon="7.82456609169192"><ele>274.6</ele><time>2026-04-11T16:32:31.985Z</time></trkpt><trkpt lat="45.499888534094474" lon="7.824545424520849"><ele>273.8</ele><time>2026-04-11T16:32:33.985Z</time></trkpt><trkpt lat="45.49978962376962" lon="7.824621303026365"><ele>273.0</ele><time>2026-04-11T16:32:35.985Z</time></trkpt><trkpt lat="45.49973803046403" lon="7.824762764543336"><ele>273.0</ele><time>2026-04-11T16:32:37.985Z</time></trkpt><trkpt lat="45.49971180630579" lon="7.824870656622726"><ele>273.0</ele><time>2026-04-11T16:32:38.985Z</time></trkpt><trkpt lat="45.499735415760135" lon="7.82496764360379"><ele>273.0</ele><time>2026-04-11T16:32:39.985Z</time></trkpt><trkpt lat="45.49977114947113" lon="7.825048598174155"><ele>273.0</ele><time>2026-04-11T16:32:40.985Z</time></trkpt><trkpt lat="45.499794729907094" lon="7.825162460612241"><ele>273.0</ele><time>2026-04-11T16:32:41.985Z</time></trkpt><trkpt lat="45.49981685447881" lon="7.8253085876245345"><ele>273.0</ele><time>2026-04-11T16:32:42.985Z</time></trkpt><trkpt lat="45.49981976237831" lon="7.825441796083633"><ele>272.1666666666667</ele><time>2026-04-11T16:32:43.985Z</time></trkpt><trkpt lat="45.499799818638245" lon="7.825562258380776"><ele>271.3333333333333</ele><time>2026-04-11T16:32:44.985Z</time></trkpt><trkpt lat="45.499777760169636" lon="7.825669357675475"><ele>270.5</ele><time>2026-04-11T16:32:45.985Z</time></trkpt><trkpt lat="45.49975565249381" lon="7.825794644017873"><ele>269.66666666666663</ele><time>2026-04-11T16:32:46.985Z</time></trkpt><trkpt lat="45.49973437405481" lon="7.825906919411535"><ele>268.8333333333333</ele><time>2026-04-11T16:32:47.985Z</time></trkpt><trkpt lat="45.49973436252239" lon="7.826039445442132"><ele>268.0</ele><time>2026-04-11T16:32:48.985Z</time></trkpt><trkpt lat="45.49973097979708" lon="7.826169582608959"><ele>267.4</ele><time>2026-04-11T16:32:49.985Z</time></trkpt><trkpt lat="45.49973511876889" lon="7.826307979543269"><ele>266.8</ele><time>2026-04-11T16:32:50.985Z</time></trkpt><trkpt lat="45.49974388209469" lon="7.826447617735135"><ele>266.2</ele><time>2026-04-11T16:32:51.985Z</time></trkpt><trkpt lat="45.49975151020136" lon="7.826586774373776"><ele>265.6</ele><time>2026-04-11T16:32:52.985Z</time></trkpt><trkpt lat="45.499768774390006" lon="7.82673233509904"><ele>265.0</ele><time>2026-04-11T16:32:53.985Z</time></trkpt><trkpt lat="45.49979369134953" lon="7.826860895577333"><ele>264.5</ele><time>2026-04-11T16:32:54.985Z</time></trkpt><trkpt lat="45.49981744172" lon="7.826973942254446"><ele>264.0</ele><time>2026-04-11T16:32:55.985Z</time></trkpt><trkpt lat="45.49983654936244" lon="7.827079939736525"><ele>263.5</ele><time>2026-04-11T16:32:56.985Z</time></trkpt><trkpt lat="45.49985548087915" lon="7.827182422668578"><ele>263.0</ele><time>2026-04-11T16:32:57.985Z</time></trkpt><trkpt lat="45.49986658625254" lon="7.827272792713292"><ele>262.5</ele><time>2026-04-11T16:32:58.985Z</time></trkpt><trkpt lat="45.49988230510987" lon="7.827362982821589"><ele>262.0</ele><time>2026-04-11T16:32:59.985Z</time></trkpt><trkpt lat="45.49992627666506" lon="7.827556939533924"><ele>261.66666666666663</ele><time>2026-04-11T16:33:01.985Z</time></trkpt><trkpt lat="45.49997909357924" lon="7.827735109017418"><ele>261.3333333333333</ele><time>2026-04-11T16:33:03.985Z</time></trkpt><trkpt lat="45.50001226218284" lon="7.827819023068597"><ele>261.0</ele><time>2026-04-11T16:33:04.985Z</time></trkpt><trkpt lat="45.500036279879765" lon="7.827913337663218"><ele>260.6666666666667</ele><time>2026-04-11T16:33:05.985Z</time></trkpt><trkpt lat="45.500062296774175" lon="7.828013467775289"><ele>260.33333333333337</ele><time>2026-04-11T16:33:06.985Z</time></trkpt><trkpt lat="45.500087442866" lon="7.828111107419216"><ele>260.0</ele><time>2026-04-11T16:33:07.985Z</time></trkpt><trkpt lat="45.50011173379716" lon="7.828208718756787"><ele>260.0</ele><time>2026-04-11T16:33:08.985Z</time></trkpt><trkpt lat="45.500146058456195" lon="7.8283026080066485"><ele>260.0</ele><time>2026-04-11T16:33:09.985Z</time></trkpt><trkpt lat="45.500180432444864" lon="7.828388710438567"><ele>260.0</ele><time>2026-04-11T16:33:10.985Z</time></trkpt><trkpt lat="45.500212094488376" lon="7.828475898470813"><ele>260.0</ele><time>2026-04-11T16:33:11.985Z</time></trkpt><trkpt lat="45.50025415033601" lon="7.8285779217369225"><ele>260.0</ele><time>2026-04-11T16:33:12.982Z</time></trkpt><trkpt lat="45.500277432519646" lon="7.828683391425687"><ele>260.0</ele><time>2026-04-11T16:33:13.982Z</time></trkpt><trkpt lat="45.50030664072014" lon="7.828798556763603"><ele>259.6666666666667</ele><time>2026-04-11T16:33:14.982Z</time></trkpt><trkpt lat="45.50033155298373" lon="7.828909033409633"><ele>259.33333333333337</ele><time>2026-04-11T16:33:15.982Z</time></trkpt><trkpt lat="45.50035858652879" lon="7.8290122996776015"><ele>259.0</ele><time>2026-04-11T16:33:16.981Z</time></trkpt><trkpt lat="45.5003826973588" lon="7.829105976750412"><ele>258.6666666666667</ele><time>2026-04-11T16:33:17.981Z</time></trkpt><trkpt lat="45.500423358010636" lon="7.829238851875881"><ele>258.3333333333333</ele><time>2026-04-11T16:33:19.982Z</time></trkpt><trkpt lat="45.500331530299846" lon="7.8293170789386695"><ele>258.0</ele><time>2026-04-11T16:33:50.983Z</time></trkpt><trkpt lat="45.50023282694869" lon="7.829288375991217"><ele>258.0</ele><time>2026-04-11T16:33:51.983Z</time></trkpt><trkpt lat="45.50013127862888" lon="7.829252722456779"><ele>258.0</ele><time>2026-04-11T16:33:52.983Z</time></trkpt><trkpt lat="45.50002614349134" lon="7.829228291970748"><ele>258.0</ele><time>2026-04-11T16:33:53.983Z</time></trkpt><trkpt lat="45.499949160602945" lon="7.829216929796262"><ele>258.0</ele><time>2026-04-11T16:33:54.983Z</time></trkpt><trkpt lat="45.49986928672723" lon="7.8291722319273"><ele>258.0</ele><time>2026-04-11T16:33:56.983Z</time></trkpt><trkpt lat="45.49976091197781" lon="7.8290858199920095"><ele>258.0</ele><time>2026-04-11T16:33:58.983Z</time></trkpt><trkpt lat="45.49967935084908" lon="7.829039509627069"><ele>258.0</ele><time>2026-04-11T16:33:59.983Z</time></trkpt><trkpt lat="45.49959104565855" lon="7.829026303731945"><ele>258.0</ele><time>2026-04-11T16:34:00.983Z</time></trkpt><trkpt lat="45.49951592619275" lon="7.829074728637"><ele>258.0</ele><time>2026-04-11T16:34:01.983Z</time></trkpt><trkpt lat="45.49946508494419" lon="7.829143172914721"><ele>258.0</ele><time>2026-04-11T16:34:02.983Z</time></trkpt><trkpt lat="45.49941281938292" lon="7.829232913380559"><ele>258.0</ele><time>2026-04-11T16:34:03.983Z</time></trkpt><trkpt lat="45.49941151317457" lon="7.829329315072331"><ele>258.0</ele><time>2026-04-11T16:34:04.983Z</time></trkpt><trkpt lat="45.49943034075513" lon="7.8294452585601055"><ele>258.0</ele><time>2026-04-11T16:34:05.983Z</time></trkpt><trkpt lat="45.49947204993543" lon="7.829554282140099"><ele>258.0</ele><time>2026-04-11T16:34:06.983Z</time></trkpt><trkpt lat="45.49952997432556" lon="7.8296546212168625"><ele>258.0</ele><time>2026-04-11T16:34:07.983Z</time></trkpt><trkpt lat="45.499625242627516" lon="7.829733685135626"><ele>258.0</ele><time>2026-04-11T16:34:08.983Z</time></trkpt><trkpt lat="45.49975226930349" lon="7.829810777060401"><ele>258.0</ele><time>2026-04-11T16:34:09.983Z</time></trkpt><trkpt lat="45.49985309590569" lon="7.829928495947746"><ele>258.0</ele><time>2026-04-11T16:34:10.983Z</time></trkpt><trkpt lat="45.49994923039119" lon="7.83009431337329"><ele>258.0</ele><time>2026-04-11T16:34:11.983Z</time></trkpt><trkpt lat="45.500028029550755" lon="7.8302797199271215"><ele>258.0</ele><time>2026-04-11T16:34:12.983Z</time></trkpt><trkpt lat="45.5001063388687" lon="7.830475130634727"><ele>257.3333333333333</ele><time>2026-04-11T16:34:13.983Z</time></trkpt><trkpt lat="45.50019241674797" lon="7.830666492612152"><ele>256.66666666666663</ele><time>2026-04-11T16:34:14.983Z</time></trkpt><trkpt lat="45.50028071948429" lon="7.830854866297987"><ele>256.0</ele><time>2026-04-11T16:34:15.983Z</time></trkpt><trkpt lat="45.50036342634896" lon="7.831037721506336"><ele>255.33333333333331</ele><time>2026-04-11T16:34:16.983Z</time></trkpt><trkpt lat="45.500456505765214" lon="7.831226399258769"><ele>254.66666666666669</ele><time>2026-04-11T16:34:17.983Z</time></trkpt><trkpt lat="45.500537637749076" lon="7.831407094104273"><ele>254.0</ele><time>2026-04-11T16:34:18.983Z</time></trkpt><trkpt lat="45.50060994052115" lon="7.831579124136777"><ele>254.0</ele><time>2026-04-11T16:34:19.983Z</time></trkpt><trkpt lat="45.50068123206266" lon="7.831748077116435"><ele>254.0</ele><time>2026-04-11T16:34:20.983Z</time></trkpt><trkpt lat="45.50076996912502" lon="7.83191825370627"><ele>254.0</ele><time>2026-04-11T16:34:21.983Z</time></trkpt><trkpt lat="45.500839565435776" lon="7.832079908895512"><ele>254.0</ele><time>2026-04-11T16:34:22.983Z</time></trkpt><trkpt lat="45.50091295229891" lon="7.832259302031439"><ele>253.33333333333334</ele><time>2026-04-11T16:34:23.983Z</time></trkpt><trkpt lat="45.50099240169797" lon="7.83244158550026"><ele>252.66666666666669</ele><time>2026-04-11T16:34:24.983Z</time></trkpt><trkpt lat="45.501081899392375" lon="7.832618191845157"><ele>252.0</ele><time>2026-04-11T16:34:25.983Z</time></trkpt><trkpt lat="45.50117495069125" lon="7.832791283679315"><ele>251.75</ele><time>2026-04-11T16:34:26.983Z</time></trkpt><trkpt lat="45.50126817428739" lon="7.832959134040217"><ele>251.5</ele><time>2026-04-11T16:34:27.983Z</time></trkpt><trkpt lat="45.5013721454939" lon="7.833104300318034"><ele>251.25</ele><time>2026-04-11T16:34:28.983Z</time></trkpt><trkpt lat="45.50147399250578" lon="7.83324039484737"><ele>251.0</ele><time>2026-04-11T16:34:29.983Z</time></trkpt><trkpt lat="45.50157932614758" lon="7.83337383698593"><ele>251.25</ele><time>2026-04-11T16:34:30.983Z</time></trkpt><trkpt lat="45.50168918778901" lon="7.833497940845807"><ele>251.5</ele><time>2026-04-11T16:34:31.983Z</time></trkpt><trkpt lat="45.50179885417597" lon="7.83361613287209"><ele>251.75</ele><time>2026-04-11T16:34:32.983Z</time></trkpt><trkpt lat="45.501908108681995" lon="7.833729458569273"><ele>252.0</ele><time>2026-04-11T16:34:33.983Z</time></trkpt><trkpt lat="45.50202974745556" lon="7.833831430655836"><ele>251.5</ele><time>2026-04-11T16:34:34.984Z</time></trkpt><trkpt lat="45.50214271924" lon="7.83393534965082"><ele>251.0</ele><time>2026-04-11T16:34:35.984Z</time></trkpt><trkpt lat="45.50225832539795" lon="7.834034601249167"><ele>250.5</ele><time>2026-04-11T16:34:36.984Z</time></trkpt><trkpt lat="45.50237177521835" lon="7.8341395804825975"><ele>250.0</ele><time>2026-04-11T16:34:37.984Z</time></trkpt><trkpt lat="45.5024901640181" lon="7.834254661374529"><ele>250.0</ele><time>2026-04-11T16:34:38.984Z</time></trkpt><trkpt lat="45.502621143186104" lon="7.834366629095237"><ele>250.0</ele><time>2026-04-11T16:34:39.984Z</time></trkpt><trkpt lat="45.502735242859934" lon="7.834467369839466"><ele>250.0</ele><time>2026-04-11T16:34:40.984Z</time></trkpt><trkpt lat="45.502846053954514" lon="7.8345655699335675"><ele>250.0</ele><time>2026-04-11T16:34:41.984Z</time></trkpt><trkpt lat="45.50295790743638" lon="7.834667692939515"><ele>250.0</ele><time>2026-04-11T16:34:42.984Z</time></trkpt><trkpt lat="45.50307877851875" lon="7.834770673738752"><ele>250.0</ele><time>2026-04-11T16:34:43.984Z</time></trkpt><trkpt lat="45.503212203809206" lon="7.834875734031347"><ele>250.0</ele><time>2026-04-11T16:34:44.984Z</time></trkpt><trkpt lat="45.50334973296922" lon="7.8349674321750005"><ele>250.0</ele><time>2026-04-11T16:34:45.984Z</time></trkpt><trkpt lat="45.503490738096936" lon="7.8350449297569975"><ele>250.0</ele><time>2026-04-11T16:34:46.984Z</time></trkpt><trkpt lat="45.50363580999712" lon="7.835111379074271"><ele>250.0</ele><time>2026-04-11T16:34:47.984Z</time></trkpt><trkpt lat="45.50377310901675" lon="7.835174480959279"><ele>250.0</ele><time>2026-04-11T16:34:48.984Z</time></trkpt><trkpt lat="45.503910688147826" lon="7.8352311038429745"><ele>250.0</ele><time>2026-04-11T16:34:49.984Z</time></trkpt><trkpt lat="45.50405019125967" lon="7.835284528631996"><ele>249.75</ele><time>2026-04-11T16:34:50.984Z</time></trkpt><trkpt lat="45.504195381250895" lon="7.83534234240139"><ele>249.5</ele><time>2026-04-11T16:34:51.984Z</time></trkpt><trkpt lat="45.504349162159116" lon="7.835389809900971"><ele>249.25</ele><time>2026-04-11T16:34:52.984Z</time></trkpt><trkpt lat="45.504349162159116" lon="7.835389809900971"><ele>249.0</ele><time>2026-04-11T16:34:52.984Z</time></trkpt><trkpt lat="45.50622844971579" lon="7.835940441941768"><ele>249.5</ele><time>2026-04-11T16:36:00.981Z</time></trkpt><trkpt lat="45.506156696152956" lon="7.835880432636617"><ele>250.0</ele><time>2026-04-11T16:38:56.982Z</time></trkpt><trkpt lat="45.506110110601384" lon="7.835555934445098"><ele>250.5</ele><time>2026-04-11T16:38:57.982Z</time></trkpt><trkpt lat="45.50603041098375" lon="7.835548448275748"><ele>251.0</ele><time>2026-04-11T16:38:58.982Z</time></trkpt><trkpt lat="45.505875455649814" lon="7.835521143637403"><ele>251.0</ele><time>2026-04-11T16:38:59.982Z</time></trkpt><trkpt lat="45.50572395387101" lon="7.835485312324517"><ele>251.0</ele><time>2026-04-11T16:39:00.982Z</time></trkpt><trkpt lat="45.50563319303718" lon="7.83545359528979"><ele>251.0</ele><time>2026-04-11T16:39:01.982Z</time></trkpt><trkpt lat="45.505977217525356" lon="7.835543452391347"><ele>251.0</ele><time>2026-04-11T16:39:02.982Z</time></trkpt><trkpt lat="45.50589953763554" lon="7.83553615554424"><ele>251.0</ele><time>2026-04-11T16:39:05.982Z</time></trkpt><trkpt lat="45.4937715496853" lon="7.833972219752664"><ele>250.66666666666669</ele><time>2026-04-11T16:41:37.121Z</time></trkpt><trkpt lat="45.493682936502665" lon="7.834047177629396"><ele>250.33333333333334</ele><time>2026-04-11T16:41:38.118Z</time></trkpt><trkpt lat="45.49360845801275" lon="7.834076797933983"><ele>250.0</ele><time>2026-04-11T16:41:39.121Z</time></trkpt><trkpt lat="45.49353944810809" lon="7.834096518777314"><ele>249.66666666666669</ele><time>2026-04-11T16:41:40.115Z</time></trkpt><trkpt lat="45.493472335720455" lon="7.834111691850245"><ele>249.33333333333334</ele><time>2026-04-11T16:41:41.116Z</time></trkpt><trkpt lat="45.49340510019586" lon="7.834124288232726"><ele>249.0</ele><time>2026-04-11T16:41:42.116Z</time></trkpt><trkpt lat="45.4933373830103" lon="7.834134135773839"><ele>249.0</ele><time>2026-04-11T16:41:43.12Z</time></trkpt><trkpt lat="45.49327237171846" lon="7.834144276921513"><ele>249.0</ele><time>2026-04-11T16:41:44.116Z</time></trkpt><trkpt lat="45.491488183263826" lon="7.83146616495596"><ele>248.33333333333331</ele><time>2026-04-11T16:42:06.339Z</time></trkpt><trkpt lat="45.49157353377896" lon="7.831527816181293"><ele>247.66666666666666</ele><time>2026-04-11T16:42:26.915Z</time></trkpt><trkpt lat="45.49139385058667" lon="7.831593033336654"><ele>247.0</ele><time>2026-04-11T16:42:38.015Z</time></trkpt><trkpt lat="45.462353976021" lon="7.8520414437637776"><ele>244.0</ele><time>2026-04-11T16:48:56.893Z</time></trkpt><trkpt lat="45.46184473564313" lon="7.852711499238781"><ele>244.0</ele><time>2026-04-11T16:49:04.973Z</time></trkpt><trkpt lat="45.461785733143856" lon="7.8527891343781"><ele>244.0</ele><time>2026-04-11T16:49:06.191Z</time></trkpt><trkpt lat="45.46194265239053" lon="7.853773761137262"><ele>244.33333333333331</ele><time>2026-04-11T16:49:12.607Z</time></trkpt><trkpt lat="45.46196851634928" lon="7.85392935127191"><ele>244.66666666666669</ele><time>2026-04-11T16:49:13.815Z</time></trkpt><trkpt lat="45.46182626267516" lon="7.853539786286931"><ele>245.0</ele><time>2026-04-11T16:49:19.82Z</time></trkpt><trkpt lat="45.46258204256714" lon="7.855704730682203"><ele>245.5</ele><time>2026-04-11T16:49:26.677Z</time></trkpt><trkpt lat="45.46267556728958" lon="7.855874495671957"><ele>246.0</ele><time>2026-04-11T16:49:27.878Z</time></trkpt><trkpt lat="45.462949608025774" lon="7.856371958873723"><ele>247.5</ele><time>2026-04-11T16:49:49.521Z</time></trkpt><trkpt lat="45.46309730591455" lon="7.856640049838887"><ele>249.0</ele><time>2026-04-11T16:49:55.929Z</time></trkpt><trkpt lat="45.46237760640118" lon="7.858383546266474"><ele>249.33333333333331</ele><time>2026-04-11T16:50:11.178Z</time></trkpt><trkpt lat="45.46228805147088" lon="7.858591787283685"><ele>249.66666666666666</ele><time>2026-04-11T16:50:12.387Z</time></trkpt><trkpt lat="45.46212247448723" lon="7.858743156738486"><ele>250.0</ele><time>2026-04-11T16:50:26.421Z</time></trkpt><trkpt lat="45.46046091667096" lon="7.860250083470484"><ele>249.0</ele><time>2026-04-11T16:50:27.634Z</time></trkpt><trkpt lat="45.460527824531994" lon="7.860285865957639"><ele>248.0</ele><time>2026-04-11T16:50:33.652Z</time></trkpt><trkpt lat="45.46071458967073" lon="7.860821738875283"><ele>248.0</ele><time>2026-04-11T16:50:37.529Z</time></trkpt><trkpt lat="45.460952135335354" lon="7.860812393811428"><ele>248.0</ele><time>2026-04-11T16:50:40.256Z</time></trkpt><trkpt lat="45.461605146231165" lon="7.8605891898037115"><ele>247.00000000000003</ele><time>2026-04-11T16:50:41.206Z</time></trkpt><trkpt lat="45.461585626506924" lon="7.8607196801655865"><ele>246.0</ele><time>2026-04-11T16:50:42.156Z</time></trkpt><trkpt lat="45.46152557001975" lon="7.860822355485784"><ele>245.0</ele><time>2026-04-11T16:50:43.106Z</time></trkpt><trkpt lat="45.46150466261615" lon="7.860914615775359"><ele>244.0</ele><time>2026-04-11T16:50:44.056Z</time></trkpt><trkpt lat="45.46151402891656" lon="7.861060130394592"><ele>243.00000000000003</ele><time>2026-04-11T16:50:45.977Z</time></trkpt><trkpt lat="45.46149641633161" lon="7.861156958038142"><ele>242.0</ele><time>2026-04-11T16:50:46.977Z</time></trkpt><trkpt lat="45.46148670997549" lon="7.861247412536245"><ele>241.8</ele><time>2026-04-11T16:50:47.977Z</time></trkpt><trkpt lat="45.46144125634783" lon="7.861411894515297"><ele>241.6</ele><time>2026-04-11T16:50:49.977Z</time></trkpt><trkpt lat="45.46141406744932" lon="7.861493531241642"><ele>241.40000000000003</ele><time>2026-04-11T16:50:50.977Z</time></trkpt><trkpt lat="45.46137579375087" lon="7.86164664222045"><ele>241.20000000000002</ele><time>2026-04-11T16:50:52.977Z</time></trkpt><trkpt lat="45.46132538937436" lon="7.861807939824931"><ele>241.0</ele><time>2026-04-11T16:50:54.977Z</time></trkpt><trkpt lat="45.46129108686136" lon="7.861901737739283"><ele>241.83333333333331</ele><time>2026-04-11T16:50:55.976Z</time></trkpt><trkpt lat="45.46125119305593" lon="7.861980012287142"><ele>242.66666666666666</ele><time>2026-04-11T16:50:56.976Z</time></trkpt><trkpt lat="45.461209897602835" lon="7.862058671694298"><ele>243.5</ele><time>2026-04-11T16:50:57.976Z</time></trkpt><trkpt lat="45.4611670066974" lon="7.862136725909408"><ele>244.33333333333331</ele><time>2026-04-11T16:50:58.977Z</time></trkpt><trkpt lat="45.46111812055161" lon="7.862210799477825"><ele>245.16666666666666</ele><time>2026-04-11T16:50:59.977Z</time></trkpt><trkpt lat="45.46103069896096" lon="7.862283834978723"><ele>246.0</ele><time>2026-04-11T16:51:00.977Z</time></trkpt><trkpt lat="45.46097748991093" lon="7.862359663620648"><ele>246.0</ele><time>2026-04-11T16:51:01.977Z</time></trkpt><trkpt lat="45.46093910403586" lon="7.862437544227655"><ele>246.00000000000003</ele><time>2026-04-11T16:51:03.977Z</time></trkpt><trkpt lat="45.46093172069697" lon="7.862560198470441"><ele>246.00000000000003</ele><time>2026-04-11T16:51:05.977Z</time></trkpt><trkpt lat="45.46091016757739" lon="7.862738852540948"><ele>246.0</ele><time>2026-04-11T16:51:07.977Z</time></trkpt><trkpt lat="45.46088870579653" lon="7.8628937046901415"><ele>246.0</ele><time>2026-04-11T16:51:08.977Z</time></trkpt><trkpt lat="45.4608854198056" lon="7.863041973864776"><ele>247.16666666666666</ele><time>2026-04-11T16:51:09.977Z</time></trkpt><trkpt lat="45.46088609739715" lon="7.863162785202014"><ele>248.33333333333331</ele><time>2026-04-11T16:51:10.977Z</time></trkpt><trkpt lat="45.46088829375219" lon="7.863280233910826"><ele>249.5</ele><time>2026-04-11T16:51:11.977Z</time></trkpt><trkpt lat="45.46088784259578" lon="7.863394686968561"><ele>250.66666666666666</ele><time>2026-04-11T16:51:12.977Z</time></trkpt><trkpt lat="45.46089126705968" lon="7.863508242499516"><ele>251.83333333333331</ele><time>2026-04-11T16:51:13.977Z</time></trkpt><trkpt lat="45.4608991015119" lon="7.863612136584576"><ele>253.0</ele><time>2026-04-11T16:51:14.977Z</time></trkpt><trkpt lat="45.460903465533804" lon="7.863712853531527"><ele>250.25</ele><time>2026-04-11T16:51:15.977Z</time></trkpt><trkpt lat="45.460914141399" lon="7.8638322189755305"><ele>247.5</ele><time>2026-04-11T16:51:16.977Z</time></trkpt><trkpt lat="45.46091031109622" lon="7.863953750432969"><ele>244.75</ele><time>2026-04-11T16:51:18.116Z</time></trkpt><trkpt lat="45.46093233302495" lon="7.864038112918437"><ele>242.0</ele><time>2026-04-11T16:51:19.115Z</time></trkpt><trkpt lat="45.46430140332345" lon="7.8691780636317805"><ele>242.0</ele><time>2026-04-11T16:52:05.264Z</time></trkpt><trkpt lat="45.463844584709435" lon="7.868975733155147"><ele>242.0</ele><time>2026-04-11T16:52:15.836Z</time></trkpt><trkpt lat="45.463649444388686" lon="7.868881370214002"><ele>242.0</ele><time>2026-04-11T16:52:22.269Z</time></trkpt><trkpt lat="45.463524711367064" lon="7.868723276887416"><ele>242.0</ele><time>2026-04-11T16:52:23.481Z</time></trkpt><trkpt lat="45.46411170476553" lon="7.869105316979337"><ele>245.5</ele><time>2026-04-11T16:52:29.904Z</time></trkpt><trkpt lat="45.4642972777705" lon="7.869665755598729"><ele>249.0</ele><time>2026-04-11T16:52:35.916Z</time></trkpt><trkpt lat="45.4644824644005" lon="7.8695715131130735"><ele>244.0</ele><time>2026-04-11T16:52:37.703Z</time></trkpt><trkpt lat="45.46506744100899" lon="7.8695576131979355"><ele>244.0</ele><time>2026-04-11T16:52:44.139Z</time></trkpt><trkpt lat="45.465112280808086" lon="7.869912131980285"><ele>244.0</ele><time>2026-04-11T16:54:07.589Z</time></trkpt><trkpt lat="45.46501462882082" lon="7.870036756621194"><ele>244.0</ele><time>2026-04-11T16:54:23.707Z</time></trkpt><trkpt lat="45.46446580429545" lon="7.87070191113825"><ele>246.33333333333331</ele><time>2026-04-11T16:54:31.712Z</time></trkpt><trkpt lat="45.46445595754107" lon="7.870860690410744"><ele>248.66666666666669</ele><time>2026-04-11T16:54:33.309Z</time></trkpt><trkpt lat="45.46439094082218" lon="7.871054425351499"><ele>251.0</ele><time>2026-04-11T16:54:39.743Z</time></trkpt><trkpt lat="45.46412047608534" lon="7.871269435332472"><ele>259.0</ele><time>2026-04-11T16:54:46.183Z</time></trkpt><trkpt lat="45.46376552642093" lon="7.8717531926418935"><ele>254.0</ele><time>2026-04-11T16:54:52.635Z</time></trkpt><trkpt lat="45.4635522978189" lon="7.872268628872926"><ele>249.0</ele><time>2026-04-11T16:54:58.65Z</time></trkpt><trkpt lat="45.463144763197676" lon="7.872789033395048"><ele>248.0</ele><time>2026-04-11T16:55:05.238Z</time></trkpt><trkpt lat="45.462965784905805" lon="7.872910659548776"><ele>247.0</ele><time>2026-04-11T16:55:11.725Z</time></trkpt><trkpt lat="45.46307305686833" lon="7.873436094101644"><ele>247.66666666666666</ele><time>2026-04-11T16:55:17.739Z</time></trkpt><trkpt lat="45.46291809416356" lon="7.873693878716864"><ele>248.33333333333331</ele><time>2026-04-11T16:55:24.619Z</time></trkpt><trkpt lat="45.4628587100684" lon="7.873953760056214"><ele>249.0</ele><time>2026-04-11T16:55:31.126Z</time></trkpt><trkpt lat="45.46294356296062" lon="7.874556005273649"><ele>236.0</ele><time>2026-04-11T16:55:37.157Z</time></trkpt><trkpt lat="45.46319394171031" lon="7.875712340337425"><ele>237.0</ele><time>2026-04-11T16:55:43.675Z</time></trkpt><trkpt lat="45.46294889707053" lon="7.876797020026936"><ele>237.0</ele><time>2026-04-11T16:55:50.156Z</time></trkpt><trkpt lat="45.46291772271308" lon="7.8769104075583485"><ele>237.0</ele><time>2026-04-11T16:55:52.247Z</time></trkpt><trkpt lat="45.46242508036624" lon="7.877750411652945"><ele>236.5</ele><time>2026-04-11T16:55:57.879Z</time></trkpt><trkpt lat="45.46231480818443" lon="7.877967293530542"><ele>236.0</ele><time>2026-04-11T16:55:59.123Z</time></trkpt><trkpt lat="45.46173213289863" lon="7.879138108333127"><ele>238.5</ele><time>2026-04-11T16:56:04.343Z</time></trkpt><trkpt lat="45.461681897724844" lon="7.879241206529332"><ele>241.0</ele><time>2026-04-11T16:56:06.338Z</time></trkpt><trkpt lat="45.46189792028161" lon="7.88023808111457"><ele>241.0</ele><time>2026-04-11T16:56:10.806Z</time></trkpt><trkpt lat="45.46192301102351" lon="7.881096496521685"><ele>235.0</ele><time>2026-04-11T16:56:17.26Z</time></trkpt><trkpt lat="45.46180591162187" lon="7.88182438127648"><ele>235.0</ele><time>2026-04-11T16:56:23.272Z</time></trkpt><trkpt lat="45.46184574484221" lon="7.882107818613354"><ele>235.0</ele><time>2026-04-11T16:56:29.715Z</time></trkpt><trkpt lat="45.4616072254615" lon="7.885704797780843"><ele>233.5</ele><time>2026-04-11T16:56:53.119Z</time></trkpt><trkpt lat="45.46170316345821" lon="7.8859963649137645"><ele>232.0</ele><time>2026-04-11T16:57:00.116Z</time></trkpt><trkpt lat="45.461753238360274" lon="7.886081219674662"><ele>230.5</ele><time>2026-04-11T16:57:01.112Z</time></trkpt><trkpt lat="45.461804073526416" lon="7.886169157756291"><ele>229.0</ele><time>2026-04-11T16:57:02.117Z</time></trkpt><trkpt lat="45.461853793761314" lon="7.886259240316709"><ele>231.0</ele><time>2026-04-11T16:57:03.117Z</time></trkpt><trkpt lat="45.46220261404341" lon="7.886860775969896"><ele>231.0</ele><time>2026-04-11T16:57:11.926Z</time></trkpt><trkpt lat="45.46239398320262" lon="7.887219478436439"><ele>231.0</ele><time>2026-04-11T16:57:20.574Z</time></trkpt><trkpt lat="45.46002326694241" lon="7.886346355919691"><ele>231.0</ele><time>2026-04-11T16:57:26.986Z</time></trkpt><trkpt lat="45.46001147876912" lon="7.886583193601742"><ele>231.0</ele><time>2026-04-11T16:57:27.986Z</time></trkpt><trkpt lat="45.459947918150256" lon="7.886727544452893"><ele>231.0</ele><time>2026-04-11T16:57:28.986Z</time></trkpt><trkpt lat="45.45986976386804" lon="7.886870467249988"><ele>231.0</ele><time>2026-04-11T16:57:29.986Z</time></trkpt><trkpt lat="45.45979667511979" lon="7.887021135493626"><ele>231.0</ele><time>2026-04-11T16:57:30.986Z</time></trkpt><trkpt lat="45.459717160205976" lon="7.88719564883498"><ele>231.0</ele><time>2026-04-11T16:57:32.117Z</time></trkpt><trkpt lat="45.45964785059796" lon="7.887349959838959"><ele>231.0</ele><time>2026-04-11T16:57:33.118Z</time></trkpt><trkpt lat="45.45904193714483" lon="7.8867301193786306"><ele>231.0</ele><time>2026-04-11T16:57:36.975Z</time></trkpt><trkpt lat="45.458929238981604" lon="7.8866914725881765"><ele>231.0</ele><time>2026-04-11T16:57:37.975Z</time></trkpt><trkpt lat="45.45881733088131" lon="7.88661275021573"><ele>231.0</ele><time>2026-04-11T16:57:38.975Z</time></trkpt><trkpt lat="45.458710904100904" lon="7.886532450402597"><ele>231.0</ele><time>2026-04-11T16:57:39.975Z</time></trkpt><trkpt lat="45.4585578433752" lon="7.886442591551618"><ele>231.25</ele><time>2026-04-11T16:57:40.975Z</time></trkpt><trkpt lat="45.45844765876765" lon="7.886342262668491"><ele>231.5</ele><time>2026-04-11T16:57:41.975Z</time></trkpt><trkpt lat="45.45835205879369" lon="7.886226703003"><ele>231.75</ele><time>2026-04-11T16:57:42.975Z</time></trkpt><trkpt lat="45.45826613874788" lon="7.886089320963211"><ele>232.0</ele><time>2026-04-11T16:57:43.976Z</time></trkpt><trkpt lat="45.45814959905095" lon="7.885957812505582"><ele>231.0</ele><time>2026-04-11T16:57:45.112Z</time></trkpt><trkpt lat="45.45943865925929" lon="7.886227539734893"><ele>232.0</ele><time>2026-04-11T16:57:51.977Z</time></trkpt><trkpt lat="45.45939835643995" lon="7.885793520683089"><ele>233.0</ele><time>2026-04-11T16:57:54.978Z</time></trkpt><trkpt lat="45.46005172662579" lon="7.886043650882273"><ele>233.0</ele><time>2026-04-11T16:57:55.978Z</time></trkpt><trkpt lat="45.46016406503727" lon="7.886048846037275"><ele>233.0</ele><time>2026-04-11T16:57:56.978Z</time></trkpt><trkpt lat="45.46033269103296" lon="7.8860649572788875"><ele>233.0</ele><time>2026-04-11T16:57:57.978Z</time></trkpt><trkpt lat="45.46051678892195" lon="7.886108811052486"><ele>232.66666666666669</ele><time>2026-04-11T16:57:58.978Z</time></trkpt><trkpt lat="45.46068135755621" lon="7.886150839434265"><ele>232.33333333333331</ele><time>2026-04-11T16:57:59.978Z</time></trkpt><trkpt lat="45.460836043562395" lon="7.886190344167462"><ele>232.0</ele><time>2026-04-11T16:58:00.978Z</time></trkpt><trkpt lat="45.46099049562891" lon="7.88623010364386"><ele>229.0</ele><time>2026-04-11T16:58:01.979Z</time></trkpt><trkpt lat="45.46192985847876" lon="7.886491767806675"><ele>229.0</ele><time>2026-04-11T16:58:05.979Z</time></trkpt><trkpt lat="45.46211007378468" lon="7.88653899534202"><ele>229.0</ele><time>2026-04-11T16:58:06.979Z</time></trkpt><trkpt lat="45.46229597660911" lon="7.886592950363129"><ele>229.0</ele><time>2026-04-11T16:58:07.979Z</time></trkpt><trkpt lat="45.46247713723675" lon="7.886640888305907"><ele>233.0</ele><time>2026-04-11T16:58:08.979Z</time></trkpt><trkpt lat="45.4638628982238" lon="7.88779958234538"><ele>233.0</ele><time>2026-04-11T16:58:19.98Z</time></trkpt><trkpt lat="45.46380988199558" lon="7.887878736810639"><ele>233.0</ele><time>2026-04-11T16:58:21.98Z</time></trkpt><trkpt lat="45.46392904848441" lon="7.8879952793481785"><ele>233.0</ele><time>2026-04-11T16:58:22.98Z</time></trkpt><trkpt lat="45.46406023023234" lon="7.888094574486435"><ele>233.0</ele><time>2026-04-11T16:58:23.98Z</time></trkpt><trkpt lat="45.464207982922346" lon="7.8881807785380404"><ele>233.0</ele><time>2026-04-11T16:58:24.98Z</time></trkpt><trkpt lat="45.46432470893681" lon="7.888288373373567"><ele>233.0</ele><time>2026-04-11T16:58:25.98Z</time></trkpt><trkpt lat="45.46444774936784" lon="7.888388426334575"><ele>233.0</ele><time>2026-04-11T16:58:26.98Z</time></trkpt><trkpt lat="45.464597485558826" lon="7.888405803362168"><ele>233.0</ele><time>2026-04-11T16:58:27.98Z</time></trkpt><trkpt lat="45.46475591176453" lon="7.888457124938005"><ele>233.66666666666669</ele><time>2026-04-11T16:58:29.12Z</time></trkpt><trkpt lat="45.46477506814983" lon="7.888777713552656"><ele>234.33333333333331</ele><time>2026-04-11T16:58:30.121Z</time></trkpt><trkpt lat="45.4648870701358" lon="7.888876207211773"><ele>235.0</ele><time>2026-04-11T16:58:31.121Z</time></trkpt><trkpt lat="45.46498685181553" lon="7.888963957599024"><ele>236.0</ele><time>2026-04-11T16:58:31.98Z</time></trkpt><trkpt lat="45.4649561445079" lon="7.887127124813677"><ele>236.0</ele><time>2026-04-11T16:58:32.98Z</time></trkpt><trkpt lat="45.46501679094007" lon="7.8868200868169565"><ele>236.0</ele><time>2026-04-11T16:58:33.98Z</time></trkpt><trkpt lat="45.46511775451447" lon="7.886688956909667"><ele>236.0</ele><time>2026-04-11T16:58:34.98Z</time></trkpt><trkpt lat="45.465210924625794" lon="7.886671334539315"><ele>236.0</ele><time>2026-04-11T16:58:35.98Z</time></trkpt><trkpt lat="45.465264192476354" lon="7.886721762519082"><ele>236.00000000000003</ele><time>2026-04-11T16:58:37.98Z</time></trkpt><trkpt lat="45.46517814885903" lon="7.8868415955441495"><ele>236.00000000000003</ele><time>2026-04-11T16:58:38.981Z</time></trkpt><trkpt lat="45.46513527831483" lon="7.886962128445169"><ele>236.0</ele><time>2026-04-11T16:58:39.981Z</time></trkpt><trkpt lat="45.465088158738766" lon="7.887106225742108"><ele>236.0</ele><time>2026-04-11T16:58:40.981Z</time></trkpt><trkpt lat="45.465060180143524" lon="7.8872618130977505"><ele>236.0</ele><time>2026-04-11T16:58:41.981Z</time></trkpt><trkpt lat="45.464931785003394" lon="7.887740126256344"><ele>236.0</ele><time>2026-04-11T16:58:44.981Z</time></trkpt><trkpt lat="45.46489815089755" lon="7.88791363574482"><ele>236.0</ele><time>2026-04-11T16:58:45.981Z</time></trkpt><trkpt lat="45.464840450006704" lon="7.888074197956497"><ele>236.0</ele><time>2026-04-11T16:58:46.981Z</time></trkpt><trkpt lat="45.46478700067351" lon="7.88823425719999"><ele>236.0</ele><time>2026-04-11T16:58:47.981Z</time></trkpt><trkpt lat="45.46473685007824" lon="7.888388398434564"><ele>236.0</ele><time>2026-04-11T16:58:48.981Z</time></trkpt><trkpt lat="45.46468790844683" lon="7.888543339712989"><ele>235.5</ele><time>2026-04-11T16:58:49.981Z</time></trkpt><trkpt lat="45.46463211231045" lon="7.888719980103553"><ele>235.0</ele><time>2026-04-11T16:58:51.121Z</time></trkpt><trkpt lat="45.46432623086261" lon="7.888845474487884"><ele>234.75</ele><time>2026-04-11T16:58:53.981Z</time></trkpt><trkpt lat="45.4641610817986" lon="7.88893982197914"><ele>234.5</ele><time>2026-04-11T16:58:54.981Z</time></trkpt><trkpt lat="45.46409481434986" lon="7.889006476557574"><ele>234.25</ele><time>2026-04-11T16:58:55.981Z</time></trkpt><trkpt lat="45.463998477882186" lon="7.88909385788674"><ele>234.0</ele><time>2026-04-11T16:58:56.981Z</time></trkpt><trkpt lat="45.46391392371743" lon="7.889158743878389"><ele>233.5</ele><time>2026-04-11T16:58:57.981Z</time></trkpt><trkpt lat="45.46390959180485" lon="7.889276304792293"><ele>233.0</ele><time>2026-04-11T16:58:58.981Z</time></trkpt><trkpt lat="45.46399848011189" lon="7.8894872831725005"><ele>232.5</ele><time>2026-04-11T16:58:59.981Z</time></trkpt><trkpt lat="45.46400137492693" lon="7.889656035365367"><ele>232.0</ele><time>2026-04-11T16:59:00.981Z</time></trkpt><trkpt lat="45.464000179120376" lon="7.889828651711103"><ele>232.0</ele><time>2026-04-11T16:59:01.981Z</time></trkpt><trkpt lat="45.464006662923566" lon="7.890009168879638"><ele>232.0</ele><time>2026-04-11T16:59:02.981Z</time></trkpt><trkpt lat="45.464009246396074" lon="7.890194989831586"><ele>232.0</ele><time>2026-04-11T16:59:03.981Z</time></trkpt><trkpt lat="45.46401631323679" lon="7.890391709434449"><ele>232.0</ele><time>2026-04-11T16:59:04.981Z</time></trkpt><trkpt lat="45.46400032327852" lon="7.890563279563785"><ele>232.0</ele><time>2026-04-11T16:59:05.981Z</time></trkpt><trkpt lat="45.46398014046147" lon="7.890737369498101"><ele>232.0</ele><time>2026-04-11T16:59:06.981Z</time></trkpt><trkpt lat="45.46384776648398" lon="7.89080306879439"><ele>232.0</ele><time>2026-04-11T16:59:07.981Z</time></trkpt><trkpt lat="45.463774498600294" lon="7.8908800133455985"><ele>232.0</ele><time>2026-04-11T16:59:08.981Z</time></trkpt><trkpt lat="45.46369441334675" lon="7.890979111062633"><ele>232.0</ele><time>2026-04-11T16:59:09.981Z</time></trkpt><trkpt lat="45.46361027588385" lon="7.891083984417819"><ele>232.0</ele><time>2026-04-11T16:59:10.981Z</time></trkpt><trkpt lat="45.46351322426189" lon="7.891132338431124"><ele>232.0</ele><time>2026-04-11T16:59:11.981Z</time></trkpt><trkpt lat="45.46348004491448" lon="7.891251021766897"><ele>232.0</ele><time>2026-04-11T16:59:12.981Z</time></trkpt><trkpt lat="45.46346819875271" lon="7.891360269593519"><ele>232.0</ele><time>2026-04-11T16:59:13.981Z</time></trkpt><trkpt lat="45.46347749288837" lon="7.8914948219055665"><ele>232.0</ele><time>2026-04-11T16:59:14.981Z</time></trkpt><trkpt lat="45.46351606196444" lon="7.891684278484374"><ele>232.0</ele><time>2026-04-11T16:59:15.981Z</time></trkpt><trkpt lat="45.46357061919891" lon="7.891838019683823"><ele>232.0</ele><time>2026-04-11T16:59:16.982Z</time></trkpt><trkpt lat="45.463657254417065" lon="7.891949536646766"><ele>232.0</ele><time>2026-04-11T16:59:17.982Z</time></trkpt><trkpt lat="45.46371807598928" lon="7.892095994981157"><ele>232.0</ele><time>2026-04-11T16:59:18.982Z</time></trkpt><trkpt lat="45.46375940704725" lon="7.89229916420254"><ele>232.0</ele><time>2026-04-11T16:59:19.982Z</time></trkpt><trkpt lat="45.46377380224201" lon="7.892496798304521"><ele>232.0</ele><time>2026-04-11T16:59:20.982Z</time></trkpt><trkpt lat="45.46376556214285" lon="7.892690264609974"><ele>232.0</ele><time>2026-04-11T16:59:21.982Z</time></trkpt><trkpt lat="45.46373780845266" lon="7.892893246891935"><ele>232.0</ele><time>2026-04-11T16:59:22.982Z</time></trkpt><trkpt lat="45.46373293611986" lon="7.893079832496002"><ele>232.0</ele><time>2026-04-11T16:59:23.982Z</time></trkpt><trkpt lat="45.46368993710597" lon="7.89329202239331"><ele>232.0</ele><time>2026-04-11T16:59:24.982Z</time></trkpt><trkpt lat="45.46364903756139" lon="7.893490240570148"><ele>232.0</ele><time>2026-04-11T16:59:25.982Z</time></trkpt><trkpt lat="45.46361150706724" lon="7.893655032447207"><ele>231.99999999999997</ele><time>2026-04-11T16:59:26.982Z</time></trkpt><trkpt lat="45.463590164193164" lon="7.893774983910681"><ele>232.0</ele><time>2026-04-11T16:59:27.982Z</time></trkpt><trkpt lat="45.46359194896539" lon="7.893868814939116"><ele>232.0</ele><time>2026-04-11T16:59:29.982Z</time></trkpt><trkpt lat="45.46368449259278" lon="7.893850542525479"><ele>232.0</ele><time>2026-04-11T16:59:31.982Z</time></trkpt><trkpt lat="45.463776233306" lon="7.893838248961957"><ele>231.99999999999997</ele><time>2026-04-11T16:59:33.982Z</time></trkpt><trkpt lat="45.46383728753343" lon="7.8937713891308725"><ele>232.0</ele><time>2026-04-11T16:59:34.982Z</time></trkpt><trkpt lat="45.46394232445452" lon="7.893741015200539"><ele>232.0</ele><time>2026-04-11T16:59:36.982Z</time></trkpt><trkpt lat="45.46400122014735" lon="7.893887023582892"><ele>232.0</ele><time>2026-04-11T16:59:38.978Z</time></trkpt><trkpt lat="45.46400844191719" lon="7.894015179990236"><ele>232.0</ele><time>2026-04-11T16:59:39.978Z</time></trkpt><trkpt lat="45.46403002562295" lon="7.894159713752198"><ele>232.0</ele><time>2026-04-11T16:59:40.978Z</time></trkpt><trkpt lat="45.46406298218162" lon="7.894323393530603"><ele>232.0</ele><time>2026-04-11T16:59:41.979Z</time></trkpt><trkpt lat="45.464091853750475" lon="7.894494182240752"><ele>231.75</ele><time>2026-04-11T16:59:42.979Z</time></trkpt><trkpt lat="45.46412590071119" lon="7.894671173414867"><ele>231.5</ele><time>2026-04-11T16:59:43.979Z</time></trkpt><trkpt lat="45.464151521285814" lon="7.894856784006666"><ele>231.25</ele><time>2026-04-11T16:59:44.979Z</time></trkpt><trkpt lat="45.46418034196996" lon="7.89504900569958"><ele>231.0</ele><time>2026-04-11T16:59:45.979Z</time></trkpt><trkpt lat="45.46420928085003" lon="7.895245517610357"><ele>231.5</ele><time>2026-04-11T16:59:46.979Z</time></trkpt><trkpt lat="45.464236493295736" lon="7.89543911475556"><ele>232.0</ele><time>2026-04-11T16:59:47.978Z</time></trkpt><trkpt lat="45.464263150031826" lon="7.895629851388114"><ele>232.5</ele><time>2026-04-11T16:59:48.979Z</time></trkpt><trkpt lat="45.46429496853318" lon="7.895815819457114"><ele>233.0</ele><time>2026-04-11T16:59:49.978Z</time></trkpt><trkpt lat="45.46433919542165" lon="7.896000574204691"><ele>233.0</ele><time>2026-04-11T16:59:50.978Z</time></trkpt><trkpt lat="45.464367755763604" lon="7.896191859956951"><ele>233.0</ele><time>2026-04-11T16:59:51.978Z</time></trkpt><trkpt lat="45.46440306235641" lon="7.896391225046192"><ele>233.0</ele><time>2026-04-11T16:59:52.978Z</time></trkpt><trkpt lat="45.46441558466777" lon="7.896586549583"><ele>233.0</ele><time>2026-04-11T16:59:53.978Z</time></trkpt><trkpt lat="45.46444646873602" lon="7.896760287016495"><ele>232.66666666666669</ele><time>2026-04-11T16:59:54.978Z</time></trkpt><trkpt lat="45.464469658640624" lon="7.896904792085658"><ele>232.33333333333334</ele><time>2026-04-11T16:59:55.978Z</time></trkpt><trkpt lat="45.46448362215732" lon="7.897017206052168"><ele>232.0</ele><time>2026-04-11T16:59:56.978Z</time></trkpt><trkpt lat="45.46449576931598" lon="7.897114250152536"><ele>231.66666666666669</ele><time>2026-04-11T16:59:57.978Z</time></trkpt><trkpt lat="45.46442734884791" lon="7.897227004301335"><ele>231.33333333333334</ele><time>2026-04-11T16:59:59.979Z</time></trkpt><trkpt lat="45.464345528617436" lon="7.89726855306226"><ele>231.0</ele><time>2026-04-11T17:00:00.979Z</time></trkpt><trkpt lat="45.464256982417375" lon="7.89733476590409"><ele>231.0</ele><time>2026-04-11T17:00:01.979Z</time></trkpt><trkpt lat="45.46414424560119" lon="7.89741095308224"><ele>231.0</ele><time>2026-04-11T17:00:02.979Z</time></trkpt><trkpt lat="45.464028681909646" lon="7.89749950269903"><ele>231.0</ele><time>2026-04-11T17:00:03.979Z</time></trkpt><trkpt lat="45.46391903445474" lon="7.897574743830317"><ele>231.0</ele><time>2026-04-11T17:00:04.979Z</time></trkpt><trkpt lat="45.4637986272463" lon="7.897672022610926"><ele>231.5</ele><time>2026-04-11T17:00:05.979Z</time></trkpt><trkpt lat="45.46367359973507" lon="7.897767296929661"><ele>232.0</ele><time>2026-04-11T17:00:06.979Z</time></trkpt><trkpt lat="45.46354827572345" lon="7.8978659272534"><ele>232.5</ele><time>2026-04-11T17:00:07.979Z</time></trkpt><trkpt lat="45.463431094640356" lon="7.8979726821556575"><ele>233.0</ele><time>2026-04-11T17:00:08.979Z</time></trkpt><trkpt lat="45.46332028421606" lon="7.8980778121124375"><ele>233.00000000000003</ele><time>2026-04-11T17:00:09.979Z</time></trkpt><trkpt lat="45.463209987756464" lon="7.898163221750546"><ele>233.0</ele><time>2026-04-11T17:00:10.979Z</time></trkpt><trkpt lat="45.46314349108453" lon="7.898202143000794"><ele>233.0</ele><time>2026-04-11T17:00:11.979Z</time></trkpt><trkpt lat="45.463137981700704" lon="7.8982939669931085"><ele>233.0</ele><time>2026-04-11T17:00:13.979Z</time></trkpt><trkpt lat="45.4631703846134" lon="7.898378432630884"><ele>233.00000000000003</ele><time>2026-04-11T17:00:14.979Z</time></trkpt><trkpt lat="45.46322401392072" lon="7.898507516699989"><ele>233.0</ele><time>2026-04-11T17:00:15.979Z</time></trkpt><trkpt lat="45.46327936347117" lon="7.8986415903738525"><ele>232.8</ele><time>2026-04-11T17:00:16.979Z</time></trkpt><trkpt lat="45.46335322774109" lon="7.89878567321446"><ele>232.60000000000002</ele><time>2026-04-11T17:00:17.979Z</time></trkpt><trkpt lat="45.46340810222588" lon="7.898901527374668"><ele>232.39999999999998</ele><time>2026-04-11T17:00:18.979Z</time></trkpt><trkpt lat="45.46346501557172" lon="7.8990267012757265"><ele>232.2</ele><time>2026-04-11T17:00:19.979Z</time></trkpt><trkpt lat="45.46352036556125" lon="7.899161035043032"><ele>232.0</ele><time>2026-04-11T17:00:20.979Z</time></trkpt><trkpt lat="45.463580912729256" lon="7.8992953427817305"><ele>232.0</ele><time>2026-04-11T17:00:21.979Z</time></trkpt><trkpt lat="45.46363396629014" lon="7.899416379545653"><ele>232.0</ele><time>2026-04-11T17:00:22.979Z</time></trkpt><trkpt lat="45.463682284693995" lon="7.899516303918469"><ele>232.0</ele><time>2026-04-11T17:00:23.979Z</time></trkpt><trkpt lat="45.46371715533971" lon="7.899618286279253"><ele>232.0</ele><time>2026-04-11T17:00:24.979Z</time></trkpt><trkpt lat="45.46368512014309" lon="7.899767781191958"><ele>232.0</ele><time>2026-04-11T17:00:26.979Z</time></trkpt><trkpt lat="45.46361786797706" lon="7.899816810203268"><ele>232.0</ele><time>2026-04-11T17:00:27.979Z</time></trkpt><trkpt lat="45.46355711086802" lon="7.899875573607389"><ele>232.0</ele><time>2026-04-11T17:00:28.979Z</time></trkpt><trkpt lat="45.463479763139766" lon="7.899938243502735"><ele>232.0</ele><time>2026-04-11T17:00:29.979Z</time></trkpt><trkpt lat="45.46339839034432" lon="7.8999879672036775"><ele>232.0</ele><time>2026-04-11T17:00:30.979Z</time></trkpt><trkpt lat="45.463301921567314" lon="7.90007418509004"><ele>232.0</ele><time>2026-04-11T17:00:31.979Z</time></trkpt><trkpt lat="45.4632169620164" lon="7.900147016460154"><ele>231.99999999999997</ele><time>2026-04-11T17:00:32.979Z</time></trkpt><trkpt lat="45.46314342693415" lon="7.900230410479217"><ele>232.0</ele><time>2026-04-11T17:00:34.979Z</time></trkpt><trkpt lat="45.463129832766604" lon="7.9003279722831"><ele>232.0</ele><time>2026-04-11T17:00:36.979Z</time></trkpt><trkpt lat="45.46319798653719" lon="7.9004325245724"><ele>232.0</ele><time>2026-04-11T17:00:38.979Z</time></trkpt><trkpt lat="45.46325305686176" lon="7.900523284576613"><ele>231.99999999999997</ele><time>2026-04-11T17:00:39.979Z</time></trkpt><trkpt lat="45.463306205748644" lon="7.900625409342548"><ele>232.0</ele><time>2026-04-11T17:00:40.979Z</time></trkpt><trkpt lat="45.463365191822184" lon="7.900738228948108"><ele>232.0</ele><time>2026-04-11T17:00:41.98Z</time></trkpt><trkpt lat="45.46341894965607" lon="7.900854139012601"><ele>232.0</ele><time>2026-04-11T17:00:42.98Z</time></trkpt><trkpt lat="45.46349395147006" lon="7.900982509966112"><ele>232.0</ele><time>2026-04-11T17:00:43.98Z</time></trkpt><trkpt lat="45.46355416446052" lon="7.901125730447728"><ele>232.0</ele><time>2026-04-11T17:00:44.98Z</time></trkpt><trkpt lat="45.46362033376456" lon="7.90127218968309"><ele>232.5</ele><time>2026-04-11T17:00:45.98Z</time></trkpt><trkpt lat="45.46366593449952" lon="7.901435069987272"><ele>233.0</ele><time>2026-04-11T17:00:46.98Z</time></trkpt><trkpt lat="45.4636973726877" lon="7.901610614211736"><ele>233.5</ele><time>2026-04-11T17:00:47.98Z</time></trkpt><trkpt lat="45.46371133738495" lon="7.901793671911812"><ele>234.0</ele><time>2026-04-11T17:00:48.98Z</time></trkpt><trkpt lat="45.46372128946323" lon="7.901942452930999"><ele>234.0</ele><time>2026-04-11T17:00:49.98Z</time></trkpt><trkpt lat="45.463759225468564" lon="7.902045777622637"><ele>234.0</ele><time>2026-04-11T17:00:50.98Z</time></trkpt><trkpt lat="45.46381235604112" lon="7.902140156655563"><ele>234.0</ele><time>2026-04-11T17:00:51.98Z</time></trkpt><trkpt lat="45.463857230066914" lon="7.902276831501114"><ele>234.0</ele><time>2026-04-11T17:00:53.98Z</time></trkpt><trkpt lat="45.46379860656818" lon="7.9023776089057085"><ele>234.0</ele><time>2026-04-11T17:00:55.98Z</time></trkpt><trkpt lat="45.46374362109045" lon="7.902454313427373"><ele>234.0</ele><time>2026-04-11T17:00:56.98Z</time></trkpt><trkpt lat="45.463668467329484" lon="7.902526538025773"><ele>234.39999999999998</ele><time>2026-04-11T17:00:57.98Z</time></trkpt><trkpt lat="45.4635962125011" lon="7.902600208429343"><ele>234.79999999999998</ele><time>2026-04-11T17:00:58.98Z</time></trkpt><trkpt lat="45.46353753350281" lon="7.902668155642803"><ele>235.20000000000002</ele><time>2026-04-11T17:00:59.98Z</time></trkpt><trkpt lat="45.46347726959051" lon="7.902740352541626"><ele>235.60000000000002</ele><time>2026-04-11T17:01:00.98Z</time></trkpt><trkpt lat="45.4634114662655" lon="7.902809340972359"><ele>236.0</ele><time>2026-04-11T17:01:01.98Z</time></trkpt><trkpt lat="45.46326747366187" lon="7.902826651260118"><ele>236.0</ele><time>2026-04-11T17:01:02.98Z</time></trkpt><trkpt lat="45.46313969769787" lon="7.9029402369737705"><ele>236.0</ele><time>2026-04-11T17:01:03.98Z</time></trkpt><trkpt lat="45.46302545899315" lon="7.903058290836121"><ele>236.0</ele><time>2026-04-11T17:01:04.98Z</time></trkpt><trkpt lat="45.46291727361261" lon="7.903141309772233"><ele>236.0</ele><time>2026-04-11T17:01:05.98Z</time></trkpt><trkpt lat="45.46280299196137" lon="7.9032056383986005"><ele>236.0</ele><time>2026-04-11T17:01:06.98Z</time></trkpt><trkpt lat="45.462684777484846" lon="7.903266608797205"><ele>236.0</ele><time>2026-04-11T17:01:07.98Z</time></trkpt><trkpt lat="45.4625729556445" lon="7.903321262238273"><ele>236.0</ele><time>2026-04-11T17:01:08.98Z</time></trkpt><trkpt lat="45.46245725800659" lon="7.903381514123283"><ele>236.0</ele><time>2026-04-11T17:01:09.98Z</time></trkpt><trkpt lat="45.46234661173648" lon="7.903416492157967"><ele>236.0</ele><time>2026-04-11T17:01:10.98Z</time></trkpt><trkpt lat="45.46223126491679" lon="7.903472589024336"><ele>236.0</ele><time>2026-04-11T17:01:11.98Z</time></trkpt><trkpt lat="45.46209851478218" lon="7.903553199917417"><ele>236.0</ele><time>2026-04-11T17:01:12.98Z</time></trkpt><trkpt lat="45.4619906965564" lon="7.903616174449366"><ele>236.0</ele><time>2026-04-11T17:01:13.98Z</time></trkpt><trkpt lat="45.461904819972396" lon="7.903679971089257"><ele>236.00000000000003</ele><time>2026-04-11T17:01:14.98Z</time></trkpt><trkpt lat="45.46184575194829" lon="7.903745317322467"><ele>236.0</ele><time>2026-04-11T17:01:15.98Z</time></trkpt><trkpt lat="45.46178961658265" lon="7.903807425087217"><ele>236.0</ele><time>2026-04-11T17:01:16.98Z</time></trkpt><trkpt lat="45.46171859837649" lon="7.903865143753376"><ele>236.0</ele><time>2026-04-11T17:01:17.98Z</time></trkpt><trkpt lat="45.461637177070145" lon="7.903943372333003"><ele>236.00000000000003</ele><time>2026-04-11T17:01:18.98Z</time></trkpt><trkpt lat="45.46155942125706" lon="7.9040169690221305"><ele>236.0</ele><time>2026-04-11T17:01:19.98Z</time></trkpt><trkpt lat="45.46148637482546" lon="7.904090371021646"><ele>236.00000000000003</ele><time>2026-04-11T17:01:20.98Z</time></trkpt><trkpt lat="45.46141250617168" lon="7.904134113371717"><ele>236.0</ele><time>2026-04-11T17:01:21.98Z</time></trkpt><trkpt lat="45.461338727589386" lon="7.904183499744195"><ele>236.0</ele><time>2026-04-11T17:01:22.98Z</time></trkpt><trkpt lat="45.4612741403939" lon="7.904210719730991"><ele>236.0</ele><time>2026-04-11T17:01:23.981Z</time></trkpt><trkpt lat="45.46134075751556" lon="7.904316072781307"><ele>236.00000000000003</ele><time>2026-04-11T17:01:28.981Z</time></trkpt><trkpt lat="45.46134608450002" lon="7.904445137435889"><ele>236.0</ele><time>2026-04-11T17:01:30.981Z</time></trkpt><trkpt lat="45.46141330535731" lon="7.904502325637639"><ele>236.0</ele><time>2026-04-11T17:01:32.981Z</time></trkpt><trkpt lat="45.46130062365227" lon="7.904555881862721"><ele>236.0</ele><time>2026-04-11T17:01:35.981Z</time></trkpt><trkpt lat="45.46123818820514" lon="7.9046143474570965"><ele>236.0</ele><time>2026-04-11T17:01:37.981Z</time></trkpt><trkpt lat="45.46119691436865" lon="7.904691779432848"><ele>236.0</ele><time>2026-04-11T17:01:41.981Z</time></trkpt><trkpt lat="45.461420259901935" lon="7.90504955587604"><ele>236.16666666666669</ele><time>2026-04-11T17:01:45.977Z</time></trkpt><trkpt lat="45.461478475867224" lon="7.905173464397588"><ele>236.33333333333334</ele><time>2026-04-11T17:01:47.978Z</time></trkpt><trkpt lat="45.46152988630016" lon="7.905315340219548"><ele>236.5</ele><time>2026-04-11T17:01:49.977Z</time></trkpt><trkpt lat="45.46158446451719" lon="7.905389776641193"><ele>236.66666666666669</ele><time>2026-04-11T17:01:50.977Z</time></trkpt><trkpt lat="45.461646419168375" lon="7.9054527551572145"><ele>236.83333333333334</ele><time>2026-04-11T17:01:51.977Z</time></trkpt><trkpt lat="45.46167934820684" lon="7.90553145786696"><ele>237.0</ele><time>2026-04-11T17:01:52.977Z</time></trkpt><trkpt lat="45.46173334684877" lon="7.905619829159513"><ele>237.0</ele><time>2026-04-11T17:01:53.978Z</time></trkpt><trkpt lat="45.46178012700484" lon="7.90570178513805"><ele>237.0</ele><time>2026-04-11T17:01:54.978Z</time></trkpt><trkpt lat="45.461824415820246" lon="7.905775693538681"><ele>237.0</ele><time>2026-04-11T17:01:55.978Z</time></trkpt><trkpt lat="45.46186658436442" lon="7.905863271778577"><ele>237.0</ele><time>2026-04-11T17:01:57.977Z</time></trkpt><trkpt lat="45.46183882229765" lon="7.905956101095544"><ele>237.0</ele><time>2026-04-11T17:01:59.977Z</time></trkpt><trkpt lat="45.46172912049192" lon="7.9060371175198165"><ele>237.0</ele><time>2026-04-11T17:02:01.977Z</time></trkpt><trkpt lat="45.461666946550594" lon="7.906076323611605"><ele>237.33333333333334</ele><time>2026-04-11T17:02:02.977Z</time></trkpt><trkpt lat="45.46160947529814" lon="7.906117889624714"><ele>237.66666666666669</ele><time>2026-04-11T17:02:03.977Z</time></trkpt><trkpt lat="45.4615404858638" lon="7.906158803356015"><ele>238.0</ele><time>2026-04-11T17:02:04.977Z</time></trkpt><trkpt lat="45.461446676531935" lon="7.906225147209936"><ele>238.33333333333334</ele><time>2026-04-11T17:02:05.977Z</time></trkpt><trkpt lat="45.46137112176702" lon="7.906287193238906"><ele>238.66666666666669</ele><time>2026-04-11T17:02:06.977Z</time></trkpt><trkpt lat="45.461383062581874" lon="7.906451708984135"><ele>239.0</ele><time>2026-04-11T17:02:08.977Z</time></trkpt><trkpt lat="45.461411813177456" lon="7.9065493067622805"><ele>239.00000000000003</ele><time>2026-04-11T17:02:09.977Z</time></trkpt><trkpt lat="45.46143932487229" lon="7.9066435850189"><ele>239.0</ele><time>2026-04-11T17:02:10.977Z</time></trkpt><trkpt lat="45.46147672899552" lon="7.906758136610289"><ele>239.0</ele><time>2026-04-11T17:02:11.977Z</time></trkpt><trkpt lat="45.46151905473998" lon="7.906852660136768"><ele>239.0</ele><time>2026-04-11T17:02:12.977Z</time></trkpt><trkpt lat="45.4615429989569" lon="7.9069477402089055"><ele>239.00000000000003</ele><time>2026-04-11T17:02:13.977Z</time></trkpt><trkpt lat="45.46155573951269" lon="7.9071023596143375"><ele>239.0</ele><time>2026-04-11T17:02:15.977Z</time></trkpt><trkpt lat="45.46159133585292" lon="7.907227440628477"><ele>238.0</ele><time>2026-04-11T17:02:17.977Z</time></trkpt><trkpt lat="45.461557991319005" lon="7.907311514832086"><ele>238.0</ele><time>2026-04-11T17:02:22.977Z</time></trkpt><trkpt lat="45.461557991319005" lon="7.907311514832086"><ele>238.0</ele><time>2026-04-11T17:02:22.977Z</time></trkpt><trkpt lat="45.461557991319005" lon="7.907311514832086"><ele>238.0</ele><time>2026-04-11T17:02:22.977Z</time></trkpt></trkseg></trk></gpx>